<?xml version="1.0" encoding="UTF-8" standalone="no" ?>
<gpx xmlns="http://www.topografix.com/GPX/1/1" xmlns:xsi="http://www.w3.org/2001/XMLSchema-instance" xsi:schemaLocation="http://www.topografix.com/GPX/1/1 http://www.topografix.com/GPX/1/1/gpx.xsd" version="1.1" creator="VisuGPX - https://www.visugpx.com">
  <metadata>
    <name>Rando filles Suisse Normande 2013</name>
    <desc><![CDATA[Rando filles Suisse Normande 2013]]></desc>
  </metadata>
  <trk>
    <name><![CDATA[26-MAI-13 18:55:42]]></name>
    <trkseg>
      <trkpt lat="48.91644" lon="-0.47585">
        <ele>13.6</ele>
        <time>2013-05-25T06:50:35Z</time>
      </trkpt>
      <trkpt lat="48.91644" lon="-0.47583">
        <ele>11.19</ele>
        <time>2013-05-25T06:50:36Z</time>
      </trkpt>
      <trkpt lat="48.91647" lon="-0.47575">
        <ele>14.56</ele>
        <time>2013-05-25T06:50:40Z</time>
      </trkpt>
      <trkpt lat="48.91648" lon="-0.47571">
        <ele>16</ele>
        <time>2013-05-25T06:50:42Z</time>
      </trkpt>
      <trkpt lat="48.91649" lon="-0.47557">
        <ele>20.32</ele>
        <time>2013-05-25T06:50:48Z</time>
      </trkpt>
      <trkpt lat="48.91651" lon="-0.47552">
        <ele>21.77</ele>
        <time>2013-05-25T06:50:50Z</time>
      </trkpt>
      <trkpt lat="48.91653" lon="-0.47545">
        <ele>23.69</ele>
        <time>2013-05-25T06:50:53Z</time>
      </trkpt>
      <trkpt lat="48.91654" lon="-0.47539">
        <ele>25.13</ele>
        <time>2013-05-25T06:50:56Z</time>
      </trkpt>
      <trkpt lat="48.91655" lon="-0.4753">
        <ele>27.05</ele>
        <time>2013-05-25T06:50:59Z</time>
      </trkpt>
      <trkpt lat="48.91655" lon="-0.47526">
        <ele>28.02</ele>
        <time>2013-05-25T06:51:01Z</time>
      </trkpt>
      <trkpt lat="48.91654" lon="-0.47524">
        <ele>28.5</ele>
        <time>2013-05-25T06:51:02Z</time>
      </trkpt>
      <trkpt lat="48.91654" lon="-0.47511">
        <ele>33.3</ele>
        <time>2013-05-25T06:51:10Z</time>
      </trkpt>
      <trkpt lat="48.91655" lon="-0.475">
        <ele>33.78</ele>
        <time>2013-05-25T06:51:16Z</time>
      </trkpt>
      <trkpt lat="48.91657" lon="-0.47489">
        <ele>36.19</ele>
        <time>2013-05-25T06:51:22Z</time>
      </trkpt>
      <trkpt lat="48.91656" lon="-0.47462">
        <ele>39.07</ele>
        <time>2013-05-25T06:51:36Z</time>
      </trkpt>
      <trkpt lat="48.91655" lon="-0.4744">
        <ele>39.07</ele>
        <time>2013-05-25T06:51:47Z</time>
      </trkpt>
      <trkpt lat="48.91655" lon="-0.47436">
        <ele>39.07</ele>
        <time>2013-05-25T06:51:49Z</time>
      </trkpt>
      <trkpt lat="48.91657" lon="-0.4742">
        <ele>39.07</ele>
        <time>2013-05-25T06:51:58Z</time>
      </trkpt>
      <trkpt lat="48.9166" lon="-0.47404">
        <ele>38.11</ele>
        <time>2013-05-25T06:52:05Z</time>
      </trkpt>
      <trkpt lat="48.91665" lon="-0.47387">
        <ele>38.11</ele>
        <time>2013-05-25T06:52:15Z</time>
      </trkpt>
      <trkpt lat="48.9167" lon="-0.47371">
        <ele>38.11</ele>
        <time>2013-05-25T06:52:24Z</time>
      </trkpt>
      <trkpt lat="48.91677" lon="-0.47367">
        <ele>38.59</ele>
        <time>2013-05-25T06:52:29Z</time>
      </trkpt>
      <trkpt lat="48.91679" lon="-0.47356">
        <ele>38.11</ele>
        <time>2013-05-25T06:52:34Z</time>
      </trkpt>
      <trkpt lat="48.91686" lon="-0.47333">
        <ele>38.59</ele>
        <time>2013-05-25T06:52:46Z</time>
      </trkpt>
      <trkpt lat="48.91687" lon="-0.47325">
        <ele>39.07</ele>
        <time>2013-05-25T06:52:50Z</time>
      </trkpt>
      <trkpt lat="48.9169" lon="-0.47315">
        <ele>39.07</ele>
        <time>2013-05-25T06:52:55Z</time>
      </trkpt>
      <trkpt lat="48.91697" lon="-0.47296">
        <ele>39.55</ele>
        <time>2013-05-25T06:53:04Z</time>
      </trkpt>
      <trkpt lat="48.91697" lon="-0.47287">
        <ele>40.51</ele>
        <time>2013-05-25T06:53:07Z</time>
      </trkpt>
      <trkpt lat="48.91705" lon="-0.47272">
        <ele>40.99</ele>
        <time>2013-05-25T06:53:17Z</time>
      </trkpt>
      <trkpt lat="48.91707" lon="-0.47268">
        <ele>40.99</ele>
        <time>2013-05-25T06:53:21Z</time>
      </trkpt>
      <trkpt lat="48.91712" lon="-0.47256">
        <ele>41.47</ele>
        <time>2013-05-25T06:53:28Z</time>
      </trkpt>
      <trkpt lat="48.91714" lon="-0.47252">
        <ele>40.99</ele>
        <time>2013-05-25T06:53:30Z</time>
      </trkpt>
      <trkpt lat="48.91717" lon="-0.47241">
        <ele>41.95</ele>
        <time>2013-05-25T06:53:36Z</time>
      </trkpt>
      <trkpt lat="48.91718" lon="-0.47234">
        <ele>41.95</ele>
        <time>2013-05-25T06:53:39Z</time>
      </trkpt>
      <trkpt lat="48.91719" lon="-0.47223">
        <ele>41.95</ele>
        <time>2013-05-25T06:53:47Z</time>
      </trkpt>
      <trkpt lat="48.91718" lon="-0.472">
        <ele>42.92</ele>
        <time>2013-05-25T06:54:02Z</time>
      </trkpt>
      <trkpt lat="48.91717" lon="-0.47187">
        <ele>42.92</ele>
        <time>2013-05-25T06:54:06Z</time>
      </trkpt>
      <trkpt lat="48.91716" lon="-0.4717">
        <ele>43.4</ele>
        <time>2013-05-25T06:54:12Z</time>
      </trkpt>
      <trkpt lat="48.91718" lon="-0.47166">
        <ele>43.4</ele>
        <time>2013-05-25T06:54:15Z</time>
      </trkpt>
      <trkpt lat="48.91718" lon="-0.47164">
        <ele>43.88</ele>
        <time>2013-05-25T06:54:17Z</time>
      </trkpt>
      <trkpt lat="48.91721" lon="-0.47157">
        <ele>44.36</ele>
        <time>2013-05-25T06:54:20Z</time>
      </trkpt>
      <trkpt lat="48.91724" lon="-0.47151">
        <ele>44.36</ele>
        <time>2013-05-25T06:54:24Z</time>
      </trkpt>
      <trkpt lat="48.91728" lon="-0.47137">
        <ele>44.84</ele>
        <time>2013-05-25T06:54:32Z</time>
      </trkpt>
      <trkpt lat="48.91729" lon="-0.47131">
        <ele>45.32</ele>
        <time>2013-05-25T06:54:36Z</time>
      </trkpt>
      <trkpt lat="48.91731" lon="-0.47127">
        <ele>45.32</ele>
        <time>2013-05-25T06:54:39Z</time>
      </trkpt>
      <trkpt lat="48.91734" lon="-0.47124">
        <ele>45.8</ele>
        <time>2013-05-25T06:54:41Z</time>
      </trkpt>
      <trkpt lat="48.91744" lon="-0.47106">
        <ele>48.2</ele>
        <time>2013-05-25T06:54:54Z</time>
      </trkpt>
      <trkpt lat="48.9175" lon="-0.47098">
        <ele>49.65</ele>
        <time>2013-05-25T06:55:01Z</time>
      </trkpt>
      <trkpt lat="48.9176" lon="-0.4708">
        <ele>52.53</ele>
        <time>2013-05-25T06:55:14Z</time>
      </trkpt>
      <trkpt lat="48.91761" lon="-0.47075">
        <ele>53.01</ele>
        <time>2013-05-25T06:55:17Z</time>
      </trkpt>
      <trkpt lat="48.91762" lon="-0.47072">
        <ele>53.49</ele>
        <time>2013-05-25T06:55:19Z</time>
      </trkpt>
      <trkpt lat="48.91763" lon="-0.47065">
        <ele>54.45</ele>
        <time>2013-05-25T06:55:24Z</time>
      </trkpt>
      <trkpt lat="48.91771" lon="-0.47049">
        <ele>56.86</ele>
        <time>2013-05-25T06:55:35Z</time>
      </trkpt>
      <trkpt lat="48.91783" lon="-0.4704">
        <ele>59.74</ele>
        <time>2013-05-25T06:55:50Z</time>
      </trkpt>
      <trkpt lat="48.91791" lon="-0.47038">
        <ele>61.18</ele>
        <time>2013-05-25T06:56:04Z</time>
      </trkpt>
      <trkpt lat="48.91799" lon="-0.47038">
        <ele>64.55</ele>
        <time>2013-05-25T06:56:18Z</time>
      </trkpt>
      <trkpt lat="48.91806" lon="-0.47033">
        <ele>65.99</ele>
        <time>2013-05-25T06:56:25Z</time>
      </trkpt>
      <trkpt lat="48.91815" lon="-0.47027">
        <ele>66.95</ele>
        <time>2013-05-25T06:56:32Z</time>
      </trkpt>
      <trkpt lat="48.91818" lon="-0.47025">
        <ele>67.43</ele>
        <time>2013-05-25T06:56:34Z</time>
      </trkpt>
      <trkpt lat="48.91826" lon="-0.47016">
        <ele>68.87</ele>
        <time>2013-05-25T06:56:42Z</time>
      </trkpt>
      <trkpt lat="48.91826" lon="-0.47015">
        <ele>69.35</ele>
        <time>2013-05-25T06:56:44Z</time>
      </trkpt>
      <trkpt lat="48.9183" lon="-0.47002">
        <ele>71.27</ele>
        <time>2013-05-25T06:56:56Z</time>
      </trkpt>
      <trkpt lat="48.91838" lon="-0.46988">
        <ele>73.2</ele>
        <time>2013-05-25T06:57:08Z</time>
      </trkpt>
      <trkpt lat="48.91847" lon="-0.46978">
        <ele>76.08</ele>
        <time>2013-05-25T06:57:19Z</time>
      </trkpt>
      <trkpt lat="48.91851" lon="-0.46971">
        <ele>77.04</ele>
        <time>2013-05-25T06:57:27Z</time>
      </trkpt>
      <trkpt lat="48.91852" lon="-0.4697">
        <ele>78</ele>
        <time>2013-05-25T06:57:28Z</time>
      </trkpt>
      <trkpt lat="48.91855" lon="-0.46966">
        <ele>78.48</ele>
        <time>2013-05-25T06:57:32Z</time>
      </trkpt>
      <trkpt lat="48.91859" lon="-0.46959">
        <ele>79.45</ele>
        <time>2013-05-25T06:57:38Z</time>
      </trkpt>
      <trkpt lat="48.91863" lon="-0.46954">
        <ele>80.41</ele>
        <time>2013-05-25T06:57:43Z</time>
      </trkpt>
      <trkpt lat="48.91865" lon="-0.46948">
        <ele>81.85</ele>
        <time>2013-05-25T06:57:49Z</time>
      </trkpt>
      <trkpt lat="48.91872" lon="-0.46938">
        <ele>83.29</ele>
        <time>2013-05-25T06:58:00Z</time>
      </trkpt>
      <trkpt lat="48.91876" lon="-0.46928">
        <ele>84.73</ele>
        <time>2013-05-25T06:58:10Z</time>
      </trkpt>
      <trkpt lat="48.91882" lon="-0.46915">
        <ele>87.14</ele>
        <time>2013-05-25T06:58:20Z</time>
      </trkpt>
      <trkpt lat="48.91883" lon="-0.46914">
        <ele>87.14</ele>
        <time>2013-05-25T06:58:21Z</time>
      </trkpt>
      <trkpt lat="48.91888" lon="-0.46904">
        <ele>89.06</ele>
        <time>2013-05-25T06:58:33Z</time>
      </trkpt>
      <trkpt lat="48.9189" lon="-0.46901">
        <ele>90.02</ele>
        <time>2013-05-25T06:58:36Z</time>
      </trkpt>
      <trkpt lat="48.91894" lon="-0.46894">
        <ele>90.98</ele>
        <time>2013-05-25T06:58:43Z</time>
      </trkpt>
      <trkpt lat="48.91899" lon="-0.46883">
        <ele>92.42</ele>
        <time>2013-05-25T06:58:53Z</time>
      </trkpt>
      <trkpt lat="48.91898" lon="-0.46876">
        <ele>93.39</ele>
        <time>2013-05-25T06:59:03Z</time>
      </trkpt>
      <trkpt lat="48.91905" lon="-0.46861">
        <ele>96.27</ele>
        <time>2013-05-25T06:59:17Z</time>
      </trkpt>
      <trkpt lat="48.91909" lon="-0.46846">
        <ele>98.67</ele>
        <time>2013-05-25T06:59:31Z</time>
      </trkpt>
      <trkpt lat="48.91914" lon="-0.46835">
        <ele>101.56</ele>
        <time>2013-05-25T06:59:45Z</time>
      </trkpt>
      <trkpt lat="48.91918" lon="-0.46817">
        <ele>103.48</ele>
        <time>2013-05-25T06:59:58Z</time>
      </trkpt>
      <trkpt lat="48.91918" lon="-0.46799">
        <ele>105.88</ele>
        <time>2013-05-25T07:00:11Z</time>
      </trkpt>
      <trkpt lat="48.91922" lon="-0.46786">
        <ele>109.25</ele>
        <time>2013-05-25T07:00:27Z</time>
      </trkpt>
      <trkpt lat="48.91928" lon="-0.46766">
        <ele>111.65</ele>
        <time>2013-05-25T07:00:42Z</time>
      </trkpt>
      <trkpt lat="48.91934" lon="-0.46744">
        <ele>114.05</ele>
        <time>2013-05-25T07:00:54Z</time>
      </trkpt>
      <trkpt lat="48.91935" lon="-0.46738">
        <ele>115.01</ele>
        <time>2013-05-25T07:01:00Z</time>
      </trkpt>
      <trkpt lat="48.91937" lon="-0.46723">
        <ele>117.42</ele>
        <time>2013-05-25T07:01:11Z</time>
      </trkpt>
      <trkpt lat="48.91937" lon="-0.46709">
        <ele>119.34</ele>
        <time>2013-05-25T07:01:22Z</time>
      </trkpt>
      <trkpt lat="48.91939" lon="-0.46701">
        <ele>121.74</ele>
        <time>2013-05-25T07:01:33Z</time>
      </trkpt>
      <trkpt lat="48.91938" lon="-0.46684">
        <ele>125.11</ele>
        <time>2013-05-25T07:01:45Z</time>
      </trkpt>
      <trkpt lat="48.91939" lon="-0.46666">
        <ele>127.99</ele>
        <time>2013-05-25T07:02:00Z</time>
      </trkpt>
      <trkpt lat="48.9194" lon="-0.46649">
        <ele>130.88</ele>
        <time>2013-05-25T07:02:15Z</time>
      </trkpt>
      <trkpt lat="48.91945" lon="-0.46631">
        <ele>134.24</ele>
        <time>2013-05-25T07:02:30Z</time>
      </trkpt>
      <trkpt lat="48.9194" lon="-0.46625">
        <ele>135.68</ele>
        <time>2013-05-25T07:02:44Z</time>
      </trkpt>
      <trkpt lat="48.91945" lon="-0.46613">
        <ele>137.13</ele>
        <time>2013-05-25T07:02:50Z</time>
      </trkpt>
      <trkpt lat="48.91953" lon="-0.46589">
        <ele>140.01</ele>
        <time>2013-05-25T07:03:06Z</time>
      </trkpt>
      <trkpt lat="48.91956" lon="-0.46576">
        <ele>141.45</ele>
        <time>2013-05-25T07:03:17Z</time>
      </trkpt>
      <trkpt lat="48.91957" lon="-0.46575">
        <ele>141.93</ele>
        <time>2013-05-25T07:03:18Z</time>
      </trkpt>
      <trkpt lat="48.91962" lon="-0.46561">
        <ele>143.37</ele>
        <time>2013-05-25T07:03:29Z</time>
      </trkpt>
      <trkpt lat="48.91964" lon="-0.46554">
        <ele>144.34</ele>
        <time>2013-05-25T07:03:36Z</time>
      </trkpt>
      <trkpt lat="48.91965" lon="-0.46546">
        <ele>146.74</ele>
        <time>2013-05-25T07:03:43Z</time>
      </trkpt>
      <trkpt lat="48.91968" lon="-0.4654">
        <ele>147.7</ele>
        <time>2013-05-25T07:03:55Z</time>
      </trkpt>
      <trkpt lat="48.91966" lon="-0.4654">
        <ele>147.7</ele>
        <time>2013-05-25T07:04:15Z</time>
      </trkpt>
      <trkpt lat="48.91966" lon="-0.46539">
        <ele>144.34</ele>
        <time>2013-05-25T07:04:27Z</time>
      </trkpt>
      <trkpt lat="48.91965" lon="-0.46539">
        <ele>147.7</ele>
        <time>2013-05-25T07:04:28Z</time>
      </trkpt>
      <trkpt lat="48.91964" lon="-0.46538">
        <ele>147.22</ele>
        <time>2013-05-25T07:04:50Z</time>
      </trkpt>
      <trkpt lat="48.91966" lon="-0.46537">
        <ele>147.22</ele>
        <time>2013-05-25T07:05:11Z</time>
      </trkpt>
      <trkpt lat="48.91969" lon="-0.46536">
        <ele>147.7</ele>
        <time>2013-05-25T07:05:25Z</time>
      </trkpt>
      <trkpt lat="48.91969" lon="-0.46533">
        <ele>148.18</ele>
        <time>2013-05-25T07:05:59Z</time>
      </trkpt>
      <trkpt lat="48.91969" lon="-0.46533">
        <ele>147.7</ele>
        <time>2013-05-25T07:06:21Z</time>
      </trkpt>
      <trkpt lat="48.91968" lon="-0.46531">
        <ele>148.66</ele>
        <time>2013-05-25T07:06:34Z</time>
      </trkpt>
      <trkpt lat="48.91968" lon="-0.46532">
        <ele>147.7</ele>
        <time>2013-05-25T07:06:44Z</time>
      </trkpt>
      <trkpt lat="48.91968" lon="-0.46532">
        <ele>148.18</ele>
        <time>2013-05-25T07:06:56Z</time>
      </trkpt>
      <trkpt lat="48.91967" lon="-0.46534">
        <ele>147.22</ele>
        <time>2013-05-25T07:07:13Z</time>
      </trkpt>
      <trkpt lat="48.91967" lon="-0.46534">
        <ele>151.54</ele>
        <time>2013-05-25T07:07:22Z</time>
      </trkpt>
      <trkpt lat="48.91967" lon="-0.46534">
        <ele>146.26</ele>
        <time>2013-05-25T07:07:25Z</time>
      </trkpt>
      <trkpt lat="48.91967" lon="-0.46534">
        <ele>150.1</ele>
        <time>2013-05-25T07:07:26Z</time>
      </trkpt>
      <trkpt lat="48.91967" lon="-0.46534">
        <ele>152.99</ele>
        <time>2013-05-25T07:07:27Z</time>
      </trkpt>
      <trkpt lat="48.91967" lon="-0.46534">
        <ele>149.14</ele>
        <time>2013-05-25T07:07:28Z</time>
      </trkpt>
      <trkpt lat="48.91967" lon="-0.46534">
        <ele>148.18</ele>
        <time>2013-05-25T07:07:30Z</time>
      </trkpt>
      <trkpt lat="48.91968" lon="-0.46536">
        <ele>148.18</ele>
        <time>2013-05-25T07:07:47Z</time>
      </trkpt>
      <trkpt lat="48.91968" lon="-0.46535">
        <ele>147.7</ele>
        <time>2013-05-25T07:07:58Z</time>
      </trkpt>
      <trkpt lat="48.91968" lon="-0.46533">
        <ele>148.66</ele>
        <time>2013-05-25T07:08:10Z</time>
      </trkpt>
      <trkpt lat="48.91968" lon="-0.46533">
        <ele>148.66</ele>
        <time>2013-05-25T07:08:12Z</time>
      </trkpt>
      <trkpt lat="48.91969" lon="-0.46528">
        <ele>149.62</ele>
        <time>2013-05-25T07:08:16Z</time>
      </trkpt>
      <trkpt lat="48.91973" lon="-0.46518">
        <ele>151.06</ele>
        <time>2013-05-25T07:08:25Z</time>
      </trkpt>
      <trkpt lat="48.91974" lon="-0.46516">
        <ele>151.54</ele>
        <time>2013-05-25T07:08:27Z</time>
      </trkpt>
      <trkpt lat="48.9198" lon="-0.46501">
        <ele>153.47</ele>
        <time>2013-05-25T07:08:38Z</time>
      </trkpt>
      <trkpt lat="48.91987" lon="-0.46482">
        <ele>156.35</ele>
        <time>2013-05-25T07:08:53Z</time>
      </trkpt>
      <trkpt lat="48.91989" lon="-0.46478">
        <ele>157.79</ele>
        <time>2013-05-25T07:08:58Z</time>
      </trkpt>
      <trkpt lat="48.91991" lon="-0.46475">
        <ele>157.79</ele>
        <time>2013-05-25T07:09:00Z</time>
      </trkpt>
      <trkpt lat="48.91996" lon="-0.46465">
        <ele>159.24</ele>
        <time>2013-05-25T07:09:08Z</time>
      </trkpt>
      <trkpt lat="48.92001" lon="-0.46452">
        <ele>161.64</ele>
        <time>2013-05-25T07:09:21Z</time>
      </trkpt>
      <trkpt lat="48.92002" lon="-0.4645">
        <ele>162.12</ele>
        <time>2013-05-25T07:09:23Z</time>
      </trkpt>
      <trkpt lat="48.92003" lon="-0.46447">
        <ele>162.6</ele>
        <time>2013-05-25T07:09:25Z</time>
      </trkpt>
      <trkpt lat="48.92008" lon="-0.46434">
        <ele>165.48</ele>
        <time>2013-05-25T07:09:38Z</time>
      </trkpt>
      <trkpt lat="48.92011" lon="-0.46423">
        <ele>167.41</ele>
        <time>2013-05-25T07:09:48Z</time>
      </trkpt>
      <trkpt lat="48.92017" lon="-0.46413">
        <ele>170.29</ele>
        <time>2013-05-25T07:10:01Z</time>
      </trkpt>
      <trkpt lat="48.92023" lon="-0.46402">
        <ele>172.69</ele>
        <time>2013-05-25T07:10:14Z</time>
      </trkpt>
      <trkpt lat="48.92032" lon="-0.4639">
        <ele>175.1</ele>
        <time>2013-05-25T07:10:25Z</time>
      </trkpt>
      <trkpt lat="48.92039" lon="-0.46381">
        <ele>177.98</ele>
        <time>2013-05-25T07:10:37Z</time>
      </trkpt>
      <trkpt lat="48.92047" lon="-0.46372">
        <ele>180.38</ele>
        <time>2013-05-25T07:10:49Z</time>
      </trkpt>
      <trkpt lat="48.92056" lon="-0.46364">
        <ele>182.31</ele>
        <time>2013-05-25T07:10:59Z</time>
      </trkpt>
      <trkpt lat="48.92066" lon="-0.46354">
        <ele>184.23</ele>
        <time>2013-05-25T07:11:13Z</time>
      </trkpt>
      <trkpt lat="48.92075" lon="-0.46342">
        <ele>186.15</ele>
        <time>2013-05-25T07:11:26Z</time>
      </trkpt>
      <trkpt lat="48.9208" lon="-0.46332">
        <ele>188.08</ele>
        <time>2013-05-25T07:11:39Z</time>
      </trkpt>
      <trkpt lat="48.92084" lon="-0.46328">
        <ele>189.04</ele>
        <time>2013-05-25T07:11:51Z</time>
      </trkpt>
      <trkpt lat="48.92084" lon="-0.4633">
        <ele>189.04</ele>
        <time>2013-05-25T07:12:13Z</time>
      </trkpt>
      <trkpt lat="48.92082" lon="-0.46329">
        <ele>189.04</ele>
        <time>2013-05-25T07:12:35Z</time>
      </trkpt>
      <trkpt lat="48.92087" lon="-0.46319">
        <ele>190.96</ele>
        <time>2013-05-25T07:12:50Z</time>
      </trkpt>
      <trkpt lat="48.92092" lon="-0.46306">
        <ele>192.4</ele>
        <time>2013-05-25T07:13:01Z</time>
      </trkpt>
      <trkpt lat="48.92099" lon="-0.46292">
        <ele>194.8</ele>
        <time>2013-05-25T07:13:15Z</time>
      </trkpt>
      <trkpt lat="48.92106" lon="-0.46275">
        <ele>197.21</ele>
        <time>2013-05-25T07:13:30Z</time>
      </trkpt>
      <trkpt lat="48.92107" lon="-0.46265">
        <ele>198.65</ele>
        <time>2013-05-25T07:13:42Z</time>
      </trkpt>
      <trkpt lat="48.92113" lon="-0.46253">
        <ele>201.05</ele>
        <time>2013-05-25T07:13:55Z</time>
      </trkpt>
      <trkpt lat="48.92116" lon="-0.46246">
        <ele>202.49</ele>
        <time>2013-05-25T07:14:08Z</time>
      </trkpt>
      <trkpt lat="48.92123" lon="-0.46232">
        <ele>204.9</ele>
        <time>2013-05-25T07:14:20Z</time>
      </trkpt>
      <trkpt lat="48.92132" lon="-0.46217">
        <ele>207.78</ele>
        <time>2013-05-25T07:14:35Z</time>
      </trkpt>
      <trkpt lat="48.92139" lon="-0.46205">
        <ele>210.19</ele>
        <time>2013-05-25T07:14:49Z</time>
      </trkpt>
      <trkpt lat="48.92147" lon="-0.46198">
        <ele>212.59</ele>
        <time>2013-05-25T07:15:01Z</time>
      </trkpt>
      <trkpt lat="48.92154" lon="-0.46193">
        <ele>214.99</ele>
        <time>2013-05-25T07:15:13Z</time>
      </trkpt>
      <trkpt lat="48.92162" lon="-0.46189">
        <ele>217.88</ele>
        <time>2013-05-25T07:15:27Z</time>
      </trkpt>
      <trkpt lat="48.92172" lon="-0.46184">
        <ele>220.28</ele>
        <time>2013-05-25T07:15:39Z</time>
      </trkpt>
      <trkpt lat="48.92179" lon="-0.46179">
        <ele>222.2</ele>
        <time>2013-05-25T07:15:49Z</time>
      </trkpt>
      <trkpt lat="48.92189" lon="-0.46171">
        <ele>224.12</ele>
        <time>2013-05-25T07:16:01Z</time>
      </trkpt>
      <trkpt lat="48.92197" lon="-0.46165">
        <ele>225.57</ele>
        <time>2013-05-25T07:16:09Z</time>
      </trkpt>
      <trkpt lat="48.92199" lon="-0.46164">
        <ele>226.53</ele>
        <time>2013-05-25T07:16:11Z</time>
      </trkpt>
      <trkpt lat="48.92209" lon="-0.46155">
        <ele>228.45</ele>
        <time>2013-05-25T07:16:24Z</time>
      </trkpt>
      <trkpt lat="48.92211" lon="-0.46152">
        <ele>228.93</ele>
        <time>2013-05-25T07:16:35Z</time>
      </trkpt>
      <trkpt lat="48.92218" lon="-0.46149">
        <ele>230.85</ele>
        <time>2013-05-25T07:16:50Z</time>
      </trkpt>
      <trkpt lat="48.92227" lon="-0.46141">
        <ele>233.74</ele>
        <time>2013-05-25T07:17:03Z</time>
      </trkpt>
      <trkpt lat="48.92234" lon="-0.46135">
        <ele>236.14</ele>
        <time>2013-05-25T07:17:17Z</time>
      </trkpt>
      <trkpt lat="48.92239" lon="-0.46132">
        <ele>237.1</ele>
        <time>2013-05-25T07:17:23Z</time>
      </trkpt>
      <trkpt lat="48.92246" lon="-0.46128">
        <ele>238.54</ele>
        <time>2013-05-25T07:17:36Z</time>
      </trkpt>
      <trkpt lat="48.92246" lon="-0.46128">
        <ele>238.06</ele>
        <time>2013-05-25T07:17:57Z</time>
      </trkpt>
      <trkpt lat="48.92247" lon="-0.46127">
        <ele>238.54</ele>
        <time>2013-05-25T07:18:27Z</time>
      </trkpt>
      <trkpt lat="48.92249" lon="-0.46128">
        <ele>239.02</ele>
        <time>2013-05-25T07:18:43Z</time>
      </trkpt>
      <trkpt lat="48.92251" lon="-0.46129">
        <ele>238.54</ele>
        <time>2013-05-25T07:19:10Z</time>
      </trkpt>
      <trkpt lat="48.92249" lon="-0.46131">
        <ele>239.02</ele>
        <time>2013-05-25T07:19:38Z</time>
      </trkpt>
      <trkpt lat="48.92248" lon="-0.46131">
        <ele>238.54</ele>
        <time>2013-05-25T07:20:08Z</time>
      </trkpt>
      <trkpt lat="48.92254" lon="-0.46128">
        <ele>239.99</ele>
        <time>2013-05-25T07:20:16Z</time>
      </trkpt>
      <trkpt lat="48.92256" lon="-0.46127">
        <ele>240.47</ele>
        <time>2013-05-25T07:20:18Z</time>
      </trkpt>
      <trkpt lat="48.92267" lon="-0.46119">
        <ele>243.35</ele>
        <time>2013-05-25T07:20:30Z</time>
      </trkpt>
      <trkpt lat="48.92272" lon="-0.46114">
        <ele>245.75</ele>
        <time>2013-05-25T07:20:38Z</time>
      </trkpt>
      <trkpt lat="48.92283" lon="-0.46111">
        <ele>249.12</ele>
        <time>2013-05-25T07:20:54Z</time>
      </trkpt>
      <trkpt lat="48.92285" lon="-0.46108">
        <ele>249.6</ele>
        <time>2013-05-25T07:20:57Z</time>
      </trkpt>
      <trkpt lat="48.9229" lon="-0.46103">
        <ele>250.56</ele>
        <time>2013-05-25T07:21:03Z</time>
      </trkpt>
      <trkpt lat="48.92294" lon="-0.46099">
        <ele>251.52</ele>
        <time>2013-05-25T07:21:16Z</time>
      </trkpt>
      <trkpt lat="48.92294" lon="-0.461">
        <ele>251.52</ele>
        <time>2013-05-25T07:21:32Z</time>
      </trkpt>
      <trkpt lat="48.92294" lon="-0.461">
        <ele>251.52</ele>
        <time>2013-05-25T07:21:59Z</time>
      </trkpt>
      <trkpt lat="48.92294" lon="-0.461">
        <ele>251.04</ele>
        <time>2013-05-25T07:22:29Z</time>
      </trkpt>
      <trkpt lat="48.92293" lon="-0.46098">
        <ele>251.04</ele>
        <time>2013-05-25T07:22:57Z</time>
      </trkpt>
      <trkpt lat="48.92294" lon="-0.46098">
        <ele>251.04</ele>
        <time>2013-05-25T07:23:10Z</time>
      </trkpt>
      <trkpt lat="48.92294" lon="-0.46097">
        <ele>251.04</ele>
        <time>2013-05-25T07:23:45Z</time>
      </trkpt>
      <trkpt lat="48.92294" lon="-0.46098">
        <ele>251.04</ele>
        <time>2013-05-25T07:24:08Z</time>
      </trkpt>
      <trkpt lat="48.92294" lon="-0.46099">
        <ele>251.04</ele>
        <time>2013-05-25T07:24:45Z</time>
      </trkpt>
      <trkpt lat="48.92293" lon="-0.46097">
        <ele>251.04</ele>
        <time>2013-05-25T07:25:09Z</time>
      </trkpt>
      <trkpt lat="48.92291" lon="-0.46085">
        <ele>251.52</ele>
        <time>2013-05-25T07:25:16Z</time>
      </trkpt>
      <trkpt lat="48.9229" lon="-0.46076">
        <ele>251.04</ele>
        <time>2013-05-25T07:25:22Z</time>
      </trkpt>
      <trkpt lat="48.92289" lon="-0.4607">
        <ele>251.04</ele>
        <time>2013-05-25T07:25:26Z</time>
      </trkpt>
      <trkpt lat="48.92287" lon="-0.46039">
        <ele>250.56</ele>
        <time>2013-05-25T07:25:44Z</time>
      </trkpt>
      <trkpt lat="48.92284" lon="-0.46008">
        <ele>251.04</ele>
        <time>2013-05-25T07:25:59Z</time>
      </trkpt>
      <trkpt lat="48.92284" lon="-0.46006">
        <ele>251.04</ele>
        <time>2013-05-25T07:26:00Z</time>
      </trkpt>
      <trkpt lat="48.92285" lon="-0.45989">
        <ele>250.56</ele>
        <time>2013-05-25T07:26:10Z</time>
      </trkpt>
      <trkpt lat="48.92288" lon="-0.45956">
        <ele>251.04</ele>
        <time>2013-05-25T07:26:27Z</time>
      </trkpt>
      <trkpt lat="48.92292" lon="-0.45926">
        <ele>251.04</ele>
        <time>2013-05-25T07:26:43Z</time>
      </trkpt>
      <trkpt lat="48.92293" lon="-0.45905">
        <ele>250.56</ele>
        <time>2013-05-25T07:26:53Z</time>
      </trkpt>
      <trkpt lat="48.92292" lon="-0.45896">
        <ele>250.56</ele>
        <time>2013-05-25T07:26:57Z</time>
      </trkpt>
      <trkpt lat="48.92291" lon="-0.45863">
        <ele>249.6</ele>
        <time>2013-05-25T07:27:13Z</time>
      </trkpt>
      <trkpt lat="48.92289" lon="-0.45833">
        <ele>249.6</ele>
        <time>2013-05-25T07:27:27Z</time>
      </trkpt>
      <trkpt lat="48.92288" lon="-0.45802">
        <ele>249.12</ele>
        <time>2013-05-25T07:27:42Z</time>
      </trkpt>
      <trkpt lat="48.92286" lon="-0.45767">
        <ele>248.64</ele>
        <time>2013-05-25T07:27:59Z</time>
      </trkpt>
      <trkpt lat="48.92284" lon="-0.45739">
        <ele>248.64</ele>
        <time>2013-05-25T07:28:12Z</time>
      </trkpt>
      <trkpt lat="48.9228" lon="-0.45711">
        <ele>247.68</ele>
        <time>2013-05-25T07:28:26Z</time>
      </trkpt>
      <trkpt lat="48.92276" lon="-0.45682">
        <ele>247.68</ele>
        <time>2013-05-25T07:28:40Z</time>
      </trkpt>
      <trkpt lat="48.92271" lon="-0.45647">
        <ele>246.72</ele>
        <time>2013-05-25T07:28:57Z</time>
      </trkpt>
      <trkpt lat="48.92266" lon="-0.45614">
        <ele>245.75</ele>
        <time>2013-05-25T07:29:14Z</time>
      </trkpt>
      <trkpt lat="48.92259" lon="-0.4558">
        <ele>245.27</ele>
        <time>2013-05-25T07:29:30Z</time>
      </trkpt>
      <trkpt lat="48.9226" lon="-0.45551">
        <ele>245.27</ele>
        <time>2013-05-25T07:29:45Z</time>
      </trkpt>
      <trkpt lat="48.9228" lon="-0.45528">
        <ele>246.23</ele>
        <time>2013-05-25T07:30:03Z</time>
      </trkpt>
      <trkpt lat="48.92302" lon="-0.4551">
        <ele>247.2</ele>
        <time>2013-05-25T07:30:20Z</time>
      </trkpt>
      <trkpt lat="48.92314" lon="-0.45493">
        <ele>246.23</ele>
        <time>2013-05-25T07:30:34Z</time>
      </trkpt>
      <trkpt lat="48.92313" lon="-0.45487">
        <ele>246.72</ele>
        <time>2013-05-25T07:30:37Z</time>
      </trkpt>
      <trkpt lat="48.92299" lon="-0.45461">
        <ele>245.75</ele>
        <time>2013-05-25T07:30:55Z</time>
      </trkpt>
      <trkpt lat="48.92283" lon="-0.45439">
        <ele>245.75</ele>
        <time>2013-05-25T07:31:10Z</time>
      </trkpt>
      <trkpt lat="48.92269" lon="-0.45417">
        <ele>244.79</ele>
        <time>2013-05-25T07:31:26Z</time>
      </trkpt>
      <trkpt lat="48.92255" lon="-0.45397">
        <ele>244.79</ele>
        <time>2013-05-25T07:31:40Z</time>
      </trkpt>
      <trkpt lat="48.92239" lon="-0.45375">
        <ele>244.79</ele>
        <time>2013-05-25T07:31:58Z</time>
      </trkpt>
      <trkpt lat="48.92225" lon="-0.45351">
        <ele>245.75</ele>
        <time>2013-05-25T07:32:15Z</time>
      </trkpt>
      <trkpt lat="48.92216" lon="-0.45338">
        <ele>245.75</ele>
        <time>2013-05-25T07:32:26Z</time>
      </trkpt>
      <trkpt lat="48.92213" lon="-0.45332">
        <ele>245.75</ele>
        <time>2013-05-25T07:32:31Z</time>
      </trkpt>
      <trkpt lat="48.92199" lon="-0.45302">
        <ele>246.23</ele>
        <time>2013-05-25T07:32:51Z</time>
      </trkpt>
      <trkpt lat="48.92189" lon="-0.45274">
        <ele>246.72</ele>
        <time>2013-05-25T07:33:08Z</time>
      </trkpt>
      <trkpt lat="48.92186" lon="-0.45265">
        <ele>246.72</ele>
        <time>2013-05-25T07:33:13Z</time>
      </trkpt>
      <trkpt lat="48.92178" lon="-0.45231">
        <ele>247.2</ele>
        <time>2013-05-25T07:33:31Z</time>
      </trkpt>
      <trkpt lat="48.92172" lon="-0.45202">
        <ele>248.16</ele>
        <time>2013-05-25T07:33:47Z</time>
      </trkpt>
      <trkpt lat="48.92167" lon="-0.45177">
        <ele>248.16</ele>
        <time>2013-05-25T07:34:01Z</time>
      </trkpt>
      <trkpt lat="48.92163" lon="-0.45165">
        <ele>248.16</ele>
        <time>2013-05-25T07:34:08Z</time>
      </trkpt>
      <trkpt lat="48.9216" lon="-0.45144">
        <ele>248.64</ele>
        <time>2013-05-25T07:34:18Z</time>
      </trkpt>
      <trkpt lat="48.92154" lon="-0.45115">
        <ele>249.12</ele>
        <time>2013-05-25T07:34:34Z</time>
      </trkpt>
      <trkpt lat="48.9215" lon="-0.45091">
        <ele>250.08</ele>
        <time>2013-05-25T07:34:47Z</time>
      </trkpt>
      <trkpt lat="48.92148" lon="-0.45075">
        <ele>251.04</ele>
        <time>2013-05-25T07:34:55Z</time>
      </trkpt>
      <trkpt lat="48.92143" lon="-0.4505">
        <ele>252</ele>
        <time>2013-05-25T07:35:09Z</time>
      </trkpt>
      <trkpt lat="48.92141" lon="-0.45036">
        <ele>252</ele>
        <time>2013-05-25T07:35:16Z</time>
      </trkpt>
      <trkpt lat="48.92141" lon="-0.45024">
        <ele>252</ele>
        <time>2013-05-25T07:35:22Z</time>
      </trkpt>
      <trkpt lat="48.92137" lon="-0.44996">
        <ele>252.48</ele>
        <time>2013-05-25T07:35:38Z</time>
      </trkpt>
      <trkpt lat="48.92134" lon="-0.44966">
        <ele>252.96</ele>
        <time>2013-05-25T07:35:53Z</time>
      </trkpt>
      <trkpt lat="48.9213" lon="-0.44937">
        <ele>253.93</ele>
        <time>2013-05-25T07:36:08Z</time>
      </trkpt>
      <trkpt lat="48.92126" lon="-0.44911">
        <ele>253.93</ele>
        <time>2013-05-25T07:36:22Z</time>
      </trkpt>
      <trkpt lat="48.92125" lon="-0.44896">
        <ele>253.44</ele>
        <time>2013-05-25T07:36:30Z</time>
      </trkpt>
      <trkpt lat="48.92124" lon="-0.44888">
        <ele>253.93</ele>
        <time>2013-05-25T07:36:34Z</time>
      </trkpt>
      <trkpt lat="48.92119" lon="-0.44856">
        <ele>253.44</ele>
        <time>2013-05-25T07:36:50Z</time>
      </trkpt>
      <trkpt lat="48.92116" lon="-0.44829">
        <ele>252.96</ele>
        <time>2013-05-25T07:37:04Z</time>
      </trkpt>
      <trkpt lat="48.92109" lon="-0.44802">
        <ele>252.96</ele>
        <time>2013-05-25T07:37:19Z</time>
      </trkpt>
      <trkpt lat="48.92103" lon="-0.44773">
        <ele>253.93</ele>
        <time>2013-05-25T07:37:35Z</time>
      </trkpt>
      <trkpt lat="48.92099" lon="-0.44743">
        <ele>253.93</ele>
        <time>2013-05-25T07:37:50Z</time>
      </trkpt>
      <trkpt lat="48.92098" lon="-0.44738">
        <ele>253.93</ele>
        <time>2013-05-25T07:37:53Z</time>
      </trkpt>
      <trkpt lat="48.92098" lon="-0.44727">
        <ele>253.93</ele>
        <time>2013-05-25T07:38:01Z</time>
      </trkpt>
      <trkpt lat="48.92097" lon="-0.44702">
        <ele>254.89</ele>
        <time>2013-05-25T07:38:16Z</time>
      </trkpt>
      <trkpt lat="48.92097" lon="-0.44674">
        <ele>255.85</ele>
        <time>2013-05-25T07:38:31Z</time>
      </trkpt>
      <trkpt lat="48.92095" lon="-0.44654">
        <ele>256.33</ele>
        <time>2013-05-25T07:38:41Z</time>
      </trkpt>
      <trkpt lat="48.92094" lon="-0.44634">
        <ele>256.33</ele>
        <time>2013-05-25T07:38:52Z</time>
      </trkpt>
      <trkpt lat="48.92092" lon="-0.44623">
        <ele>256.81</ele>
        <time>2013-05-25T07:38:58Z</time>
      </trkpt>
      <trkpt lat="48.92085" lon="-0.44585">
        <ele>257.77</ele>
        <time>2013-05-25T07:39:18Z</time>
      </trkpt>
      <trkpt lat="48.92084" lon="-0.44576">
        <ele>257.77</ele>
        <time>2013-05-25T07:39:24Z</time>
      </trkpt>
      <trkpt lat="48.92076" lon="-0.4454">
        <ele>258.73</ele>
        <time>2013-05-25T07:39:43Z</time>
      </trkpt>
      <trkpt lat="48.92069" lon="-0.44517">
        <ele>260.17</ele>
        <time>2013-05-25T07:39:57Z</time>
      </trkpt>
      <trkpt lat="48.92061" lon="-0.44488">
        <ele>260.17</ele>
        <time>2013-05-25T07:40:13Z</time>
      </trkpt>
      <trkpt lat="48.9205" lon="-0.44461">
        <ele>261.62</ele>
        <time>2013-05-25T07:40:30Z</time>
      </trkpt>
      <trkpt lat="48.92038" lon="-0.44437">
        <ele>262.58</ele>
        <time>2013-05-25T07:40:46Z</time>
      </trkpt>
      <trkpt lat="48.92026" lon="-0.44409">
        <ele>262.58</ele>
        <time>2013-05-25T07:41:03Z</time>
      </trkpt>
      <trkpt lat="48.9202" lon="-0.44385">
        <ele>263.54</ele>
        <time>2013-05-25T07:41:18Z</time>
      </trkpt>
      <trkpt lat="48.92017" lon="-0.44374">
        <ele>264.02</ele>
        <time>2013-05-25T07:41:24Z</time>
      </trkpt>
      <trkpt lat="48.92015" lon="-0.44369">
        <ele>264.5</ele>
        <time>2013-05-25T07:41:28Z</time>
      </trkpt>
      <trkpt lat="48.92001" lon="-0.44371">
        <ele>265.46</ele>
        <time>2013-05-25T07:41:41Z</time>
      </trkpt>
      <trkpt lat="48.91983" lon="-0.4438">
        <ele>266.42</ele>
        <time>2013-05-25T07:41:56Z</time>
      </trkpt>
      <trkpt lat="48.91976" lon="-0.44384">
        <ele>266.42</ele>
        <time>2013-05-25T07:42:03Z</time>
      </trkpt>
      <trkpt lat="48.91956" lon="-0.44397">
        <ele>266.9</ele>
        <time>2013-05-25T07:42:20Z</time>
      </trkpt>
      <trkpt lat="48.9194" lon="-0.44404">
        <ele>266.9</ele>
        <time>2013-05-25T07:42:34Z</time>
      </trkpt>
      <trkpt lat="48.91935" lon="-0.44408">
        <ele>267.38</ele>
        <time>2013-05-25T07:42:39Z</time>
      </trkpt>
      <trkpt lat="48.9193" lon="-0.44408">
        <ele>267.38</ele>
        <time>2013-05-25T07:42:43Z</time>
      </trkpt>
      <trkpt lat="48.91915" lon="-0.44415">
        <ele>266.9</ele>
        <time>2013-05-25T07:42:57Z</time>
      </trkpt>
      <trkpt lat="48.91895" lon="-0.44417">
        <ele>265.94</ele>
        <time>2013-05-25T07:43:12Z</time>
      </trkpt>
      <trkpt lat="48.91876" lon="-0.44422">
        <ele>264.98</ele>
        <time>2013-05-25T07:43:27Z</time>
      </trkpt>
      <trkpt lat="48.91859" lon="-0.44419">
        <ele>264.02</ele>
        <time>2013-05-25T07:43:40Z</time>
      </trkpt>
      <trkpt lat="48.91853" lon="-0.44419">
        <ele>264.02</ele>
        <time>2013-05-25T07:43:44Z</time>
      </trkpt>
      <trkpt lat="48.91831" lon="-0.44418">
        <ele>264.02</ele>
        <time>2013-05-25T07:44:03Z</time>
      </trkpt>
      <trkpt lat="48.91806" lon="-0.44413">
        <ele>263.06</ele>
        <time>2013-05-25T07:44:22Z</time>
      </trkpt>
      <trkpt lat="48.91787" lon="-0.44412">
        <ele>263.06</ele>
        <time>2013-05-25T07:44:38Z</time>
      </trkpt>
      <trkpt lat="48.91765" lon="-0.44406">
        <ele>261.14</ele>
        <time>2013-05-25T07:44:54Z</time>
      </trkpt>
      <trkpt lat="48.91742" lon="-0.44402">
        <ele>259.21</ele>
        <time>2013-05-25T07:45:12Z</time>
      </trkpt>
      <trkpt lat="48.91718" lon="-0.44396">
        <ele>256.81</ele>
        <time>2013-05-25T07:45:31Z</time>
      </trkpt>
      <trkpt lat="48.917" lon="-0.44392">
        <ele>254.89</ele>
        <time>2013-05-25T07:45:47Z</time>
      </trkpt>
      <trkpt lat="48.9168" lon="-0.4439">
        <ele>252.96</ele>
        <time>2013-05-25T07:46:02Z</time>
      </trkpt>
      <trkpt lat="48.91663" lon="-0.44387">
        <ele>251.04</ele>
        <time>2013-05-25T07:46:16Z</time>
      </trkpt>
      <trkpt lat="48.91648" lon="-0.44388">
        <ele>249.12</ele>
        <time>2013-05-25T07:46:29Z</time>
      </trkpt>
      <trkpt lat="48.91629" lon="-0.44384">
        <ele>247.2</ele>
        <time>2013-05-25T07:46:44Z</time>
      </trkpt>
      <trkpt lat="48.91611" lon="-0.44382">
        <ele>244.79</ele>
        <time>2013-05-25T07:46:59Z</time>
      </trkpt>
      <trkpt lat="48.91594" lon="-0.44381">
        <ele>242.39</ele>
        <time>2013-05-25T07:47:13Z</time>
      </trkpt>
      <trkpt lat="48.91575" lon="-0.44381">
        <ele>239.99</ele>
        <time>2013-05-25T07:47:28Z</time>
      </trkpt>
      <trkpt lat="48.9156" lon="-0.44381">
        <ele>238.06</ele>
        <time>2013-05-25T07:47:41Z</time>
      </trkpt>
      <trkpt lat="48.91544" lon="-0.4438">
        <ele>236.62</ele>
        <time>2013-05-25T07:47:54Z</time>
      </trkpt>
      <trkpt lat="48.91529" lon="-0.4438">
        <ele>234.7</ele>
        <time>2013-05-25T07:48:08Z</time>
      </trkpt>
      <trkpt lat="48.91523" lon="-0.44381">
        <ele>234.22</ele>
        <time>2013-05-25T07:48:13Z</time>
      </trkpt>
      <trkpt lat="48.91505" lon="-0.44372">
        <ele>232.3</ele>
        <time>2013-05-25T07:48:29Z</time>
      </trkpt>
      <trkpt lat="48.91509" lon="-0.44347">
        <ele>234.22</ele>
        <time>2013-05-25T07:48:46Z</time>
      </trkpt>
      <trkpt lat="48.91515" lon="-0.44329">
        <ele>235.66</ele>
        <time>2013-05-25T07:48:58Z</time>
      </trkpt>
      <trkpt lat="48.91527" lon="-0.44301">
        <ele>236.62</ele>
        <time>2013-05-25T07:49:16Z</time>
      </trkpt>
      <trkpt lat="48.9154" lon="-0.4427">
        <ele>237.58</ele>
        <time>2013-05-25T07:49:35Z</time>
      </trkpt>
      <trkpt lat="48.91552" lon="-0.44243">
        <ele>239.51</ele>
        <time>2013-05-25T07:49:51Z</time>
      </trkpt>
      <trkpt lat="48.91566" lon="-0.44216">
        <ele>239.99</ele>
        <time>2013-05-25T07:50:08Z</time>
      </trkpt>
      <trkpt lat="48.91581" lon="-0.44192">
        <ele>240.47</ele>
        <time>2013-05-25T07:50:24Z</time>
      </trkpt>
      <trkpt lat="48.91589" lon="-0.44183">
        <ele>240.47</ele>
        <time>2013-05-25T07:50:38Z</time>
      </trkpt>
      <trkpt lat="48.91589" lon="-0.44182">
        <ele>240.47</ele>
        <time>2013-05-25T07:51:03Z</time>
      </trkpt>
      <trkpt lat="48.91598" lon="-0.4417">
        <ele>240.95</ele>
        <time>2013-05-25T07:51:19Z</time>
      </trkpt>
      <trkpt lat="48.91616" lon="-0.44151">
        <ele>241.43</ele>
        <time>2013-05-25T07:51:37Z</time>
      </trkpt>
      <trkpt lat="48.91637" lon="-0.4413">
        <ele>242.39</ele>
        <time>2013-05-25T07:51:56Z</time>
      </trkpt>
      <trkpt lat="48.91658" lon="-0.4411">
        <ele>242.39</ele>
        <time>2013-05-25T07:52:15Z</time>
      </trkpt>
      <trkpt lat="48.91673" lon="-0.44085">
        <ele>242.39</ele>
        <time>2013-05-25T07:52:31Z</time>
      </trkpt>
      <trkpt lat="48.91677" lon="-0.44077">
        <ele>241.43</ele>
        <time>2013-05-25T07:52:37Z</time>
      </trkpt>
      <trkpt lat="48.91675" lon="-0.44064">
        <ele>239.51</ele>
        <time>2013-05-25T07:52:53Z</time>
      </trkpt>
      <trkpt lat="48.9167" lon="-0.44056">
        <ele>238.54</ele>
        <time>2013-05-25T07:53:01Z</time>
      </trkpt>
      <trkpt lat="48.91656" lon="-0.44039">
        <ele>235.66</ele>
        <time>2013-05-25T07:53:17Z</time>
      </trkpt>
      <trkpt lat="48.91643" lon="-0.44026">
        <ele>233.74</ele>
        <time>2013-05-25T07:53:30Z</time>
      </trkpt>
      <trkpt lat="48.91633" lon="-0.44018">
        <ele>232.3</ele>
        <time>2013-05-25T07:53:41Z</time>
      </trkpt>
      <trkpt lat="48.9163" lon="-0.44017">
        <ele>231.81</ele>
        <time>2013-05-25T07:53:44Z</time>
      </trkpt>
      <trkpt lat="48.91619" lon="-0.44012">
        <ele>230.37</ele>
        <time>2013-05-25T07:53:53Z</time>
      </trkpt>
      <trkpt lat="48.91617" lon="-0.44009">
        <ele>230.37</ele>
        <time>2013-05-25T07:53:56Z</time>
      </trkpt>
      <trkpt lat="48.91598" lon="-0.43995">
        <ele>228.45</ele>
        <time>2013-05-25T07:54:10Z</time>
      </trkpt>
      <trkpt lat="48.91597" lon="-0.43994">
        <ele>228.45</ele>
        <time>2013-05-25T07:54:11Z</time>
      </trkpt>
      <trkpt lat="48.91587" lon="-0.43971">
        <ele>226.53</ele>
        <time>2013-05-25T07:54:25Z</time>
      </trkpt>
      <trkpt lat="48.91586" lon="-0.4397">
        <ele>226.05</ele>
        <time>2013-05-25T07:54:26Z</time>
      </trkpt>
      <trkpt lat="48.91583" lon="-0.43963">
        <ele>225.57</ele>
        <time>2013-05-25T07:54:31Z</time>
      </trkpt>
      <trkpt lat="48.9158" lon="-0.43958">
        <ele>225.09</ele>
        <time>2013-05-25T07:54:35Z</time>
      </trkpt>
      <trkpt lat="48.91575" lon="-0.43953">
        <ele>224.12</ele>
        <time>2013-05-25T07:54:39Z</time>
      </trkpt>
      <trkpt lat="48.91571" lon="-0.43945">
        <ele>223.64</ele>
        <time>2013-05-25T07:54:44Z</time>
      </trkpt>
      <trkpt lat="48.91563" lon="-0.43923">
        <ele>221.72</ele>
        <time>2013-05-25T07:54:57Z</time>
      </trkpt>
      <trkpt lat="48.9156" lon="-0.43918">
        <ele>221.24</ele>
        <time>2013-05-25T07:55:07Z</time>
      </trkpt>
      <trkpt lat="48.91552" lon="-0.43925">
        <ele>221.24</ele>
        <time>2013-05-25T07:55:21Z</time>
      </trkpt>
      <trkpt lat="48.91551" lon="-0.43926">
        <ele>221.24</ele>
        <time>2013-05-25T07:55:25Z</time>
      </trkpt>
      <trkpt lat="48.91541" lon="-0.43927">
        <ele>223.16</ele>
        <time>2013-05-25T07:55:35Z</time>
      </trkpt>
      <trkpt lat="48.91534" lon="-0.43932">
        <ele>225.09</ele>
        <time>2013-05-25T07:55:47Z</time>
      </trkpt>
      <trkpt lat="48.91523" lon="-0.43944">
        <ele>227.01</ele>
        <time>2013-05-25T07:56:01Z</time>
      </trkpt>
      <trkpt lat="48.91513" lon="-0.43949">
        <ele>228.45</ele>
        <time>2013-05-25T07:56:12Z</time>
      </trkpt>
      <trkpt lat="48.91497" lon="-0.43961">
        <ele>230.37</ele>
        <time>2013-05-25T07:56:24Z</time>
      </trkpt>
      <trkpt lat="48.91487" lon="-0.4397">
        <ele>231.33</ele>
        <time>2013-05-25T07:56:35Z</time>
      </trkpt>
      <trkpt lat="48.91474" lon="-0.43986">
        <ele>232.3</ele>
        <time>2013-05-25T07:56:48Z</time>
      </trkpt>
      <trkpt lat="48.9146" lon="-0.44003">
        <ele>232.78</ele>
        <time>2013-05-25T07:57:00Z</time>
      </trkpt>
      <trkpt lat="48.91449" lon="-0.44014">
        <ele>233.74</ele>
        <time>2013-05-25T07:57:14Z</time>
      </trkpt>
      <trkpt lat="48.91437" lon="-0.44028">
        <ele>234.7</ele>
        <time>2013-05-25T07:57:25Z</time>
      </trkpt>
      <trkpt lat="48.91427" lon="-0.44045">
        <ele>233.26</ele>
        <time>2013-05-25T07:57:41Z</time>
      </trkpt>
      <trkpt lat="48.9142" lon="-0.44057">
        <ele>231.81</ele>
        <time>2013-05-25T07:57:49Z</time>
      </trkpt>
      <trkpt lat="48.91417" lon="-0.44059">
        <ele>231.81</ele>
        <time>2013-05-25T07:57:51Z</time>
      </trkpt>
      <trkpt lat="48.91404" lon="-0.44074">
        <ele>230.37</ele>
        <time>2013-05-25T07:58:03Z</time>
      </trkpt>
      <trkpt lat="48.91386" lon="-0.44085">
        <ele>228.45</ele>
        <time>2013-05-25T07:58:14Z</time>
      </trkpt>
      <trkpt lat="48.91372" lon="-0.44101">
        <ele>226.05</ele>
        <time>2013-05-25T07:58:28Z</time>
      </trkpt>
      <trkpt lat="48.91358" lon="-0.44114">
        <ele>223.16</ele>
        <time>2013-05-25T07:58:43Z</time>
      </trkpt>
      <trkpt lat="48.91345" lon="-0.44122">
        <ele>220.28</ele>
        <time>2013-05-25T07:58:57Z</time>
      </trkpt>
      <trkpt lat="48.91332" lon="-0.44126">
        <ele>217.88</ele>
        <time>2013-05-25T07:59:11Z</time>
      </trkpt>
      <trkpt lat="48.91312" lon="-0.44134">
        <ele>215.47</ele>
        <time>2013-05-25T07:59:26Z</time>
      </trkpt>
      <trkpt lat="48.91292" lon="-0.44139">
        <ele>213.07</ele>
        <time>2013-05-25T07:59:42Z</time>
      </trkpt>
      <trkpt lat="48.91278" lon="-0.44142">
        <ele>211.63</ele>
        <time>2013-05-25T07:59:54Z</time>
      </trkpt>
      <trkpt lat="48.91265" lon="-0.44148">
        <ele>210.19</ele>
        <time>2013-05-25T08:00:07Z</time>
      </trkpt>
      <trkpt lat="48.91263" lon="-0.44149">
        <ele>210.19</ele>
        <time>2013-05-25T08:00:09Z</time>
      </trkpt>
      <trkpt lat="48.91253" lon="-0.44153">
        <ele>209.7</ele>
        <time>2013-05-25T08:00:19Z</time>
      </trkpt>
      <trkpt lat="48.9125" lon="-0.44154">
        <ele>208.74</ele>
        <time>2013-05-25T08:00:21Z</time>
      </trkpt>
      <trkpt lat="48.91237" lon="-0.44156">
        <ele>208.26</ele>
        <time>2013-05-25T08:00:33Z</time>
      </trkpt>
      <trkpt lat="48.91223" lon="-0.44158">
        <ele>206.34</ele>
        <time>2013-05-25T08:00:46Z</time>
      </trkpt>
      <trkpt lat="48.91216" lon="-0.4416">
        <ele>205.86</ele>
        <time>2013-05-25T08:00:50Z</time>
      </trkpt>
      <trkpt lat="48.91206" lon="-0.44163">
        <ele>203.46</ele>
        <time>2013-05-25T08:01:02Z</time>
      </trkpt>
      <trkpt lat="48.91193" lon="-0.44163">
        <ele>201.05</ele>
        <time>2013-05-25T08:01:14Z</time>
      </trkpt>
      <trkpt lat="48.91178" lon="-0.44168">
        <ele>198.65</ele>
        <time>2013-05-25T08:01:28Z</time>
      </trkpt>
      <trkpt lat="48.91176" lon="-0.44168">
        <ele>198.17</ele>
        <time>2013-05-25T08:01:30Z</time>
      </trkpt>
      <trkpt lat="48.91172" lon="-0.44168">
        <ele>197.21</ele>
        <time>2013-05-25T08:01:34Z</time>
      </trkpt>
      <trkpt lat="48.91158" lon="-0.44168">
        <ele>194.32</ele>
        <time>2013-05-25T08:01:48Z</time>
      </trkpt>
      <trkpt lat="48.91142" lon="-0.4417">
        <ele>191.92</ele>
        <time>2013-05-25T08:02:00Z</time>
      </trkpt>
      <trkpt lat="48.91136" lon="-0.44172">
        <ele>190</ele>
        <time>2013-05-25T08:02:05Z</time>
      </trkpt>
      <trkpt lat="48.91132" lon="-0.44171">
        <ele>189.52</ele>
        <time>2013-05-25T08:02:10Z</time>
      </trkpt>
      <trkpt lat="48.91128" lon="-0.44167">
        <ele>187.59</ele>
        <time>2013-05-25T08:02:16Z</time>
      </trkpt>
      <trkpt lat="48.91115" lon="-0.44163">
        <ele>185.67</ele>
        <time>2013-05-25T08:02:27Z</time>
      </trkpt>
      <trkpt lat="48.91103" lon="-0.44162">
        <ele>183.27</ele>
        <time>2013-05-25T08:02:36Z</time>
      </trkpt>
      <trkpt lat="48.91087" lon="-0.44161">
        <ele>181.35</ele>
        <time>2013-05-25T08:02:51Z</time>
      </trkpt>
      <trkpt lat="48.91065" lon="-0.44163">
        <ele>178.94</ele>
        <time>2013-05-25T08:03:07Z</time>
      </trkpt>
      <trkpt lat="48.91044" lon="-0.44165">
        <ele>178.46</ele>
        <time>2013-05-25T08:03:22Z</time>
      </trkpt>
      <trkpt lat="48.91027" lon="-0.44163">
        <ele>177.5</ele>
        <time>2013-05-25T08:03:37Z</time>
      </trkpt>
      <trkpt lat="48.9101" lon="-0.44153">
        <ele>177.02</ele>
        <time>2013-05-25T08:03:51Z</time>
      </trkpt>
      <trkpt lat="48.91006" lon="-0.44151">
        <ele>177.02</ele>
        <time>2013-05-25T08:03:55Z</time>
      </trkpt>
      <trkpt lat="48.90986" lon="-0.44142">
        <ele>177.02</ele>
        <time>2013-05-25T08:04:11Z</time>
      </trkpt>
      <trkpt lat="48.90983" lon="-0.44137">
        <ele>177.02</ele>
        <time>2013-05-25T08:04:17Z</time>
      </trkpt>
      <trkpt lat="48.90979" lon="-0.44138">
        <ele>177.98</ele>
        <time>2013-05-25T08:04:20Z</time>
      </trkpt>
      <trkpt lat="48.9098" lon="-0.44154">
        <ele>178.94</ele>
        <time>2013-05-25T08:04:32Z</time>
      </trkpt>
      <trkpt lat="48.90982" lon="-0.44165">
        <ele>179.42</ele>
        <time>2013-05-25T08:04:38Z</time>
      </trkpt>
      <trkpt lat="48.90985" lon="-0.44185">
        <ele>181.35</ele>
        <time>2013-05-25T08:04:51Z</time>
      </trkpt>
      <trkpt lat="48.90989" lon="-0.44213">
        <ele>181.35</ele>
        <time>2013-05-25T08:05:06Z</time>
      </trkpt>
      <trkpt lat="48.90993" lon="-0.44242">
        <ele>182.31</ele>
        <time>2013-05-25T08:05:20Z</time>
      </trkpt>
      <trkpt lat="48.90992" lon="-0.44274">
        <ele>182.31</ele>
        <time>2013-05-25T08:05:36Z</time>
      </trkpt>
      <trkpt lat="48.90995" lon="-0.44296">
        <ele>182.79</ele>
        <time>2013-05-25T08:05:48Z</time>
      </trkpt>
      <trkpt lat="48.90995" lon="-0.44322">
        <ele>182.31</ele>
        <time>2013-05-25T08:05:59Z</time>
      </trkpt>
      <trkpt lat="48.90994" lon="-0.44336">
        <ele>181.35</ele>
        <time>2013-05-25T08:06:07Z</time>
      </trkpt>
      <trkpt lat="48.90995" lon="-0.44347">
        <ele>180.38</ele>
        <time>2013-05-25T08:06:11Z</time>
      </trkpt>
      <trkpt lat="48.90998" lon="-0.44358">
        <ele>180.38</ele>
        <time>2013-05-25T08:06:17Z</time>
      </trkpt>
      <trkpt lat="48.91002" lon="-0.44385">
        <ele>179.42</ele>
        <time>2013-05-25T08:06:30Z</time>
      </trkpt>
      <trkpt lat="48.91004" lon="-0.44403">
        <ele>179.42</ele>
        <time>2013-05-25T08:06:39Z</time>
      </trkpt>
      <trkpt lat="48.91003" lon="-0.44405">
        <ele>178.94</ele>
        <time>2013-05-25T08:06:40Z</time>
      </trkpt>
      <trkpt lat="48.91008" lon="-0.44431">
        <ele>177.98</ele>
        <time>2013-05-25T08:06:52Z</time>
      </trkpt>
      <trkpt lat="48.91013" lon="-0.44453">
        <ele>176.54</ele>
        <time>2013-05-25T08:07:05Z</time>
      </trkpt>
      <trkpt lat="48.91019" lon="-0.44469">
        <ele>175.58</ele>
        <time>2013-05-25T08:07:14Z</time>
      </trkpt>
      <trkpt lat="48.91022" lon="-0.44473">
        <ele>175.58</ele>
        <time>2013-05-25T08:07:17Z</time>
      </trkpt>
      <trkpt lat="48.91024" lon="-0.44475">
        <ele>175.1</ele>
        <time>2013-05-25T08:07:19Z</time>
      </trkpt>
      <trkpt lat="48.91029" lon="-0.44477">
        <ele>173.66</ele>
        <time>2013-05-25T08:07:23Z</time>
      </trkpt>
      <trkpt lat="48.91044" lon="-0.44484">
        <ele>172.21</ele>
        <time>2013-05-25T08:07:35Z</time>
      </trkpt>
      <trkpt lat="48.91056" lon="-0.44485">
        <ele>170.29</ele>
        <time>2013-05-25T08:07:46Z</time>
      </trkpt>
      <trkpt lat="48.91069" lon="-0.44483">
        <ele>169.81</ele>
        <time>2013-05-25T08:07:57Z</time>
      </trkpt>
      <trkpt lat="48.91074" lon="-0.44482">
        <ele>169.81</ele>
        <time>2013-05-25T08:08:00Z</time>
      </trkpt>
      <trkpt lat="48.91088" lon="-0.44487">
        <ele>168.85</ele>
        <time>2013-05-25T08:08:12Z</time>
      </trkpt>
      <trkpt lat="48.91092" lon="-0.44485">
        <ele>168.37</ele>
        <time>2013-05-25T08:08:16Z</time>
      </trkpt>
      <trkpt lat="48.91098" lon="-0.44489">
        <ele>167.89</ele>
        <time>2013-05-25T08:08:21Z</time>
      </trkpt>
      <trkpt lat="48.9111" lon="-0.44503">
        <ele>167.89</ele>
        <time>2013-05-25T08:08:33Z</time>
      </trkpt>
      <trkpt lat="48.91111" lon="-0.44506">
        <ele>167.89</ele>
        <time>2013-05-25T08:08:35Z</time>
      </trkpt>
      <trkpt lat="48.91113" lon="-0.44516">
        <ele>167.41</ele>
        <time>2013-05-25T08:08:39Z</time>
      </trkpt>
      <trkpt lat="48.91114" lon="-0.44523">
        <ele>166.45</ele>
        <time>2013-05-25T08:08:43Z</time>
      </trkpt>
      <trkpt lat="48.9111" lon="-0.44535">
        <ele>165</ele>
        <time>2013-05-25T08:08:51Z</time>
      </trkpt>
      <trkpt lat="48.91105" lon="-0.44544">
        <ele>163.08</ele>
        <time>2013-05-25T08:09:02Z</time>
      </trkpt>
      <trkpt lat="48.91104" lon="-0.44546">
        <ele>162.6</ele>
        <time>2013-05-25T08:09:04Z</time>
      </trkpt>
      <trkpt lat="48.91102" lon="-0.44549">
        <ele>161.64</ele>
        <time>2013-05-25T08:09:07Z</time>
      </trkpt>
      <trkpt lat="48.91096" lon="-0.44564">
        <ele>160.68</ele>
        <time>2013-05-25T08:09:19Z</time>
      </trkpt>
      <trkpt lat="48.9108" lon="-0.44579">
        <ele>159.72</ele>
        <time>2013-05-25T08:09:33Z</time>
      </trkpt>
      <trkpt lat="48.91075" lon="-0.44588">
        <ele>159.24</ele>
        <time>2013-05-25T08:09:42Z</time>
      </trkpt>
      <trkpt lat="48.91072" lon="-0.44589">
        <ele>158.75</ele>
        <time>2013-05-25T08:09:44Z</time>
      </trkpt>
      <trkpt lat="48.91061" lon="-0.44599">
        <ele>157.79</ele>
        <time>2013-05-25T08:09:54Z</time>
      </trkpt>
      <trkpt lat="48.91051" lon="-0.44621">
        <ele>155.87</ele>
        <time>2013-05-25T08:10:09Z</time>
      </trkpt>
      <trkpt lat="48.91039" lon="-0.44636">
        <ele>154.91</ele>
        <time>2013-05-25T08:10:22Z</time>
      </trkpt>
      <trkpt lat="48.91027" lon="-0.44646">
        <ele>153.95</ele>
        <time>2013-05-25T08:10:33Z</time>
      </trkpt>
      <trkpt lat="48.91018" lon="-0.44652">
        <ele>152.51</ele>
        <time>2013-05-25T08:10:40Z</time>
      </trkpt>
      <trkpt lat="48.91008" lon="-0.44657">
        <ele>152.03</ele>
        <time>2013-05-25T08:10:46Z</time>
      </trkpt>
      <trkpt lat="48.91001" lon="-0.44666">
        <ele>150.58</ele>
        <time>2013-05-25T08:10:52Z</time>
      </trkpt>
      <trkpt lat="48.90999" lon="-0.44668">
        <ele>150.1</ele>
        <time>2013-05-25T08:10:55Z</time>
      </trkpt>
      <trkpt lat="48.9099" lon="-0.44682">
        <ele>149.62</ele>
        <time>2013-05-25T08:11:09Z</time>
      </trkpt>
      <trkpt lat="48.90981" lon="-0.44685">
        <ele>149.14</ele>
        <time>2013-05-25T08:11:13Z</time>
      </trkpt>
      <trkpt lat="48.90979" lon="-0.44687">
        <ele>149.14</ele>
        <time>2013-05-25T08:11:15Z</time>
      </trkpt>
      <trkpt lat="48.90975" lon="-0.44691">
        <ele>148.66</ele>
        <time>2013-05-25T08:11:19Z</time>
      </trkpt>
      <trkpt lat="48.9097" lon="-0.44695">
        <ele>149.14</ele>
        <time>2013-05-25T08:11:22Z</time>
      </trkpt>
      <trkpt lat="48.90967" lon="-0.447">
        <ele>149.14</ele>
        <time>2013-05-25T08:11:24Z</time>
      </trkpt>
      <trkpt lat="48.90966" lon="-0.44703">
        <ele>149.14</ele>
        <time>2013-05-25T08:11:27Z</time>
      </trkpt>
      <trkpt lat="48.9096" lon="-0.44715">
        <ele>149.14</ele>
        <time>2013-05-25T08:11:36Z</time>
      </trkpt>
      <trkpt lat="48.90956" lon="-0.44732">
        <ele>149.62</ele>
        <time>2013-05-25T08:11:48Z</time>
      </trkpt>
      <trkpt lat="48.90954" lon="-0.44743">
        <ele>149.62</ele>
        <time>2013-05-25T08:11:53Z</time>
      </trkpt>
      <trkpt lat="48.90945" lon="-0.44761">
        <ele>150.58</ele>
        <time>2013-05-25T08:12:06Z</time>
      </trkpt>
      <trkpt lat="48.90944" lon="-0.44763">
        <ele>150.58</ele>
        <time>2013-05-25T08:12:07Z</time>
      </trkpt>
      <trkpt lat="48.90939" lon="-0.44775">
        <ele>151.06</ele>
        <time>2013-05-25T08:12:14Z</time>
      </trkpt>
      <trkpt lat="48.90934" lon="-0.44778">
        <ele>151.06</ele>
        <time>2013-05-25T08:12:19Z</time>
      </trkpt>
      <trkpt lat="48.9093" lon="-0.44784">
        <ele>151.54</ele>
        <time>2013-05-25T08:12:23Z</time>
      </trkpt>
      <trkpt lat="48.90928" lon="-0.44802">
        <ele>151.54</ele>
        <time>2013-05-25T08:12:35Z</time>
      </trkpt>
      <trkpt lat="48.90927" lon="-0.44805">
        <ele>152.03</ele>
        <time>2013-05-25T08:12:37Z</time>
      </trkpt>
      <trkpt lat="48.90928" lon="-0.4483">
        <ele>151.06</ele>
        <time>2013-05-25T08:12:51Z</time>
      </trkpt>
      <trkpt lat="48.90929" lon="-0.44841">
        <ele>151.06</ele>
        <time>2013-05-25T08:12:57Z</time>
      </trkpt>
      <trkpt lat="48.90932" lon="-0.44864">
        <ele>150.58</ele>
        <time>2013-05-25T08:13:09Z</time>
      </trkpt>
      <trkpt lat="48.90934" lon="-0.44872">
        <ele>151.06</ele>
        <time>2013-05-25T08:13:14Z</time>
      </trkpt>
      <trkpt lat="48.90936" lon="-0.44884">
        <ele>150.58</ele>
        <time>2013-05-25T08:13:21Z</time>
      </trkpt>
      <trkpt lat="48.90943" lon="-0.44905">
        <ele>150.58</ele>
        <time>2013-05-25T08:13:33Z</time>
      </trkpt>
      <trkpt lat="48.90946" lon="-0.44916">
        <ele>151.06</ele>
        <time>2013-05-25T08:13:41Z</time>
      </trkpt>
      <trkpt lat="48.90947" lon="-0.44927">
        <ele>151.06</ele>
        <time>2013-05-25T08:13:45Z</time>
      </trkpt>
      <trkpt lat="48.90952" lon="-0.44946">
        <ele>151.54</ele>
        <time>2013-05-25T08:13:59Z</time>
      </trkpt>
      <trkpt lat="48.90951" lon="-0.44947">
        <ele>151.06</ele>
        <time>2013-05-25T08:14:01Z</time>
      </trkpt>
      <trkpt lat="48.90957" lon="-0.44973">
        <ele>151.54</ele>
        <time>2013-05-25T08:14:15Z</time>
      </trkpt>
      <trkpt lat="48.90961" lon="-0.44989">
        <ele>152.03</ele>
        <time>2013-05-25T08:14:25Z</time>
      </trkpt>
      <trkpt lat="48.90965" lon="-0.45006">
        <ele>152.51</ele>
        <time>2013-05-25T08:14:36Z</time>
      </trkpt>
      <trkpt lat="48.90973" lon="-0.45028">
        <ele>152.51</ele>
        <time>2013-05-25T08:14:50Z</time>
      </trkpt>
      <trkpt lat="48.90975" lon="-0.45035">
        <ele>152.51</ele>
        <time>2013-05-25T08:15:10Z</time>
      </trkpt>
      <trkpt lat="48.90976" lon="-0.45036">
        <ele>152.51</ele>
        <time>2013-05-25T08:15:26Z</time>
      </trkpt>
      <trkpt lat="48.90975" lon="-0.4504">
        <ele>152.51</ele>
        <time>2013-05-25T08:15:30Z</time>
      </trkpt>
      <trkpt lat="48.9097" lon="-0.45054">
        <ele>150.1</ele>
        <time>2013-05-25T08:15:42Z</time>
      </trkpt>
      <trkpt lat="48.9097" lon="-0.45056">
        <ele>150.1</ele>
        <time>2013-05-25T08:15:43Z</time>
      </trkpt>
      <trkpt lat="48.90969" lon="-0.45065">
        <ele>150.1</ele>
        <time>2013-05-25T08:15:47Z</time>
      </trkpt>
      <trkpt lat="48.90967" lon="-0.45086">
        <ele>150.1</ele>
        <time>2013-05-25T08:16:01Z</time>
      </trkpt>
      <trkpt lat="48.90964" lon="-0.45089">
        <ele>150.1</ele>
        <time>2013-05-25T08:16:06Z</time>
      </trkpt>
      <trkpt lat="48.90958" lon="-0.45094">
        <ele>148.66</ele>
        <time>2013-05-25T08:16:11Z</time>
      </trkpt>
      <trkpt lat="48.90949" lon="-0.451">
        <ele>148.18</ele>
        <time>2013-05-25T08:16:20Z</time>
      </trkpt>
      <trkpt lat="48.90941" lon="-0.45109">
        <ele>147.7</ele>
        <time>2013-05-25T08:16:28Z</time>
      </trkpt>
      <trkpt lat="48.90928" lon="-0.45116">
        <ele>146.26</ele>
        <time>2013-05-25T08:16:41Z</time>
      </trkpt>
      <trkpt lat="48.90913" lon="-0.45118">
        <ele>145.78</ele>
        <time>2013-05-25T08:16:53Z</time>
      </trkpt>
      <trkpt lat="48.90897" lon="-0.45121">
        <ele>145.3</ele>
        <time>2013-05-25T08:17:07Z</time>
      </trkpt>
      <trkpt lat="48.90882" lon="-0.45118">
        <ele>144.34</ele>
        <time>2013-05-25T08:17:19Z</time>
      </trkpt>
      <trkpt lat="48.90872" lon="-0.45113">
        <ele>143.85</ele>
        <time>2013-05-25T08:17:30Z</time>
      </trkpt>
      <trkpt lat="48.90869" lon="-0.45111">
        <ele>143.85</ele>
        <time>2013-05-25T08:17:37Z</time>
      </trkpt>
      <trkpt lat="48.90867" lon="-0.45111">
        <ele>143.37</ele>
        <time>2013-05-25T08:17:39Z</time>
      </trkpt>
      <trkpt lat="48.90852" lon="-0.45099">
        <ele>142.89</ele>
        <time>2013-05-25T08:17:53Z</time>
      </trkpt>
      <trkpt lat="48.90839" lon="-0.45088">
        <ele>142.89</ele>
        <time>2013-05-25T08:18:06Z</time>
      </trkpt>
      <trkpt lat="48.90828" lon="-0.45077">
        <ele>142.89</ele>
        <time>2013-05-25T08:18:18Z</time>
      </trkpt>
      <trkpt lat="48.90819" lon="-0.45068">
        <ele>141.93</ele>
        <time>2013-05-25T08:18:29Z</time>
      </trkpt>
      <trkpt lat="48.90813" lon="-0.45063">
        <ele>141.93</ele>
        <time>2013-05-25T08:18:34Z</time>
      </trkpt>
      <trkpt lat="48.90803" lon="-0.45056">
        <ele>141.45</ele>
        <time>2013-05-25T08:18:42Z</time>
      </trkpt>
      <trkpt lat="48.90787" lon="-0.45045">
        <ele>140.01</ele>
        <time>2013-05-25T08:18:56Z</time>
      </trkpt>
      <trkpt lat="48.90776" lon="-0.45038">
        <ele>138.57</ele>
        <time>2013-05-25T08:19:08Z</time>
      </trkpt>
      <trkpt lat="48.90756" lon="-0.45034">
        <ele>137.13</ele>
        <time>2013-05-25T08:19:23Z</time>
      </trkpt>
      <trkpt lat="48.90748" lon="-0.45037">
        <ele>135.68</ele>
        <time>2013-05-25T08:19:31Z</time>
      </trkpt>
      <trkpt lat="48.90739" lon="-0.45037">
        <ele>135.2</ele>
        <time>2013-05-25T08:19:39Z</time>
      </trkpt>
      <trkpt lat="48.90732" lon="-0.45035">
        <ele>135.2</ele>
        <time>2013-05-25T08:19:44Z</time>
      </trkpt>
      <trkpt lat="48.90724" lon="-0.45037">
        <ele>134.24</ele>
        <time>2013-05-25T08:19:53Z</time>
      </trkpt>
      <trkpt lat="48.9071" lon="-0.45041">
        <ele>132.8</ele>
        <time>2013-05-25T08:20:05Z</time>
      </trkpt>
      <trkpt lat="48.90693" lon="-0.45041">
        <ele>130.88</ele>
        <time>2013-05-25T08:20:20Z</time>
      </trkpt>
      <trkpt lat="48.90681" lon="-0.45043">
        <ele>128.95</ele>
        <time>2013-05-25T08:20:32Z</time>
      </trkpt>
      <trkpt lat="48.90672" lon="-0.45045">
        <ele>127.51</ele>
        <time>2013-05-25T08:20:39Z</time>
      </trkpt>
      <trkpt lat="48.90652" lon="-0.45039">
        <ele>126.07</ele>
        <time>2013-05-25T08:20:53Z</time>
      </trkpt>
      <trkpt lat="48.9065" lon="-0.45039">
        <ele>125.59</ele>
        <time>2013-05-25T08:20:55Z</time>
      </trkpt>
      <trkpt lat="48.90648" lon="-0.45041">
        <ele>124.63</ele>
        <time>2013-05-25T08:20:58Z</time>
      </trkpt>
      <trkpt lat="48.90642" lon="-0.45043">
        <ele>124.15</ele>
        <time>2013-05-25T08:21:03Z</time>
      </trkpt>
      <trkpt lat="48.9064" lon="-0.45043">
        <ele>124.15</ele>
        <time>2013-05-25T08:21:05Z</time>
      </trkpt>
      <trkpt lat="48.90632" lon="-0.45045">
        <ele>123.19</ele>
        <time>2013-05-25T08:21:11Z</time>
      </trkpt>
      <trkpt lat="48.90616" lon="-0.45046">
        <ele>121.26</ele>
        <time>2013-05-25T08:21:23Z</time>
      </trkpt>
      <trkpt lat="48.90602" lon="-0.45047">
        <ele>120.3</ele>
        <time>2013-05-25T08:21:35Z</time>
      </trkpt>
      <trkpt lat="48.90599" lon="-0.45048">
        <ele>119.82</ele>
        <time>2013-05-25T08:21:39Z</time>
      </trkpt>
      <trkpt lat="48.90596" lon="-0.45048">
        <ele>118.86</ele>
        <time>2013-05-25T08:21:42Z</time>
      </trkpt>
      <trkpt lat="48.90577" lon="-0.45046">
        <ele>117.42</ele>
        <time>2013-05-25T08:21:56Z</time>
      </trkpt>
      <trkpt lat="48.90561" lon="-0.45044">
        <ele>115.98</ele>
        <time>2013-05-25T08:22:10Z</time>
      </trkpt>
      <trkpt lat="48.90546" lon="-0.45042">
        <ele>114.53</ele>
        <time>2013-05-25T08:22:23Z</time>
      </trkpt>
      <trkpt lat="48.90531" lon="-0.4504">
        <ele>114.53</ele>
        <time>2013-05-25T08:22:35Z</time>
      </trkpt>
      <trkpt lat="48.90518" lon="-0.45038">
        <ele>113.09</ele>
        <time>2013-05-25T08:22:47Z</time>
      </trkpt>
      <trkpt lat="48.90502" lon="-0.45033">
        <ele>111.65</ele>
        <time>2013-05-25T08:23:00Z</time>
      </trkpt>
      <trkpt lat="48.90492" lon="-0.4503">
        <ele>111.17</ele>
        <time>2013-05-25T08:23:09Z</time>
      </trkpt>
      <trkpt lat="48.90475" lon="-0.45028">
        <ele>109.25</ele>
        <time>2013-05-25T08:23:24Z</time>
      </trkpt>
      <trkpt lat="48.90472" lon="-0.45026">
        <ele>108.77</ele>
        <time>2013-05-25T08:23:28Z</time>
      </trkpt>
      <trkpt lat="48.90469" lon="-0.45025">
        <ele>108.77</ele>
        <time>2013-05-25T08:23:31Z</time>
      </trkpt>
      <trkpt lat="48.90453" lon="-0.45025">
        <ele>106.84</ele>
        <time>2013-05-25T08:23:44Z</time>
      </trkpt>
      <trkpt lat="48.90443" lon="-0.45024">
        <ele>105.4</ele>
        <time>2013-05-25T08:23:54Z</time>
      </trkpt>
      <trkpt lat="48.90438" lon="-0.45025">
        <ele>104.44</ele>
        <time>2013-05-25T08:24:01Z</time>
      </trkpt>
      <trkpt lat="48.90431" lon="-0.45025">
        <ele>103.96</ele>
        <time>2013-05-25T08:24:07Z</time>
      </trkpt>
      <trkpt lat="48.90422" lon="-0.45026">
        <ele>102.52</ele>
        <time>2013-05-25T08:24:15Z</time>
      </trkpt>
      <trkpt lat="48.90415" lon="-0.45029">
        <ele>101.56</ele>
        <time>2013-05-25T08:24:20Z</time>
      </trkpt>
      <trkpt lat="48.90411" lon="-0.45032">
        <ele>101.56</ele>
        <time>2013-05-25T08:24:24Z</time>
      </trkpt>
      <trkpt lat="48.90406" lon="-0.45036">
        <ele>100.6</ele>
        <time>2013-05-25T08:24:28Z</time>
      </trkpt>
      <trkpt lat="48.90404" lon="-0.4504">
        <ele>100.6</ele>
        <time>2013-05-25T08:24:31Z</time>
      </trkpt>
      <trkpt lat="48.90393" lon="-0.45055">
        <ele>98.19</ele>
        <time>2013-05-25T08:24:44Z</time>
      </trkpt>
      <trkpt lat="48.90391" lon="-0.45058">
        <ele>98.19</ele>
        <time>2013-05-25T08:24:47Z</time>
      </trkpt>
      <trkpt lat="48.90378" lon="-0.45062">
        <ele>96.27</ele>
        <time>2013-05-25T08:24:59Z</time>
      </trkpt>
      <trkpt lat="48.90374" lon="-0.45058">
        <ele>95.79</ele>
        <time>2013-05-25T08:25:03Z</time>
      </trkpt>
      <trkpt lat="48.90372" lon="-0.45052">
        <ele>95.31</ele>
        <time>2013-05-25T08:25:07Z</time>
      </trkpt>
      <trkpt lat="48.9037" lon="-0.45042">
        <ele>94.83</ele>
        <time>2013-05-25T08:25:14Z</time>
      </trkpt>
      <trkpt lat="48.9037" lon="-0.45036">
        <ele>94.35</ele>
        <time>2013-05-25T08:25:18Z</time>
      </trkpt>
      <trkpt lat="48.90362" lon="-0.45024">
        <ele>94.35</ele>
        <time>2013-05-25T08:25:30Z</time>
      </trkpt>
      <trkpt lat="48.90356" lon="-0.45021">
        <ele>94.35</ele>
        <time>2013-05-25T08:25:35Z</time>
      </trkpt>
      <trkpt lat="48.90354" lon="-0.45019">
        <ele>93.87</ele>
        <time>2013-05-25T08:25:37Z</time>
      </trkpt>
      <trkpt lat="48.90346" lon="-0.45023">
        <ele>93.87</ele>
        <time>2013-05-25T08:25:46Z</time>
      </trkpt>
      <trkpt lat="48.90344" lon="-0.45024">
        <ele>93.87</ele>
        <time>2013-05-25T08:25:48Z</time>
      </trkpt>
      <trkpt lat="48.90335" lon="-0.45033">
        <ele>93.87</ele>
        <time>2013-05-25T08:25:57Z</time>
      </trkpt>
      <trkpt lat="48.9033" lon="-0.45042">
        <ele>93.39</ele>
        <time>2013-05-25T08:26:03Z</time>
      </trkpt>
      <trkpt lat="48.90318" lon="-0.45065">
        <ele>91.94</ele>
        <time>2013-05-25T08:26:18Z</time>
      </trkpt>
      <trkpt lat="48.90311" lon="-0.4508">
        <ele>91.46</ele>
        <time>2013-05-25T08:26:31Z</time>
      </trkpt>
      <trkpt lat="48.90309" lon="-0.45085">
        <ele>90.98</ele>
        <time>2013-05-25T08:26:35Z</time>
      </trkpt>
      <trkpt lat="48.90297" lon="-0.45107">
        <ele>90.5</ele>
        <time>2013-05-25T08:26:49Z</time>
      </trkpt>
      <trkpt lat="48.90281" lon="-0.45125">
        <ele>90.02</ele>
        <time>2013-05-25T08:27:03Z</time>
      </trkpt>
      <trkpt lat="48.90269" lon="-0.45138">
        <ele>89.54</ele>
        <time>2013-05-25T08:27:16Z</time>
      </trkpt>
      <trkpt lat="48.90252" lon="-0.45149">
        <ele>89.06</ele>
        <time>2013-05-25T08:27:29Z</time>
      </trkpt>
      <trkpt lat="48.90238" lon="-0.45159">
        <ele>89.54</ele>
        <time>2013-05-25T08:27:42Z</time>
      </trkpt>
      <trkpt lat="48.90232" lon="-0.45163">
        <ele>88.58</ele>
        <time>2013-05-25T08:27:48Z</time>
      </trkpt>
      <trkpt lat="48.90229" lon="-0.45167">
        <ele>88.58</ele>
        <time>2013-05-25T08:27:50Z</time>
      </trkpt>
      <trkpt lat="48.90227" lon="-0.45169">
        <ele>88.58</ele>
        <time>2013-05-25T08:27:52Z</time>
      </trkpt>
      <trkpt lat="48.90222" lon="-0.4517">
        <ele>88.58</ele>
        <time>2013-05-25T08:27:56Z</time>
      </trkpt>
      <trkpt lat="48.90214" lon="-0.45173">
        <ele>89.06</ele>
        <time>2013-05-25T08:28:02Z</time>
      </trkpt>
      <trkpt lat="48.90208" lon="-0.45174">
        <ele>89.06</ele>
        <time>2013-05-25T08:28:09Z</time>
      </trkpt>
      <trkpt lat="48.90194" lon="-0.45189">
        <ele>88.1</ele>
        <time>2013-05-25T08:28:23Z</time>
      </trkpt>
      <trkpt lat="48.90185" lon="-0.45198">
        <ele>89.06</ele>
        <time>2013-05-25T08:28:35Z</time>
      </trkpt>
      <trkpt lat="48.90182" lon="-0.45201">
        <ele>88.58</ele>
        <time>2013-05-25T08:28:38Z</time>
      </trkpt>
      <trkpt lat="48.90178" lon="-0.45202">
        <ele>89.06</ele>
        <time>2013-05-25T08:28:43Z</time>
      </trkpt>
      <trkpt lat="48.90176" lon="-0.45203">
        <ele>89.06</ele>
        <time>2013-05-25T08:28:45Z</time>
      </trkpt>
      <trkpt lat="48.90171" lon="-0.45206">
        <ele>89.06</ele>
        <time>2013-05-25T08:28:51Z</time>
      </trkpt>
      <trkpt lat="48.9016" lon="-0.45215">
        <ele>88.58</ele>
        <time>2013-05-25T08:29:00Z</time>
      </trkpt>
      <trkpt lat="48.90149" lon="-0.45217">
        <ele>89.06</ele>
        <time>2013-05-25T08:29:08Z</time>
      </trkpt>
      <trkpt lat="48.90133" lon="-0.45215">
        <ele>90.02</ele>
        <time>2013-05-25T08:29:23Z</time>
      </trkpt>
      <trkpt lat="48.90116" lon="-0.45213">
        <ele>90.02</ele>
        <time>2013-05-25T08:29:37Z</time>
      </trkpt>
      <trkpt lat="48.90101" lon="-0.4521">
        <ele>90.02</ele>
        <time>2013-05-25T08:29:49Z</time>
      </trkpt>
      <trkpt lat="48.90087" lon="-0.45208">
        <ele>88.1</ele>
        <time>2013-05-25T08:30:01Z</time>
      </trkpt>
      <trkpt lat="48.90086" lon="-0.45208">
        <ele>89.06</ele>
        <time>2013-05-25T08:30:02Z</time>
      </trkpt>
      <trkpt lat="48.90083" lon="-0.45207">
        <ele>88.1</ele>
        <time>2013-05-25T08:30:04Z</time>
      </trkpt>
      <trkpt lat="48.90075" lon="-0.45207">
        <ele>87.62</ele>
        <time>2013-05-25T08:30:10Z</time>
      </trkpt>
      <trkpt lat="48.90057" lon="-0.45207">
        <ele>86.66</ele>
        <time>2013-05-25T08:30:23Z</time>
      </trkpt>
      <trkpt lat="48.90041" lon="-0.45208">
        <ele>85.69</ele>
        <time>2013-05-25T08:30:36Z</time>
      </trkpt>
      <trkpt lat="48.90029" lon="-0.45208">
        <ele>85.21</ele>
        <time>2013-05-25T08:30:46Z</time>
      </trkpt>
      <trkpt lat="48.90012" lon="-0.45209">
        <ele>84.25</ele>
        <time>2013-05-25T08:31:00Z</time>
      </trkpt>
      <trkpt lat="48.90008" lon="-0.45209">
        <ele>84.25</ele>
        <time>2013-05-25T08:31:04Z</time>
      </trkpt>
      <trkpt lat="48.89999" lon="-0.4521">
        <ele>83.77</ele>
        <time>2013-05-25T08:31:19Z</time>
      </trkpt>
      <trkpt lat="48.89998" lon="-0.4521">
        <ele>83.77</ele>
        <time>2013-05-25T08:31:20Z</time>
      </trkpt>
      <trkpt lat="48.89994" lon="-0.4522">
        <ele>82.33</ele>
        <time>2013-05-25T08:31:28Z</time>
      </trkpt>
      <trkpt lat="48.89991" lon="-0.45232">
        <ele>82.33</ele>
        <time>2013-05-25T08:31:42Z</time>
      </trkpt>
      <trkpt lat="48.89987" lon="-0.45236">
        <ele>81.85</ele>
        <time>2013-05-25T08:31:58Z</time>
      </trkpt>
      <trkpt lat="48.89986" lon="-0.45237">
        <ele>81.85</ele>
        <time>2013-05-25T08:32:01Z</time>
      </trkpt>
      <trkpt lat="48.89976" lon="-0.45242">
        <ele>81.37</ele>
        <time>2013-05-25T08:32:12Z</time>
      </trkpt>
      <trkpt lat="48.89971" lon="-0.45242">
        <ele>81.37</ele>
        <time>2013-05-25T08:32:16Z</time>
      </trkpt>
      <trkpt lat="48.89968" lon="-0.45245">
        <ele>80.89</ele>
        <time>2013-05-25T08:32:19Z</time>
      </trkpt>
      <trkpt lat="48.89963" lon="-0.45248">
        <ele>80.89</ele>
        <time>2013-05-25T08:32:24Z</time>
      </trkpt>
      <trkpt lat="48.89947" lon="-0.45249">
        <ele>80.41</ele>
        <time>2013-05-25T08:32:36Z</time>
      </trkpt>
      <trkpt lat="48.89931" lon="-0.45251">
        <ele>79.45</ele>
        <time>2013-05-25T08:32:48Z</time>
      </trkpt>
      <trkpt lat="48.89918" lon="-0.45254">
        <ele>78.97</ele>
        <time>2013-05-25T08:32:59Z</time>
      </trkpt>
      <trkpt lat="48.89907" lon="-0.45255">
        <ele>78.48</ele>
        <time>2013-05-25T08:33:08Z</time>
      </trkpt>
      <trkpt lat="48.89888" lon="-0.45259">
        <ele>78</ele>
        <time>2013-05-25T08:33:23Z</time>
      </trkpt>
      <trkpt lat="48.89879" lon="-0.45259">
        <ele>78</ele>
        <time>2013-05-25T08:33:31Z</time>
      </trkpt>
      <trkpt lat="48.89875" lon="-0.45261">
        <ele>77.04</ele>
        <time>2013-05-25T08:33:35Z</time>
      </trkpt>
      <trkpt lat="48.89869" lon="-0.45259">
        <ele>77.04</ele>
        <time>2013-05-25T08:33:39Z</time>
      </trkpt>
      <trkpt lat="48.89847" lon="-0.45258">
        <ele>75.12</ele>
        <time>2013-05-25T08:33:54Z</time>
      </trkpt>
      <trkpt lat="48.8984" lon="-0.45256">
        <ele>74.16</ele>
        <time>2013-05-25T08:34:08Z</time>
      </trkpt>
      <trkpt lat="48.89837" lon="-0.45255">
        <ele>73.68</ele>
        <time>2013-05-25T08:34:25Z</time>
      </trkpt>
      <trkpt lat="48.89836" lon="-0.45255">
        <ele>73.68</ele>
        <time>2013-05-25T08:34:29Z</time>
      </trkpt>
      <trkpt lat="48.89833" lon="-0.45257">
        <ele>73.2</ele>
        <time>2013-05-25T08:34:33Z</time>
      </trkpt>
      <trkpt lat="48.89815" lon="-0.45257">
        <ele>72.24</ele>
        <time>2013-05-25T08:34:47Z</time>
      </trkpt>
      <trkpt lat="48.89814" lon="-0.45257">
        <ele>72.24</ele>
        <time>2013-05-25T08:34:48Z</time>
      </trkpt>
      <trkpt lat="48.89811" lon="-0.45256">
        <ele>72.24</ele>
        <time>2013-05-25T08:34:50Z</time>
      </trkpt>
      <trkpt lat="48.89798" lon="-0.45261">
        <ele>71.27</ele>
        <time>2013-05-25T08:35:01Z</time>
      </trkpt>
      <trkpt lat="48.89793" lon="-0.45265">
        <ele>70.79</ele>
        <time>2013-05-25T08:35:06Z</time>
      </trkpt>
      <trkpt lat="48.89781" lon="-0.45275">
        <ele>69.83</ele>
        <time>2013-05-25T08:35:19Z</time>
      </trkpt>
      <trkpt lat="48.89779" lon="-0.45275">
        <ele>69.83</ele>
        <time>2013-05-25T08:35:22Z</time>
      </trkpt>
      <trkpt lat="48.89775" lon="-0.45268">
        <ele>69.83</ele>
        <time>2013-05-25T08:35:27Z</time>
      </trkpt>
      <trkpt lat="48.89773" lon="-0.45258">
        <ele>69.83</ele>
        <time>2013-05-25T08:35:32Z</time>
      </trkpt>
      <trkpt lat="48.89772" lon="-0.45247">
        <ele>70.31</ele>
        <time>2013-05-25T08:35:38Z</time>
      </trkpt>
      <trkpt lat="48.89771" lon="-0.45241">
        <ele>70.79</ele>
        <time>2013-05-25T08:35:42Z</time>
      </trkpt>
      <trkpt lat="48.89772" lon="-0.45225">
        <ele>71.27</ele>
        <time>2013-05-25T08:35:50Z</time>
      </trkpt>
      <trkpt lat="48.89771" lon="-0.45218">
        <ele>71.76</ele>
        <time>2013-05-25T08:35:54Z</time>
      </trkpt>
      <trkpt lat="48.89771" lon="-0.4521">
        <ele>71.76</ele>
        <time>2013-05-25T08:35:58Z</time>
      </trkpt>
      <trkpt lat="48.89771" lon="-0.45199">
        <ele>71.76</ele>
        <time>2013-05-25T08:36:04Z</time>
      </trkpt>
      <trkpt lat="48.89772" lon="-0.45184">
        <ele>71.76</ele>
        <time>2013-05-25T08:36:11Z</time>
      </trkpt>
      <trkpt lat="48.89773" lon="-0.45178">
        <ele>72.24</ele>
        <time>2013-05-25T08:36:14Z</time>
      </trkpt>
      <trkpt lat="48.89778" lon="-0.45155">
        <ele>73.2</ele>
        <time>2013-05-25T08:36:26Z</time>
      </trkpt>
      <trkpt lat="48.89779" lon="-0.45153">
        <ele>72.72</ele>
        <time>2013-05-25T08:36:27Z</time>
      </trkpt>
      <trkpt lat="48.89781" lon="-0.45133">
        <ele>74.16</ele>
        <time>2013-05-25T08:36:41Z</time>
      </trkpt>
      <trkpt lat="48.89781" lon="-0.45132">
        <ele>74.16</ele>
        <time>2013-05-25T08:36:43Z</time>
      </trkpt>
      <trkpt lat="48.89783" lon="-0.45124">
        <ele>74.16</ele>
        <time>2013-05-25T08:36:52Z</time>
      </trkpt>
      <trkpt lat="48.89787" lon="-0.45104">
        <ele>75.6</ele>
        <time>2013-05-25T08:37:06Z</time>
      </trkpt>
      <trkpt lat="48.89788" lon="-0.451">
        <ele>75.12</ele>
        <time>2013-05-25T08:37:08Z</time>
      </trkpt>
      <trkpt lat="48.89789" lon="-0.45089">
        <ele>76.08</ele>
        <time>2013-05-25T08:37:14Z</time>
      </trkpt>
      <trkpt lat="48.89788" lon="-0.45072">
        <ele>77.04</ele>
        <time>2013-05-25T08:37:24Z</time>
      </trkpt>
      <trkpt lat="48.89787" lon="-0.45064">
        <ele>76.56</ele>
        <time>2013-05-25T08:37:30Z</time>
      </trkpt>
      <trkpt lat="48.89784" lon="-0.45036">
        <ele>78</ele>
        <time>2013-05-25T08:37:46Z</time>
      </trkpt>
      <trkpt lat="48.89784" lon="-0.4503">
        <ele>78</ele>
        <time>2013-05-25T08:37:58Z</time>
      </trkpt>
      <trkpt lat="48.89784" lon="-0.4503">
        <ele>77.52</ele>
        <time>2013-05-25T08:38:19Z</time>
      </trkpt>
      <trkpt lat="48.89783" lon="-0.45028">
        <ele>78</ele>
        <time>2013-05-25T08:38:38Z</time>
      </trkpt>
      <trkpt lat="48.89783" lon="-0.45024">
        <ele>78</ele>
        <time>2013-05-25T08:38:43Z</time>
      </trkpt>
      <trkpt lat="48.89782" lon="-0.45021">
        <ele>78.48</ele>
        <time>2013-05-25T08:38:45Z</time>
      </trkpt>
      <trkpt lat="48.8978" lon="-0.45014">
        <ele>78.48</ele>
        <time>2013-05-25T08:38:49Z</time>
      </trkpt>
      <trkpt lat="48.89776" lon="-0.44995">
        <ele>78.97</ele>
        <time>2013-05-25T08:39:00Z</time>
      </trkpt>
      <trkpt lat="48.89771" lon="-0.44969">
        <ele>79.93</ele>
        <time>2013-05-25T08:39:14Z</time>
      </trkpt>
      <trkpt lat="48.8977" lon="-0.44967">
        <ele>79.93</ele>
        <time>2013-05-25T08:39:15Z</time>
      </trkpt>
      <trkpt lat="48.89767" lon="-0.44955">
        <ele>80.41</ele>
        <time>2013-05-25T08:39:21Z</time>
      </trkpt>
      <trkpt lat="48.89761" lon="-0.44934">
        <ele>80.89</ele>
        <time>2013-05-25T08:39:33Z</time>
      </trkpt>
      <trkpt lat="48.8976" lon="-0.44933">
        <ele>80.89</ele>
        <time>2013-05-25T08:39:34Z</time>
      </trkpt>
      <trkpt lat="48.89753" lon="-0.44907">
        <ele>81.85</ele>
        <time>2013-05-25T08:39:49Z</time>
      </trkpt>
      <trkpt lat="48.89749" lon="-0.44898">
        <ele>80.41</ele>
        <time>2013-05-25T08:40:02Z</time>
      </trkpt>
      <trkpt lat="48.89746" lon="-0.44896">
        <ele>80.41</ele>
        <time>2013-05-25T08:40:18Z</time>
      </trkpt>
      <trkpt lat="48.89742" lon="-0.44893">
        <ele>79.93</ele>
        <time>2013-05-25T08:40:22Z</time>
      </trkpt>
      <trkpt lat="48.89736" lon="-0.44888">
        <ele>78.97</ele>
        <time>2013-05-25T08:40:29Z</time>
      </trkpt>
      <trkpt lat="48.89718" lon="-0.4488">
        <ele>78</ele>
        <time>2013-05-25T08:40:43Z</time>
      </trkpt>
      <trkpt lat="48.89708" lon="-0.44857">
        <ele>77.52</ele>
        <time>2013-05-25T08:40:58Z</time>
      </trkpt>
      <trkpt lat="48.89708" lon="-0.44853">
        <ele>77.52</ele>
        <time>2013-05-25T08:41:00Z</time>
      </trkpt>
      <trkpt lat="48.89708" lon="-0.44846">
        <ele>77.52</ele>
        <time>2013-05-25T08:41:04Z</time>
      </trkpt>
      <trkpt lat="48.89701" lon="-0.44819">
        <ele>76.56</ele>
        <time>2013-05-25T08:41:19Z</time>
      </trkpt>
      <trkpt lat="48.897" lon="-0.44818">
        <ele>76.56</ele>
        <time>2013-05-25T08:41:20Z</time>
      </trkpt>
      <trkpt lat="48.89698" lon="-0.4481">
        <ele>76.08</ele>
        <time>2013-05-25T08:41:24Z</time>
      </trkpt>
      <trkpt lat="48.89688" lon="-0.44788">
        <ele>73.68</ele>
        <time>2013-05-25T08:41:38Z</time>
      </trkpt>
      <trkpt lat="48.89684" lon="-0.44774">
        <ele>72.72</ele>
        <time>2013-05-25T08:41:46Z</time>
      </trkpt>
      <trkpt lat="48.89682" lon="-0.44763">
        <ele>71.76</ele>
        <time>2013-05-25T08:41:53Z</time>
      </trkpt>
      <trkpt lat="48.89683" lon="-0.44753">
        <ele>70.79</ele>
        <time>2013-05-25T08:41:59Z</time>
      </trkpt>
      <trkpt lat="48.89693" lon="-0.44738">
        <ele>68.87</ele>
        <time>2013-05-25T08:42:11Z</time>
      </trkpt>
      <trkpt lat="48.89701" lon="-0.44731">
        <ele>67.43</ele>
        <time>2013-05-25T08:42:18Z</time>
      </trkpt>
      <trkpt lat="48.89703" lon="-0.44729">
        <ele>66.95</ele>
        <time>2013-05-25T08:42:20Z</time>
      </trkpt>
      <trkpt lat="48.8972" lon="-0.4472">
        <ele>65.03</ele>
        <time>2013-05-25T08:42:35Z</time>
      </trkpt>
      <trkpt lat="48.89736" lon="-0.44713">
        <ele>62.62</ele>
        <time>2013-05-25T08:42:49Z</time>
      </trkpt>
      <trkpt lat="48.8975" lon="-0.44707">
        <ele>60.22</ele>
        <time>2013-05-25T08:43:03Z</time>
      </trkpt>
      <trkpt lat="48.8976" lon="-0.44699">
        <ele>59.74</ele>
        <time>2013-05-25T08:43:14Z</time>
      </trkpt>
      <trkpt lat="48.89763" lon="-0.44696">
        <ele>59.74</ele>
        <time>2013-05-25T08:43:38Z</time>
      </trkpt>
      <trkpt lat="48.89765" lon="-0.44697">
        <ele>60.22</ele>
        <time>2013-05-25T08:44:07Z</time>
      </trkpt>
      <trkpt lat="48.89765" lon="-0.44697">
        <ele>59.74</ele>
        <time>2013-05-25T08:44:30Z</time>
      </trkpt>
      <trkpt lat="48.89767" lon="-0.44696">
        <ele>59.74</ele>
        <time>2013-05-25T08:44:45Z</time>
      </trkpt>
      <trkpt lat="48.89767" lon="-0.44698">
        <ele>60.22</ele>
        <time>2013-05-25T08:45:00Z</time>
      </trkpt>
      <trkpt lat="48.8977" lon="-0.44698">
        <ele>59.26</ele>
        <time>2013-05-25T08:45:04Z</time>
      </trkpt>
      <trkpt lat="48.89777" lon="-0.44689">
        <ele>57.82</ele>
        <time>2013-05-25T08:45:18Z</time>
      </trkpt>
      <trkpt lat="48.89777" lon="-0.44681">
        <ele>57.34</ele>
        <time>2013-05-25T08:45:27Z</time>
      </trkpt>
      <trkpt lat="48.89774" lon="-0.44674">
        <ele>56.86</ele>
        <time>2013-05-25T08:45:33Z</time>
      </trkpt>
      <trkpt lat="48.89764" lon="-0.44671">
        <ele>55.89</ele>
        <time>2013-05-25T08:45:45Z</time>
      </trkpt>
      <trkpt lat="48.89757" lon="-0.44667">
        <ele>54.93</ele>
        <time>2013-05-25T08:45:54Z</time>
      </trkpt>
      <trkpt lat="48.89752" lon="-0.44668">
        <ele>54.45</ele>
        <time>2013-05-25T08:45:59Z</time>
      </trkpt>
      <trkpt lat="48.89738" lon="-0.44667">
        <ele>53.97</ele>
        <time>2013-05-25T08:46:12Z</time>
      </trkpt>
      <trkpt lat="48.89725" lon="-0.44663">
        <ele>53.49</ele>
        <time>2013-05-25T08:46:24Z</time>
      </trkpt>
      <trkpt lat="48.8972" lon="-0.44663">
        <ele>52.53</ele>
        <time>2013-05-25T08:46:28Z</time>
      </trkpt>
      <trkpt lat="48.897" lon="-0.4466">
        <ele>50.61</ele>
        <time>2013-05-25T08:46:42Z</time>
      </trkpt>
      <trkpt lat="48.89696" lon="-0.44655">
        <ele>49.65</ele>
        <time>2013-05-25T08:46:50Z</time>
      </trkpt>
      <trkpt lat="48.89688" lon="-0.44653">
        <ele>49.16</ele>
        <time>2013-05-25T08:46:54Z</time>
      </trkpt>
      <trkpt lat="48.89679" lon="-0.44643">
        <ele>48.2</ele>
        <time>2013-05-25T08:47:02Z</time>
      </trkpt>
      <trkpt lat="48.89679" lon="-0.44632">
        <ele>48.68</ele>
        <time>2013-05-25T08:47:07Z</time>
      </trkpt>
      <trkpt lat="48.89684" lon="-0.44618">
        <ele>48.2</ele>
        <time>2013-05-25T08:47:13Z</time>
      </trkpt>
      <trkpt lat="48.89687" lon="-0.44608">
        <ele>48.2</ele>
        <time>2013-05-25T08:47:18Z</time>
      </trkpt>
      <trkpt lat="48.89692" lon="-0.44589">
        <ele>49.16</ele>
        <time>2013-05-25T08:47:31Z</time>
      </trkpt>
      <trkpt lat="48.89693" lon="-0.44585">
        <ele>48.68</ele>
        <time>2013-05-25T08:47:33Z</time>
      </trkpt>
      <trkpt lat="48.89692" lon="-0.44561">
        <ele>47.24</ele>
        <time>2013-05-25T08:47:47Z</time>
      </trkpt>
      <trkpt lat="48.89693" lon="-0.44544">
        <ele>46.28</ele>
        <time>2013-05-25T08:47:56Z</time>
      </trkpt>
      <trkpt lat="48.89692" lon="-0.44535">
        <ele>45.8</ele>
        <time>2013-05-25T08:48:01Z</time>
      </trkpt>
      <trkpt lat="48.89696" lon="-0.44517">
        <ele>44.84</ele>
        <time>2013-05-25T08:48:15Z</time>
      </trkpt>
      <trkpt lat="48.89697" lon="-0.44509">
        <ele>44.84</ele>
        <time>2013-05-25T08:48:20Z</time>
      </trkpt>
      <trkpt lat="48.89697" lon="-0.44499">
        <ele>44.84</ele>
        <time>2013-05-25T08:48:34Z</time>
      </trkpt>
      <trkpt lat="48.89702" lon="-0.44491">
        <ele>44.36</ele>
        <time>2013-05-25T08:48:44Z</time>
      </trkpt>
      <trkpt lat="48.89703" lon="-0.44475">
        <ele>44.84</ele>
        <time>2013-05-25T08:48:57Z</time>
      </trkpt>
      <trkpt lat="48.89709" lon="-0.4446">
        <ele>45.8</ele>
        <time>2013-05-25T08:49:07Z</time>
      </trkpt>
      <trkpt lat="48.89711" lon="-0.44445">
        <ele>46.28</ele>
        <time>2013-05-25T08:49:17Z</time>
      </trkpt>
      <trkpt lat="48.89717" lon="-0.4443">
        <ele>46.76</ele>
        <time>2013-05-25T08:49:25Z</time>
      </trkpt>
      <trkpt lat="48.89717" lon="-0.44415">
        <ele>46.28</ele>
        <time>2013-05-25T08:49:35Z</time>
      </trkpt>
      <trkpt lat="48.89719" lon="-0.44407">
        <ele>45.8</ele>
        <time>2013-05-25T08:49:40Z</time>
      </trkpt>
      <trkpt lat="48.89723" lon="-0.44389">
        <ele>45.32</ele>
        <time>2013-05-25T08:49:50Z</time>
      </trkpt>
      <trkpt lat="48.89726" lon="-0.44376">
        <ele>44.84</ele>
        <time>2013-05-25T08:50:05Z</time>
      </trkpt>
      <trkpt lat="48.89731" lon="-0.44361">
        <ele>44.84</ele>
        <time>2013-05-25T08:50:18Z</time>
      </trkpt>
      <trkpt lat="48.8973" lon="-0.44344">
        <ele>44.84</ele>
        <time>2013-05-25T08:50:30Z</time>
      </trkpt>
      <trkpt lat="48.89733" lon="-0.44312">
        <ele>45.8</ele>
        <time>2013-05-25T08:50:46Z</time>
      </trkpt>
      <trkpt lat="48.89733" lon="-0.44311">
        <ele>45.32</ele>
        <time>2013-05-25T08:50:47Z</time>
      </trkpt>
      <trkpt lat="48.89735" lon="-0.44298">
        <ele>45.32</ele>
        <time>2013-05-25T08:50:54Z</time>
      </trkpt>
      <trkpt lat="48.89731" lon="-0.44286">
        <ele>45.32</ele>
        <time>2013-05-25T08:51:06Z</time>
      </trkpt>
      <trkpt lat="48.89724" lon="-0.44268">
        <ele>44.36</ele>
        <time>2013-05-25T08:51:18Z</time>
      </trkpt>
      <trkpt lat="48.89718" lon="-0.44252">
        <ele>44.36</ele>
        <time>2013-05-25T08:51:30Z</time>
      </trkpt>
      <trkpt lat="48.89715" lon="-0.44233">
        <ele>44.36</ele>
        <time>2013-05-25T08:51:41Z</time>
      </trkpt>
      <trkpt lat="48.89713" lon="-0.44218">
        <ele>44.36</ele>
        <time>2013-05-25T08:51:51Z</time>
      </trkpt>
      <trkpt lat="48.8971" lon="-0.44204">
        <ele>44.84</ele>
        <time>2013-05-25T08:52:03Z</time>
      </trkpt>
      <trkpt lat="48.89706" lon="-0.44196">
        <ele>44.36</ele>
        <time>2013-05-25T08:52:09Z</time>
      </trkpt>
      <trkpt lat="48.89692" lon="-0.44175">
        <ele>44.36</ele>
        <time>2013-05-25T08:52:25Z</time>
      </trkpt>
      <trkpt lat="48.89691" lon="-0.44171">
        <ele>44.84</ele>
        <time>2013-05-25T08:52:28Z</time>
      </trkpt>
      <trkpt lat="48.89688" lon="-0.44151">
        <ele>44.36</ele>
        <time>2013-05-25T08:52:40Z</time>
      </trkpt>
      <trkpt lat="48.89683" lon="-0.44139">
        <ele>44.36</ele>
        <time>2013-05-25T08:52:49Z</time>
      </trkpt>
      <trkpt lat="48.89683" lon="-0.44126">
        <ele>44.36</ele>
        <time>2013-05-25T08:52:55Z</time>
      </trkpt>
      <trkpt lat="48.89675" lon="-0.44105">
        <ele>45.32</ele>
        <time>2013-05-25T08:53:08Z</time>
      </trkpt>
      <trkpt lat="48.89669" lon="-0.44096">
        <ele>46.28</ele>
        <time>2013-05-25T08:53:18Z</time>
      </trkpt>
      <trkpt lat="48.89668" lon="-0.44094">
        <ele>46.28</ele>
        <time>2013-05-25T08:53:19Z</time>
      </trkpt>
      <trkpt lat="48.89657" lon="-0.44078">
        <ele>47.72</ele>
        <time>2013-05-25T08:53:32Z</time>
      </trkpt>
      <trkpt lat="48.8965" lon="-0.44065">
        <ele>49.16</ele>
        <time>2013-05-25T08:53:45Z</time>
      </trkpt>
      <trkpt lat="48.89642" lon="-0.44054">
        <ele>50.13</ele>
        <time>2013-05-25T08:53:55Z</time>
      </trkpt>
      <trkpt lat="48.89625" lon="-0.44033">
        <ele>50.61</ele>
        <time>2013-05-25T08:54:10Z</time>
      </trkpt>
      <trkpt lat="48.89606" lon="-0.44016">
        <ele>51.09</ele>
        <time>2013-05-25T08:54:24Z</time>
      </trkpt>
      <trkpt lat="48.89601" lon="-0.4401">
        <ele>51.57</ele>
        <time>2013-05-25T08:54:28Z</time>
      </trkpt>
      <trkpt lat="48.89594" lon="-0.44">
        <ele>52.05</ele>
        <time>2013-05-25T08:54:41Z</time>
      </trkpt>
      <trkpt lat="48.89592" lon="-0.43997">
        <ele>52.53</ele>
        <time>2013-05-25T08:54:43Z</time>
      </trkpt>
      <trkpt lat="48.89584" lon="-0.43982">
        <ele>53.97</ele>
        <time>2013-05-25T08:54:56Z</time>
      </trkpt>
      <trkpt lat="48.89583" lon="-0.43981">
        <ele>54.45</ele>
        <time>2013-05-25T08:54:57Z</time>
      </trkpt>
      <trkpt lat="48.89577" lon="-0.43962">
        <ele>55.89</ele>
        <time>2013-05-25T08:55:09Z</time>
      </trkpt>
      <trkpt lat="48.89574" lon="-0.43942">
        <ele>57.82</ele>
        <time>2013-05-25T08:55:21Z</time>
      </trkpt>
      <trkpt lat="48.8957" lon="-0.43924">
        <ele>59.26</ele>
        <time>2013-05-25T08:55:33Z</time>
      </trkpt>
      <trkpt lat="48.89568" lon="-0.43917">
        <ele>60.22</ele>
        <time>2013-05-25T08:55:48Z</time>
      </trkpt>
      <trkpt lat="48.89566" lon="-0.43912">
        <ele>61.18</ele>
        <time>2013-05-25T08:56:00Z</time>
      </trkpt>
      <trkpt lat="48.89563" lon="-0.43893">
        <ele>63.1</ele>
        <time>2013-05-25T08:56:13Z</time>
      </trkpt>
      <trkpt lat="48.89557" lon="-0.4387">
        <ele>65.03</ele>
        <time>2013-05-25T08:56:27Z</time>
      </trkpt>
      <trkpt lat="48.89559" lon="-0.43854">
        <ele>67.91</ele>
        <time>2013-05-25T08:56:38Z</time>
      </trkpt>
      <trkpt lat="48.89557" lon="-0.43843">
        <ele>71.27</ele>
        <time>2013-05-25T08:56:51Z</time>
      </trkpt>
      <trkpt lat="48.89554" lon="-0.43816">
        <ele>73.68</ele>
        <time>2013-05-25T08:57:05Z</time>
      </trkpt>
      <trkpt lat="48.89552" lon="-0.43804">
        <ele>77.04</ele>
        <time>2013-05-25T08:57:18Z</time>
      </trkpt>
      <trkpt lat="48.89552" lon="-0.43792">
        <ele>79.45</ele>
        <time>2013-05-25T08:57:29Z</time>
      </trkpt>
      <trkpt lat="48.89557" lon="-0.43778">
        <ele>82.81</ele>
        <time>2013-05-25T08:57:41Z</time>
      </trkpt>
      <trkpt lat="48.89562" lon="-0.43768">
        <ele>84.73</ele>
        <time>2013-05-25T08:57:52Z</time>
      </trkpt>
      <trkpt lat="48.89566" lon="-0.43755">
        <ele>86.66</ele>
        <time>2013-05-25T08:58:06Z</time>
      </trkpt>
      <trkpt lat="48.89569" lon="-0.43747">
        <ele>87.62</ele>
        <time>2013-05-25T08:58:20Z</time>
      </trkpt>
      <trkpt lat="48.89569" lon="-0.43744">
        <ele>88.1</ele>
        <time>2013-05-25T08:58:29Z</time>
      </trkpt>
      <trkpt lat="48.89572" lon="-0.43733">
        <ele>90.02</ele>
        <time>2013-05-25T08:58:40Z</time>
      </trkpt>
      <trkpt lat="48.89572" lon="-0.43732">
        <ele>90.5</ele>
        <time>2013-05-25T08:58:41Z</time>
      </trkpt>
      <trkpt lat="48.89578" lon="-0.43714">
        <ele>91.46</ele>
        <time>2013-05-25T08:58:54Z</time>
      </trkpt>
      <trkpt lat="48.89582" lon="-0.43699">
        <ele>92.9</ele>
        <time>2013-05-25T08:59:05Z</time>
      </trkpt>
      <trkpt lat="48.89583" lon="-0.43697">
        <ele>92.42</ele>
        <time>2013-05-25T08:59:11Z</time>
      </trkpt>
      <trkpt lat="48.89584" lon="-0.43692">
        <ele>92.42</ele>
        <time>2013-05-25T08:59:14Z</time>
      </trkpt>
      <trkpt lat="48.8959" lon="-0.43675">
        <ele>92.9</ele>
        <time>2013-05-25T08:59:28Z</time>
      </trkpt>
      <trkpt lat="48.89591" lon="-0.4367">
        <ele>92.9</ele>
        <time>2013-05-25T08:59:41Z</time>
      </trkpt>
      <trkpt lat="48.8959" lon="-0.43671">
        <ele>92.9</ele>
        <time>2013-05-25T08:59:48Z</time>
      </trkpt>
      <trkpt lat="48.89589" lon="-0.43672">
        <ele>92.9</ele>
        <time>2013-05-25T08:59:50Z</time>
      </trkpt>
      <trkpt lat="48.89589" lon="-0.43675">
        <ele>92.42</ele>
        <time>2013-05-25T08:59:52Z</time>
      </trkpt>
      <trkpt lat="48.89588" lon="-0.43679">
        <ele>92.42</ele>
        <time>2013-05-25T08:59:55Z</time>
      </trkpt>
      <trkpt lat="48.89586" lon="-0.43684">
        <ele>91.94</ele>
        <time>2013-05-25T08:59:59Z</time>
      </trkpt>
      <trkpt lat="48.89582" lon="-0.43695">
        <ele>92.42</ele>
        <time>2013-05-25T09:00:12Z</time>
      </trkpt>
      <trkpt lat="48.89583" lon="-0.43696">
        <ele>90.98</ele>
        <time>2013-05-25T09:00:15Z</time>
      </trkpt>
      <trkpt lat="48.89583" lon="-0.43697">
        <ele>90.98</ele>
        <time>2013-05-25T09:00:39Z</time>
      </trkpt>
      <trkpt lat="48.89583" lon="-0.43697">
        <ele>90.5</ele>
        <time>2013-05-25T09:01:08Z</time>
      </trkpt>
      <trkpt lat="48.89584" lon="-0.43696">
        <ele>90.98</ele>
        <time>2013-05-25T09:01:34Z</time>
      </trkpt>
      <trkpt lat="48.89584" lon="-0.43696">
        <ele>90.5</ele>
        <time>2013-05-25T09:02:06Z</time>
      </trkpt>
      <trkpt lat="48.89584" lon="-0.43697">
        <ele>90.5</ele>
        <time>2013-05-25T09:02:34Z</time>
      </trkpt>
      <trkpt lat="48.89584" lon="-0.43697">
        <ele>89.54</ele>
        <time>2013-05-25T09:03:08Z</time>
      </trkpt>
      <trkpt lat="48.89583" lon="-0.43697">
        <ele>89.54</ele>
        <time>2013-05-25T09:03:37Z</time>
      </trkpt>
      <trkpt lat="48.89583" lon="-0.43697">
        <ele>90.02</ele>
        <time>2013-05-25T09:04:12Z</time>
      </trkpt>
      <trkpt lat="48.89583" lon="-0.43697">
        <ele>90.02</ele>
        <time>2013-05-25T09:04:43Z</time>
      </trkpt>
      <trkpt lat="48.89584" lon="-0.43697">
        <ele>88.58</ele>
        <time>2013-05-25T09:05:14Z</time>
      </trkpt>
      <trkpt lat="48.89584" lon="-0.43697">
        <ele>88.58</ele>
        <time>2013-05-25T09:05:38Z</time>
      </trkpt>
      <trkpt lat="48.89583" lon="-0.43697">
        <ele>90.02</ele>
        <time>2013-05-25T09:05:51Z</time>
      </trkpt>
      <trkpt lat="48.89586" lon="-0.43684">
        <ele>90.5</ele>
        <time>2013-05-25T09:06:03Z</time>
      </trkpt>
      <trkpt lat="48.89588" lon="-0.43676">
        <ele>90.5</ele>
        <time>2013-05-25T09:06:13Z</time>
      </trkpt>
      <trkpt lat="48.89592" lon="-0.43662">
        <ele>91.46</ele>
        <time>2013-05-25T09:06:24Z</time>
      </trkpt>
      <trkpt lat="48.89595" lon="-0.43654">
        <ele>90.98</ele>
        <time>2013-05-25T09:06:29Z</time>
      </trkpt>
      <trkpt lat="48.896" lon="-0.43634">
        <ele>90.5</ele>
        <time>2013-05-25T09:06:40Z</time>
      </trkpt>
      <trkpt lat="48.89601" lon="-0.43632">
        <ele>90.5</ele>
        <time>2013-05-25T09:06:41Z</time>
      </trkpt>
      <trkpt lat="48.89605" lon="-0.43616">
        <ele>90.98</ele>
        <time>2013-05-25T09:06:50Z</time>
      </trkpt>
      <trkpt lat="48.89607" lon="-0.43609">
        <ele>90.5</ele>
        <time>2013-05-25T09:06:54Z</time>
      </trkpt>
      <trkpt lat="48.89609" lon="-0.43598">
        <ele>90.02</ele>
        <time>2013-05-25T09:07:01Z</time>
      </trkpt>
      <trkpt lat="48.89609" lon="-0.43594">
        <ele>89.54</ele>
        <time>2013-05-25T09:07:04Z</time>
      </trkpt>
      <trkpt lat="48.89611" lon="-0.43588">
        <ele>89.54</ele>
        <time>2013-05-25T09:07:08Z</time>
      </trkpt>
      <trkpt lat="48.89613" lon="-0.43581">
        <ele>89.54</ele>
        <time>2013-05-25T09:07:12Z</time>
      </trkpt>
      <trkpt lat="48.89617" lon="-0.43571">
        <ele>89.54</ele>
        <time>2013-05-25T09:07:18Z</time>
      </trkpt>
      <trkpt lat="48.89618" lon="-0.43564">
        <ele>89.54</ele>
        <time>2013-05-25T09:07:22Z</time>
      </trkpt>
      <trkpt lat="48.8962" lon="-0.43554">
        <ele>89.54</ele>
        <time>2013-05-25T09:07:28Z</time>
      </trkpt>
      <trkpt lat="48.89622" lon="-0.43551">
        <ele>89.54</ele>
        <time>2013-05-25T09:07:30Z</time>
      </trkpt>
      <trkpt lat="48.89626" lon="-0.43534">
        <ele>89.06</ele>
        <time>2013-05-25T09:07:39Z</time>
      </trkpt>
      <trkpt lat="48.89629" lon="-0.43521">
        <ele>89.06</ele>
        <time>2013-05-25T09:07:47Z</time>
      </trkpt>
      <trkpt lat="48.89634" lon="-0.43503">
        <ele>89.06</ele>
        <time>2013-05-25T09:07:58Z</time>
      </trkpt>
      <trkpt lat="48.8964" lon="-0.43483">
        <ele>88.58</ele>
        <time>2013-05-25T09:08:09Z</time>
      </trkpt>
      <trkpt lat="48.89643" lon="-0.43471">
        <ele>88.58</ele>
        <time>2013-05-25T09:08:16Z</time>
      </trkpt>
      <trkpt lat="48.89649" lon="-0.43449">
        <ele>88.58</ele>
        <time>2013-05-25T09:08:29Z</time>
      </trkpt>
      <trkpt lat="48.89656" lon="-0.43425">
        <ele>89.06</ele>
        <time>2013-05-25T09:08:42Z</time>
      </trkpt>
      <trkpt lat="48.89658" lon="-0.43417">
        <ele>89.06</ele>
        <time>2013-05-25T09:08:47Z</time>
      </trkpt>
      <trkpt lat="48.89659" lon="-0.43409">
        <ele>89.54</ele>
        <time>2013-05-25T09:08:51Z</time>
      </trkpt>
      <trkpt lat="48.89661" lon="-0.434">
        <ele>89.54</ele>
        <time>2013-05-25T09:08:56Z</time>
      </trkpt>
      <trkpt lat="48.89662" lon="-0.43394">
        <ele>89.54</ele>
        <time>2013-05-25T09:09:00Z</time>
      </trkpt>
      <trkpt lat="48.89668" lon="-0.43375">
        <ele>90.02</ele>
        <time>2013-05-25T09:09:12Z</time>
      </trkpt>
      <trkpt lat="48.89669" lon="-0.43371">
        <ele>89.54</ele>
        <time>2013-05-25T09:09:14Z</time>
      </trkpt>
      <trkpt lat="48.89673" lon="-0.43348">
        <ele>90.98</ele>
        <time>2013-05-25T09:09:26Z</time>
      </trkpt>
      <trkpt lat="48.89674" lon="-0.4334">
        <ele>90.5</ele>
        <time>2013-05-25T09:09:36Z</time>
      </trkpt>
      <trkpt lat="48.89674" lon="-0.4334">
        <ele>90.98</ele>
        <time>2013-05-25T09:09:37Z</time>
      </trkpt>
      <trkpt lat="48.89675" lon="-0.43336">
        <ele>90.5</ele>
        <time>2013-05-25T09:09:40Z</time>
      </trkpt>
      <trkpt lat="48.89683" lon="-0.43314">
        <ele>91.94</ele>
        <time>2013-05-25T09:09:54Z</time>
      </trkpt>
      <trkpt lat="48.89688" lon="-0.43301">
        <ele>90.98</ele>
        <time>2013-05-25T09:10:02Z</time>
      </trkpt>
      <trkpt lat="48.8969" lon="-0.43295">
        <ele>91.46</ele>
        <time>2013-05-25T09:10:06Z</time>
      </trkpt>
      <trkpt lat="48.89701" lon="-0.43269">
        <ele>91.94</ele>
        <time>2013-05-25T09:10:22Z</time>
      </trkpt>
      <trkpt lat="48.89701" lon="-0.43265">
        <ele>91.94</ele>
        <time>2013-05-25T09:10:24Z</time>
      </trkpt>
      <trkpt lat="48.89706" lon="-0.43241">
        <ele>92.42</ele>
        <time>2013-05-25T09:10:37Z</time>
      </trkpt>
      <trkpt lat="48.89711" lon="-0.43228">
        <ele>92.42</ele>
        <time>2013-05-25T09:10:44Z</time>
      </trkpt>
      <trkpt lat="48.89719" lon="-0.43198">
        <ele>91.94</ele>
        <time>2013-05-25T09:11:00Z</time>
      </trkpt>
      <trkpt lat="48.8972" lon="-0.43194">
        <ele>91.46</ele>
        <time>2013-05-25T09:11:02Z</time>
      </trkpt>
      <trkpt lat="48.89724" lon="-0.43178">
        <ele>91.94</ele>
        <time>2013-05-25T09:11:11Z</time>
      </trkpt>
      <trkpt lat="48.8973" lon="-0.4316">
        <ele>91.94</ele>
        <time>2013-05-25T09:11:22Z</time>
      </trkpt>
      <trkpt lat="48.89737" lon="-0.4314">
        <ele>91.94</ele>
        <time>2013-05-25T09:11:33Z</time>
      </trkpt>
      <trkpt lat="48.89743" lon="-0.43115">
        <ele>93.39</ele>
        <time>2013-05-25T09:11:47Z</time>
      </trkpt>
      <trkpt lat="48.89743" lon="-0.43109">
        <ele>93.87</ele>
        <time>2013-05-25T09:11:50Z</time>
      </trkpt>
      <trkpt lat="48.89742" lon="-0.43104">
        <ele>92.42</ele>
        <time>2013-05-25T09:11:54Z</time>
      </trkpt>
      <trkpt lat="48.89729" lon="-0.43098">
        <ele>91.94</ele>
        <time>2013-05-25T09:12:05Z</time>
      </trkpt>
      <trkpt lat="48.8971" lon="-0.43093">
        <ele>89.54</ele>
        <time>2013-05-25T09:12:21Z</time>
      </trkpt>
      <trkpt lat="48.89695" lon="-0.43091">
        <ele>88.58</ele>
        <time>2013-05-25T09:12:34Z</time>
      </trkpt>
      <trkpt lat="48.89679" lon="-0.43089">
        <ele>87.62</ele>
        <time>2013-05-25T09:12:46Z</time>
      </trkpt>
      <trkpt lat="48.89662" lon="-0.431">
        <ele>86.18</ele>
        <time>2013-05-25T09:12:59Z</time>
      </trkpt>
      <trkpt lat="48.89653" lon="-0.43121">
        <ele>84.25</ele>
        <time>2013-05-25T09:13:13Z</time>
      </trkpt>
      <trkpt lat="48.89651" lon="-0.43124">
        <ele>83.77</ele>
        <time>2013-05-25T09:13:17Z</time>
      </trkpt>
      <trkpt lat="48.89643" lon="-0.43125">
        <ele>80.89</ele>
        <time>2013-05-25T09:13:30Z</time>
      </trkpt>
      <trkpt lat="48.89637" lon="-0.43127">
        <ele>78.97</ele>
        <time>2013-05-25T09:13:41Z</time>
      </trkpt>
      <trkpt lat="48.89634" lon="-0.43129">
        <ele>78</ele>
        <time>2013-05-25T09:13:45Z</time>
      </trkpt>
      <trkpt lat="48.89623" lon="-0.43132">
        <ele>75.6</ele>
        <time>2013-05-25T09:13:55Z</time>
      </trkpt>
      <trkpt lat="48.89611" lon="-0.43133">
        <ele>73.68</ele>
        <time>2013-05-25T09:14:04Z</time>
      </trkpt>
      <trkpt lat="48.89601" lon="-0.43136">
        <ele>72.24</ele>
        <time>2013-05-25T09:14:17Z</time>
      </trkpt>
      <trkpt lat="48.8959" lon="-0.4314">
        <ele>71.76</ele>
        <time>2013-05-25T09:14:29Z</time>
      </trkpt>
      <trkpt lat="48.89583" lon="-0.43142">
        <ele>71.27</ele>
        <time>2013-05-25T09:14:36Z</time>
      </trkpt>
      <trkpt lat="48.89577" lon="-0.43142">
        <ele>70.79</ele>
        <time>2013-05-25T09:14:47Z</time>
      </trkpt>
      <trkpt lat="48.89572" lon="-0.43145">
        <ele>72.72</ele>
        <time>2013-05-25T09:14:55Z</time>
      </trkpt>
      <trkpt lat="48.89563" lon="-0.43142">
        <ele>74.64</ele>
        <time>2013-05-25T09:15:08Z</time>
      </trkpt>
      <trkpt lat="48.89551" lon="-0.43136">
        <ele>76.08</ele>
        <time>2013-05-25T09:15:21Z</time>
      </trkpt>
      <trkpt lat="48.89544" lon="-0.4313">
        <ele>78</ele>
        <time>2013-05-25T09:15:32Z</time>
      </trkpt>
      <trkpt lat="48.89538" lon="-0.43126">
        <ele>78.97</ele>
        <time>2013-05-25T09:15:39Z</time>
      </trkpt>
      <trkpt lat="48.89532" lon="-0.43114">
        <ele>80.89</ele>
        <time>2013-05-25T09:15:50Z</time>
      </trkpt>
      <trkpt lat="48.89527" lon="-0.43099">
        <ele>81.85</ele>
        <time>2013-05-25T09:16:03Z</time>
      </trkpt>
      <trkpt lat="48.89518" lon="-0.43088">
        <ele>83.77</ele>
        <time>2013-05-25T09:16:15Z</time>
      </trkpt>
      <trkpt lat="48.89514" lon="-0.43081">
        <ele>83.77</ele>
        <time>2013-05-25T09:16:27Z</time>
      </trkpt>
      <trkpt lat="48.89514" lon="-0.43077">
        <ele>83.77</ele>
        <time>2013-05-25T09:16:45Z</time>
      </trkpt>
      <trkpt lat="48.89506" lon="-0.43072">
        <ele>85.21</ele>
        <time>2013-05-25T09:16:58Z</time>
      </trkpt>
      <trkpt lat="48.89503" lon="-0.43058">
        <ele>86.18</ele>
        <time>2013-05-25T09:17:11Z</time>
      </trkpt>
      <trkpt lat="48.89501" lon="-0.43048">
        <ele>87.14</ele>
        <time>2013-05-25T09:17:23Z</time>
      </trkpt>
      <trkpt lat="48.89499" lon="-0.4304">
        <ele>87.62</ele>
        <time>2013-05-25T09:17:32Z</time>
      </trkpt>
      <trkpt lat="48.89497" lon="-0.43028">
        <ele>87.14</ele>
        <time>2013-05-25T09:17:43Z</time>
      </trkpt>
      <trkpt lat="48.89494" lon="-0.43015">
        <ele>86.18</ele>
        <time>2013-05-25T09:17:55Z</time>
      </trkpt>
      <trkpt lat="48.89484" lon="-0.42987">
        <ele>86.18</ele>
        <time>2013-05-25T09:18:07Z</time>
      </trkpt>
      <trkpt lat="48.8947" lon="-0.42974">
        <ele>86.66</ele>
        <time>2013-05-25T09:18:19Z</time>
      </trkpt>
      <trkpt lat="48.89463" lon="-0.42966">
        <ele>87.62</ele>
        <time>2013-05-25T09:18:27Z</time>
      </trkpt>
      <trkpt lat="48.8946" lon="-0.42963">
        <ele>87.62</ele>
        <time>2013-05-25T09:18:30Z</time>
      </trkpt>
      <trkpt lat="48.89455" lon="-0.42962">
        <ele>88.58</ele>
        <time>2013-05-25T09:18:42Z</time>
      </trkpt>
      <trkpt lat="48.89453" lon="-0.42964">
        <ele>89.06</ele>
        <time>2013-05-25T09:19:02Z</time>
      </trkpt>
      <trkpt lat="48.89451" lon="-0.42976">
        <ele>89.54</ele>
        <time>2013-05-25T09:19:10Z</time>
      </trkpt>
      <trkpt lat="48.89451" lon="-0.42981">
        <ele>89.54</ele>
        <time>2013-05-25T09:19:13Z</time>
      </trkpt>
      <trkpt lat="48.89447" lon="-0.43001">
        <ele>90.98</ele>
        <time>2013-05-25T09:19:25Z</time>
      </trkpt>
      <trkpt lat="48.89447" lon="-0.43009">
        <ele>91.46</ele>
        <time>2013-05-25T09:19:29Z</time>
      </trkpt>
      <trkpt lat="48.89436" lon="-0.43037">
        <ele>91.46</ele>
        <time>2013-05-25T09:19:47Z</time>
      </trkpt>
      <trkpt lat="48.89435" lon="-0.43039">
        <ele>91.94</ele>
        <time>2013-05-25T09:19:49Z</time>
      </trkpt>
      <trkpt lat="48.89435" lon="-0.43045">
        <ele>91.94</ele>
        <time>2013-05-25T09:20:04Z</time>
      </trkpt>
      <trkpt lat="48.89435" lon="-0.43045">
        <ele>91.46</ele>
        <time>2013-05-25T09:20:22Z</time>
      </trkpt>
      <trkpt lat="48.89435" lon="-0.43045">
        <ele>91.94</ele>
        <time>2013-05-25T09:20:52Z</time>
      </trkpt>
      <trkpt lat="48.89435" lon="-0.43045">
        <ele>91.94</ele>
        <time>2013-05-25T09:21:20Z</time>
      </trkpt>
      <trkpt lat="48.89434" lon="-0.43043">
        <ele>91.94</ele>
        <time>2013-05-25T09:21:22Z</time>
      </trkpt>
      <trkpt lat="48.8943" lon="-0.43039">
        <ele>90.98</ele>
        <time>2013-05-25T09:21:26Z</time>
      </trkpt>
      <trkpt lat="48.89422" lon="-0.43035">
        <ele>91.94</ele>
        <time>2013-05-25T09:21:34Z</time>
      </trkpt>
      <trkpt lat="48.89407" lon="-0.43026">
        <ele>91.94</ele>
        <time>2013-05-25T09:21:50Z</time>
      </trkpt>
      <trkpt lat="48.89387" lon="-0.43013">
        <ele>91.94</ele>
        <time>2013-05-25T09:22:07Z</time>
      </trkpt>
      <trkpt lat="48.89373" lon="-0.43004">
        <ele>92.42</ele>
        <time>2013-05-25T09:22:21Z</time>
      </trkpt>
      <trkpt lat="48.89357" lon="-0.42997">
        <ele>92.42</ele>
        <time>2013-05-25T09:22:34Z</time>
      </trkpt>
      <trkpt lat="48.89355" lon="-0.42996">
        <ele>92.42</ele>
        <time>2013-05-25T09:22:36Z</time>
      </trkpt>
      <trkpt lat="48.89353" lon="-0.42994">
        <ele>92.42</ele>
        <time>2013-05-25T09:22:38Z</time>
      </trkpt>
      <trkpt lat="48.89345" lon="-0.42987">
        <ele>92.42</ele>
        <time>2013-05-25T09:22:47Z</time>
      </trkpt>
      <trkpt lat="48.89332" lon="-0.42982">
        <ele>92.9</ele>
        <time>2013-05-25T09:22:59Z</time>
      </trkpt>
      <trkpt lat="48.89313" lon="-0.42972">
        <ele>93.39</ele>
        <time>2013-05-25T09:23:15Z</time>
      </trkpt>
      <trkpt lat="48.89311" lon="-0.4297">
        <ele>93.39</ele>
        <time>2013-05-25T09:23:17Z</time>
      </trkpt>
      <trkpt lat="48.89294" lon="-0.42963">
        <ele>94.83</ele>
        <time>2013-05-25T09:23:33Z</time>
      </trkpt>
      <trkpt lat="48.89278" lon="-0.42953">
        <ele>95.31</ele>
        <time>2013-05-25T09:23:46Z</time>
      </trkpt>
      <trkpt lat="48.89271" lon="-0.42948">
        <ele>96.27</ele>
        <time>2013-05-25T09:23:53Z</time>
      </trkpt>
      <trkpt lat="48.89265" lon="-0.42945">
        <ele>96.27</ele>
        <time>2013-05-25T09:23:58Z</time>
      </trkpt>
      <trkpt lat="48.89246" lon="-0.42934">
        <ele>97.71</ele>
        <time>2013-05-25T09:24:15Z</time>
      </trkpt>
      <trkpt lat="48.89241" lon="-0.42933">
        <ele>98.19</ele>
        <time>2013-05-25T09:24:19Z</time>
      </trkpt>
      <trkpt lat="48.89227" lon="-0.42925">
        <ele>100.11</ele>
        <time>2013-05-25T09:24:35Z</time>
      </trkpt>
      <trkpt lat="48.89215" lon="-0.42919">
        <ele>101.08</ele>
        <time>2013-05-25T09:24:47Z</time>
      </trkpt>
      <trkpt lat="48.89211" lon="-0.42918">
        <ele>101.56</ele>
        <time>2013-05-25T09:24:51Z</time>
      </trkpt>
      <trkpt lat="48.89197" lon="-0.42908">
        <ele>103.96</ele>
        <time>2013-05-25T09:25:06Z</time>
      </trkpt>
      <trkpt lat="48.89187" lon="-0.42901">
        <ele>105.4</ele>
        <time>2013-05-25T09:25:17Z</time>
      </trkpt>
      <trkpt lat="48.89184" lon="-0.42899">
        <ele>105.88</ele>
        <time>2013-05-25T09:25:20Z</time>
      </trkpt>
      <trkpt lat="48.89169" lon="-0.42893">
        <ele>108.29</ele>
        <time>2013-05-25T09:25:33Z</time>
      </trkpt>
      <trkpt lat="48.89164" lon="-0.42892">
        <ele>108.77</ele>
        <time>2013-05-25T09:25:38Z</time>
      </trkpt>
      <trkpt lat="48.89153" lon="-0.42885">
        <ele>111.17</ele>
        <time>2013-05-25T09:25:52Z</time>
      </trkpt>
      <trkpt lat="48.89151" lon="-0.42884">
        <ele>111.65</ele>
        <time>2013-05-25T09:25:54Z</time>
      </trkpt>
      <trkpt lat="48.8914" lon="-0.42877">
        <ele>113.57</ele>
        <time>2013-05-25T09:26:09Z</time>
      </trkpt>
      <trkpt lat="48.8913" lon="-0.42869">
        <ele>115.98</ele>
        <time>2013-05-25T09:26:23Z</time>
      </trkpt>
      <trkpt lat="48.89124" lon="-0.42866">
        <ele>116.94</ele>
        <time>2013-05-25T09:26:37Z</time>
      </trkpt>
      <trkpt lat="48.89123" lon="-0.42866">
        <ele>116.94</ele>
        <time>2013-05-25T09:26:57Z</time>
      </trkpt>
      <trkpt lat="48.89121" lon="-0.42866">
        <ele>117.42</ele>
        <time>2013-05-25T09:27:19Z</time>
      </trkpt>
      <trkpt lat="48.89121" lon="-0.4286">
        <ele>117.42</ele>
        <time>2013-05-25T09:27:44Z</time>
      </trkpt>
      <trkpt lat="48.89121" lon="-0.42858">
        <ele>117.9</ele>
        <time>2013-05-25T09:27:45Z</time>
      </trkpt>
      <trkpt lat="48.8912" lon="-0.42854">
        <ele>118.38</ele>
        <time>2013-05-25T09:27:49Z</time>
      </trkpt>
      <trkpt lat="48.89121" lon="-0.42849">
        <ele>118.86</ele>
        <time>2013-05-25T09:27:52Z</time>
      </trkpt>
      <trkpt lat="48.89121" lon="-0.42843">
        <ele>118.86</ele>
        <time>2013-05-25T09:27:56Z</time>
      </trkpt>
      <trkpt lat="48.89123" lon="-0.42836">
        <ele>119.34</ele>
        <time>2013-05-25T09:28:01Z</time>
      </trkpt>
      <trkpt lat="48.89125" lon="-0.42821">
        <ele>120.3</ele>
        <time>2013-05-25T09:28:14Z</time>
      </trkpt>
      <trkpt lat="48.89129" lon="-0.42808">
        <ele>121.74</ele>
        <time>2013-05-25T09:28:27Z</time>
      </trkpt>
      <trkpt lat="48.89132" lon="-0.42799">
        <ele>122.22</ele>
        <time>2013-05-25T09:28:35Z</time>
      </trkpt>
      <trkpt lat="48.89135" lon="-0.42778">
        <ele>123.67</ele>
        <time>2013-05-25T09:28:48Z</time>
      </trkpt>
      <trkpt lat="48.89138" lon="-0.42763">
        <ele>124.15</ele>
        <time>2013-05-25T09:28:58Z</time>
      </trkpt>
      <trkpt lat="48.89139" lon="-0.42762">
        <ele>124.15</ele>
        <time>2013-05-25T09:28:59Z</time>
      </trkpt>
      <trkpt lat="48.89143" lon="-0.42751">
        <ele>124.63</ele>
        <time>2013-05-25T09:29:07Z</time>
      </trkpt>
      <trkpt lat="48.89147" lon="-0.42731">
        <ele>125.59</ele>
        <time>2013-05-25T09:29:21Z</time>
      </trkpt>
      <trkpt lat="48.89148" lon="-0.42725">
        <ele>126.55</ele>
        <time>2013-05-25T09:29:26Z</time>
      </trkpt>
      <trkpt lat="48.8915" lon="-0.4272">
        <ele>126.55</ele>
        <time>2013-05-25T09:29:28Z</time>
      </trkpt>
      <trkpt lat="48.89156" lon="-0.42695">
        <ele>127.03</ele>
        <time>2013-05-25T09:29:44Z</time>
      </trkpt>
      <trkpt lat="48.89156" lon="-0.42692">
        <ele>127.51</ele>
        <time>2013-05-25T09:29:47Z</time>
      </trkpt>
      <trkpt lat="48.8916" lon="-0.42681">
        <ele>127.03</ele>
        <time>2013-05-25T09:29:53Z</time>
      </trkpt>
      <trkpt lat="48.89164" lon="-0.42667">
        <ele>127.51</ele>
        <time>2013-05-25T09:30:01Z</time>
      </trkpt>
      <trkpt lat="48.8917" lon="-0.42642">
        <ele>127.99</ele>
        <time>2013-05-25T09:30:14Z</time>
      </trkpt>
      <trkpt lat="48.89176" lon="-0.42617">
        <ele>128.95</ele>
        <time>2013-05-25T09:30:28Z</time>
      </trkpt>
      <trkpt lat="48.89179" lon="-0.42604">
        <ele>128.95</ele>
        <time>2013-05-25T09:30:34Z</time>
      </trkpt>
      <trkpt lat="48.8918" lon="-0.42596">
        <ele>129.43</ele>
        <time>2013-05-25T09:30:38Z</time>
      </trkpt>
      <trkpt lat="48.89187" lon="-0.42575">
        <ele>129.43</ele>
        <time>2013-05-25T09:30:51Z</time>
      </trkpt>
      <trkpt lat="48.89187" lon="-0.42571">
        <ele>129.43</ele>
        <time>2013-05-25T09:30:54Z</time>
      </trkpt>
      <trkpt lat="48.89191" lon="-0.42555">
        <ele>129.92</ele>
        <time>2013-05-25T09:31:02Z</time>
      </trkpt>
      <trkpt lat="48.89194" lon="-0.42546">
        <ele>129.43</ele>
        <time>2013-05-25T09:31:08Z</time>
      </trkpt>
      <trkpt lat="48.89198" lon="-0.42526">
        <ele>129.92</ele>
        <time>2013-05-25T09:31:21Z</time>
      </trkpt>
      <trkpt lat="48.89202" lon="-0.42514">
        <ele>130.4</ele>
        <time>2013-05-25T09:31:27Z</time>
      </trkpt>
      <trkpt lat="48.89202" lon="-0.42511">
        <ele>130.4</ele>
        <time>2013-05-25T09:31:29Z</time>
      </trkpt>
      <trkpt lat="48.89209" lon="-0.42477">
        <ele>130.88</ele>
        <time>2013-05-25T09:31:46Z</time>
      </trkpt>
      <trkpt lat="48.89212" lon="-0.42464">
        <ele>131.36</ele>
        <time>2013-05-25T09:31:57Z</time>
      </trkpt>
      <trkpt lat="48.89216" lon="-0.42445">
        <ele>130.88</ele>
        <time>2013-05-25T09:32:10Z</time>
      </trkpt>
      <trkpt lat="48.89216" lon="-0.42443">
        <ele>130.88</ele>
        <time>2013-05-25T09:32:12Z</time>
      </trkpt>
      <trkpt lat="48.89219" lon="-0.42431">
        <ele>130.88</ele>
        <time>2013-05-25T09:32:24Z</time>
      </trkpt>
      <trkpt lat="48.89222" lon="-0.42411">
        <ele>130.4</ele>
        <time>2013-05-25T09:32:35Z</time>
      </trkpt>
      <trkpt lat="48.89225" lon="-0.42404">
        <ele>130.88</ele>
        <time>2013-05-25T09:32:41Z</time>
      </trkpt>
      <trkpt lat="48.89226" lon="-0.42393">
        <ele>130.4</ele>
        <time>2013-05-25T09:32:50Z</time>
      </trkpt>
      <trkpt lat="48.89234" lon="-0.42367">
        <ele>130.88</ele>
        <time>2013-05-25T09:33:03Z</time>
      </trkpt>
      <trkpt lat="48.89237" lon="-0.42358">
        <ele>130.88</ele>
        <time>2013-05-25T09:33:07Z</time>
      </trkpt>
      <trkpt lat="48.8924" lon="-0.42341">
        <ele>129.92</ele>
        <time>2013-05-25T09:33:18Z</time>
      </trkpt>
      <trkpt lat="48.89245" lon="-0.42322">
        <ele>129.92</ele>
        <time>2013-05-25T09:33:31Z</time>
      </trkpt>
      <trkpt lat="48.89246" lon="-0.42315">
        <ele>129.92</ele>
        <time>2013-05-25T09:33:36Z</time>
      </trkpt>
      <trkpt lat="48.89249" lon="-0.42293">
        <ele>129.92</ele>
        <time>2013-05-25T09:33:47Z</time>
      </trkpt>
      <trkpt lat="48.89255" lon="-0.42277">
        <ele>129.92</ele>
        <time>2013-05-25T09:34:01Z</time>
      </trkpt>
      <trkpt lat="48.89259" lon="-0.42262">
        <ele>129.92</ele>
        <time>2013-05-25T09:34:11Z</time>
      </trkpt>
      <trkpt lat="48.89261" lon="-0.42252">
        <ele>129.92</ele>
        <time>2013-05-25T09:34:28Z</time>
      </trkpt>
      <trkpt lat="48.89262" lon="-0.42245">
        <ele>129.43</ele>
        <time>2013-05-25T09:34:32Z</time>
      </trkpt>
      <trkpt lat="48.89269" lon="-0.42225">
        <ele>129.92</ele>
        <time>2013-05-25T09:34:42Z</time>
      </trkpt>
      <trkpt lat="48.89272" lon="-0.42206">
        <ele>130.4</ele>
        <time>2013-05-25T09:34:55Z</time>
      </trkpt>
      <trkpt lat="48.89275" lon="-0.42193">
        <ele>130.4</ele>
        <time>2013-05-25T09:35:02Z</time>
      </trkpt>
      <trkpt lat="48.8928" lon="-0.4217">
        <ele>129.92</ele>
        <time>2013-05-25T09:35:16Z</time>
      </trkpt>
      <trkpt lat="48.89282" lon="-0.42159">
        <ele>130.4</ele>
        <time>2013-05-25T09:35:27Z</time>
      </trkpt>
      <trkpt lat="48.89286" lon="-0.42143">
        <ele>130.4</ele>
        <time>2013-05-25T09:35:38Z</time>
      </trkpt>
      <trkpt lat="48.89289" lon="-0.42129">
        <ele>130.4</ele>
        <time>2013-05-25T09:35:45Z</time>
      </trkpt>
      <trkpt lat="48.89293" lon="-0.421">
        <ele>131.36</ele>
        <time>2013-05-25T09:35:59Z</time>
      </trkpt>
      <trkpt lat="48.89296" lon="-0.42091">
        <ele>130.88</ele>
        <time>2013-05-25T09:36:05Z</time>
      </trkpt>
      <trkpt lat="48.89299" lon="-0.4208">
        <ele>130.88</ele>
        <time>2013-05-25T09:36:11Z</time>
      </trkpt>
      <trkpt lat="48.89301" lon="-0.42069">
        <ele>130.88</ele>
        <time>2013-05-25T09:36:15Z</time>
      </trkpt>
      <trkpt lat="48.89311" lon="-0.42036">
        <ele>130.88</ele>
        <time>2013-05-25T09:36:31Z</time>
      </trkpt>
      <trkpt lat="48.89318" lon="-0.42007">
        <ele>130.4</ele>
        <time>2013-05-25T09:36:45Z</time>
      </trkpt>
      <trkpt lat="48.89326" lon="-0.41976">
        <ele>129.92</ele>
        <time>2013-05-25T09:37:02Z</time>
      </trkpt>
      <trkpt lat="48.89333" lon="-0.41948">
        <ele>128.95</ele>
        <time>2013-05-25T09:37:17Z</time>
      </trkpt>
      <trkpt lat="48.89335" lon="-0.41932">
        <ele>128.47</ele>
        <time>2013-05-25T09:37:26Z</time>
      </trkpt>
      <trkpt lat="48.8934" lon="-0.41919">
        <ele>127.99</ele>
        <time>2013-05-25T09:37:41Z</time>
      </trkpt>
      <trkpt lat="48.89339" lon="-0.41912">
        <ele>127.51</ele>
        <time>2013-05-25T09:37:55Z</time>
      </trkpt>
      <trkpt lat="48.89341" lon="-0.41903">
        <ele>127.99</ele>
        <time>2013-05-25T09:38:04Z</time>
      </trkpt>
      <trkpt lat="48.89341" lon="-0.41901">
        <ele>127.99</ele>
        <time>2013-05-25T09:38:06Z</time>
      </trkpt>
      <trkpt lat="48.89345" lon="-0.41891">
        <ele>127.51</ele>
        <time>2013-05-25T09:38:12Z</time>
      </trkpt>
      <trkpt lat="48.89346" lon="-0.41859">
        <ele>127.03</ele>
        <time>2013-05-25T09:38:30Z</time>
      </trkpt>
      <trkpt lat="48.89346" lon="-0.41851">
        <ele>126.55</ele>
        <time>2013-05-25T09:38:34Z</time>
      </trkpt>
      <trkpt lat="48.89347" lon="-0.41827">
        <ele>125.59</ele>
        <time>2013-05-25T09:38:47Z</time>
      </trkpt>
      <trkpt lat="48.89347" lon="-0.41821">
        <ele>126.07</ele>
        <time>2013-05-25T09:38:51Z</time>
      </trkpt>
      <trkpt lat="48.89345" lon="-0.41815">
        <ele>125.59</ele>
        <time>2013-05-25T09:38:55Z</time>
      </trkpt>
      <trkpt lat="48.89343" lon="-0.41801">
        <ele>125.11</ele>
        <time>2013-05-25T09:39:03Z</time>
      </trkpt>
      <trkpt lat="48.89343" lon="-0.41795">
        <ele>125.11</ele>
        <time>2013-05-25T09:39:06Z</time>
      </trkpt>
      <trkpt lat="48.89343" lon="-0.41775">
        <ele>124.63</ele>
        <time>2013-05-25T09:39:18Z</time>
      </trkpt>
      <trkpt lat="48.89343" lon="-0.41774">
        <ele>125.11</ele>
        <time>2013-05-25T09:39:19Z</time>
      </trkpt>
      <trkpt lat="48.89342" lon="-0.41765">
        <ele>125.11</ele>
        <time>2013-05-25T09:39:24Z</time>
      </trkpt>
      <trkpt lat="48.8934" lon="-0.41757">
        <ele>124.63</ele>
        <time>2013-05-25T09:39:28Z</time>
      </trkpt>
      <trkpt lat="48.89336" lon="-0.4173">
        <ele>124.15</ele>
        <time>2013-05-25T09:39:42Z</time>
      </trkpt>
      <trkpt lat="48.89335" lon="-0.4172">
        <ele>123.67</ele>
        <time>2013-05-25T09:39:47Z</time>
      </trkpt>
      <trkpt lat="48.89332" lon="-0.41702">
        <ele>123.67</ele>
        <time>2013-05-25T09:39:57Z</time>
      </trkpt>
      <trkpt lat="48.89331" lon="-0.41691">
        <ele>123.19</ele>
        <time>2013-05-25T09:40:03Z</time>
      </trkpt>
      <trkpt lat="48.8933" lon="-0.41676">
        <ele>123.19</ele>
        <time>2013-05-25T09:40:13Z</time>
      </trkpt>
      <trkpt lat="48.8933" lon="-0.41671">
        <ele>123.19</ele>
        <time>2013-05-25T09:40:26Z</time>
      </trkpt>
      <trkpt lat="48.8933" lon="-0.41664">
        <ele>122.22</ele>
        <time>2013-05-25T09:40:39Z</time>
      </trkpt>
      <trkpt lat="48.89323" lon="-0.41658">
        <ele>119.82</ele>
        <time>2013-05-25T09:40:51Z</time>
      </trkpt>
      <trkpt lat="48.8931" lon="-0.41651">
        <ele>117.9</ele>
        <time>2013-05-25T09:41:05Z</time>
      </trkpt>
      <trkpt lat="48.89305" lon="-0.41649">
        <ele>115.5</ele>
        <time>2013-05-25T09:41:17Z</time>
      </trkpt>
      <trkpt lat="48.89305" lon="-0.41649">
        <ele>115.98</ele>
        <time>2013-05-25T09:41:18Z</time>
      </trkpt>
      <trkpt lat="48.89296" lon="-0.41644">
        <ele>114.05</ele>
        <time>2013-05-25T09:41:29Z</time>
      </trkpt>
      <trkpt lat="48.89275" lon="-0.41634">
        <ele>111.65</ele>
        <time>2013-05-25T09:41:41Z</time>
      </trkpt>
      <trkpt lat="48.89269" lon="-0.41626">
        <ele>109.25</ele>
        <time>2013-05-25T09:41:52Z</time>
      </trkpt>
      <trkpt lat="48.89256" lon="-0.41617">
        <ele>107.32</ele>
        <time>2013-05-25T09:42:04Z</time>
      </trkpt>
      <trkpt lat="48.89246" lon="-0.41607">
        <ele>105.4</ele>
        <time>2013-05-25T09:42:15Z</time>
      </trkpt>
      <trkpt lat="48.89239" lon="-0.416">
        <ele>103.96</ele>
        <time>2013-05-25T09:42:22Z</time>
      </trkpt>
      <trkpt lat="48.89232" lon="-0.41589">
        <ele>102.04</ele>
        <time>2013-05-25T09:42:32Z</time>
      </trkpt>
      <trkpt lat="48.89229" lon="-0.41581">
        <ele>100.6</ele>
        <time>2013-05-25T09:42:39Z</time>
      </trkpt>
      <trkpt lat="48.8922" lon="-0.41571">
        <ele>99.15</ele>
        <time>2013-05-25T09:42:49Z</time>
      </trkpt>
      <trkpt lat="48.89213" lon="-0.41561">
        <ele>97.23</ele>
        <time>2013-05-25T09:42:58Z</time>
      </trkpt>
      <trkpt lat="48.89207" lon="-0.41555">
        <ele>96.27</ele>
        <time>2013-05-25T09:43:04Z</time>
      </trkpt>
      <trkpt lat="48.89204" lon="-0.41553">
        <ele>95.31</ele>
        <time>2013-05-25T09:43:07Z</time>
      </trkpt>
      <trkpt lat="48.892" lon="-0.41544">
        <ele>95.31</ele>
        <time>2013-05-25T09:43:14Z</time>
      </trkpt>
      <trkpt lat="48.8919" lon="-0.41523">
        <ele>92.9</ele>
        <time>2013-05-25T09:43:28Z</time>
      </trkpt>
      <trkpt lat="48.89189" lon="-0.41519">
        <ele>92.42</ele>
        <time>2013-05-25T09:43:30Z</time>
      </trkpt>
      <trkpt lat="48.8918" lon="-0.41502">
        <ele>90.98</ele>
        <time>2013-05-25T09:43:42Z</time>
      </trkpt>
      <trkpt lat="48.89179" lon="-0.41494">
        <ele>90.02</ele>
        <time>2013-05-25T09:43:47Z</time>
      </trkpt>
      <trkpt lat="48.8917" lon="-0.41477">
        <ele>88.58</ele>
        <time>2013-05-25T09:44:00Z</time>
      </trkpt>
      <trkpt lat="48.89168" lon="-0.41465">
        <ele>86.66</ele>
        <time>2013-05-25T09:44:10Z</time>
      </trkpt>
      <trkpt lat="48.89168" lon="-0.41462">
        <ele>86.18</ele>
        <time>2013-05-25T09:44:12Z</time>
      </trkpt>
      <trkpt lat="48.89168" lon="-0.4146">
        <ele>86.66</ele>
        <time>2013-05-25T09:44:13Z</time>
      </trkpt>
      <trkpt lat="48.89168" lon="-0.41452">
        <ele>85.69</ele>
        <time>2013-05-25T09:44:17Z</time>
      </trkpt>
      <trkpt lat="48.89165" lon="-0.4144">
        <ele>83.77</ele>
        <time>2013-05-25T09:44:26Z</time>
      </trkpt>
      <trkpt lat="48.89165" lon="-0.41425">
        <ele>81.85</ele>
        <time>2013-05-25T09:44:39Z</time>
      </trkpt>
      <trkpt lat="48.89165" lon="-0.41415">
        <ele>79.93</ele>
        <time>2013-05-25T09:44:49Z</time>
      </trkpt>
      <trkpt lat="48.89161" lon="-0.41405">
        <ele>79.45</ele>
        <time>2013-05-25T09:44:58Z</time>
      </trkpt>
      <trkpt lat="48.89157" lon="-0.41389">
        <ele>78.48</ele>
        <time>2013-05-25T09:45:11Z</time>
      </trkpt>
      <trkpt lat="48.89158" lon="-0.41386">
        <ele>78.97</ele>
        <time>2013-05-25T09:45:16Z</time>
      </trkpt>
      <trkpt lat="48.89157" lon="-0.41381">
        <ele>78</ele>
        <time>2013-05-25T09:45:19Z</time>
      </trkpt>
      <trkpt lat="48.89154" lon="-0.41369">
        <ele>77.04</ele>
        <time>2013-05-25T09:45:27Z</time>
      </trkpt>
      <trkpt lat="48.89148" lon="-0.41352">
        <ele>74.16</ele>
        <time>2013-05-25T09:45:40Z</time>
      </trkpt>
      <trkpt lat="48.89145" lon="-0.41348">
        <ele>72.72</ele>
        <time>2013-05-25T09:45:47Z</time>
      </trkpt>
      <trkpt lat="48.89141" lon="-0.41351">
        <ele>72.24</ele>
        <time>2013-05-25T09:45:53Z</time>
      </trkpt>
      <trkpt lat="48.89134" lon="-0.41359">
        <ele>70.31</ele>
        <time>2013-05-25T09:46:05Z</time>
      </trkpt>
      <trkpt lat="48.89134" lon="-0.41366">
        <ele>69.35</ele>
        <time>2013-05-25T09:46:16Z</time>
      </trkpt>
      <trkpt lat="48.89133" lon="-0.41371">
        <ele>68.87</ele>
        <time>2013-05-25T09:46:24Z</time>
      </trkpt>
      <trkpt lat="48.89131" lon="-0.41376">
        <ele>68.39</ele>
        <time>2013-05-25T09:46:31Z</time>
      </trkpt>
      <trkpt lat="48.89129" lon="-0.41382">
        <ele>67.43</ele>
        <time>2013-05-25T09:46:35Z</time>
      </trkpt>
      <trkpt lat="48.89127" lon="-0.41384">
        <ele>66.95</ele>
        <time>2013-05-25T09:46:37Z</time>
      </trkpt>
      <trkpt lat="48.89126" lon="-0.41387">
        <ele>65.99</ele>
        <time>2013-05-25T09:46:40Z</time>
      </trkpt>
      <trkpt lat="48.89126" lon="-0.41392">
        <ele>65.51</ele>
        <time>2013-05-25T09:46:45Z</time>
      </trkpt>
      <trkpt lat="48.89122" lon="-0.41405">
        <ele>62.62</ele>
        <time>2013-05-25T09:46:56Z</time>
      </trkpt>
      <trkpt lat="48.89121" lon="-0.4141">
        <ele>61.66</ele>
        <time>2013-05-25T09:47:00Z</time>
      </trkpt>
      <trkpt lat="48.89119" lon="-0.41419">
        <ele>60.7</ele>
        <time>2013-05-25T09:47:06Z</time>
      </trkpt>
      <trkpt lat="48.89112" lon="-0.41432">
        <ele>58.3</ele>
        <time>2013-05-25T09:47:18Z</time>
      </trkpt>
      <trkpt lat="48.89107" lon="-0.41439">
        <ele>56.37</ele>
        <time>2013-05-25T09:47:28Z</time>
      </trkpt>
      <trkpt lat="48.89104" lon="-0.41444">
        <ele>55.41</ele>
        <time>2013-05-25T09:47:39Z</time>
      </trkpt>
      <trkpt lat="48.89103" lon="-0.41446">
        <ele>55.41</ele>
        <time>2013-05-25T09:47:50Z</time>
      </trkpt>
      <trkpt lat="48.89098" lon="-0.41445">
        <ele>53.49</ele>
        <time>2013-05-25T09:48:02Z</time>
      </trkpt>
      <trkpt lat="48.89095" lon="-0.41442">
        <ele>53.49</ele>
        <time>2013-05-25T09:48:17Z</time>
      </trkpt>
      <trkpt lat="48.89091" lon="-0.4144">
        <ele>53.49</ele>
        <time>2013-05-25T09:48:29Z</time>
      </trkpt>
      <trkpt lat="48.89089" lon="-0.41441">
        <ele>54.93</ele>
        <time>2013-05-25T09:48:53Z</time>
      </trkpt>
      <trkpt lat="48.89087" lon="-0.41441">
        <ele>54.45</ele>
        <time>2013-05-25T09:49:09Z</time>
      </trkpt>
      <trkpt lat="48.89083" lon="-0.41443">
        <ele>53.97</ele>
        <time>2013-05-25T09:49:15Z</time>
      </trkpt>
      <trkpt lat="48.89075" lon="-0.41445">
        <ele>53.49</ele>
        <time>2013-05-25T09:49:28Z</time>
      </trkpt>
      <trkpt lat="48.89063" lon="-0.41444">
        <ele>53.01</ele>
        <time>2013-05-25T09:49:42Z</time>
      </trkpt>
      <trkpt lat="48.89063" lon="-0.41444">
        <ele>52.05</ele>
        <time>2013-05-25T09:49:59Z</time>
      </trkpt>
      <trkpt lat="48.89062" lon="-0.41447">
        <ele>52.53</ele>
        <time>2013-05-25T09:50:22Z</time>
      </trkpt>
      <trkpt lat="48.89056" lon="-0.41443">
        <ele>51.57</ele>
        <time>2013-05-25T09:50:34Z</time>
      </trkpt>
      <trkpt lat="48.89052" lon="-0.41435">
        <ele>52.05</ele>
        <time>2013-05-25T09:50:40Z</time>
      </trkpt>
      <trkpt lat="48.89055" lon="-0.41421">
        <ele>54.93</ele>
        <time>2013-05-25T09:50:55Z</time>
      </trkpt>
      <trkpt lat="48.89059" lon="-0.4141">
        <ele>56.86</ele>
        <time>2013-05-25T09:51:06Z</time>
      </trkpt>
      <trkpt lat="48.8906" lon="-0.41409">
        <ele>56.37</ele>
        <time>2013-05-25T09:51:07Z</time>
      </trkpt>
      <trkpt lat="48.8906" lon="-0.41393">
        <ele>56.37</ele>
        <time>2013-05-25T09:51:17Z</time>
      </trkpt>
      <trkpt lat="48.8906" lon="-0.41389">
        <ele>57.34</ele>
        <time>2013-05-25T09:51:19Z</time>
      </trkpt>
      <trkpt lat="48.89065" lon="-0.41378">
        <ele>57.82</ele>
        <time>2013-05-25T09:51:27Z</time>
      </trkpt>
      <trkpt lat="48.89069" lon="-0.41374">
        <ele>58.3</ele>
        <time>2013-05-25T09:51:31Z</time>
      </trkpt>
      <trkpt lat="48.89074" lon="-0.4136">
        <ele>58.78</ele>
        <time>2013-05-25T09:51:42Z</time>
      </trkpt>
      <trkpt lat="48.89074" lon="-0.4135">
        <ele>58.78</ele>
        <time>2013-05-25T09:51:53Z</time>
      </trkpt>
      <trkpt lat="48.89078" lon="-0.41342">
        <ele>53.97</ele>
        <time>2013-05-25T09:52:11Z</time>
      </trkpt>
      <trkpt lat="48.89078" lon="-0.41342">
        <ele>58.78</ele>
        <time>2013-05-25T09:52:12Z</time>
      </trkpt>
      <trkpt lat="48.89077" lon="-0.41337">
        <ele>59.26</ele>
        <time>2013-05-25T09:52:34Z</time>
      </trkpt>
      <trkpt lat="48.89077" lon="-0.41329">
        <ele>59.74</ele>
        <time>2013-05-25T09:52:48Z</time>
      </trkpt>
      <trkpt lat="48.89083" lon="-0.41316">
        <ele>59.74</ele>
        <time>2013-05-25T09:53:00Z</time>
      </trkpt>
      <trkpt lat="48.89088" lon="-0.41303">
        <ele>60.22</ele>
        <time>2013-05-25T09:53:10Z</time>
      </trkpt>
      <trkpt lat="48.89089" lon="-0.41289">
        <ele>60.22</ele>
        <time>2013-05-25T09:53:22Z</time>
      </trkpt>
      <trkpt lat="48.89095" lon="-0.41276">
        <ele>59.74</ele>
        <time>2013-05-25T09:53:33Z</time>
      </trkpt>
      <trkpt lat="48.89103" lon="-0.41255">
        <ele>58.3</ele>
        <time>2013-05-25T09:53:45Z</time>
      </trkpt>
      <trkpt lat="48.89106" lon="-0.41232">
        <ele>58.78</ele>
        <time>2013-05-25T09:53:59Z</time>
      </trkpt>
      <trkpt lat="48.89106" lon="-0.4123">
        <ele>58.78</ele>
        <time>2013-05-25T09:54:03Z</time>
      </trkpt>
      <trkpt lat="48.8911" lon="-0.41224">
        <ele>59.26</ele>
        <time>2013-05-25T09:54:17Z</time>
      </trkpt>
      <trkpt lat="48.89115" lon="-0.412">
        <ele>60.22</ele>
        <time>2013-05-25T09:54:38Z</time>
      </trkpt>
      <trkpt lat="48.89111" lon="-0.41189">
        <ele>60.7</ele>
        <time>2013-05-25T09:54:49Z</time>
      </trkpt>
      <trkpt lat="48.89116" lon="-0.41171">
        <ele>61.66</ele>
        <time>2013-05-25T09:55:01Z</time>
      </trkpt>
      <trkpt lat="48.8912" lon="-0.41153">
        <ele>62.14</ele>
        <time>2013-05-25T09:55:14Z</time>
      </trkpt>
      <trkpt lat="48.89121" lon="-0.41149">
        <ele>62.62</ele>
        <time>2013-05-25T09:55:18Z</time>
      </trkpt>
      <trkpt lat="48.89124" lon="-0.41133">
        <ele>63.1</ele>
        <time>2013-05-25T09:55:32Z</time>
      </trkpt>
      <trkpt lat="48.89124" lon="-0.41131">
        <ele>63.1</ele>
        <time>2013-05-25T09:55:35Z</time>
      </trkpt>
      <trkpt lat="48.89127" lon="-0.41123">
        <ele>64.07</ele>
        <time>2013-05-25T09:55:40Z</time>
      </trkpt>
      <trkpt lat="48.89126" lon="-0.41113">
        <ele>64.07</ele>
        <time>2013-05-25T09:55:47Z</time>
      </trkpt>
      <trkpt lat="48.89127" lon="-0.41108">
        <ele>64.55</ele>
        <time>2013-05-25T09:55:50Z</time>
      </trkpt>
      <trkpt lat="48.89127" lon="-0.41088">
        <ele>66.47</ele>
        <time>2013-05-25T09:56:02Z</time>
      </trkpt>
      <trkpt lat="48.89127" lon="-0.41086">
        <ele>66.47</ele>
        <time>2013-05-25T09:56:03Z</time>
      </trkpt>
      <trkpt lat="48.89126" lon="-0.41082">
        <ele>66.95</ele>
        <time>2013-05-25T09:56:05Z</time>
      </trkpt>
      <trkpt lat="48.89126" lon="-0.41076">
        <ele>67.43</ele>
        <time>2013-05-25T09:56:08Z</time>
      </trkpt>
      <trkpt lat="48.89132" lon="-0.41045">
        <ele>69.83</ele>
        <time>2013-05-25T09:56:22Z</time>
      </trkpt>
      <trkpt lat="48.89133" lon="-0.41029">
        <ele>71.27</ele>
        <time>2013-05-25T09:56:33Z</time>
      </trkpt>
      <trkpt lat="48.89133" lon="-0.41011">
        <ele>74.64</ele>
        <time>2013-05-25T09:56:47Z</time>
      </trkpt>
      <trkpt lat="48.89134" lon="-0.40995">
        <ele>76.08</ele>
        <time>2013-05-25T09:57:01Z</time>
      </trkpt>
      <trkpt lat="48.89136" lon="-0.40974">
        <ele>78</ele>
        <time>2013-05-25T09:57:13Z</time>
      </trkpt>
      <trkpt lat="48.89133" lon="-0.40953">
        <ele>79.93</ele>
        <time>2013-05-25T09:57:26Z</time>
      </trkpt>
      <trkpt lat="48.89134" lon="-0.40938">
        <ele>81.85</ele>
        <time>2013-05-25T09:57:38Z</time>
      </trkpt>
      <trkpt lat="48.89135" lon="-0.40927">
        <ele>83.77</ele>
        <time>2013-05-25T09:57:49Z</time>
      </trkpt>
      <trkpt lat="48.89136" lon="-0.40913">
        <ele>85.69</ele>
        <time>2013-05-25T09:58:01Z</time>
      </trkpt>
      <trkpt lat="48.8913" lon="-0.40903">
        <ele>86.66</ele>
        <time>2013-05-25T09:58:12Z</time>
      </trkpt>
      <trkpt lat="48.89128" lon="-0.40884">
        <ele>87.62</ele>
        <time>2013-05-25T09:58:23Z</time>
      </trkpt>
      <trkpt lat="48.89128" lon="-0.40868">
        <ele>89.54</ele>
        <time>2013-05-25T09:58:36Z</time>
      </trkpt>
      <trkpt lat="48.89128" lon="-0.40853">
        <ele>90.98</ele>
        <time>2013-05-25T09:58:47Z</time>
      </trkpt>
      <trkpt lat="48.89126" lon="-0.40842">
        <ele>92.9</ele>
        <time>2013-05-25T09:59:00Z</time>
      </trkpt>
      <trkpt lat="48.89123" lon="-0.40828">
        <ele>94.83</ele>
        <time>2013-05-25T09:59:11Z</time>
      </trkpt>
      <trkpt lat="48.89122" lon="-0.40804">
        <ele>96.27</ele>
        <time>2013-05-25T09:59:24Z</time>
      </trkpt>
      <trkpt lat="48.89123" lon="-0.40783">
        <ele>97.23</ele>
        <time>2013-05-25T09:59:36Z</time>
      </trkpt>
      <trkpt lat="48.89126" lon="-0.4076">
        <ele>98.19</ele>
        <time>2013-05-25T09:59:49Z</time>
      </trkpt>
      <trkpt lat="48.89129" lon="-0.40742">
        <ele>99.15</ele>
        <time>2013-05-25T10:00:02Z</time>
      </trkpt>
      <trkpt lat="48.89125" lon="-0.40732">
        <ele>99.63</ele>
        <time>2013-05-25T10:00:13Z</time>
      </trkpt>
      <trkpt lat="48.89126" lon="-0.40708">
        <ele>101.08</ele>
        <time>2013-05-25T10:00:25Z</time>
      </trkpt>
      <trkpt lat="48.89129" lon="-0.40687">
        <ele>102.04</ele>
        <time>2013-05-25T10:00:38Z</time>
      </trkpt>
      <trkpt lat="48.89127" lon="-0.4067">
        <ele>104.44</ele>
        <time>2013-05-25T10:00:51Z</time>
      </trkpt>
      <trkpt lat="48.89127" lon="-0.40654">
        <ele>104.92</ele>
        <time>2013-05-25T10:01:03Z</time>
      </trkpt>
      <trkpt lat="48.89127" lon="-0.4064">
        <ele>106.36</ele>
        <time>2013-05-25T10:01:16Z</time>
      </trkpt>
      <trkpt lat="48.89128" lon="-0.40617">
        <ele>107.32</ele>
        <time>2013-05-25T10:01:28Z</time>
      </trkpt>
      <trkpt lat="48.89125" lon="-0.40603">
        <ele>107.81</ele>
        <time>2013-05-25T10:01:39Z</time>
      </trkpt>
      <trkpt lat="48.89126" lon="-0.4059">
        <ele>109.25</ele>
        <time>2013-05-25T10:01:51Z</time>
      </trkpt>
      <trkpt lat="48.89128" lon="-0.40578">
        <ele>109.73</ele>
        <time>2013-05-25T10:01:59Z</time>
      </trkpt>
      <trkpt lat="48.89127" lon="-0.40569">
        <ele>111.17</ele>
        <time>2013-05-25T10:02:11Z</time>
      </trkpt>
      <trkpt lat="48.89125" lon="-0.40542">
        <ele>112.61</ele>
        <time>2013-05-25T10:02:22Z</time>
      </trkpt>
      <trkpt lat="48.89129" lon="-0.40517">
        <ele>114.05</ele>
        <time>2013-05-25T10:02:35Z</time>
      </trkpt>
      <trkpt lat="48.89131" lon="-0.40504">
        <ele>115.98</ele>
        <time>2013-05-25T10:02:46Z</time>
      </trkpt>
      <trkpt lat="48.89132" lon="-0.40488">
        <ele>117.9</ele>
        <time>2013-05-25T10:02:59Z</time>
      </trkpt>
      <trkpt lat="48.89132" lon="-0.40481">
        <ele>118.86</ele>
        <time>2013-05-25T10:03:07Z</time>
      </trkpt>
      <trkpt lat="48.89132" lon="-0.40462">
        <ele>120.3</ele>
        <time>2013-05-25T10:03:19Z</time>
      </trkpt>
      <trkpt lat="48.89134" lon="-0.40444">
        <ele>121.74</ele>
        <time>2013-05-25T10:03:31Z</time>
      </trkpt>
      <trkpt lat="48.89136" lon="-0.40429">
        <ele>123.67</ele>
        <time>2013-05-25T10:03:41Z</time>
      </trkpt>
      <trkpt lat="48.89141" lon="-0.40399">
        <ele>126.07</ele>
        <time>2013-05-25T10:03:54Z</time>
      </trkpt>
      <trkpt lat="48.89139" lon="-0.40385">
        <ele>127.51</ele>
        <time>2013-05-25T10:04:06Z</time>
      </trkpt>
      <trkpt lat="48.89142" lon="-0.40371">
        <ele>128.47</ele>
        <time>2013-05-25T10:04:14Z</time>
      </trkpt>
      <trkpt lat="48.89144" lon="-0.40365">
        <ele>128.95</ele>
        <time>2013-05-25T10:04:17Z</time>
      </trkpt>
      <trkpt lat="48.89142" lon="-0.40349">
        <ele>131.36</ele>
        <time>2013-05-25T10:04:31Z</time>
      </trkpt>
      <trkpt lat="48.89143" lon="-0.40347">
        <ele>131.84</ele>
        <time>2013-05-25T10:04:34Z</time>
      </trkpt>
      <trkpt lat="48.89147" lon="-0.40333">
        <ele>134.24</ele>
        <time>2013-05-25T10:04:46Z</time>
      </trkpt>
      <trkpt lat="48.89142" lon="-0.40327">
        <ele>135.68</ele>
        <time>2013-05-25T10:04:57Z</time>
      </trkpt>
      <trkpt lat="48.8914" lon="-0.40327">
        <ele>137.13</ele>
        <time>2013-05-25T10:05:08Z</time>
      </trkpt>
      <trkpt lat="48.89133" lon="-0.40334">
        <ele>139.05</ele>
        <time>2013-05-25T10:05:23Z</time>
      </trkpt>
      <trkpt lat="48.89122" lon="-0.40343">
        <ele>141.45</ele>
        <time>2013-05-25T10:05:35Z</time>
      </trkpt>
      <trkpt lat="48.89116" lon="-0.40349">
        <ele>142.89</ele>
        <time>2013-05-25T10:05:46Z</time>
      </trkpt>
      <trkpt lat="48.89109" lon="-0.40357">
        <ele>144.82</ele>
        <time>2013-05-25T10:05:56Z</time>
      </trkpt>
      <trkpt lat="48.89099" lon="-0.40363">
        <ele>146.74</ele>
        <time>2013-05-25T10:06:07Z</time>
      </trkpt>
      <trkpt lat="48.89091" lon="-0.40365">
        <ele>147.7</ele>
        <time>2013-05-25T10:06:19Z</time>
      </trkpt>
      <trkpt lat="48.89089" lon="-0.40364">
        <ele>148.18</ele>
        <time>2013-05-25T10:06:37Z</time>
      </trkpt>
      <trkpt lat="48.89091" lon="-0.40355">
        <ele>148.18</ele>
        <time>2013-05-25T10:06:49Z</time>
      </trkpt>
      <trkpt lat="48.89091" lon="-0.40351">
        <ele>148.66</ele>
        <time>2013-05-25T10:07:11Z</time>
      </trkpt>
      <trkpt lat="48.89091" lon="-0.4035">
        <ele>149.14</ele>
        <time>2013-05-25T10:07:34Z</time>
      </trkpt>
      <trkpt lat="48.89092" lon="-0.40347">
        <ele>148.66</ele>
        <time>2013-05-25T10:07:53Z</time>
      </trkpt>
      <trkpt lat="48.89093" lon="-0.40348">
        <ele>147.22</ele>
        <time>2013-05-25T10:08:05Z</time>
      </trkpt>
      <trkpt lat="48.89093" lon="-0.40348">
        <ele>147.7</ele>
        <time>2013-05-25T10:08:33Z</time>
      </trkpt>
      <trkpt lat="48.89093" lon="-0.40347">
        <ele>147.7</ele>
        <time>2013-05-25T10:08:58Z</time>
      </trkpt>
      <trkpt lat="48.89094" lon="-0.40345">
        <ele>148.18</ele>
        <time>2013-05-25T10:09:17Z</time>
      </trkpt>
      <trkpt lat="48.89095" lon="-0.40343">
        <ele>148.66</ele>
        <time>2013-05-25T10:09:36Z</time>
      </trkpt>
      <trkpt lat="48.89095" lon="-0.40342">
        <ele>148.66</ele>
        <time>2013-05-25T10:09:57Z</time>
      </trkpt>
      <trkpt lat="48.89094" lon="-0.40342">
        <ele>148.18</ele>
        <time>2013-05-25T10:10:26Z</time>
      </trkpt>
      <trkpt lat="48.89094" lon="-0.40342">
        <ele>148.18</ele>
        <time>2013-05-25T10:10:51Z</time>
      </trkpt>
      <trkpt lat="48.89094" lon="-0.40342">
        <ele>147.7</ele>
        <time>2013-05-25T10:11:20Z</time>
      </trkpt>
      <trkpt lat="48.89094" lon="-0.40341">
        <ele>147.7</ele>
        <time>2013-05-25T10:11:44Z</time>
      </trkpt>
      <trkpt lat="48.89094" lon="-0.4034">
        <ele>148.18</ele>
        <time>2013-05-25T10:12:08Z</time>
      </trkpt>
      <trkpt lat="48.89097" lon="-0.4033">
        <ele>148.18</ele>
        <time>2013-05-25T10:12:21Z</time>
      </trkpt>
      <trkpt lat="48.89102" lon="-0.40321">
        <ele>148.18</ele>
        <time>2013-05-25T10:12:28Z</time>
      </trkpt>
      <trkpt lat="48.89104" lon="-0.40317">
        <ele>148.18</ele>
        <time>2013-05-25T10:12:31Z</time>
      </trkpt>
      <trkpt lat="48.89106" lon="-0.40297">
        <ele>148.66</ele>
        <time>2013-05-25T10:12:46Z</time>
      </trkpt>
      <trkpt lat="48.89108" lon="-0.40288">
        <ele>150.1</ele>
        <time>2013-05-25T10:12:54Z</time>
      </trkpt>
      <trkpt lat="48.89117" lon="-0.40274">
        <ele>149.14</ele>
        <time>2013-05-25T10:13:06Z</time>
      </trkpt>
      <trkpt lat="48.89119" lon="-0.40266">
        <ele>150.1</ele>
        <time>2013-05-25T10:13:13Z</time>
      </trkpt>
      <trkpt lat="48.8912" lon="-0.40259">
        <ele>149.62</ele>
        <time>2013-05-25T10:13:17Z</time>
      </trkpt>
      <trkpt lat="48.89126" lon="-0.40241">
        <ele>150.1</ele>
        <time>2013-05-25T10:13:27Z</time>
      </trkpt>
      <trkpt lat="48.89126" lon="-0.40239">
        <ele>150.1</ele>
        <time>2013-05-25T10:13:28Z</time>
      </trkpt>
      <trkpt lat="48.89132" lon="-0.40224">
        <ele>151.06</ele>
        <time>2013-05-25T10:13:39Z</time>
      </trkpt>
      <trkpt lat="48.89141" lon="-0.40198">
        <ele>151.54</ele>
        <time>2013-05-25T10:13:53Z</time>
      </trkpt>
      <trkpt lat="48.89141" lon="-0.40197">
        <ele>151.54</ele>
        <time>2013-05-25T10:13:54Z</time>
      </trkpt>
      <trkpt lat="48.89143" lon="-0.40187">
        <ele>152.03</ele>
        <time>2013-05-25T10:13:59Z</time>
      </trkpt>
      <trkpt lat="48.89152" lon="-0.40168">
        <ele>152.51</ele>
        <time>2013-05-25T10:14:10Z</time>
      </trkpt>
      <trkpt lat="48.89158" lon="-0.40151">
        <ele>153.47</ele>
        <time>2013-05-25T10:14:22Z</time>
      </trkpt>
      <trkpt lat="48.89167" lon="-0.40131">
        <ele>153.95</ele>
        <time>2013-05-25T10:14:34Z</time>
      </trkpt>
      <trkpt lat="48.89173" lon="-0.40114">
        <ele>155.39</ele>
        <time>2013-05-25T10:14:46Z</time>
      </trkpt>
      <trkpt lat="48.89177" lon="-0.40105">
        <ele>156.35</ele>
        <time>2013-05-25T10:14:53Z</time>
      </trkpt>
      <trkpt lat="48.89182" lon="-0.40097">
        <ele>156.35</ele>
        <time>2013-05-25T10:15:00Z</time>
      </trkpt>
      <trkpt lat="48.89185" lon="-0.40094">
        <ele>156.83</ele>
        <time>2013-05-25T10:15:03Z</time>
      </trkpt>
      <trkpt lat="48.89186" lon="-0.40089">
        <ele>157.31</ele>
        <time>2013-05-25T10:15:06Z</time>
      </trkpt>
      <trkpt lat="48.89196" lon="-0.40073">
        <ele>158.75</ele>
        <time>2013-05-25T10:15:20Z</time>
      </trkpt>
      <trkpt lat="48.89206" lon="-0.4006">
        <ele>160.2</ele>
        <time>2013-05-25T10:15:34Z</time>
      </trkpt>
      <trkpt lat="48.89213" lon="-0.4005">
        <ele>161.64</ele>
        <time>2013-05-25T10:15:43Z</time>
      </trkpt>
      <trkpt lat="48.89216" lon="-0.40046">
        <ele>161.64</ele>
        <time>2013-05-25T10:15:47Z</time>
      </trkpt>
      <trkpt lat="48.89227" lon="-0.40033">
        <ele>162.6</ele>
        <time>2013-05-25T10:15:59Z</time>
      </trkpt>
      <trkpt lat="48.89232" lon="-0.40025">
        <ele>163.08</ele>
        <time>2013-05-25T10:16:05Z</time>
      </trkpt>
      <trkpt lat="48.89239" lon="-0.40017">
        <ele>163.08</ele>
        <time>2013-05-25T10:16:13Z</time>
      </trkpt>
      <trkpt lat="48.8924" lon="-0.40015">
        <ele>163.08</ele>
        <time>2013-05-25T10:16:15Z</time>
      </trkpt>
      <trkpt lat="48.89251" lon="-0.39999">
        <ele>164.52</ele>
        <time>2013-05-25T10:16:28Z</time>
      </trkpt>
      <trkpt lat="48.89259" lon="-0.39986">
        <ele>165.96</ele>
        <time>2013-05-25T10:16:40Z</time>
      </trkpt>
      <trkpt lat="48.89263" lon="-0.3998">
        <ele>166.45</ele>
        <time>2013-05-25T10:16:45Z</time>
      </trkpt>
      <trkpt lat="48.8927" lon="-0.39964">
        <ele>167.89</ele>
        <time>2013-05-25T10:16:58Z</time>
      </trkpt>
      <trkpt lat="48.89271" lon="-0.39963">
        <ele>168.37</ele>
        <time>2013-05-25T10:16:59Z</time>
      </trkpt>
      <trkpt lat="48.89274" lon="-0.39953">
        <ele>168.37</ele>
        <time>2013-05-25T10:17:12Z</time>
      </trkpt>
      <trkpt lat="48.89277" lon="-0.39939">
        <ele>169.33</ele>
        <time>2013-05-25T10:17:22Z</time>
      </trkpt>
      <trkpt lat="48.8928" lon="-0.39922">
        <ele>169.81</ele>
        <time>2013-05-25T10:17:35Z</time>
      </trkpt>
      <trkpt lat="48.89283" lon="-0.39914">
        <ele>170.77</ele>
        <time>2013-05-25T10:17:42Z</time>
      </trkpt>
      <trkpt lat="48.89286" lon="-0.39896">
        <ele>172.21</ele>
        <time>2013-05-25T10:17:54Z</time>
      </trkpt>
      <trkpt lat="48.89287" lon="-0.39894">
        <ele>172.21</ele>
        <time>2013-05-25T10:17:56Z</time>
      </trkpt>
      <trkpt lat="48.89292" lon="-0.39874">
        <ele>173.17</ele>
        <time>2013-05-25T10:18:09Z</time>
      </trkpt>
      <trkpt lat="48.89294" lon="-0.39868">
        <ele>173.66</ele>
        <time>2013-05-25T10:18:13Z</time>
      </trkpt>
      <trkpt lat="48.89294" lon="-0.39858">
        <ele>173.66</ele>
        <time>2013-05-25T10:18:18Z</time>
      </trkpt>
      <trkpt lat="48.89298" lon="-0.39839">
        <ele>174.62</ele>
        <time>2013-05-25T10:18:31Z</time>
      </trkpt>
      <trkpt lat="48.89303" lon="-0.39821">
        <ele>175.1</ele>
        <time>2013-05-25T10:18:43Z</time>
      </trkpt>
      <trkpt lat="48.89307" lon="-0.398">
        <ele>176.54</ele>
        <time>2013-05-25T10:18:57Z</time>
      </trkpt>
      <trkpt lat="48.89314" lon="-0.3978">
        <ele>177.98</ele>
        <time>2013-05-25T10:19:10Z</time>
      </trkpt>
      <trkpt lat="48.89316" lon="-0.39777">
        <ele>177.5</ele>
        <time>2013-05-25T10:19:18Z</time>
      </trkpt>
      <trkpt lat="48.89325" lon="-0.39747">
        <ele>179.42</ele>
        <time>2013-05-25T10:19:35Z</time>
      </trkpt>
      <trkpt lat="48.89329" lon="-0.39739">
        <ele>179.9</ele>
        <time>2013-05-25T10:19:41Z</time>
      </trkpt>
      <trkpt lat="48.89331" lon="-0.39734">
        <ele>180.38</ele>
        <time>2013-05-25T10:19:44Z</time>
      </trkpt>
      <trkpt lat="48.89337" lon="-0.39718">
        <ele>181.35</ele>
        <time>2013-05-25T10:19:55Z</time>
      </trkpt>
      <trkpt lat="48.89344" lon="-0.39695">
        <ele>181.35</ele>
        <time>2013-05-25T10:20:10Z</time>
      </trkpt>
      <trkpt lat="48.89353" lon="-0.39674">
        <ele>182.79</ele>
        <time>2013-05-25T10:20:24Z</time>
      </trkpt>
      <trkpt lat="48.89363" lon="-0.39648">
        <ele>183.75</ele>
        <time>2013-05-25T10:20:39Z</time>
      </trkpt>
      <trkpt lat="48.89371" lon="-0.39632">
        <ele>184.71</ele>
        <time>2013-05-25T10:20:50Z</time>
      </trkpt>
      <trkpt lat="48.8938" lon="-0.39613">
        <ele>185.19</ele>
        <time>2013-05-25T10:21:04Z</time>
      </trkpt>
      <trkpt lat="48.89382" lon="-0.39607">
        <ele>185.19</ele>
        <time>2013-05-25T10:21:08Z</time>
      </trkpt>
      <trkpt lat="48.89382" lon="-0.39597">
        <ele>185.19</ele>
        <time>2013-05-25T10:21:15Z</time>
      </trkpt>
      <trkpt lat="48.89379" lon="-0.39591">
        <ele>184.71</ele>
        <time>2013-05-25T10:21:20Z</time>
      </trkpt>
      <trkpt lat="48.89365" lon="-0.39576">
        <ele>182.79</ele>
        <time>2013-05-25T10:21:35Z</time>
      </trkpt>
      <trkpt lat="48.89361" lon="-0.39572">
        <ele>181.35</ele>
        <time>2013-05-25T10:21:41Z</time>
      </trkpt>
      <trkpt lat="48.89356" lon="-0.39566">
        <ele>180.87</ele>
        <time>2013-05-25T10:21:48Z</time>
      </trkpt>
      <trkpt lat="48.89345" lon="-0.39555">
        <ele>178.46</ele>
        <time>2013-05-25T10:22:00Z</time>
      </trkpt>
      <trkpt lat="48.8934" lon="-0.39548">
        <ele>177.98</ele>
        <time>2013-05-25T10:22:10Z</time>
      </trkpt>
      <trkpt lat="48.89336" lon="-0.39545">
        <ele>177.98</ele>
        <time>2013-05-25T10:22:13Z</time>
      </trkpt>
      <trkpt lat="48.89325" lon="-0.39532">
        <ele>176.54</ele>
        <time>2013-05-25T10:22:25Z</time>
      </trkpt>
      <trkpt lat="48.8931" lon="-0.39519">
        <ele>174.62</ele>
        <time>2013-05-25T10:22:38Z</time>
      </trkpt>
      <trkpt lat="48.89297" lon="-0.39506">
        <ele>172.69</ele>
        <time>2013-05-25T10:22:51Z</time>
      </trkpt>
      <trkpt lat="48.89282" lon="-0.39492">
        <ele>170.77</ele>
        <time>2013-05-25T10:23:06Z</time>
      </trkpt>
      <trkpt lat="48.89274" lon="-0.39484">
        <ele>169.81</ele>
        <time>2013-05-25T10:23:15Z</time>
      </trkpt>
      <trkpt lat="48.89259" lon="-0.39468">
        <ele>167.41</ele>
        <time>2013-05-25T10:23:31Z</time>
      </trkpt>
      <trkpt lat="48.89257" lon="-0.39466">
        <ele>167.41</ele>
        <time>2013-05-25T10:23:33Z</time>
      </trkpt>
      <trkpt lat="48.89254" lon="-0.3945">
        <ele>166.93</ele>
        <time>2013-05-25T10:23:44Z</time>
      </trkpt>
      <trkpt lat="48.89259" lon="-0.39433">
        <ele>167.89</ele>
        <time>2013-05-25T10:23:56Z</time>
      </trkpt>
      <trkpt lat="48.89266" lon="-0.39423">
        <ele>168.85</ele>
        <time>2013-05-25T10:24:05Z</time>
      </trkpt>
      <trkpt lat="48.89279" lon="-0.39399">
        <ele>169.33</ele>
        <time>2013-05-25T10:24:22Z</time>
      </trkpt>
      <trkpt lat="48.89291" lon="-0.39383">
        <ele>169.81</ele>
        <time>2013-05-25T10:24:36Z</time>
      </trkpt>
      <trkpt lat="48.89295" lon="-0.39378">
        <ele>170.29</ele>
        <time>2013-05-25T10:24:40Z</time>
      </trkpt>
      <trkpt lat="48.89301" lon="-0.3937">
        <ele>170.77</ele>
        <time>2013-05-25T10:24:47Z</time>
      </trkpt>
      <trkpt lat="48.89312" lon="-0.39355">
        <ele>172.21</ele>
        <time>2013-05-25T10:25:00Z</time>
      </trkpt>
      <trkpt lat="48.89317" lon="-0.3935">
        <ele>171.73</ele>
        <time>2013-05-25T10:25:05Z</time>
      </trkpt>
      <trkpt lat="48.89334" lon="-0.39333">
        <ele>172.69</ele>
        <time>2013-05-25T10:25:22Z</time>
      </trkpt>
      <trkpt lat="48.89348" lon="-0.39317">
        <ele>173.66</ele>
        <time>2013-05-25T10:25:37Z</time>
      </trkpt>
      <trkpt lat="48.89361" lon="-0.39304">
        <ele>174.14</ele>
        <time>2013-05-25T10:25:51Z</time>
      </trkpt>
      <trkpt lat="48.89364" lon="-0.39301">
        <ele>174.62</ele>
        <time>2013-05-25T10:25:54Z</time>
      </trkpt>
      <trkpt lat="48.89373" lon="-0.39283">
        <ele>174.62</ele>
        <time>2013-05-25T10:26:10Z</time>
      </trkpt>
      <trkpt lat="48.89372" lon="-0.3928">
        <ele>174.14</ele>
        <time>2013-05-25T10:26:13Z</time>
      </trkpt>
      <trkpt lat="48.8937" lon="-0.39276">
        <ele>173.66</ele>
        <time>2013-05-25T10:26:16Z</time>
      </trkpt>
      <trkpt lat="48.89355" lon="-0.3927">
        <ele>172.69</ele>
        <time>2013-05-25T10:26:31Z</time>
      </trkpt>
      <trkpt lat="48.89349" lon="-0.39271">
        <ele>171.73</ele>
        <time>2013-05-25T10:26:36Z</time>
      </trkpt>
      <trkpt lat="48.89344" lon="-0.39269">
        <ele>171.25</ele>
        <time>2013-05-25T10:26:41Z</time>
      </trkpt>
      <trkpt lat="48.89339" lon="-0.39271">
        <ele>171.73</ele>
        <time>2013-05-25T10:26:45Z</time>
      </trkpt>
      <trkpt lat="48.89324" lon="-0.3927">
        <ele>171.73</ele>
        <time>2013-05-25T10:26:58Z</time>
      </trkpt>
      <trkpt lat="48.89312" lon="-0.39271">
        <ele>171.73</ele>
        <time>2013-05-25T10:27:08Z</time>
      </trkpt>
      <trkpt lat="48.89308" lon="-0.39271">
        <ele>171.73</ele>
        <time>2013-05-25T10:27:11Z</time>
      </trkpt>
      <trkpt lat="48.89291" lon="-0.39269">
        <ele>173.66</ele>
        <time>2013-05-25T10:27:26Z</time>
      </trkpt>
      <trkpt lat="48.89274" lon="-0.39265">
        <ele>174.62</ele>
        <time>2013-05-25T10:27:41Z</time>
      </trkpt>
      <trkpt lat="48.89258" lon="-0.39262">
        <ele>175.58</ele>
        <time>2013-05-25T10:27:54Z</time>
      </trkpt>
      <trkpt lat="48.89251" lon="-0.39261">
        <ele>176.06</ele>
        <time>2013-05-25T10:28:01Z</time>
      </trkpt>
      <trkpt lat="48.89247" lon="-0.3926">
        <ele>176.06</ele>
        <time>2013-05-25T10:28:04Z</time>
      </trkpt>
      <trkpt lat="48.8924" lon="-0.39259">
        <ele>177.02</ele>
        <time>2013-05-25T10:28:11Z</time>
      </trkpt>
      <trkpt lat="48.89236" lon="-0.39257">
        <ele>177.98</ele>
        <time>2013-05-25T10:28:14Z</time>
      </trkpt>
      <trkpt lat="48.89233" lon="-0.39257">
        <ele>178.46</ele>
        <time>2013-05-25T10:28:17Z</time>
      </trkpt>
      <trkpt lat="48.89222" lon="-0.39248">
        <ele>179.9</ele>
        <time>2013-05-25T10:28:31Z</time>
      </trkpt>
      <trkpt lat="48.89221" lon="-0.39247">
        <ele>180.38</ele>
        <time>2013-05-25T10:28:32Z</time>
      </trkpt>
      <trkpt lat="48.89219" lon="-0.39245">
        <ele>180.38</ele>
        <time>2013-05-25T10:28:34Z</time>
      </trkpt>
      <trkpt lat="48.89215" lon="-0.39236">
        <ele>180.87</ele>
        <time>2013-05-25T10:28:40Z</time>
      </trkpt>
      <trkpt lat="48.89204" lon="-0.39223">
        <ele>182.31</ele>
        <time>2013-05-25T10:28:53Z</time>
      </trkpt>
      <trkpt lat="48.892" lon="-0.39214">
        <ele>183.27</ele>
        <time>2013-05-25T10:29:00Z</time>
      </trkpt>
      <trkpt lat="48.89192" lon="-0.39201">
        <ele>184.23</ele>
        <time>2013-05-25T10:29:10Z</time>
      </trkpt>
      <trkpt lat="48.89185" lon="-0.39194">
        <ele>185.19</ele>
        <time>2013-05-25T10:29:19Z</time>
      </trkpt>
      <trkpt lat="48.89179" lon="-0.39182">
        <ele>185.19</ele>
        <time>2013-05-25T10:29:28Z</time>
      </trkpt>
      <trkpt lat="48.89177" lon="-0.39177">
        <ele>186.15</ele>
        <time>2013-05-25T10:29:32Z</time>
      </trkpt>
      <trkpt lat="48.89171" lon="-0.39165">
        <ele>186.15</ele>
        <time>2013-05-25T10:29:40Z</time>
      </trkpt>
      <trkpt lat="48.89163" lon="-0.39154">
        <ele>186.63</ele>
        <time>2013-05-25T10:29:50Z</time>
      </trkpt>
      <trkpt lat="48.89158" lon="-0.39154">
        <ele>186.63</ele>
        <time>2013-05-25T10:29:55Z</time>
      </trkpt>
      <trkpt lat="48.89155" lon="-0.39154">
        <ele>186.63</ele>
        <time>2013-05-25T10:29:58Z</time>
      </trkpt>
      <trkpt lat="48.89151" lon="-0.39156">
        <ele>186.15</ele>
        <time>2013-05-25T10:30:02Z</time>
      </trkpt>
      <trkpt lat="48.89149" lon="-0.39158">
        <ele>186.15</ele>
        <time>2013-05-25T10:30:06Z</time>
      </trkpt>
      <trkpt lat="48.89143" lon="-0.39164">
        <ele>186.15</ele>
        <time>2013-05-25T10:30:13Z</time>
      </trkpt>
      <trkpt lat="48.89138" lon="-0.39171">
        <ele>186.15</ele>
        <time>2013-05-25T10:30:18Z</time>
      </trkpt>
      <trkpt lat="48.89126" lon="-0.39177">
        <ele>185.67</ele>
        <time>2013-05-25T10:30:28Z</time>
      </trkpt>
      <trkpt lat="48.89121" lon="-0.39182">
        <ele>185.67</ele>
        <time>2013-05-25T10:30:34Z</time>
      </trkpt>
      <trkpt lat="48.89119" lon="-0.39185">
        <ele>185.19</ele>
        <time>2013-05-25T10:30:36Z</time>
      </trkpt>
      <trkpt lat="48.89116" lon="-0.39187">
        <ele>185.19</ele>
        <time>2013-05-25T10:30:39Z</time>
      </trkpt>
      <trkpt lat="48.89112" lon="-0.39189">
        <ele>185.67</ele>
        <time>2013-05-25T10:30:43Z</time>
      </trkpt>
      <trkpt lat="48.89107" lon="-0.39191">
        <ele>184.71</ele>
        <time>2013-05-25T10:30:47Z</time>
      </trkpt>
      <trkpt lat="48.89095" lon="-0.39198">
        <ele>184.71</ele>
        <time>2013-05-25T10:30:56Z</time>
      </trkpt>
      <trkpt lat="48.89089" lon="-0.39201">
        <ele>184.23</ele>
        <time>2013-05-25T10:31:02Z</time>
      </trkpt>
      <trkpt lat="48.89084" lon="-0.39203">
        <ele>184.71</ele>
        <time>2013-05-25T10:31:07Z</time>
      </trkpt>
      <trkpt lat="48.8908" lon="-0.39203">
        <ele>184.23</ele>
        <time>2013-05-25T10:31:10Z</time>
      </trkpt>
      <trkpt lat="48.89074" lon="-0.39204">
        <ele>183.75</ele>
        <time>2013-05-25T10:31:14Z</time>
      </trkpt>
      <trkpt lat="48.89062" lon="-0.39211">
        <ele>182.79</ele>
        <time>2013-05-25T10:31:26Z</time>
      </trkpt>
      <trkpt lat="48.89057" lon="-0.39212">
        <ele>182.31</ele>
        <time>2013-05-25T10:31:30Z</time>
      </trkpt>
      <trkpt lat="48.89044" lon="-0.39216">
        <ele>181.83</ele>
        <time>2013-05-25T10:31:40Z</time>
      </trkpt>
      <trkpt lat="48.8903" lon="-0.39217">
        <ele>180.38</ele>
        <time>2013-05-25T10:31:52Z</time>
      </trkpt>
      <trkpt lat="48.89028" lon="-0.39218">
        <ele>180.38</ele>
        <time>2013-05-25T10:31:54Z</time>
      </trkpt>
      <trkpt lat="48.89026" lon="-0.39219">
        <ele>180.38</ele>
        <time>2013-05-25T10:31:56Z</time>
      </trkpt>
      <trkpt lat="48.89016" lon="-0.39222">
        <ele>179.9</ele>
        <time>2013-05-25T10:32:05Z</time>
      </trkpt>
      <trkpt lat="48.89005" lon="-0.3922">
        <ele>179.9</ele>
        <time>2013-05-25T10:32:15Z</time>
      </trkpt>
      <trkpt lat="48.8899" lon="-0.39223">
        <ele>178.94</ele>
        <time>2013-05-25T10:32:26Z</time>
      </trkpt>
      <trkpt lat="48.88971" lon="-0.39223">
        <ele>177.98</ele>
        <time>2013-05-25T10:32:40Z</time>
      </trkpt>
      <trkpt lat="48.88961" lon="-0.39224">
        <ele>176.54</ele>
        <time>2013-05-25T10:32:50Z</time>
      </trkpt>
      <trkpt lat="48.88949" lon="-0.39225">
        <ele>174.62</ele>
        <time>2013-05-25T10:33:01Z</time>
      </trkpt>
      <trkpt lat="48.88941" lon="-0.39227">
        <ele>173.17</ele>
        <time>2013-05-25T10:33:08Z</time>
      </trkpt>
      <trkpt lat="48.88939" lon="-0.39226">
        <ele>173.17</ele>
        <time>2013-05-25T10:33:11Z</time>
      </trkpt>
      <trkpt lat="48.88936" lon="-0.39226">
        <ele>172.69</ele>
        <time>2013-05-25T10:33:14Z</time>
      </trkpt>
      <trkpt lat="48.88921" lon="-0.39228">
        <ele>170.77</ele>
        <time>2013-05-25T10:33:26Z</time>
      </trkpt>
      <trkpt lat="48.88906" lon="-0.39229">
        <ele>168.85</ele>
        <time>2013-05-25T10:33:38Z</time>
      </trkpt>
      <trkpt lat="48.88899" lon="-0.39228">
        <ele>168.37</ele>
        <time>2013-05-25T10:33:44Z</time>
      </trkpt>
      <trkpt lat="48.88891" lon="-0.39226">
        <ele>166.93</ele>
        <time>2013-05-25T10:33:52Z</time>
      </trkpt>
      <trkpt lat="48.88887" lon="-0.39227">
        <ele>166.45</ele>
        <time>2013-05-25T10:33:56Z</time>
      </trkpt>
      <trkpt lat="48.88869" lon="-0.39224">
        <ele>164.04</ele>
        <time>2013-05-25T10:34:11Z</time>
      </trkpt>
      <trkpt lat="48.88857" lon="-0.39219">
        <ele>162.12</ele>
        <time>2013-05-25T10:34:23Z</time>
      </trkpt>
      <trkpt lat="48.88853" lon="-0.39219">
        <ele>162.12</ele>
        <time>2013-05-25T10:34:26Z</time>
      </trkpt>
      <trkpt lat="48.88839" lon="-0.3922">
        <ele>160.2</ele>
        <time>2013-05-25T10:34:38Z</time>
      </trkpt>
      <trkpt lat="48.88828" lon="-0.39224">
        <ele>158.27</ele>
        <time>2013-05-25T10:34:49Z</time>
      </trkpt>
      <trkpt lat="48.88817" lon="-0.39234">
        <ele>157.79</ele>
        <time>2013-05-25T10:34:59Z</time>
      </trkpt>
      <trkpt lat="48.8881" lon="-0.39243">
        <ele>155.87</ele>
        <time>2013-05-25T10:35:06Z</time>
      </trkpt>
      <trkpt lat="48.88805" lon="-0.3925">
        <ele>154.91</ele>
        <time>2013-05-25T10:35:12Z</time>
      </trkpt>
      <trkpt lat="48.88801" lon="-0.39255">
        <ele>153.95</ele>
        <time>2013-05-25T10:35:17Z</time>
      </trkpt>
      <trkpt lat="48.88798" lon="-0.39255">
        <ele>154.43</ele>
        <time>2013-05-25T10:35:19Z</time>
      </trkpt>
      <trkpt lat="48.88795" lon="-0.39258">
        <ele>153.47</ele>
        <time>2013-05-25T10:35:22Z</time>
      </trkpt>
      <trkpt lat="48.88794" lon="-0.3926">
        <ele>153.47</ele>
        <time>2013-05-25T10:35:24Z</time>
      </trkpt>
      <trkpt lat="48.88785" lon="-0.39263">
        <ele>152.51</ele>
        <time>2013-05-25T10:35:31Z</time>
      </trkpt>
      <trkpt lat="48.8877" lon="-0.39264">
        <ele>151.06</ele>
        <time>2013-05-25T10:35:40Z</time>
      </trkpt>
      <trkpt lat="48.88758" lon="-0.39257">
        <ele>149.62</ele>
        <time>2013-05-25T10:35:51Z</time>
      </trkpt>
      <trkpt lat="48.88747" lon="-0.39249">
        <ele>147.7</ele>
        <time>2013-05-25T10:36:05Z</time>
      </trkpt>
      <trkpt lat="48.88731" lon="-0.39243">
        <ele>146.26</ele>
        <time>2013-05-25T10:36:20Z</time>
      </trkpt>
      <trkpt lat="48.88729" lon="-0.39242">
        <ele>145.78</ele>
        <time>2013-05-25T10:36:22Z</time>
      </trkpt>
      <trkpt lat="48.88722" lon="-0.39238">
        <ele>145.3</ele>
        <time>2013-05-25T10:36:28Z</time>
      </trkpt>
      <trkpt lat="48.88713" lon="-0.39236">
        <ele>144.82</ele>
        <time>2013-05-25T10:36:35Z</time>
      </trkpt>
      <trkpt lat="48.88711" lon="-0.39234">
        <ele>144.34</ele>
        <time>2013-05-25T10:36:37Z</time>
      </trkpt>
      <trkpt lat="48.88703" lon="-0.39232">
        <ele>143.37</ele>
        <time>2013-05-25T10:36:44Z</time>
      </trkpt>
      <trkpt lat="48.88689" lon="-0.39226">
        <ele>141.45</ele>
        <time>2013-05-25T10:36:58Z</time>
      </trkpt>
      <trkpt lat="48.88679" lon="-0.39223">
        <ele>140.01</ele>
        <time>2013-05-25T10:37:06Z</time>
      </trkpt>
      <trkpt lat="48.88662" lon="-0.39217">
        <ele>137.61</ele>
        <time>2013-05-25T10:37:21Z</time>
      </trkpt>
      <trkpt lat="48.88645" lon="-0.39212">
        <ele>135.2</ele>
        <time>2013-05-25T10:37:36Z</time>
      </trkpt>
      <trkpt lat="48.88629" lon="-0.3921">
        <ele>132.8</ele>
        <time>2013-05-25T10:37:50Z</time>
      </trkpt>
      <trkpt lat="48.88625" lon="-0.3921">
        <ele>131.36</ele>
        <time>2013-05-25T10:37:56Z</time>
      </trkpt>
      <trkpt lat="48.88619" lon="-0.39211">
        <ele>129.92</ele>
        <time>2013-05-25T10:38:02Z</time>
      </trkpt>
      <trkpt lat="48.88615" lon="-0.39211">
        <ele>129.92</ele>
        <time>2013-05-25T10:38:06Z</time>
      </trkpt>
      <trkpt lat="48.88612" lon="-0.39211">
        <ele>128.95</ele>
        <time>2013-05-25T10:38:09Z</time>
      </trkpt>
      <trkpt lat="48.88599" lon="-0.3921">
        <ele>127.03</ele>
        <time>2013-05-25T10:38:20Z</time>
      </trkpt>
      <trkpt lat="48.88596" lon="-0.3921">
        <ele>126.07</ele>
        <time>2013-05-25T10:38:23Z</time>
      </trkpt>
      <trkpt lat="48.8858" lon="-0.3921">
        <ele>123.67</ele>
        <time>2013-05-25T10:38:35Z</time>
      </trkpt>
      <trkpt lat="48.88568" lon="-0.39211">
        <ele>120.3</ele>
        <time>2013-05-25T10:38:47Z</time>
      </trkpt>
      <trkpt lat="48.88557" lon="-0.39209">
        <ele>118.86</ele>
        <time>2013-05-25T10:38:57Z</time>
      </trkpt>
      <trkpt lat="48.88557" lon="-0.39209">
        <ele>118.38</ele>
        <time>2013-05-25T10:38:58Z</time>
      </trkpt>
      <trkpt lat="48.88548" lon="-0.39208">
        <ele>116.94</ele>
        <time>2013-05-25T10:39:07Z</time>
      </trkpt>
      <trkpt lat="48.88543" lon="-0.39208">
        <ele>115.5</ele>
        <time>2013-05-25T10:39:13Z</time>
      </trkpt>
      <trkpt lat="48.88539" lon="-0.39208">
        <ele>114.53</ele>
        <time>2013-05-25T10:39:16Z</time>
      </trkpt>
      <trkpt lat="48.88534" lon="-0.39207">
        <ele>113.57</ele>
        <time>2013-05-25T10:39:26Z</time>
      </trkpt>
      <trkpt lat="48.88529" lon="-0.39205">
        <ele>112.13</ele>
        <time>2013-05-25T10:39:31Z</time>
      </trkpt>
      <trkpt lat="48.88526" lon="-0.39203">
        <ele>110.69</ele>
        <time>2013-05-25T10:39:35Z</time>
      </trkpt>
      <trkpt lat="48.88523" lon="-0.39204">
        <ele>111.17</ele>
        <time>2013-05-25T10:39:40Z</time>
      </trkpt>
      <trkpt lat="48.88516" lon="-0.39202">
        <ele>109.73</ele>
        <time>2013-05-25T10:39:46Z</time>
      </trkpt>
      <trkpt lat="48.88507" lon="-0.39199">
        <ele>107.32</ele>
        <time>2013-05-25T10:39:56Z</time>
      </trkpt>
      <trkpt lat="48.88505" lon="-0.39199">
        <ele>106.36</ele>
        <time>2013-05-25T10:39:58Z</time>
      </trkpt>
      <trkpt lat="48.885" lon="-0.39196">
        <ele>104.44</ele>
        <time>2013-05-25T10:40:07Z</time>
      </trkpt>
      <trkpt lat="48.88492" lon="-0.39191">
        <ele>102.52</ele>
        <time>2013-05-25T10:40:18Z</time>
      </trkpt>
      <trkpt lat="48.88488" lon="-0.39185">
        <ele>100.11</ele>
        <time>2013-05-25T10:40:28Z</time>
      </trkpt>
      <trkpt lat="48.88475" lon="-0.39174">
        <ele>98.19</ele>
        <time>2013-05-25T10:40:40Z</time>
      </trkpt>
      <trkpt lat="48.88467" lon="-0.39167">
        <ele>96.75</ele>
        <time>2013-05-25T10:40:49Z</time>
      </trkpt>
      <trkpt lat="48.88459" lon="-0.3916">
        <ele>95.31</ele>
        <time>2013-05-25T10:41:03Z</time>
      </trkpt>
      <trkpt lat="48.88452" lon="-0.39151">
        <ele>93.87</ele>
        <time>2013-05-25T10:41:13Z</time>
      </trkpt>
      <trkpt lat="48.88451" lon="-0.39148">
        <ele>93.39</ele>
        <time>2013-05-25T10:41:27Z</time>
      </trkpt>
      <trkpt lat="48.88444" lon="-0.39153">
        <ele>91.94</ele>
        <time>2013-05-25T10:41:35Z</time>
      </trkpt>
      <trkpt lat="48.88443" lon="-0.3916">
        <ele>91.94</ele>
        <time>2013-05-25T10:41:40Z</time>
      </trkpt>
      <trkpt lat="48.8844" lon="-0.39173">
        <ele>90.02</ele>
        <time>2013-05-25T10:41:50Z</time>
      </trkpt>
      <trkpt lat="48.88437" lon="-0.39177">
        <ele>89.54</ele>
        <time>2013-05-25T10:41:54Z</time>
      </trkpt>
      <trkpt lat="48.88432" lon="-0.39186">
        <ele>89.06</ele>
        <time>2013-05-25T10:42:01Z</time>
      </trkpt>
      <trkpt lat="48.88431" lon="-0.39195">
        <ele>89.06</ele>
        <time>2013-05-25T10:42:12Z</time>
      </trkpt>
      <trkpt lat="48.88426" lon="-0.392">
        <ele>89.06</ele>
        <time>2013-05-25T10:42:18Z</time>
      </trkpt>
      <trkpt lat="48.88421" lon="-0.39211">
        <ele>89.06</ele>
        <time>2013-05-25T10:42:30Z</time>
      </trkpt>
      <trkpt lat="48.8842" lon="-0.39225">
        <ele>89.06</ele>
        <time>2013-05-25T10:42:42Z</time>
      </trkpt>
      <trkpt lat="48.88416" lon="-0.39227">
        <ele>89.54</ele>
        <time>2013-05-25T10:42:52Z</time>
      </trkpt>
      <trkpt lat="48.88418" lon="-0.39233">
        <ele>90.5</ele>
        <time>2013-05-25T10:43:01Z</time>
      </trkpt>
      <trkpt lat="48.88422" lon="-0.39242">
        <ele>90.98</ele>
        <time>2013-05-25T10:43:06Z</time>
      </trkpt>
      <trkpt lat="48.88419" lon="-0.39248">
        <ele>92.42</ele>
        <time>2013-05-25T10:43:16Z</time>
      </trkpt>
      <trkpt lat="48.88414" lon="-0.39251">
        <ele>93.39</ele>
        <time>2013-05-25T10:43:22Z</time>
      </trkpt>
      <trkpt lat="48.88414" lon="-0.39254">
        <ele>93.87</ele>
        <time>2013-05-25T10:43:24Z</time>
      </trkpt>
      <trkpt lat="48.88415" lon="-0.39273">
        <ele>94.35</ele>
        <time>2013-05-25T10:43:34Z</time>
      </trkpt>
      <trkpt lat="48.88414" lon="-0.39279">
        <ele>95.31</ele>
        <time>2013-05-25T10:43:37Z</time>
      </trkpt>
      <trkpt lat="48.88414" lon="-0.39301">
        <ele>95.79</ele>
        <time>2013-05-25T10:43:49Z</time>
      </trkpt>
      <trkpt lat="48.88407" lon="-0.39316">
        <ele>96.27</ele>
        <time>2013-05-25T10:43:58Z</time>
      </trkpt>
      <trkpt lat="48.88406" lon="-0.39317">
        <ele>96.75</ele>
        <time>2013-05-25T10:43:59Z</time>
      </trkpt>
      <trkpt lat="48.88405" lon="-0.39323">
        <ele>96.75</ele>
        <time>2013-05-25T10:44:04Z</time>
      </trkpt>
      <trkpt lat="48.88404" lon="-0.39328">
        <ele>96.75</ele>
        <time>2013-05-25T10:44:07Z</time>
      </trkpt>
      <trkpt lat="48.88402" lon="-0.39335">
        <ele>96.75</ele>
        <time>2013-05-25T10:44:14Z</time>
      </trkpt>
      <trkpt lat="48.88397" lon="-0.39344">
        <ele>96.75</ele>
        <time>2013-05-25T10:44:23Z</time>
      </trkpt>
      <trkpt lat="48.88396" lon="-0.39347">
        <ele>96.75</ele>
        <time>2013-05-25T10:44:25Z</time>
      </trkpt>
      <trkpt lat="48.88391" lon="-0.39354">
        <ele>97.23</ele>
        <time>2013-05-25T10:44:29Z</time>
      </trkpt>
      <trkpt lat="48.88384" lon="-0.39361">
        <ele>97.71</ele>
        <time>2013-05-25T10:44:41Z</time>
      </trkpt>
      <trkpt lat="48.88377" lon="-0.39378">
        <ele>98.67</ele>
        <time>2013-05-25T10:44:54Z</time>
      </trkpt>
      <trkpt lat="48.88372" lon="-0.39384">
        <ele>99.63</ele>
        <time>2013-05-25T10:45:05Z</time>
      </trkpt>
      <trkpt lat="48.88372" lon="-0.39387">
        <ele>100.11</ele>
        <time>2013-05-25T10:45:09Z</time>
      </trkpt>
      <trkpt lat="48.88363" lon="-0.39393">
        <ele>101.08</ele>
        <time>2013-05-25T10:45:18Z</time>
      </trkpt>
      <trkpt lat="48.88361" lon="-0.39399">
        <ele>101.08</ele>
        <time>2013-05-25T10:45:24Z</time>
      </trkpt>
      <trkpt lat="48.88361" lon="-0.39406">
        <ele>101.56</ele>
        <time>2013-05-25T10:45:28Z</time>
      </trkpt>
      <trkpt lat="48.88359" lon="-0.3941">
        <ele>101.56</ele>
        <time>2013-05-25T10:45:31Z</time>
      </trkpt>
      <trkpt lat="48.8836" lon="-0.39417">
        <ele>102.52</ele>
        <time>2013-05-25T10:45:37Z</time>
      </trkpt>
      <trkpt lat="48.88363" lon="-0.39426">
        <ele>103.48</ele>
        <time>2013-05-25T10:45:42Z</time>
      </trkpt>
      <trkpt lat="48.88367" lon="-0.39438">
        <ele>103.96</ele>
        <time>2013-05-25T10:45:48Z</time>
      </trkpt>
      <trkpt lat="48.88364" lon="-0.39449">
        <ele>103.96</ele>
        <time>2013-05-25T10:45:54Z</time>
      </trkpt>
      <trkpt lat="48.88363" lon="-0.39452">
        <ele>103.96</ele>
        <time>2013-05-25T10:45:56Z</time>
      </trkpt>
      <trkpt lat="48.8836" lon="-0.39472">
        <ele>105.4</ele>
        <time>2013-05-25T10:46:04Z</time>
      </trkpt>
      <trkpt lat="48.88359" lon="-0.39476">
        <ele>105.88</ele>
        <time>2013-05-25T10:46:06Z</time>
      </trkpt>
      <trkpt lat="48.88357" lon="-0.39486">
        <ele>106.36</ele>
        <time>2013-05-25T10:46:16Z</time>
      </trkpt>
      <trkpt lat="48.88352" lon="-0.39502">
        <ele>108.29</ele>
        <time>2013-05-25T10:46:27Z</time>
      </trkpt>
      <trkpt lat="48.88345" lon="-0.3952">
        <ele>110.21</ele>
        <time>2013-05-25T10:46:38Z</time>
      </trkpt>
      <trkpt lat="48.88338" lon="-0.39534">
        <ele>111.65</ele>
        <time>2013-05-25T10:46:49Z</time>
      </trkpt>
      <trkpt lat="48.88336" lon="-0.39535">
        <ele>112.13</ele>
        <time>2013-05-25T10:46:51Z</time>
      </trkpt>
      <trkpt lat="48.88331" lon="-0.39543">
        <ele>113.09</ele>
        <time>2013-05-25T10:46:57Z</time>
      </trkpt>
      <trkpt lat="48.88318" lon="-0.39555">
        <ele>115.01</ele>
        <time>2013-05-25T10:47:08Z</time>
      </trkpt>
      <trkpt lat="48.88317" lon="-0.39558">
        <ele>115.5</ele>
        <time>2013-05-25T10:47:11Z</time>
      </trkpt>
      <trkpt lat="48.88311" lon="-0.39566">
        <ele>116.94</ele>
        <time>2013-05-25T10:47:21Z</time>
      </trkpt>
      <trkpt lat="48.88311" lon="-0.39566">
        <ele>117.42</ele>
        <time>2013-05-25T10:47:22Z</time>
      </trkpt>
      <trkpt lat="48.88307" lon="-0.39567">
        <ele>117.9</ele>
        <time>2013-05-25T10:47:25Z</time>
      </trkpt>
      <trkpt lat="48.88298" lon="-0.3957">
        <ele>118.38</ele>
        <time>2013-05-25T10:47:34Z</time>
      </trkpt>
      <trkpt lat="48.88289" lon="-0.39579">
        <ele>119.82</ele>
        <time>2013-05-25T10:47:46Z</time>
      </trkpt>
      <trkpt lat="48.88287" lon="-0.39581">
        <ele>120.3</ele>
        <time>2013-05-25T10:47:49Z</time>
      </trkpt>
      <trkpt lat="48.88283" lon="-0.39586">
        <ele>120.78</ele>
        <time>2013-05-25T10:47:56Z</time>
      </trkpt>
      <trkpt lat="48.88279" lon="-0.39599">
        <ele>122.22</ele>
        <time>2013-05-25T10:48:05Z</time>
      </trkpt>
      <trkpt lat="48.88277" lon="-0.39601">
        <ele>122.22</ele>
        <time>2013-05-25T10:48:07Z</time>
      </trkpt>
      <trkpt lat="48.88276" lon="-0.39604">
        <ele>122.22</ele>
        <time>2013-05-25T10:48:09Z</time>
      </trkpt>
      <trkpt lat="48.88272" lon="-0.3961">
        <ele>122.71</ele>
        <time>2013-05-25T10:48:14Z</time>
      </trkpt>
      <trkpt lat="48.88268" lon="-0.39617">
        <ele>123.19</ele>
        <time>2013-05-25T10:48:20Z</time>
      </trkpt>
      <trkpt lat="48.88263" lon="-0.39632">
        <ele>124.15</ele>
        <time>2013-05-25T10:48:32Z</time>
      </trkpt>
      <trkpt lat="48.88261" lon="-0.39634">
        <ele>124.63</ele>
        <time>2013-05-25T10:48:35Z</time>
      </trkpt>
      <trkpt lat="48.88257" lon="-0.39636">
        <ele>125.11</ele>
        <time>2013-05-25T10:48:40Z</time>
      </trkpt>
      <trkpt lat="48.8825" lon="-0.39633">
        <ele>126.07</ele>
        <time>2013-05-25T10:48:49Z</time>
      </trkpt>
      <trkpt lat="48.88248" lon="-0.39629">
        <ele>127.03</ele>
        <time>2013-05-25T10:48:55Z</time>
      </trkpt>
      <trkpt lat="48.88238" lon="-0.39625">
        <ele>127.99</ele>
        <time>2013-05-25T10:49:07Z</time>
      </trkpt>
      <trkpt lat="48.88236" lon="-0.39624">
        <ele>127.99</ele>
        <time>2013-05-25T10:49:09Z</time>
      </trkpt>
      <trkpt lat="48.88227" lon="-0.39622">
        <ele>128.95</ele>
        <time>2013-05-25T10:49:17Z</time>
      </trkpt>
      <trkpt lat="48.88223" lon="-0.3962">
        <ele>129.43</ele>
        <time>2013-05-25T10:49:20Z</time>
      </trkpt>
      <trkpt lat="48.88216" lon="-0.3962">
        <ele>131.36</ele>
        <time>2013-05-25T10:49:29Z</time>
      </trkpt>
      <trkpt lat="48.88206" lon="-0.39616">
        <ele>131.84</ele>
        <time>2013-05-25T10:49:40Z</time>
      </trkpt>
      <trkpt lat="48.88197" lon="-0.39613">
        <ele>133.76</ele>
        <time>2013-05-25T10:49:49Z</time>
      </trkpt>
      <trkpt lat="48.88192" lon="-0.39612">
        <ele>134.24</ele>
        <time>2013-05-25T10:49:53Z</time>
      </trkpt>
      <trkpt lat="48.88188" lon="-0.39609">
        <ele>134.72</ele>
        <time>2013-05-25T10:49:56Z</time>
      </trkpt>
      <trkpt lat="48.88182" lon="-0.39608">
        <ele>135.2</ele>
        <time>2013-05-25T10:50:00Z</time>
      </trkpt>
      <trkpt lat="48.88171" lon="-0.39607">
        <ele>136.64</ele>
        <time>2013-05-25T10:50:09Z</time>
      </trkpt>
      <trkpt lat="48.88169" lon="-0.39609">
        <ele>136.64</ele>
        <time>2013-05-25T10:50:11Z</time>
      </trkpt>
      <trkpt lat="48.88165" lon="-0.39608">
        <ele>137.61</ele>
        <time>2013-05-25T10:50:17Z</time>
      </trkpt>
      <trkpt lat="48.8816" lon="-0.39605">
        <ele>138.09</ele>
        <time>2013-05-25T10:50:20Z</time>
      </trkpt>
      <trkpt lat="48.88153" lon="-0.39605">
        <ele>140.01</ele>
        <time>2013-05-25T10:50:29Z</time>
      </trkpt>
      <trkpt lat="48.88151" lon="-0.39607">
        <ele>140.01</ele>
        <time>2013-05-25T10:50:32Z</time>
      </trkpt>
      <trkpt lat="48.88143" lon="-0.39606">
        <ele>141.45</ele>
        <time>2013-05-25T10:50:44Z</time>
      </trkpt>
      <trkpt lat="48.8814" lon="-0.39606">
        <ele>142.41</ele>
        <time>2013-05-25T10:50:48Z</time>
      </trkpt>
      <trkpt lat="48.88132" lon="-0.39607">
        <ele>144.34</ele>
        <time>2013-05-25T10:51:01Z</time>
      </trkpt>
      <trkpt lat="48.88127" lon="-0.39609">
        <ele>144.82</ele>
        <time>2013-05-25T10:51:10Z</time>
      </trkpt>
      <trkpt lat="48.88124" lon="-0.39609">
        <ele>145.78</ele>
        <time>2013-05-25T10:51:17Z</time>
      </trkpt>
      <trkpt lat="48.88118" lon="-0.39613">
        <ele>146.74</ele>
        <time>2013-05-25T10:51:26Z</time>
      </trkpt>
      <trkpt lat="48.88111" lon="-0.39617">
        <ele>147.22</ele>
        <time>2013-05-25T10:51:38Z</time>
      </trkpt>
      <trkpt lat="48.88103" lon="-0.3962">
        <ele>147.7</ele>
        <time>2013-05-25T10:51:59Z</time>
      </trkpt>
      <trkpt lat="48.88098" lon="-0.39621">
        <ele>147.22</ele>
        <time>2013-05-25T10:52:12Z</time>
      </trkpt>
      <trkpt lat="48.88098" lon="-0.3962">
        <ele>147.7</ele>
        <time>2013-05-25T10:52:41Z</time>
      </trkpt>
      <trkpt lat="48.88098" lon="-0.3962">
        <ele>147.7</ele>
        <time>2013-05-25T10:52:42Z</time>
      </trkpt>
      <trkpt lat="48.88096" lon="-0.39625">
        <ele>147.7</ele>
        <time>2013-05-25T10:52:46Z</time>
      </trkpt>
      <trkpt lat="48.88095" lon="-0.3963">
        <ele>148.18</ele>
        <time>2013-05-25T10:52:49Z</time>
      </trkpt>
      <trkpt lat="48.88093" lon="-0.39643">
        <ele>148.66</ele>
        <time>2013-05-25T10:52:57Z</time>
      </trkpt>
      <trkpt lat="48.88091" lon="-0.39646">
        <ele>148.66</ele>
        <time>2013-05-25T10:53:00Z</time>
      </trkpt>
      <trkpt lat="48.88088" lon="-0.39661">
        <ele>149.62</ele>
        <time>2013-05-25T10:53:09Z</time>
      </trkpt>
      <trkpt lat="48.88086" lon="-0.39665">
        <ele>149.62</ele>
        <time>2013-05-25T10:53:18Z</time>
      </trkpt>
      <trkpt lat="48.88085" lon="-0.39667">
        <ele>149.62</ele>
        <time>2013-05-25T10:53:25Z</time>
      </trkpt>
      <trkpt lat="48.88082" lon="-0.39678">
        <ele>150.58</ele>
        <time>2013-05-25T10:53:33Z</time>
      </trkpt>
      <trkpt lat="48.88081" lon="-0.39686">
        <ele>151.54</ele>
        <time>2013-05-25T10:53:37Z</time>
      </trkpt>
      <trkpt lat="48.88078" lon="-0.39696">
        <ele>149.14</ele>
        <time>2013-05-25T10:53:42Z</time>
      </trkpt>
      <trkpt lat="48.88076" lon="-0.39707">
        <ele>150.1</ele>
        <time>2013-05-25T10:53:49Z</time>
      </trkpt>
      <trkpt lat="48.88075" lon="-0.39719">
        <ele>150.58</ele>
        <time>2013-05-25T10:53:55Z</time>
      </trkpt>
      <trkpt lat="48.88073" lon="-0.39722">
        <ele>150.58</ele>
        <time>2013-05-25T10:53:57Z</time>
      </trkpt>
      <trkpt lat="48.88072" lon="-0.39725">
        <ele>150.58</ele>
        <time>2013-05-25T10:54:00Z</time>
      </trkpt>
      <trkpt lat="48.88069" lon="-0.39731">
        <ele>150.58</ele>
        <time>2013-05-25T10:54:04Z</time>
      </trkpt>
      <trkpt lat="48.88065" lon="-0.39743">
        <ele>151.06</ele>
        <time>2013-05-25T10:54:12Z</time>
      </trkpt>
      <trkpt lat="48.88064" lon="-0.39755">
        <ele>151.54</ele>
        <time>2013-05-25T10:54:18Z</time>
      </trkpt>
      <trkpt lat="48.88063" lon="-0.39769">
        <ele>151.54</ele>
        <time>2013-05-25T10:54:26Z</time>
      </trkpt>
      <trkpt lat="48.8806" lon="-0.39776">
        <ele>151.54</ele>
        <time>2013-05-25T10:54:30Z</time>
      </trkpt>
      <trkpt lat="48.88056" lon="-0.39791">
        <ele>152.03</ele>
        <time>2013-05-25T10:54:38Z</time>
      </trkpt>
      <trkpt lat="48.88054" lon="-0.39803">
        <ele>151.54</ele>
        <time>2013-05-25T10:54:46Z</time>
      </trkpt>
      <trkpt lat="48.88052" lon="-0.39809">
        <ele>152.51</ele>
        <time>2013-05-25T10:54:50Z</time>
      </trkpt>
      <trkpt lat="48.88051" lon="-0.39815">
        <ele>152.51</ele>
        <time>2013-05-25T10:54:53Z</time>
      </trkpt>
      <trkpt lat="48.88049" lon="-0.39826">
        <ele>152.99</ele>
        <time>2013-05-25T10:54:59Z</time>
      </trkpt>
      <trkpt lat="48.88047" lon="-0.39828">
        <ele>152.51</ele>
        <time>2013-05-25T10:55:01Z</time>
      </trkpt>
      <trkpt lat="48.88039" lon="-0.3984">
        <ele>152.99</ele>
        <time>2013-05-25T10:55:10Z</time>
      </trkpt>
      <trkpt lat="48.88034" lon="-0.39844">
        <ele>153.47</ele>
        <time>2013-05-25T10:55:17Z</time>
      </trkpt>
      <trkpt lat="48.88031" lon="-0.39845">
        <ele>153.47</ele>
        <time>2013-05-25T10:55:20Z</time>
      </trkpt>
      <trkpt lat="48.88025" lon="-0.39847">
        <ele>153.95</ele>
        <time>2013-05-25T10:55:25Z</time>
      </trkpt>
      <trkpt lat="48.88024" lon="-0.39853">
        <ele>153.47</ele>
        <time>2013-05-25T10:55:29Z</time>
      </trkpt>
      <trkpt lat="48.88023" lon="-0.39856">
        <ele>152.99</ele>
        <time>2013-05-25T10:55:31Z</time>
      </trkpt>
      <trkpt lat="48.88022" lon="-0.39862">
        <ele>152.99</ele>
        <time>2013-05-25T10:55:41Z</time>
      </trkpt>
      <trkpt lat="48.88021" lon="-0.39874">
        <ele>152.99</ele>
        <time>2013-05-25T10:55:51Z</time>
      </trkpt>
      <trkpt lat="48.8802" lon="-0.3988">
        <ele>152.99</ele>
        <time>2013-05-25T10:55:54Z</time>
      </trkpt>
      <trkpt lat="48.8802" lon="-0.39887">
        <ele>152.99</ele>
        <time>2013-05-25T10:55:58Z</time>
      </trkpt>
      <trkpt lat="48.88021" lon="-0.39896">
        <ele>152.51</ele>
        <time>2013-05-25T10:56:03Z</time>
      </trkpt>
      <trkpt lat="48.88021" lon="-0.39908">
        <ele>152.03</ele>
        <time>2013-05-25T10:56:10Z</time>
      </trkpt>
      <trkpt lat="48.88021" lon="-0.39913">
        <ele>151.54</ele>
        <time>2013-05-25T10:56:13Z</time>
      </trkpt>
      <trkpt lat="48.88022" lon="-0.39931">
        <ele>151.54</ele>
        <time>2013-05-25T10:56:22Z</time>
      </trkpt>
      <trkpt lat="48.88025" lon="-0.39953">
        <ele>150.58</ele>
        <time>2013-05-25T10:56:32Z</time>
      </trkpt>
      <trkpt lat="48.88023" lon="-0.39963">
        <ele>150.1</ele>
        <time>2013-05-25T10:56:40Z</time>
      </trkpt>
      <trkpt lat="48.88024" lon="-0.39965">
        <ele>150.1</ele>
        <time>2013-05-25T10:56:41Z</time>
      </trkpt>
      <trkpt lat="48.88027" lon="-0.39981">
        <ele>150.58</ele>
        <time>2013-05-25T10:56:47Z</time>
      </trkpt>
      <trkpt lat="48.88028" lon="-0.39995">
        <ele>149.14</ele>
        <time>2013-05-25T10:56:55Z</time>
      </trkpt>
      <trkpt lat="48.88028" lon="-0.40009">
        <ele>149.14</ele>
        <time>2013-05-25T10:57:05Z</time>
      </trkpt>
      <trkpt lat="48.88028" lon="-0.40018">
        <ele>148.66</ele>
        <time>2013-05-25T10:57:10Z</time>
      </trkpt>
      <trkpt lat="48.88027" lon="-0.40023">
        <ele>148.18</ele>
        <time>2013-05-25T10:57:13Z</time>
      </trkpt>
      <trkpt lat="48.88028" lon="-0.40027">
        <ele>148.18</ele>
        <time>2013-05-25T10:57:15Z</time>
      </trkpt>
      <trkpt lat="48.88027" lon="-0.40032">
        <ele>148.18</ele>
        <time>2013-05-25T10:57:18Z</time>
      </trkpt>
      <trkpt lat="48.88027" lon="-0.40035">
        <ele>148.66</ele>
        <time>2013-05-25T10:57:22Z</time>
      </trkpt>
      <trkpt lat="48.88024" lon="-0.40062">
        <ele>148.18</ele>
        <time>2013-05-25T10:57:36Z</time>
      </trkpt>
      <trkpt lat="48.88024" lon="-0.40075">
        <ele>147.7</ele>
        <time>2013-05-25T10:57:42Z</time>
      </trkpt>
      <trkpt lat="48.88023" lon="-0.40078">
        <ele>147.7</ele>
        <time>2013-05-25T10:57:44Z</time>
      </trkpt>
      <trkpt lat="48.88021" lon="-0.40082">
        <ele>147.7</ele>
        <time>2013-05-25T10:57:48Z</time>
      </trkpt>
      <trkpt lat="48.88019" lon="-0.40096">
        <ele>147.7</ele>
        <time>2013-05-25T10:58:00Z</time>
      </trkpt>
      <trkpt lat="48.88019" lon="-0.40111">
        <ele>147.7</ele>
        <time>2013-05-25T10:58:08Z</time>
      </trkpt>
      <trkpt lat="48.88019" lon="-0.40125">
        <ele>147.7</ele>
        <time>2013-05-25T10:58:13Z</time>
      </trkpt>
      <trkpt lat="48.88016" lon="-0.40141">
        <ele>147.22</ele>
        <time>2013-05-25T10:58:20Z</time>
      </trkpt>
      <trkpt lat="48.88014" lon="-0.40149">
        <ele>147.22</ele>
        <time>2013-05-25T10:58:26Z</time>
      </trkpt>
      <trkpt lat="48.88013" lon="-0.40175">
        <ele>147.22</ele>
        <time>2013-05-25T10:58:40Z</time>
      </trkpt>
      <trkpt lat="48.88012" lon="-0.40179">
        <ele>147.7</ele>
        <time>2013-05-25T10:58:42Z</time>
      </trkpt>
      <trkpt lat="48.88012" lon="-0.40192">
        <ele>148.18</ele>
        <time>2013-05-25T10:58:47Z</time>
      </trkpt>
      <trkpt lat="48.88007" lon="-0.40202">
        <ele>148.18</ele>
        <time>2013-05-25T10:58:57Z</time>
      </trkpt>
      <trkpt lat="48.88003" lon="-0.40215">
        <ele>147.7</ele>
        <time>2013-05-25T10:59:05Z</time>
      </trkpt>
      <trkpt lat="48.88002" lon="-0.40217">
        <ele>147.22</ele>
        <time>2013-05-25T10:59:06Z</time>
      </trkpt>
      <trkpt lat="48.88001" lon="-0.40225">
        <ele>146.74</ele>
        <time>2013-05-25T10:59:11Z</time>
      </trkpt>
      <trkpt lat="48.87999" lon="-0.40235">
        <ele>146.74</ele>
        <time>2013-05-25T10:59:22Z</time>
      </trkpt>
      <trkpt lat="48.87998" lon="-0.40238">
        <ele>146.26</ele>
        <time>2013-05-25T10:59:24Z</time>
      </trkpt>
      <trkpt lat="48.87996" lon="-0.40241">
        <ele>146.26</ele>
        <time>2013-05-25T10:59:26Z</time>
      </trkpt>
      <trkpt lat="48.87996" lon="-0.4025">
        <ele>146.26</ele>
        <time>2013-05-25T10:59:31Z</time>
      </trkpt>
      <trkpt lat="48.8799" lon="-0.40267">
        <ele>144.82</ele>
        <time>2013-05-25T10:59:41Z</time>
      </trkpt>
      <trkpt lat="48.87988" lon="-0.40274">
        <ele>144.82</ele>
        <time>2013-05-25T10:59:45Z</time>
      </trkpt>
      <trkpt lat="48.87986" lon="-0.40283">
        <ele>144.34</ele>
        <time>2013-05-25T10:59:50Z</time>
      </trkpt>
      <trkpt lat="48.87981" lon="-0.40307">
        <ele>143.85</ele>
        <time>2013-05-25T11:00:04Z</time>
      </trkpt>
      <trkpt lat="48.87974" lon="-0.40318">
        <ele>143.85</ele>
        <time>2013-05-25T11:00:13Z</time>
      </trkpt>
      <trkpt lat="48.87968" lon="-0.40338">
        <ele>142.89</ele>
        <time>2013-05-25T11:00:23Z</time>
      </trkpt>
      <trkpt lat="48.87965" lon="-0.40344">
        <ele>142.89</ele>
        <time>2013-05-25T11:00:28Z</time>
      </trkpt>
      <trkpt lat="48.87961" lon="-0.40356">
        <ele>142.41</ele>
        <time>2013-05-25T11:00:36Z</time>
      </trkpt>
      <trkpt lat="48.8796" lon="-0.40361">
        <ele>142.41</ele>
        <time>2013-05-25T11:00:38Z</time>
      </trkpt>
      <trkpt lat="48.87958" lon="-0.40368">
        <ele>142.41</ele>
        <time>2013-05-25T11:00:41Z</time>
      </trkpt>
      <trkpt lat="48.87955" lon="-0.40369">
        <ele>141.93</ele>
        <time>2013-05-25T11:00:45Z</time>
      </trkpt>
      <trkpt lat="48.87948" lon="-0.40385">
        <ele>141.93</ele>
        <time>2013-05-25T11:00:53Z</time>
      </trkpt>
      <trkpt lat="48.87945" lon="-0.40394">
        <ele>141.45</ele>
        <time>2013-05-25T11:00:57Z</time>
      </trkpt>
      <trkpt lat="48.8794" lon="-0.4041">
        <ele>141.45</ele>
        <time>2013-05-25T11:01:04Z</time>
      </trkpt>
      <trkpt lat="48.87936" lon="-0.40429">
        <ele>140.01</ele>
        <time>2013-05-25T11:01:14Z</time>
      </trkpt>
      <trkpt lat="48.87924" lon="-0.40446">
        <ele>138.57</ele>
        <time>2013-05-25T11:01:26Z</time>
      </trkpt>
      <trkpt lat="48.87923" lon="-0.4045">
        <ele>138.09</ele>
        <time>2013-05-25T11:01:32Z</time>
      </trkpt>
      <trkpt lat="48.8792" lon="-0.40453">
        <ele>137.61</ele>
        <time>2013-05-25T11:01:35Z</time>
      </trkpt>
      <trkpt lat="48.87912" lon="-0.40461">
        <ele>136.64</ele>
        <time>2013-05-25T11:01:47Z</time>
      </trkpt>
      <trkpt lat="48.87911" lon="-0.40462">
        <ele>136.16</ele>
        <time>2013-05-25T11:01:48Z</time>
      </trkpt>
      <trkpt lat="48.87904" lon="-0.40471">
        <ele>134.72</ele>
        <time>2013-05-25T11:01:56Z</time>
      </trkpt>
      <trkpt lat="48.8789" lon="-0.40487">
        <ele>133.28</ele>
        <time>2013-05-25T11:02:08Z</time>
      </trkpt>
      <trkpt lat="48.87886" lon="-0.40489">
        <ele>132.32</ele>
        <time>2013-05-25T11:02:11Z</time>
      </trkpt>
      <trkpt lat="48.87876" lon="-0.40505">
        <ele>130.4</ele>
        <time>2013-05-25T11:02:24Z</time>
      </trkpt>
      <trkpt lat="48.87864" lon="-0.40518">
        <ele>128.47</ele>
        <time>2013-05-25T11:02:37Z</time>
      </trkpt>
      <trkpt lat="48.8786" lon="-0.40522">
        <ele>127.03</ele>
        <time>2013-05-25T11:02:42Z</time>
      </trkpt>
      <trkpt lat="48.87846" lon="-0.4053">
        <ele>124.15</ele>
        <time>2013-05-25T11:02:56Z</time>
      </trkpt>
      <trkpt lat="48.87842" lon="-0.40533">
        <ele>123.67</ele>
        <time>2013-05-25T11:02:59Z</time>
      </trkpt>
      <trkpt lat="48.87834" lon="-0.40537">
        <ele>122.22</ele>
        <time>2013-05-25T11:03:06Z</time>
      </trkpt>
      <trkpt lat="48.87831" lon="-0.40538">
        <ele>121.26</ele>
        <time>2013-05-25T11:03:08Z</time>
      </trkpt>
      <trkpt lat="48.87825" lon="-0.40542">
        <ele>120.78</ele>
        <time>2013-05-25T11:03:13Z</time>
      </trkpt>
      <trkpt lat="48.8781" lon="-0.40557">
        <ele>117.9</ele>
        <time>2013-05-25T11:03:27Z</time>
      </trkpt>
      <trkpt lat="48.87808" lon="-0.40557">
        <ele>117.9</ele>
        <time>2013-05-25T11:03:29Z</time>
      </trkpt>
      <trkpt lat="48.87796" lon="-0.4057">
        <ele>115.5</ele>
        <time>2013-05-25T11:03:41Z</time>
      </trkpt>
      <trkpt lat="48.87788" lon="-0.40579">
        <ele>114.05</ele>
        <time>2013-05-25T11:03:50Z</time>
      </trkpt>
      <trkpt lat="48.87782" lon="-0.40585">
        <ele>113.57</ele>
        <time>2013-05-25T11:03:56Z</time>
      </trkpt>
      <trkpt lat="48.87779" lon="-0.40585">
        <ele>113.57</ele>
        <time>2013-05-25T11:03:59Z</time>
      </trkpt>
      <trkpt lat="48.87771" lon="-0.40591">
        <ele>112.13</ele>
        <time>2013-05-25T11:04:05Z</time>
      </trkpt>
      <trkpt lat="48.87764" lon="-0.40595">
        <ele>111.17</ele>
        <time>2013-05-25T11:04:10Z</time>
      </trkpt>
      <trkpt lat="48.8776" lon="-0.40597">
        <ele>110.69</ele>
        <time>2013-05-25T11:04:15Z</time>
      </trkpt>
      <trkpt lat="48.87752" lon="-0.40603">
        <ele>109.25</ele>
        <time>2013-05-25T11:04:22Z</time>
      </trkpt>
      <trkpt lat="48.87747" lon="-0.40611">
        <ele>108.29</ele>
        <time>2013-05-25T11:04:27Z</time>
      </trkpt>
      <trkpt lat="48.87746" lon="-0.40613">
        <ele>107.81</ele>
        <time>2013-05-25T11:04:29Z</time>
      </trkpt>
      <trkpt lat="48.87743" lon="-0.40617">
        <ele>107.32</ele>
        <time>2013-05-25T11:04:32Z</time>
      </trkpt>
      <trkpt lat="48.87738" lon="-0.40615">
        <ele>106.84</ele>
        <time>2013-05-25T11:04:35Z</time>
      </trkpt>
      <trkpt lat="48.87734" lon="-0.40616">
        <ele>106.84</ele>
        <time>2013-05-25T11:04:37Z</time>
      </trkpt>
      <trkpt lat="48.87721" lon="-0.40623">
        <ele>105.4</ele>
        <time>2013-05-25T11:04:45Z</time>
      </trkpt>
      <trkpt lat="48.87718" lon="-0.40628">
        <ele>104.92</ele>
        <time>2013-05-25T11:04:48Z</time>
      </trkpt>
      <trkpt lat="48.87709" lon="-0.40632">
        <ele>103.96</ele>
        <time>2013-05-25T11:04:55Z</time>
      </trkpt>
      <trkpt lat="48.87707" lon="-0.40634">
        <ele>103</ele>
        <time>2013-05-25T11:04:57Z</time>
      </trkpt>
      <trkpt lat="48.87705" lon="-0.40636">
        <ele>103</ele>
        <time>2013-05-25T11:04:59Z</time>
      </trkpt>
      <trkpt lat="48.87698" lon="-0.40643">
        <ele>102.04</ele>
        <time>2013-05-25T11:05:05Z</time>
      </trkpt>
      <trkpt lat="48.87693" lon="-0.40642">
        <ele>101.08</ele>
        <time>2013-05-25T11:05:10Z</time>
      </trkpt>
      <trkpt lat="48.87686" lon="-0.40648">
        <ele>100.11</ele>
        <time>2013-05-25T11:05:16Z</time>
      </trkpt>
      <trkpt lat="48.87683" lon="-0.40649">
        <ele>99.63</ele>
        <time>2013-05-25T11:05:19Z</time>
      </trkpt>
      <trkpt lat="48.87674" lon="-0.40662">
        <ele>98.67</ele>
        <time>2013-05-25T11:05:28Z</time>
      </trkpt>
      <trkpt lat="48.87672" lon="-0.40665">
        <ele>98.67</ele>
        <time>2013-05-25T11:05:30Z</time>
      </trkpt>
      <trkpt lat="48.87669" lon="-0.4067">
        <ele>97.71</ele>
        <time>2013-05-25T11:05:35Z</time>
      </trkpt>
      <trkpt lat="48.87667" lon="-0.40672">
        <ele>97.23</ele>
        <time>2013-05-25T11:05:37Z</time>
      </trkpt>
      <trkpt lat="48.87663" lon="-0.40684">
        <ele>96.27</ele>
        <time>2013-05-25T11:05:48Z</time>
      </trkpt>
      <trkpt lat="48.8766" lon="-0.40688">
        <ele>95.31</ele>
        <time>2013-05-25T11:05:53Z</time>
      </trkpt>
      <trkpt lat="48.87657" lon="-0.40693">
        <ele>95.31</ele>
        <time>2013-05-25T11:05:56Z</time>
      </trkpt>
      <trkpt lat="48.8765" lon="-0.40698">
        <ele>94.35</ele>
        <time>2013-05-25T11:06:01Z</time>
      </trkpt>
      <trkpt lat="48.87642" lon="-0.40697">
        <ele>92.9</ele>
        <time>2013-05-25T11:06:09Z</time>
      </trkpt>
      <trkpt lat="48.87637" lon="-0.40699">
        <ele>91.94</ele>
        <time>2013-05-25T11:06:14Z</time>
      </trkpt>
      <trkpt lat="48.87635" lon="-0.40701">
        <ele>91.46</ele>
        <time>2013-05-25T11:06:18Z</time>
      </trkpt>
      <trkpt lat="48.87633" lon="-0.40702">
        <ele>90.98</ele>
        <time>2013-05-25T11:06:21Z</time>
      </trkpt>
      <trkpt lat="48.87628" lon="-0.40702">
        <ele>90.5</ele>
        <time>2013-05-25T11:06:25Z</time>
      </trkpt>
      <trkpt lat="48.87621" lon="-0.40703">
        <ele>90.02</ele>
        <time>2013-05-25T11:06:31Z</time>
      </trkpt>
      <trkpt lat="48.87619" lon="-0.40704">
        <ele>89.54</ele>
        <time>2013-05-25T11:06:33Z</time>
      </trkpt>
      <trkpt lat="48.87607" lon="-0.40703">
        <ele>87.62</ele>
        <time>2013-05-25T11:06:44Z</time>
      </trkpt>
      <trkpt lat="48.87601" lon="-0.40703">
        <ele>87.14</ele>
        <time>2013-05-25T11:06:49Z</time>
      </trkpt>
      <trkpt lat="48.87591" lon="-0.40708">
        <ele>85.21</ele>
        <time>2013-05-25T11:07:01Z</time>
      </trkpt>
      <trkpt lat="48.87588" lon="-0.40709">
        <ele>85.69</ele>
        <time>2013-05-25T11:07:08Z</time>
      </trkpt>
      <trkpt lat="48.87585" lon="-0.4071">
        <ele>84.73</ele>
        <time>2013-05-25T11:07:11Z</time>
      </trkpt>
      <trkpt lat="48.87568" lon="-0.40711">
        <ele>83.77</ele>
        <time>2013-05-25T11:07:23Z</time>
      </trkpt>
      <trkpt lat="48.87561" lon="-0.40713">
        <ele>83.29</ele>
        <time>2013-05-25T11:07:29Z</time>
      </trkpt>
      <trkpt lat="48.87557" lon="-0.40713">
        <ele>82.81</ele>
        <time>2013-05-25T11:07:32Z</time>
      </trkpt>
      <trkpt lat="48.87543" lon="-0.40716">
        <ele>82.33</ele>
        <time>2013-05-25T11:07:42Z</time>
      </trkpt>
      <trkpt lat="48.87532" lon="-0.4072">
        <ele>80.89</ele>
        <time>2013-05-25T11:07:53Z</time>
      </trkpt>
      <trkpt lat="48.87528" lon="-0.40721">
        <ele>80.41</ele>
        <time>2013-05-25T11:07:56Z</time>
      </trkpt>
      <trkpt lat="48.87514" lon="-0.40724">
        <ele>80.41</ele>
        <time>2013-05-25T11:08:08Z</time>
      </trkpt>
      <trkpt lat="48.87507" lon="-0.40726">
        <ele>79.45</ele>
        <time>2013-05-25T11:08:16Z</time>
      </trkpt>
      <trkpt lat="48.87501" lon="-0.40727">
        <ele>78.48</ele>
        <time>2013-05-25T11:08:22Z</time>
      </trkpt>
      <trkpt lat="48.87499" lon="-0.40727">
        <ele>78.97</ele>
        <time>2013-05-25T11:08:24Z</time>
      </trkpt>
      <trkpt lat="48.87487" lon="-0.40728">
        <ele>78</ele>
        <time>2013-05-25T11:08:37Z</time>
      </trkpt>
      <trkpt lat="48.87483" lon="-0.40734">
        <ele>78.48</ele>
        <time>2013-05-25T11:08:41Z</time>
      </trkpt>
      <trkpt lat="48.8748" lon="-0.4074">
        <ele>77.52</ele>
        <time>2013-05-25T11:08:45Z</time>
      </trkpt>
      <trkpt lat="48.87474" lon="-0.40746">
        <ele>76.56</ele>
        <time>2013-05-25T11:08:51Z</time>
      </trkpt>
      <trkpt lat="48.87472" lon="-0.40748">
        <ele>76.08</ele>
        <time>2013-05-25T11:08:53Z</time>
      </trkpt>
      <trkpt lat="48.87462" lon="-0.40754">
        <ele>75.12</ele>
        <time>2013-05-25T11:09:01Z</time>
      </trkpt>
      <trkpt lat="48.87455" lon="-0.40758">
        <ele>74.64</ele>
        <time>2013-05-25T11:09:06Z</time>
      </trkpt>
      <trkpt lat="48.87454" lon="-0.40762">
        <ele>75.12</ele>
        <time>2013-05-25T11:09:09Z</time>
      </trkpt>
      <trkpt lat="48.87447" lon="-0.40767">
        <ele>73.68</ele>
        <time>2013-05-25T11:09:14Z</time>
      </trkpt>
      <trkpt lat="48.87443" lon="-0.40776">
        <ele>72.24</ele>
        <time>2013-05-25T11:09:21Z</time>
      </trkpt>
      <trkpt lat="48.87434" lon="-0.40781">
        <ele>71.76</ele>
        <time>2013-05-25T11:09:27Z</time>
      </trkpt>
      <trkpt lat="48.87431" lon="-0.40785">
        <ele>70.79</ele>
        <time>2013-05-25T11:09:30Z</time>
      </trkpt>
      <trkpt lat="48.8743" lon="-0.40793">
        <ele>70.31</ele>
        <time>2013-05-25T11:09:34Z</time>
      </trkpt>
      <trkpt lat="48.87428" lon="-0.40797">
        <ele>69.83</ele>
        <time>2013-05-25T11:09:39Z</time>
      </trkpt>
      <trkpt lat="48.87421" lon="-0.40805">
        <ele>68.87</ele>
        <time>2013-05-25T11:09:50Z</time>
      </trkpt>
      <trkpt lat="48.8742" lon="-0.40805">
        <ele>68.39</ele>
        <time>2013-05-25T11:09:55Z</time>
      </trkpt>
      <trkpt lat="48.87417" lon="-0.40813">
        <ele>65.51</ele>
        <time>2013-05-25T11:10:06Z</time>
      </trkpt>
      <trkpt lat="48.87416" lon="-0.40816">
        <ele>65.51</ele>
        <time>2013-05-25T11:10:08Z</time>
      </trkpt>
      <trkpt lat="48.87415" lon="-0.40825">
        <ele>65.03</ele>
        <time>2013-05-25T11:10:19Z</time>
      </trkpt>
      <trkpt lat="48.87414" lon="-0.40833">
        <ele>64.07</ele>
        <time>2013-05-25T11:10:27Z</time>
      </trkpt>
      <trkpt lat="48.87411" lon="-0.40841">
        <ele>63.1</ele>
        <time>2013-05-25T11:10:38Z</time>
      </trkpt>
      <trkpt lat="48.8741" lon="-0.40846">
        <ele>62.62</ele>
        <time>2013-05-25T11:10:42Z</time>
      </trkpt>
      <trkpt lat="48.87405" lon="-0.40871">
        <ele>61.18</ele>
        <time>2013-05-25T11:10:57Z</time>
      </trkpt>
      <trkpt lat="48.87403" lon="-0.40898">
        <ele>61.18</ele>
        <time>2013-05-25T11:11:07Z</time>
      </trkpt>
      <trkpt lat="48.87399" lon="-0.40915">
        <ele>60.7</ele>
        <time>2013-05-25T11:11:18Z</time>
      </trkpt>
      <trkpt lat="48.87398" lon="-0.40919">
        <ele>60.22</ele>
        <time>2013-05-25T11:11:19Z</time>
      </trkpt>
      <trkpt lat="48.87396" lon="-0.40933">
        <ele>60.22</ele>
        <time>2013-05-25T11:11:23Z</time>
      </trkpt>
      <trkpt lat="48.87395" lon="-0.40944">
        <ele>60.22</ele>
        <time>2013-05-25T11:11:30Z</time>
      </trkpt>
      <trkpt lat="48.87394" lon="-0.4095">
        <ele>60.7</ele>
        <time>2013-05-25T11:11:35Z</time>
      </trkpt>
      <trkpt lat="48.87392" lon="-0.40954">
        <ele>59.74</ele>
        <time>2013-05-25T11:11:38Z</time>
      </trkpt>
      <trkpt lat="48.87392" lon="-0.4096">
        <ele>59.26</ele>
        <time>2013-05-25T11:11:44Z</time>
      </trkpt>
      <trkpt lat="48.87389" lon="-0.40972">
        <ele>58.78</ele>
        <time>2013-05-25T11:11:53Z</time>
      </trkpt>
      <trkpt lat="48.87387" lon="-0.40981">
        <ele>58.3</ele>
        <time>2013-05-25T11:11:58Z</time>
      </trkpt>
      <trkpt lat="48.87386" lon="-0.40992">
        <ele>57.34</ele>
        <time>2013-05-25T11:12:09Z</time>
      </trkpt>
      <trkpt lat="48.87385" lon="-0.40992">
        <ele>57.34</ele>
        <time>2013-05-25T11:12:10Z</time>
      </trkpt>
      <trkpt lat="48.87381" lon="-0.40996">
        <ele>57.82</ele>
        <time>2013-05-25T11:12:22Z</time>
      </trkpt>
      <trkpt lat="48.8738" lon="-0.40998">
        <ele>57.82</ele>
        <time>2013-05-25T11:12:25Z</time>
      </trkpt>
      <trkpt lat="48.8738" lon="-0.41001">
        <ele>57.82</ele>
        <time>2013-05-25T11:12:27Z</time>
      </trkpt>
      <trkpt lat="48.87378" lon="-0.41008">
        <ele>57.34</ele>
        <time>2013-05-25T11:12:32Z</time>
      </trkpt>
      <trkpt lat="48.87379" lon="-0.41006">
        <ele>57.34</ele>
        <time>2013-05-25T11:12:35Z</time>
      </trkpt>
      <trkpt lat="48.87382" lon="-0.40995">
        <ele>58.3</ele>
        <time>2013-05-25T11:12:44Z</time>
      </trkpt>
      <trkpt lat="48.87381" lon="-0.4099">
        <ele>58.3</ele>
        <time>2013-05-25T11:12:48Z</time>
      </trkpt>
      <trkpt lat="48.8738" lon="-0.40991">
        <ele>56.37</ele>
        <time>2013-05-25T11:12:54Z</time>
      </trkpt>
      <trkpt lat="48.8738" lon="-0.40994">
        <ele>55.89</ele>
        <time>2013-05-25T11:12:57Z</time>
      </trkpt>
      <trkpt lat="48.87378" lon="-0.40995">
        <ele>55.89</ele>
        <time>2013-05-25T11:12:59Z</time>
      </trkpt>
      <trkpt lat="48.87372" lon="-0.41005">
        <ele>54.45</ele>
        <time>2013-05-25T11:13:12Z</time>
      </trkpt>
      <trkpt lat="48.87367" lon="-0.41007">
        <ele>53.49</ele>
        <time>2013-05-25T11:13:23Z</time>
      </trkpt>
      <trkpt lat="48.87365" lon="-0.41006">
        <ele>53.49</ele>
        <time>2013-05-25T11:13:25Z</time>
      </trkpt>
      <trkpt lat="48.87354" lon="-0.41">
        <ele>53.49</ele>
        <time>2013-05-25T11:13:39Z</time>
      </trkpt>
      <trkpt lat="48.8735" lon="-0.40997">
        <ele>50.61</ele>
        <time>2013-05-25T11:13:51Z</time>
      </trkpt>
      <trkpt lat="48.87343" lon="-0.40998">
        <ele>53.49</ele>
        <time>2013-05-25T11:14:11Z</time>
      </trkpt>
      <trkpt lat="48.87343" lon="-0.40998">
        <ele>53.97</ele>
        <time>2013-05-25T11:14:31Z</time>
      </trkpt>
      <trkpt lat="48.87343" lon="-0.40996">
        <ele>53.01</ele>
        <time>2013-05-25T11:14:49Z</time>
      </trkpt>
      <trkpt lat="48.87342" lon="-0.40996">
        <ele>53.49</ele>
        <time>2013-05-25T11:15:08Z</time>
      </trkpt>
      <trkpt lat="48.87343" lon="-0.40995">
        <ele>53.97</ele>
        <time>2013-05-25T11:15:26Z</time>
      </trkpt>
      <trkpt lat="48.87343" lon="-0.40995">
        <ele>51.57</ele>
        <time>2013-05-25T11:15:38Z</time>
      </trkpt>
      <trkpt lat="48.87342" lon="-0.40994">
        <ele>53.01</ele>
        <time>2013-05-25T11:15:53Z</time>
      </trkpt>
      <trkpt lat="48.87342" lon="-0.40994">
        <ele>49.16</ele>
        <time>2013-05-25T11:16:00Z</time>
      </trkpt>
      <trkpt lat="48.87342" lon="-0.40995">
        <ele>52.53</ele>
        <time>2013-05-25T11:16:01Z</time>
      </trkpt>
      <trkpt lat="48.87342" lon="-0.40995">
        <ele>53.49</ele>
        <time>2013-05-25T11:16:03Z</time>
      </trkpt>
      <trkpt lat="48.87342" lon="-0.40995">
        <ele>56.86</ele>
        <time>2013-05-25T11:16:08Z</time>
      </trkpt>
      <trkpt lat="48.87342" lon="-0.40995">
        <ele>52.05</ele>
        <time>2013-05-25T11:16:09Z</time>
      </trkpt>
      <trkpt lat="48.87342" lon="-0.40995">
        <ele>52.05</ele>
        <time>2013-05-25T11:16:10Z</time>
      </trkpt>
      <trkpt lat="48.87342" lon="-0.40995">
        <ele>52.53</ele>
        <time>2013-05-25T11:16:11Z</time>
      </trkpt>
      <trkpt lat="48.87341" lon="-0.40974">
        <ele>53.49</ele>
        <time>2013-05-25T11:16:27Z</time>
      </trkpt>
      <trkpt lat="48.87341" lon="-0.40975">
        <ele>53.01</ele>
        <time>2013-05-25T11:16:28Z</time>
      </trkpt>
      <trkpt lat="48.87344" lon="-0.40991">
        <ele>49.16</ele>
        <time>2013-05-25T11:16:45Z</time>
      </trkpt>
      <trkpt lat="48.87344" lon="-0.40991">
        <ele>53.01</ele>
        <time>2013-05-25T11:16:46Z</time>
      </trkpt>
      <trkpt lat="48.87343" lon="-0.40992">
        <ele>45.32</ele>
        <time>2013-05-25T11:16:51Z</time>
      </trkpt>
      <trkpt lat="48.87343" lon="-0.40992">
        <ele>53.97</ele>
        <time>2013-05-25T11:16:52Z</time>
      </trkpt>
      <trkpt lat="48.87341" lon="-0.40992">
        <ele>52.53</ele>
        <time>2013-05-25T11:17:07Z</time>
      </trkpt>
      <trkpt lat="48.87341" lon="-0.40991">
        <ele>52.53</ele>
        <time>2013-05-25T11:17:21Z</time>
      </trkpt>
      <trkpt lat="48.87339" lon="-0.40988">
        <ele>52.05</ele>
        <time>2013-05-25T11:17:45Z</time>
      </trkpt>
      <trkpt lat="48.8734" lon="-0.40987">
        <ele>52.05</ele>
        <time>2013-05-25T11:18:16Z</time>
      </trkpt>
      <trkpt lat="48.8734" lon="-0.40988">
        <ele>52.05</ele>
        <time>2013-05-25T11:18:44Z</time>
      </trkpt>
      <trkpt lat="48.8734" lon="-0.40988">
        <ele>52.05</ele>
        <time>2013-05-25T11:19:08Z</time>
      </trkpt>
      <trkpt lat="48.8734" lon="-0.40987">
        <ele>51.57</ele>
        <time>2013-05-25T11:19:30Z</time>
      </trkpt>
      <trkpt lat="48.8734" lon="-0.40986">
        <ele>52.05</ele>
        <time>2013-05-25T11:19:57Z</time>
      </trkpt>
      <trkpt lat="48.8734" lon="-0.40986">
        <ele>51.57</ele>
        <time>2013-05-25T11:20:24Z</time>
      </trkpt>
      <trkpt lat="48.87339" lon="-0.40986">
        <ele>51.57</ele>
        <time>2013-05-25T11:20:46Z</time>
      </trkpt>
      <trkpt lat="48.87339" lon="-0.40987">
        <ele>52.05</ele>
        <time>2013-05-25T11:21:13Z</time>
      </trkpt>
      <trkpt lat="48.87339" lon="-0.40988">
        <ele>51.57</ele>
        <time>2013-05-25T11:21:38Z</time>
      </trkpt>
      <trkpt lat="48.87339" lon="-0.40988">
        <ele>51.57</ele>
        <time>2013-05-25T11:22:01Z</time>
      </trkpt>
      <trkpt lat="48.87339" lon="-0.40987">
        <ele>51.09</ele>
        <time>2013-05-25T11:22:26Z</time>
      </trkpt>
      <trkpt lat="48.87339" lon="-0.40988">
        <ele>51.09</ele>
        <time>2013-05-25T11:22:52Z</time>
      </trkpt>
      <trkpt lat="48.87339" lon="-0.40988">
        <ele>50.61</ele>
        <time>2013-05-25T11:23:20Z</time>
      </trkpt>
      <trkpt lat="48.87339" lon="-0.40989">
        <ele>50.61</ele>
        <time>2013-05-25T11:23:47Z</time>
      </trkpt>
      <trkpt lat="48.8734" lon="-0.40989">
        <ele>51.09</ele>
        <time>2013-05-25T11:24:16Z</time>
      </trkpt>
      <trkpt lat="48.87339" lon="-0.40989">
        <ele>51.09</ele>
        <time>2013-05-25T11:24:44Z</time>
      </trkpt>
      <trkpt lat="48.87338" lon="-0.4099">
        <ele>50.61</ele>
        <time>2013-05-25T11:25:18Z</time>
      </trkpt>
      <trkpt lat="48.87338" lon="-0.40989">
        <ele>50.61</ele>
        <time>2013-05-25T11:25:50Z</time>
      </trkpt>
      <trkpt lat="48.87339" lon="-0.40988">
        <ele>51.09</ele>
        <time>2013-05-25T11:26:25Z</time>
      </trkpt>
      <trkpt lat="48.87339" lon="-0.40988">
        <ele>50.61</ele>
        <time>2013-05-25T11:26:55Z</time>
      </trkpt>
      <trkpt lat="48.87339" lon="-0.40988">
        <ele>50.61</ele>
        <time>2013-05-25T11:27:29Z</time>
      </trkpt>
      <trkpt lat="48.87339" lon="-0.40988">
        <ele>50.13</ele>
        <time>2013-05-25T11:28:01Z</time>
      </trkpt>
      <trkpt lat="48.87339" lon="-0.40988">
        <ele>51.09</ele>
        <time>2013-05-25T11:28:34Z</time>
      </trkpt>
      <trkpt lat="48.8734" lon="-0.40988">
        <ele>50.61</ele>
        <time>2013-05-25T11:29:05Z</time>
      </trkpt>
      <trkpt lat="48.8734" lon="-0.40988">
        <ele>50.61</ele>
        <time>2013-05-25T11:29:34Z</time>
      </trkpt>
      <trkpt lat="48.87339" lon="-0.40987">
        <ele>50.13</ele>
        <time>2013-05-25T11:30:03Z</time>
      </trkpt>
      <trkpt lat="48.87339" lon="-0.40986">
        <ele>50.61</ele>
        <time>2013-05-25T11:30:36Z</time>
      </trkpt>
      <trkpt lat="48.87339" lon="-0.40986">
        <ele>50.61</ele>
        <time>2013-05-25T11:31:12Z</time>
      </trkpt>
      <trkpt lat="48.87339" lon="-0.40987">
        <ele>50.61</ele>
        <time>2013-05-25T11:31:44Z</time>
      </trkpt>
      <trkpt lat="48.87339" lon="-0.40989">
        <ele>50.13</ele>
        <time>2013-05-25T11:32:15Z</time>
      </trkpt>
      <trkpt lat="48.87339" lon="-0.40988">
        <ele>50.13</ele>
        <time>2013-05-25T11:32:44Z</time>
      </trkpt>
      <trkpt lat="48.87339" lon="-0.40988">
        <ele>50.13</ele>
        <time>2013-05-25T11:33:15Z</time>
      </trkpt>
      <trkpt lat="48.8734" lon="-0.40989">
        <ele>49.65</ele>
        <time>2013-05-25T11:33:45Z</time>
      </trkpt>
      <trkpt lat="48.87339" lon="-0.40989">
        <ele>49.65</ele>
        <time>2013-05-25T11:34:15Z</time>
      </trkpt>
      <trkpt lat="48.87339" lon="-0.40989">
        <ele>50.13</ele>
        <time>2013-05-25T11:34:45Z</time>
      </trkpt>
      <trkpt lat="48.87339" lon="-0.40989">
        <ele>49.65</ele>
        <time>2013-05-25T11:35:11Z</time>
      </trkpt>
      <trkpt lat="48.87339" lon="-0.40989">
        <ele>49.65</ele>
        <time>2013-05-25T11:35:43Z</time>
      </trkpt>
      <trkpt lat="48.87339" lon="-0.4099">
        <ele>50.13</ele>
        <time>2013-05-25T11:36:10Z</time>
      </trkpt>
      <trkpt lat="48.8734" lon="-0.4099">
        <ele>50.61</ele>
        <time>2013-05-25T11:36:33Z</time>
      </trkpt>
      <trkpt lat="48.8734" lon="-0.4099">
        <ele>50.13</ele>
        <time>2013-05-25T11:37:01Z</time>
      </trkpt>
      <trkpt lat="48.8734" lon="-0.4099">
        <ele>51.09</ele>
        <time>2013-05-25T11:37:31Z</time>
      </trkpt>
      <trkpt lat="48.8734" lon="-0.40991">
        <ele>51.09</ele>
        <time>2013-05-25T11:37:48Z</time>
      </trkpt>
      <trkpt lat="48.8734" lon="-0.40991">
        <ele>51.57</ele>
        <time>2013-05-25T11:38:10Z</time>
      </trkpt>
      <trkpt lat="48.8734" lon="-0.40991">
        <ele>50.61</ele>
        <time>2013-05-25T11:38:31Z</time>
      </trkpt>
      <trkpt lat="48.87341" lon="-0.40992">
        <ele>50.13</ele>
        <time>2013-05-25T11:38:51Z</time>
      </trkpt>
      <trkpt lat="48.87341" lon="-0.40993">
        <ele>50.13</ele>
        <time>2013-05-25T11:39:19Z</time>
      </trkpt>
      <trkpt lat="48.87341" lon="-0.40993">
        <ele>47.24</ele>
        <time>2013-05-25T11:39:29Z</time>
      </trkpt>
      <trkpt lat="48.8734" lon="-0.40993">
        <ele>52.05</ele>
        <time>2013-05-25T11:39:30Z</time>
      </trkpt>
      <trkpt lat="48.8734" lon="-0.40994">
        <ele>51.09</ele>
        <time>2013-05-25T11:39:50Z</time>
      </trkpt>
      <trkpt lat="48.8734" lon="-0.40994">
        <ele>51.09</ele>
        <time>2013-05-25T11:40:17Z</time>
      </trkpt>
      <trkpt lat="48.8734" lon="-0.40993">
        <ele>50.61</ele>
        <time>2013-05-25T11:40:38Z</time>
      </trkpt>
      <trkpt lat="48.87341" lon="-0.40993">
        <ele>51.57</ele>
        <time>2013-05-25T11:41:03Z</time>
      </trkpt>
      <trkpt lat="48.87341" lon="-0.40993">
        <ele>50.61</ele>
        <time>2013-05-25T11:41:22Z</time>
      </trkpt>
      <trkpt lat="48.87341" lon="-0.40995">
        <ele>51.09</ele>
        <time>2013-05-25T11:41:33Z</time>
      </trkpt>
      <trkpt lat="48.87342" lon="-0.40996">
        <ele>51.57</ele>
        <time>2013-05-25T11:41:49Z</time>
      </trkpt>
      <trkpt lat="48.87349" lon="-0.40995">
        <ele>53.01</ele>
        <time>2013-05-25T11:41:59Z</time>
      </trkpt>
      <trkpt lat="48.87353" lon="-0.40998">
        <ele>52.53</ele>
        <time>2013-05-25T11:42:12Z</time>
      </trkpt>
      <trkpt lat="48.87357" lon="-0.40998">
        <ele>52.53</ele>
        <time>2013-05-25T11:42:25Z</time>
      </trkpt>
      <trkpt lat="48.87366" lon="-0.41002">
        <ele>52.53</ele>
        <time>2013-05-25T11:42:38Z</time>
      </trkpt>
      <trkpt lat="48.87371" lon="-0.41">
        <ele>53.97</ele>
        <time>2013-05-25T11:42:49Z</time>
      </trkpt>
      <trkpt lat="48.87376" lon="-0.40992">
        <ele>55.41</ele>
        <time>2013-05-25T11:43:02Z</time>
      </trkpt>
      <trkpt lat="48.87379" lon="-0.4099">
        <ele>55.41</ele>
        <time>2013-05-25T11:43:21Z</time>
      </trkpt>
      <trkpt lat="48.87379" lon="-0.40989">
        <ele>55.41</ele>
        <time>2013-05-25T11:43:34Z</time>
      </trkpt>
      <trkpt lat="48.87379" lon="-0.40988">
        <ele>55.41</ele>
        <time>2013-05-25T11:43:55Z</time>
      </trkpt>
      <trkpt lat="48.87379" lon="-0.40988">
        <ele>55.41</ele>
        <time>2013-05-25T11:44:06Z</time>
      </trkpt>
      <trkpt lat="48.8738" lon="-0.40988">
        <ele>55.41</ele>
        <time>2013-05-25T11:44:17Z</time>
      </trkpt>
      <trkpt lat="48.87381" lon="-0.40992">
        <ele>55.41</ele>
        <time>2013-05-25T11:44:29Z</time>
      </trkpt>
      <trkpt lat="48.87381" lon="-0.40995">
        <ele>54.93</ele>
        <time>2013-05-25T11:44:37Z</time>
      </trkpt>
      <trkpt lat="48.87375" lon="-0.4102">
        <ele>55.41</ele>
        <time>2013-05-25T11:44:52Z</time>
      </trkpt>
      <trkpt lat="48.87372" lon="-0.41034">
        <ele>56.37</ele>
        <time>2013-05-25T11:45:01Z</time>
      </trkpt>
      <trkpt lat="48.87365" lon="-0.41059">
        <ele>56.37</ele>
        <time>2013-05-25T11:45:16Z</time>
      </trkpt>
      <trkpt lat="48.87361" lon="-0.41075">
        <ele>55.41</ele>
        <time>2013-05-25T11:45:26Z</time>
      </trkpt>
      <trkpt lat="48.8736" lon="-0.41081">
        <ele>54.45</ele>
        <time>2013-05-25T11:45:29Z</time>
      </trkpt>
      <trkpt lat="48.8736" lon="-0.41088">
        <ele>54.45</ele>
        <time>2013-05-25T11:45:33Z</time>
      </trkpt>
      <trkpt lat="48.87357" lon="-0.41098">
        <ele>54.45</ele>
        <time>2013-05-25T11:45:40Z</time>
      </trkpt>
      <trkpt lat="48.87351" lon="-0.41114">
        <ele>54.45</ele>
        <time>2013-05-25T11:45:51Z</time>
      </trkpt>
      <trkpt lat="48.87349" lon="-0.41119">
        <ele>53.97</ele>
        <time>2013-05-25T11:46:05Z</time>
      </trkpt>
      <trkpt lat="48.87349" lon="-0.4112">
        <ele>53.97</ele>
        <time>2013-05-25T11:46:09Z</time>
      </trkpt>
      <trkpt lat="48.8735" lon="-0.41126">
        <ele>54.93</ele>
        <time>2013-05-25T11:46:23Z</time>
      </trkpt>
      <trkpt lat="48.87349" lon="-0.41128">
        <ele>54.45</ele>
        <time>2013-05-25T11:46:39Z</time>
      </trkpt>
      <trkpt lat="48.87354" lon="-0.41129">
        <ele>54.93</ele>
        <time>2013-05-25T11:46:44Z</time>
      </trkpt>
      <trkpt lat="48.87372" lon="-0.41143">
        <ele>54.93</ele>
        <time>2013-05-25T11:47:05Z</time>
      </trkpt>
      <trkpt lat="48.87357" lon="-0.41144">
        <ele>53.97</ele>
        <time>2013-05-25T11:47:23Z</time>
      </trkpt>
      <trkpt lat="48.87356" lon="-0.41141">
        <ele>53.49</ele>
        <time>2013-05-25T11:47:26Z</time>
      </trkpt>
      <trkpt lat="48.87337" lon="-0.41111">
        <ele>53.49</ele>
        <time>2013-05-25T11:47:52Z</time>
      </trkpt>
      <trkpt lat="48.87357" lon="-0.41143">
        <ele>53.97</ele>
        <time>2013-05-25T12:08:12Z</time>
      </trkpt>
      <trkpt lat="48.87353" lon="-0.41132">
        <ele>53.97</ele>
        <time>2013-05-25T12:08:22Z</time>
      </trkpt>
      <trkpt lat="48.8735" lon="-0.41133">
        <ele>53.97</ele>
        <time>2013-05-25T12:08:39Z</time>
      </trkpt>
      <trkpt lat="48.87349" lon="-0.41134">
        <ele>53.49</ele>
        <time>2013-05-25T12:08:54Z</time>
      </trkpt>
      <trkpt lat="48.87349" lon="-0.41136">
        <ele>53.97</ele>
        <time>2013-05-25T12:09:10Z</time>
      </trkpt>
      <trkpt lat="48.87348" lon="-0.41137">
        <ele>53.97</ele>
        <time>2013-05-25T12:09:27Z</time>
      </trkpt>
      <trkpt lat="48.87347" lon="-0.41137">
        <ele>53.97</ele>
        <time>2013-05-25T12:09:43Z</time>
      </trkpt>
      <trkpt lat="48.87348" lon="-0.41136">
        <ele>53.97</ele>
        <time>2013-05-25T12:09:57Z</time>
      </trkpt>
      <trkpt lat="48.87348" lon="-0.41136">
        <ele>53.97</ele>
        <time>2013-05-25T12:10:17Z</time>
      </trkpt>
      <trkpt lat="48.87346" lon="-0.41137">
        <ele>53.49</ele>
        <time>2013-05-25T12:10:45Z</time>
      </trkpt>
      <trkpt lat="48.87338" lon="-0.41147">
        <ele>53.01</ele>
        <time>2013-05-25T12:10:57Z</time>
      </trkpt>
      <trkpt lat="48.87328" lon="-0.41158">
        <ele>53.01</ele>
        <time>2013-05-25T12:11:11Z</time>
      </trkpt>
      <trkpt lat="48.87322" lon="-0.41165">
        <ele>53.49</ele>
        <time>2013-05-25T12:11:21Z</time>
      </trkpt>
      <trkpt lat="48.87311" lon="-0.41174">
        <ele>53.49</ele>
        <time>2013-05-25T12:11:35Z</time>
      </trkpt>
      <trkpt lat="48.87307" lon="-0.41174">
        <ele>53.49</ele>
        <time>2013-05-25T12:11:40Z</time>
      </trkpt>
      <trkpt lat="48.87302" lon="-0.41179">
        <ele>53.49</ele>
        <time>2013-05-25T12:11:45Z</time>
      </trkpt>
      <trkpt lat="48.873" lon="-0.41182">
        <ele>53.97</ele>
        <time>2013-05-25T12:11:47Z</time>
      </trkpt>
      <trkpt lat="48.87296" lon="-0.41188">
        <ele>53.97</ele>
        <time>2013-05-25T12:11:58Z</time>
      </trkpt>
      <trkpt lat="48.87292" lon="-0.41192">
        <ele>54.93</ele>
        <time>2013-05-25T12:12:06Z</time>
      </trkpt>
      <trkpt lat="48.8729" lon="-0.41195">
        <ele>54.93</ele>
        <time>2013-05-25T12:12:09Z</time>
      </trkpt>
      <trkpt lat="48.87288" lon="-0.41198">
        <ele>55.41</ele>
        <time>2013-05-25T12:12:11Z</time>
      </trkpt>
      <trkpt lat="48.87287" lon="-0.412">
        <ele>54.93</ele>
        <time>2013-05-25T12:12:13Z</time>
      </trkpt>
      <trkpt lat="48.87277" lon="-0.41218">
        <ele>54.93</ele>
        <time>2013-05-25T12:12:27Z</time>
      </trkpt>
      <trkpt lat="48.87275" lon="-0.41224">
        <ele>55.41</ele>
        <time>2013-05-25T12:12:37Z</time>
      </trkpt>
      <trkpt lat="48.87269" lon="-0.41233">
        <ele>55.89</ele>
        <time>2013-05-25T12:12:44Z</time>
      </trkpt>
      <trkpt lat="48.87264" lon="-0.41241">
        <ele>57.34</ele>
        <time>2013-05-25T12:12:50Z</time>
      </trkpt>
      <trkpt lat="48.87261" lon="-0.41248">
        <ele>56.86</ele>
        <time>2013-05-25T12:12:54Z</time>
      </trkpt>
      <trkpt lat="48.87257" lon="-0.41256">
        <ele>58.3</ele>
        <time>2013-05-25T12:13:00Z</time>
      </trkpt>
      <trkpt lat="48.87264" lon="-0.41263">
        <ele>57.82</ele>
        <time>2013-05-25T12:13:14Z</time>
      </trkpt>
      <trkpt lat="48.87264" lon="-0.41265">
        <ele>58.3</ele>
        <time>2013-05-25T12:13:19Z</time>
      </trkpt>
      <trkpt lat="48.8728" lon="-0.41273">
        <ele>59.26</ele>
        <time>2013-05-25T12:13:29Z</time>
      </trkpt>
      <trkpt lat="48.87286" lon="-0.4128">
        <ele>59.74</ele>
        <time>2013-05-25T12:13:41Z</time>
      </trkpt>
      <trkpt lat="48.87296" lon="-0.41287">
        <ele>59.74</ele>
        <time>2013-05-25T12:13:54Z</time>
      </trkpt>
      <trkpt lat="48.87308" lon="-0.41295">
        <ele>60.22</ele>
        <time>2013-05-25T12:14:05Z</time>
      </trkpt>
      <trkpt lat="48.87325" lon="-0.41307">
        <ele>61.66</ele>
        <time>2013-05-25T12:14:21Z</time>
      </trkpt>
      <trkpt lat="48.87337" lon="-0.41324">
        <ele>63.58</ele>
        <time>2013-05-25T12:14:34Z</time>
      </trkpt>
      <trkpt lat="48.87346" lon="-0.41345">
        <ele>65.03</ele>
        <time>2013-05-25T12:14:49Z</time>
      </trkpt>
      <trkpt lat="48.87354" lon="-0.41366">
        <ele>66.47</ele>
        <time>2013-05-25T12:15:05Z</time>
      </trkpt>
      <trkpt lat="48.87359" lon="-0.4139">
        <ele>67.91</ele>
        <time>2013-05-25T12:15:19Z</time>
      </trkpt>
      <trkpt lat="48.87359" lon="-0.41391">
        <ele>67.91</ele>
        <time>2013-05-25T12:15:20Z</time>
      </trkpt>
      <trkpt lat="48.87361" lon="-0.41406">
        <ele>69.35</ele>
        <time>2013-05-25T12:15:29Z</time>
      </trkpt>
      <trkpt lat="48.87362" lon="-0.41414">
        <ele>70.31</ele>
        <time>2013-05-25T12:15:33Z</time>
      </trkpt>
      <trkpt lat="48.87363" lon="-0.41422">
        <ele>70.31</ele>
        <time>2013-05-25T12:15:38Z</time>
      </trkpt>
      <trkpt lat="48.87362" lon="-0.41426">
        <ele>70.31</ele>
        <time>2013-05-25T12:15:40Z</time>
      </trkpt>
      <trkpt lat="48.87364" lon="-0.4145">
        <ele>72.72</ele>
        <time>2013-05-25T12:15:54Z</time>
      </trkpt>
      <trkpt lat="48.87374" lon="-0.4147">
        <ele>74.16</ele>
        <time>2013-05-25T12:16:09Z</time>
      </trkpt>
      <trkpt lat="48.87384" lon="-0.41477">
        <ele>75.12</ele>
        <time>2013-05-25T12:16:21Z</time>
      </trkpt>
      <trkpt lat="48.87385" lon="-0.41478">
        <ele>74.64</ele>
        <time>2013-05-25T12:16:23Z</time>
      </trkpt>
      <trkpt lat="48.87392" lon="-0.41482">
        <ele>76.08</ele>
        <time>2013-05-25T12:16:32Z</time>
      </trkpt>
      <trkpt lat="48.87406" lon="-0.41496">
        <ele>77.04</ele>
        <time>2013-05-25T12:16:47Z</time>
      </trkpt>
      <trkpt lat="48.87411" lon="-0.41501">
        <ele>76.56</ele>
        <time>2013-05-25T12:16:51Z</time>
      </trkpt>
      <trkpt lat="48.87425" lon="-0.41515">
        <ele>78.48</ele>
        <time>2013-05-25T12:17:04Z</time>
      </trkpt>
      <trkpt lat="48.8743" lon="-0.41529">
        <ele>79.45</ele>
        <time>2013-05-25T12:17:16Z</time>
      </trkpt>
      <trkpt lat="48.87438" lon="-0.41543">
        <ele>80.41</ele>
        <time>2013-05-25T12:17:27Z</time>
      </trkpt>
      <trkpt lat="48.87449" lon="-0.41564">
        <ele>81.37</ele>
        <time>2013-05-25T12:17:42Z</time>
      </trkpt>
      <trkpt lat="48.87461" lon="-0.41584">
        <ele>83.29</ele>
        <time>2013-05-25T12:17:57Z</time>
      </trkpt>
      <trkpt lat="48.87471" lon="-0.41606">
        <ele>84.25</ele>
        <time>2013-05-25T12:18:12Z</time>
      </trkpt>
      <trkpt lat="48.87474" lon="-0.41613">
        <ele>85.21</ele>
        <time>2013-05-25T12:18:17Z</time>
      </trkpt>
      <trkpt lat="48.87484" lon="-0.41625">
        <ele>86.18</ele>
        <time>2013-05-25T12:18:28Z</time>
      </trkpt>
      <trkpt lat="48.87489" lon="-0.41632">
        <ele>86.18</ele>
        <time>2013-05-25T12:18:33Z</time>
      </trkpt>
      <trkpt lat="48.87498" lon="-0.41648">
        <ele>86.66</ele>
        <time>2013-05-25T12:18:45Z</time>
      </trkpt>
      <trkpt lat="48.87502" lon="-0.41655">
        <ele>86.18</ele>
        <time>2013-05-25T12:18:50Z</time>
      </trkpt>
      <trkpt lat="48.87517" lon="-0.41677">
        <ele>86.18</ele>
        <time>2013-05-25T12:19:06Z</time>
      </trkpt>
      <trkpt lat="48.87519" lon="-0.4168">
        <ele>86.18</ele>
        <time>2013-05-25T12:19:08Z</time>
      </trkpt>
      <trkpt lat="48.87524" lon="-0.41687">
        <ele>85.21</ele>
        <time>2013-05-25T12:19:13Z</time>
      </trkpt>
      <trkpt lat="48.87535" lon="-0.41703">
        <ele>84.73</ele>
        <time>2013-05-25T12:19:26Z</time>
      </trkpt>
      <trkpt lat="48.87543" lon="-0.41715">
        <ele>84.73</ele>
        <time>2013-05-25T12:19:36Z</time>
      </trkpt>
      <trkpt lat="48.87544" lon="-0.41719">
        <ele>83.77</ele>
        <time>2013-05-25T12:19:38Z</time>
      </trkpt>
      <trkpt lat="48.87558" lon="-0.41739">
        <ele>82.81</ele>
        <time>2013-05-25T12:19:53Z</time>
      </trkpt>
      <trkpt lat="48.87571" lon="-0.41761">
        <ele>81.85</ele>
        <time>2013-05-25T12:20:08Z</time>
      </trkpt>
      <trkpt lat="48.87585" lon="-0.41782">
        <ele>80.89</ele>
        <time>2013-05-25T12:20:23Z</time>
      </trkpt>
      <trkpt lat="48.87597" lon="-0.41804">
        <ele>79.93</ele>
        <time>2013-05-25T12:20:38Z</time>
      </trkpt>
      <trkpt lat="48.8761" lon="-0.41824">
        <ele>78.48</ele>
        <time>2013-05-25T12:20:53Z</time>
      </trkpt>
      <trkpt lat="48.87621" lon="-0.41845">
        <ele>77.52</ele>
        <time>2013-05-25T12:21:07Z</time>
      </trkpt>
      <trkpt lat="48.87627" lon="-0.41855">
        <ele>77.52</ele>
        <time>2013-05-25T12:21:16Z</time>
      </trkpt>
      <trkpt lat="48.87632" lon="-0.41862">
        <ele>77.04</ele>
        <time>2013-05-25T12:21:28Z</time>
      </trkpt>
      <trkpt lat="48.87634" lon="-0.41866">
        <ele>77.52</ele>
        <time>2013-05-25T12:21:41Z</time>
      </trkpt>
      <trkpt lat="48.87635" lon="-0.41866">
        <ele>78</ele>
        <time>2013-05-25T12:22:00Z</time>
      </trkpt>
      <trkpt lat="48.87635" lon="-0.41866">
        <ele>77.04</ele>
        <time>2013-05-25T12:22:28Z</time>
      </trkpt>
      <trkpt lat="48.87635" lon="-0.41868">
        <ele>77.04</ele>
        <time>2013-05-25T12:22:34Z</time>
      </trkpt>
      <trkpt lat="48.87639" lon="-0.41873">
        <ele>77.04</ele>
        <time>2013-05-25T12:22:38Z</time>
      </trkpt>
      <trkpt lat="48.8765" lon="-0.41896">
        <ele>76.56</ele>
        <time>2013-05-25T12:22:54Z</time>
      </trkpt>
      <trkpt lat="48.87662" lon="-0.41916">
        <ele>76.56</ele>
        <time>2013-05-25T12:23:08Z</time>
      </trkpt>
      <trkpt lat="48.87666" lon="-0.41922">
        <ele>76.08</ele>
        <time>2013-05-25T12:23:12Z</time>
      </trkpt>
      <trkpt lat="48.87668" lon="-0.41929">
        <ele>76.56</ele>
        <time>2013-05-25T12:23:16Z</time>
      </trkpt>
      <trkpt lat="48.8768" lon="-0.41954">
        <ele>76.08</ele>
        <time>2013-05-25T12:23:32Z</time>
      </trkpt>
      <trkpt lat="48.87685" lon="-0.4197">
        <ele>76.56</ele>
        <time>2013-05-25T12:23:41Z</time>
      </trkpt>
      <trkpt lat="48.87688" lon="-0.41981">
        <ele>76.08</ele>
        <time>2013-05-25T12:23:48Z</time>
      </trkpt>
      <trkpt lat="48.87694" lon="-0.42">
        <ele>75.12</ele>
        <time>2013-05-25T12:24:01Z</time>
      </trkpt>
      <trkpt lat="48.87699" lon="-0.42017">
        <ele>75.6</ele>
        <time>2013-05-25T12:24:10Z</time>
      </trkpt>
      <trkpt lat="48.87715" lon="-0.42045">
        <ele>76.08</ele>
        <time>2013-05-25T12:24:28Z</time>
      </trkpt>
      <trkpt lat="48.87733" lon="-0.42068">
        <ele>76.08</ele>
        <time>2013-05-25T12:24:46Z</time>
      </trkpt>
      <trkpt lat="48.87747" lon="-0.4209">
        <ele>76.08</ele>
        <time>2013-05-25T12:25:03Z</time>
      </trkpt>
      <trkpt lat="48.87762" lon="-0.4211">
        <ele>75.12</ele>
        <time>2013-05-25T12:25:18Z</time>
      </trkpt>
      <trkpt lat="48.87767" lon="-0.42119">
        <ele>75.12</ele>
        <time>2013-05-25T12:25:27Z</time>
      </trkpt>
      <trkpt lat="48.87769" lon="-0.42122">
        <ele>75.12</ele>
        <time>2013-05-25T12:25:29Z</time>
      </trkpt>
      <trkpt lat="48.87777" lon="-0.42132">
        <ele>74.64</ele>
        <time>2013-05-25T12:25:37Z</time>
      </trkpt>
      <trkpt lat="48.87784" lon="-0.42143">
        <ele>74.16</ele>
        <time>2013-05-25T12:25:44Z</time>
      </trkpt>
      <trkpt lat="48.87799" lon="-0.42169">
        <ele>73.68</ele>
        <time>2013-05-25T12:26:00Z</time>
      </trkpt>
      <trkpt lat="48.8781" lon="-0.42193">
        <ele>73.2</ele>
        <time>2013-05-25T12:26:15Z</time>
      </trkpt>
      <trkpt lat="48.87812" lon="-0.42199">
        <ele>73.68</ele>
        <time>2013-05-25T12:26:19Z</time>
      </trkpt>
      <trkpt lat="48.87816" lon="-0.42212">
        <ele>73.2</ele>
        <time>2013-05-25T12:26:28Z</time>
      </trkpt>
      <trkpt lat="48.87822" lon="-0.42229">
        <ele>73.2</ele>
        <time>2013-05-25T12:26:37Z</time>
      </trkpt>
      <trkpt lat="48.87824" lon="-0.42235">
        <ele>73.2</ele>
        <time>2013-05-25T12:26:40Z</time>
      </trkpt>
      <trkpt lat="48.87832" lon="-0.42252">
        <ele>73.2</ele>
        <time>2013-05-25T12:26:51Z</time>
      </trkpt>
      <trkpt lat="48.87842" lon="-0.42281">
        <ele>74.16</ele>
        <time>2013-05-25T12:27:08Z</time>
      </trkpt>
      <trkpt lat="48.87856" lon="-0.42311">
        <ele>76.08</ele>
        <time>2013-05-25T12:27:28Z</time>
      </trkpt>
      <trkpt lat="48.87863" lon="-0.42333">
        <ele>77.52</ele>
        <time>2013-05-25T12:27:42Z</time>
      </trkpt>
      <trkpt lat="48.87871" lon="-0.42351">
        <ele>78.48</ele>
        <time>2013-05-25T12:27:57Z</time>
      </trkpt>
      <trkpt lat="48.87873" lon="-0.42354">
        <ele>78</ele>
        <time>2013-05-25T12:28:09Z</time>
      </trkpt>
      <trkpt lat="48.87874" lon="-0.42358">
        <ele>78</ele>
        <time>2013-05-25T12:28:12Z</time>
      </trkpt>
      <trkpt lat="48.87877" lon="-0.42368">
        <ele>79.45</ele>
        <time>2013-05-25T12:28:18Z</time>
      </trkpt>
      <trkpt lat="48.87878" lon="-0.4237">
        <ele>78.97</ele>
        <time>2013-05-25T12:28:20Z</time>
      </trkpt>
      <trkpt lat="48.87882" lon="-0.42382">
        <ele>79.93</ele>
        <time>2013-05-25T12:28:28Z</time>
      </trkpt>
      <trkpt lat="48.87888" lon="-0.42396">
        <ele>80.89</ele>
        <time>2013-05-25T12:28:38Z</time>
      </trkpt>
      <trkpt lat="48.87895" lon="-0.42414">
        <ele>82.81</ele>
        <time>2013-05-25T12:28:49Z</time>
      </trkpt>
      <trkpt lat="48.87896" lon="-0.42419">
        <ele>82.33</ele>
        <time>2013-05-25T12:28:52Z</time>
      </trkpt>
      <trkpt lat="48.87902" lon="-0.42432">
        <ele>83.29</ele>
        <time>2013-05-25T12:29:03Z</time>
      </trkpt>
      <trkpt lat="48.87905" lon="-0.42443">
        <ele>84.25</ele>
        <time>2013-05-25T12:29:09Z</time>
      </trkpt>
      <trkpt lat="48.8791" lon="-0.42451">
        <ele>85.69</ele>
        <time>2013-05-25T12:29:14Z</time>
      </trkpt>
      <trkpt lat="48.87913" lon="-0.42462">
        <ele>85.69</ele>
        <time>2013-05-25T12:29:22Z</time>
      </trkpt>
      <trkpt lat="48.87917" lon="-0.42472">
        <ele>86.18</ele>
        <time>2013-05-25T12:29:29Z</time>
      </trkpt>
      <trkpt lat="48.87925" lon="-0.4249">
        <ele>87.62</ele>
        <time>2013-05-25T12:29:41Z</time>
      </trkpt>
      <trkpt lat="48.87934" lon="-0.42514">
        <ele>88.58</ele>
        <time>2013-05-25T12:29:57Z</time>
      </trkpt>
      <trkpt lat="48.87936" lon="-0.42518">
        <ele>89.54</ele>
        <time>2013-05-25T12:30:00Z</time>
      </trkpt>
      <trkpt lat="48.8794" lon="-0.42526">
        <ele>89.54</ele>
        <time>2013-05-25T12:30:06Z</time>
      </trkpt>
      <trkpt lat="48.87952" lon="-0.42543">
        <ele>90.5</ele>
        <time>2013-05-25T12:30:19Z</time>
      </trkpt>
      <trkpt lat="48.87952" lon="-0.42545">
        <ele>90.98</ele>
        <time>2013-05-25T12:30:20Z</time>
      </trkpt>
      <trkpt lat="48.87962" lon="-0.42562">
        <ele>91.46</ele>
        <time>2013-05-25T12:30:34Z</time>
      </trkpt>
      <trkpt lat="48.87966" lon="-0.42568">
        <ele>91.46</ele>
        <time>2013-05-25T12:30:46Z</time>
      </trkpt>
      <trkpt lat="48.8797" lon="-0.42572">
        <ele>91.94</ele>
        <time>2013-05-25T12:30:51Z</time>
      </trkpt>
      <trkpt lat="48.87984" lon="-0.42592">
        <ele>93.87</ele>
        <time>2013-05-25T12:31:07Z</time>
      </trkpt>
      <trkpt lat="48.87986" lon="-0.42594">
        <ele>93.87</ele>
        <time>2013-05-25T12:31:10Z</time>
      </trkpt>
      <trkpt lat="48.87987" lon="-0.42598">
        <ele>94.35</ele>
        <time>2013-05-25T12:31:13Z</time>
      </trkpt>
      <trkpt lat="48.87996" lon="-0.4261">
        <ele>94.83</ele>
        <time>2013-05-25T12:31:25Z</time>
      </trkpt>
      <trkpt lat="48.87999" lon="-0.42616">
        <ele>94.83</ele>
        <time>2013-05-25T12:31:42Z</time>
      </trkpt>
      <trkpt lat="48.87999" lon="-0.42616">
        <ele>94.83</ele>
        <time>2013-05-25T12:31:57Z</time>
      </trkpt>
      <trkpt lat="48.88002" lon="-0.42619">
        <ele>95.31</ele>
        <time>2013-05-25T12:32:00Z</time>
      </trkpt>
      <trkpt lat="48.88012" lon="-0.42631">
        <ele>96.27</ele>
        <time>2013-05-25T12:32:13Z</time>
      </trkpt>
      <trkpt lat="48.88017" lon="-0.42638">
        <ele>97.23</ele>
        <time>2013-05-25T12:32:21Z</time>
      </trkpt>
      <trkpt lat="48.88022" lon="-0.42645">
        <ele>98.19</ele>
        <time>2013-05-25T12:32:28Z</time>
      </trkpt>
      <trkpt lat="48.88034" lon="-0.42659">
        <ele>100.11</ele>
        <time>2013-05-25T12:32:43Z</time>
      </trkpt>
      <trkpt lat="48.88037" lon="-0.42663">
        <ele>100.11</ele>
        <time>2013-05-25T12:33:04Z</time>
      </trkpt>
      <trkpt lat="48.88037" lon="-0.42664">
        <ele>99.63</ele>
        <time>2013-05-25T12:33:22Z</time>
      </trkpt>
      <trkpt lat="48.88038" lon="-0.42665">
        <ele>100.11</ele>
        <time>2013-05-25T12:33:40Z</time>
      </trkpt>
      <trkpt lat="48.88049" lon="-0.42675">
        <ele>102.52</ele>
        <time>2013-05-25T12:33:56Z</time>
      </trkpt>
      <trkpt lat="48.8806" lon="-0.42685">
        <ele>104.44</ele>
        <time>2013-05-25T12:34:10Z</time>
      </trkpt>
      <trkpt lat="48.88075" lon="-0.4269">
        <ele>105.88</ele>
        <time>2013-05-25T12:34:23Z</time>
      </trkpt>
      <trkpt lat="48.88088" lon="-0.42699">
        <ele>106.36</ele>
        <time>2013-05-25T12:34:36Z</time>
      </trkpt>
      <trkpt lat="48.88102" lon="-0.42702">
        <ele>107.81</ele>
        <time>2013-05-25T12:34:49Z</time>
      </trkpt>
      <trkpt lat="48.88112" lon="-0.42704">
        <ele>107.81</ele>
        <time>2013-05-25T12:35:01Z</time>
      </trkpt>
      <trkpt lat="48.88115" lon="-0.42703">
        <ele>108.29</ele>
        <time>2013-05-25T12:35:04Z</time>
      </trkpt>
      <trkpt lat="48.88124" lon="-0.42701">
        <ele>109.25</ele>
        <time>2013-05-25T12:35:13Z</time>
      </trkpt>
      <trkpt lat="48.88133" lon="-0.42703">
        <ele>110.21</ele>
        <time>2013-05-25T12:35:21Z</time>
      </trkpt>
      <trkpt lat="48.88136" lon="-0.42706">
        <ele>109.73</ele>
        <time>2013-05-25T12:35:24Z</time>
      </trkpt>
      <trkpt lat="48.88144" lon="-0.42709">
        <ele>110.21</ele>
        <time>2013-05-25T12:35:31Z</time>
      </trkpt>
      <trkpt lat="48.88147" lon="-0.42712">
        <ele>110.69</ele>
        <time>2013-05-25T12:35:34Z</time>
      </trkpt>
      <trkpt lat="48.88164" lon="-0.42721">
        <ele>111.17</ele>
        <time>2013-05-25T12:35:50Z</time>
      </trkpt>
      <trkpt lat="48.88177" lon="-0.42717">
        <ele>112.61</ele>
        <time>2013-05-25T12:36:03Z</time>
      </trkpt>
      <trkpt lat="48.88193" lon="-0.42708">
        <ele>114.53</ele>
        <time>2013-05-25T12:36:16Z</time>
      </trkpt>
      <trkpt lat="48.88195" lon="-0.42704">
        <ele>115.01</ele>
        <time>2013-05-25T12:36:19Z</time>
      </trkpt>
      <trkpt lat="48.88198" lon="-0.42702">
        <ele>115.5</ele>
        <time>2013-05-25T12:36:22Z</time>
      </trkpt>
      <trkpt lat="48.88202" lon="-0.42699">
        <ele>116.46</ele>
        <time>2013-05-25T12:36:27Z</time>
      </trkpt>
      <trkpt lat="48.88213" lon="-0.42686">
        <ele>118.38</ele>
        <time>2013-05-25T12:36:43Z</time>
      </trkpt>
      <trkpt lat="48.88221" lon="-0.42681">
        <ele>118.86</ele>
        <time>2013-05-25T12:36:53Z</time>
      </trkpt>
      <trkpt lat="48.88235" lon="-0.42679">
        <ele>120.3</ele>
        <time>2013-05-25T12:37:06Z</time>
      </trkpt>
      <trkpt lat="48.88236" lon="-0.42679">
        <ele>120.78</ele>
        <time>2013-05-25T12:37:08Z</time>
      </trkpt>
      <trkpt lat="48.88241" lon="-0.42678">
        <ele>121.74</ele>
        <time>2013-05-25T12:37:13Z</time>
      </trkpt>
      <trkpt lat="48.88255" lon="-0.42676">
        <ele>122.22</ele>
        <time>2013-05-25T12:37:26Z</time>
      </trkpt>
      <trkpt lat="48.88261" lon="-0.42675">
        <ele>122.71</ele>
        <time>2013-05-25T12:37:33Z</time>
      </trkpt>
      <trkpt lat="48.8827" lon="-0.42673">
        <ele>123.67</ele>
        <time>2013-05-25T12:37:44Z</time>
      </trkpt>
      <trkpt lat="48.88283" lon="-0.42668">
        <ele>124.63</ele>
        <time>2013-05-25T12:37:54Z</time>
      </trkpt>
      <trkpt lat="48.88302" lon="-0.42666">
        <ele>124.63</ele>
        <time>2013-05-25T12:38:09Z</time>
      </trkpt>
      <trkpt lat="48.88308" lon="-0.42666">
        <ele>124.15</ele>
        <time>2013-05-25T12:38:14Z</time>
      </trkpt>
      <trkpt lat="48.8832" lon="-0.42668">
        <ele>123.19</ele>
        <time>2013-05-25T12:38:23Z</time>
      </trkpt>
      <trkpt lat="48.88327" lon="-0.42671">
        <ele>123.67</ele>
        <time>2013-05-25T12:38:29Z</time>
      </trkpt>
      <trkpt lat="48.88331" lon="-0.42673">
        <ele>122.71</ele>
        <time>2013-05-25T12:38:44Z</time>
      </trkpt>
      <trkpt lat="48.88334" lon="-0.42677">
        <ele>123.19</ele>
        <time>2013-05-25T12:38:57Z</time>
      </trkpt>
      <trkpt lat="48.88335" lon="-0.42677">
        <ele>123.19</ele>
        <time>2013-05-25T12:39:06Z</time>
      </trkpt>
      <trkpt lat="48.8834" lon="-0.42673">
        <ele>122.22</ele>
        <time>2013-05-25T12:39:15Z</time>
      </trkpt>
      <trkpt lat="48.88349" lon="-0.42665">
        <ele>120.78</ele>
        <time>2013-05-25T12:39:26Z</time>
      </trkpt>
      <trkpt lat="48.88359" lon="-0.4266">
        <ele>117.9</ele>
        <time>2013-05-25T12:39:38Z</time>
      </trkpt>
      <trkpt lat="48.88367" lon="-0.42647">
        <ele>115.5</ele>
        <time>2013-05-25T12:39:50Z</time>
      </trkpt>
      <trkpt lat="48.88376" lon="-0.42635">
        <ele>115.01</ele>
        <time>2013-05-25T12:40:02Z</time>
      </trkpt>
      <trkpt lat="48.88387" lon="-0.42622">
        <ele>113.57</ele>
        <time>2013-05-25T12:40:14Z</time>
      </trkpt>
      <trkpt lat="48.88396" lon="-0.42609">
        <ele>112.61</ele>
        <time>2013-05-25T12:40:27Z</time>
      </trkpt>
      <trkpt lat="48.88408" lon="-0.42594">
        <ele>111.17</ele>
        <time>2013-05-25T12:40:40Z</time>
      </trkpt>
      <trkpt lat="48.8842" lon="-0.42579">
        <ele>109.73</ele>
        <time>2013-05-25T12:40:53Z</time>
      </trkpt>
      <trkpt lat="48.8843" lon="-0.42568">
        <ele>108.77</ele>
        <time>2013-05-25T12:41:03Z</time>
      </trkpt>
      <trkpt lat="48.88433" lon="-0.42563">
        <ele>108.29</ele>
        <time>2013-05-25T12:41:07Z</time>
      </trkpt>
      <trkpt lat="48.88436" lon="-0.42559">
        <ele>108.29</ele>
        <time>2013-05-25T12:41:10Z</time>
      </trkpt>
      <trkpt lat="48.8844" lon="-0.42552">
        <ele>107.81</ele>
        <time>2013-05-25T12:41:15Z</time>
      </trkpt>
      <trkpt lat="48.88452" lon="-0.42539">
        <ele>105.88</ele>
        <time>2013-05-25T12:41:28Z</time>
      </trkpt>
      <trkpt lat="48.88457" lon="-0.42534">
        <ele>104.92</ele>
        <time>2013-05-25T12:41:34Z</time>
      </trkpt>
      <trkpt lat="48.88459" lon="-0.42529">
        <ele>104.92</ele>
        <time>2013-05-25T12:41:37Z</time>
      </trkpt>
      <trkpt lat="48.88467" lon="-0.42516">
        <ele>103.96</ele>
        <time>2013-05-25T12:41:49Z</time>
      </trkpt>
      <trkpt lat="48.88476" lon="-0.42496">
        <ele>102.52</ele>
        <time>2013-05-25T12:42:03Z</time>
      </trkpt>
      <trkpt lat="48.8848" lon="-0.4249">
        <ele>102.52</ele>
        <time>2013-05-25T12:42:08Z</time>
      </trkpt>
      <trkpt lat="48.88483" lon="-0.42478">
        <ele>101.56</ele>
        <time>2013-05-25T12:42:15Z</time>
      </trkpt>
      <trkpt lat="48.88491" lon="-0.42461">
        <ele>100.6</ele>
        <time>2013-05-25T12:42:27Z</time>
      </trkpt>
      <trkpt lat="48.88498" lon="-0.42444">
        <ele>99.63</ele>
        <time>2013-05-25T12:42:39Z</time>
      </trkpt>
      <trkpt lat="48.88499" lon="-0.42436">
        <ele>99.63</ele>
        <time>2013-05-25T12:42:44Z</time>
      </trkpt>
      <trkpt lat="48.88502" lon="-0.42432">
        <ele>100.11</ele>
        <time>2013-05-25T12:42:47Z</time>
      </trkpt>
      <trkpt lat="48.88504" lon="-0.42427">
        <ele>99.63</ele>
        <time>2013-05-25T12:42:51Z</time>
      </trkpt>
      <trkpt lat="48.88512" lon="-0.42408">
        <ele>98.67</ele>
        <time>2013-05-25T12:43:02Z</time>
      </trkpt>
      <trkpt lat="48.88516" lon="-0.42399">
        <ele>98.19</ele>
        <time>2013-05-25T12:43:07Z</time>
      </trkpt>
      <trkpt lat="48.88523" lon="-0.42384">
        <ele>96.75</ele>
        <time>2013-05-25T12:43:18Z</time>
      </trkpt>
      <trkpt lat="48.88525" lon="-0.42378">
        <ele>97.71</ele>
        <time>2013-05-25T12:43:22Z</time>
      </trkpt>
      <trkpt lat="48.88528" lon="-0.42371">
        <ele>97.23</ele>
        <time>2013-05-25T12:43:26Z</time>
      </trkpt>
      <trkpt lat="48.88535" lon="-0.42355">
        <ele>102.52</ele>
        <time>2013-05-25T12:43:36Z</time>
      </trkpt>
      <trkpt lat="48.88536" lon="-0.42353">
        <ele>96.27</ele>
        <time>2013-05-25T12:43:37Z</time>
      </trkpt>
      <trkpt lat="48.8854" lon="-0.42341">
        <ele>96.75</ele>
        <time>2013-05-25T12:43:46Z</time>
      </trkpt>
      <trkpt lat="48.88542" lon="-0.42337">
        <ele>96.27</ele>
        <time>2013-05-25T12:43:49Z</time>
      </trkpt>
      <trkpt lat="48.88545" lon="-0.42329">
        <ele>95.31</ele>
        <time>2013-05-25T12:43:57Z</time>
      </trkpt>
      <trkpt lat="48.88549" lon="-0.42324">
        <ele>96.75</ele>
        <time>2013-05-25T12:44:01Z</time>
      </trkpt>
      <trkpt lat="48.88559" lon="-0.423">
        <ele>95.79</ele>
        <time>2013-05-25T12:44:16Z</time>
      </trkpt>
      <trkpt lat="48.88568" lon="-0.42283">
        <ele>95.31</ele>
        <time>2013-05-25T12:44:29Z</time>
      </trkpt>
      <trkpt lat="48.88569" lon="-0.4228">
        <ele>95.79</ele>
        <time>2013-05-25T12:44:31Z</time>
      </trkpt>
      <trkpt lat="48.88571" lon="-0.42278">
        <ele>95.31</ele>
        <time>2013-05-25T12:44:33Z</time>
      </trkpt>
      <trkpt lat="48.88581" lon="-0.42257">
        <ele>95.31</ele>
        <time>2013-05-25T12:44:48Z</time>
      </trkpt>
      <trkpt lat="48.88592" lon="-0.42236">
        <ele>94.83</ele>
        <time>2013-05-25T12:45:02Z</time>
      </trkpt>
      <trkpt lat="48.88603" lon="-0.42216">
        <ele>94.83</ele>
        <time>2013-05-25T12:45:15Z</time>
      </trkpt>
      <trkpt lat="48.88616" lon="-0.42191">
        <ele>94.83</ele>
        <time>2013-05-25T12:45:31Z</time>
      </trkpt>
      <trkpt lat="48.88627" lon="-0.42165">
        <ele>94.83</ele>
        <time>2013-05-25T12:45:46Z</time>
      </trkpt>
      <trkpt lat="48.88636" lon="-0.42137">
        <ele>94.83</ele>
        <time>2013-05-25T12:46:02Z</time>
      </trkpt>
      <trkpt lat="48.88645" lon="-0.4211">
        <ele>95.79</ele>
        <time>2013-05-25T12:46:17Z</time>
      </trkpt>
      <trkpt lat="48.88651" lon="-0.42085">
        <ele>95.31</ele>
        <time>2013-05-25T12:46:31Z</time>
      </trkpt>
      <trkpt lat="48.88657" lon="-0.42061">
        <ele>95.31</ele>
        <time>2013-05-25T12:46:45Z</time>
      </trkpt>
      <trkpt lat="48.88659" lon="-0.4205">
        <ele>94.83</ele>
        <time>2013-05-25T12:46:50Z</time>
      </trkpt>
      <trkpt lat="48.88665" lon="-0.42021">
        <ele>93.87</ele>
        <time>2013-05-25T12:47:06Z</time>
      </trkpt>
      <trkpt lat="48.88671" lon="-0.42005">
        <ele>92.9</ele>
        <time>2013-05-25T12:47:16Z</time>
      </trkpt>
      <trkpt lat="48.88674" lon="-0.41996">
        <ele>91.94</ele>
        <time>2013-05-25T12:47:22Z</time>
      </trkpt>
      <trkpt lat="48.88678" lon="-0.41986">
        <ele>90.5</ele>
        <time>2013-05-25T12:47:28Z</time>
      </trkpt>
      <trkpt lat="48.88691" lon="-0.41962">
        <ele>90.02</ele>
        <time>2013-05-25T12:47:45Z</time>
      </trkpt>
      <trkpt lat="48.88701" lon="-0.41943">
        <ele>88.1</ele>
        <time>2013-05-25T12:47:58Z</time>
      </trkpt>
      <trkpt lat="48.88713" lon="-0.41922">
        <ele>86.66</ele>
        <time>2013-05-25T12:48:13Z</time>
      </trkpt>
      <trkpt lat="48.88725" lon="-0.41897">
        <ele>86.18</ele>
        <time>2013-05-25T12:48:29Z</time>
      </trkpt>
      <trkpt lat="48.88731" lon="-0.41888">
        <ele>85.21</ele>
        <time>2013-05-25T12:48:35Z</time>
      </trkpt>
      <trkpt lat="48.88743" lon="-0.41865">
        <ele>83.77</ele>
        <time>2013-05-25T12:48:51Z</time>
      </trkpt>
      <trkpt lat="48.88756" lon="-0.41844">
        <ele>82.81</ele>
        <time>2013-05-25T12:49:06Z</time>
      </trkpt>
      <trkpt lat="48.88768" lon="-0.41829">
        <ele>81.85</ele>
        <time>2013-05-25T12:49:19Z</time>
      </trkpt>
      <trkpt lat="48.88768" lon="-0.41827">
        <ele>81.85</ele>
        <time>2013-05-25T12:49:28Z</time>
      </trkpt>
      <trkpt lat="48.88774" lon="-0.4182">
        <ele>81.37</ele>
        <time>2013-05-25T12:49:43Z</time>
      </trkpt>
      <trkpt lat="48.88784" lon="-0.41803">
        <ele>80.41</ele>
        <time>2013-05-25T12:49:57Z</time>
      </trkpt>
      <trkpt lat="48.8879" lon="-0.41795">
        <ele>79.93</ele>
        <time>2013-05-25T12:50:04Z</time>
      </trkpt>
      <trkpt lat="48.88807" lon="-0.41776">
        <ele>78.48</ele>
        <time>2013-05-25T12:50:20Z</time>
      </trkpt>
      <trkpt lat="48.8882" lon="-0.41767">
        <ele>78.48</ele>
        <time>2013-05-25T12:50:31Z</time>
      </trkpt>
      <trkpt lat="48.88836" lon="-0.41756">
        <ele>78.48</ele>
        <time>2013-05-25T12:50:43Z</time>
      </trkpt>
      <trkpt lat="48.88856" lon="-0.41751">
        <ele>78.48</ele>
        <time>2013-05-25T12:50:59Z</time>
      </trkpt>
      <trkpt lat="48.88875" lon="-0.41758">
        <ele>78.48</ele>
        <time>2013-05-25T12:51:14Z</time>
      </trkpt>
      <trkpt lat="48.88889" lon="-0.41773">
        <ele>78.97</ele>
        <time>2013-05-25T12:51:27Z</time>
      </trkpt>
      <trkpt lat="48.88893" lon="-0.41777">
        <ele>78.97</ele>
        <time>2013-05-25T12:51:31Z</time>
      </trkpt>
      <trkpt lat="48.88904" lon="-0.41803">
        <ele>79.45</ele>
        <time>2013-05-25T12:51:47Z</time>
      </trkpt>
      <trkpt lat="48.88909" lon="-0.41819">
        <ele>79.45</ele>
        <time>2013-05-25T12:51:56Z</time>
      </trkpt>
      <trkpt lat="48.88911" lon="-0.41832">
        <ele>79.45</ele>
        <time>2013-05-25T12:52:03Z</time>
      </trkpt>
      <trkpt lat="48.88915" lon="-0.41868">
        <ele>78.97</ele>
        <time>2013-05-25T12:52:22Z</time>
      </trkpt>
      <trkpt lat="48.88915" lon="-0.41877">
        <ele>78.97</ele>
        <time>2013-05-25T12:52:27Z</time>
      </trkpt>
      <trkpt lat="48.88916" lon="-0.41899">
        <ele>78</ele>
        <time>2013-05-25T12:52:39Z</time>
      </trkpt>
      <trkpt lat="48.88917" lon="-0.4191">
        <ele>77.04</ele>
        <time>2013-05-25T12:52:45Z</time>
      </trkpt>
      <trkpt lat="48.88914" lon="-0.41944">
        <ele>75.12</ele>
        <time>2013-05-25T12:53:03Z</time>
      </trkpt>
      <trkpt lat="48.8891" lon="-0.41969">
        <ele>73.68</ele>
        <time>2013-05-25T12:53:16Z</time>
      </trkpt>
      <trkpt lat="48.88903" lon="-0.41996">
        <ele>72.24</ele>
        <time>2013-05-25T12:53:31Z</time>
      </trkpt>
      <trkpt lat="48.88891" lon="-0.42025">
        <ele>71.27</ele>
        <time>2013-05-25T12:53:48Z</time>
      </trkpt>
      <trkpt lat="48.8888" lon="-0.42051">
        <ele>70.31</ele>
        <time>2013-05-25T12:54:04Z</time>
      </trkpt>
      <trkpt lat="48.88872" lon="-0.4208">
        <ele>69.35</ele>
        <time>2013-05-25T12:54:20Z</time>
      </trkpt>
      <trkpt lat="48.88864" lon="-0.42105">
        <ele>67.43</ele>
        <time>2013-05-25T12:54:35Z</time>
      </trkpt>
      <trkpt lat="48.88853" lon="-0.42131">
        <ele>66.95</ele>
        <time>2013-05-25T12:54:51Z</time>
      </trkpt>
      <trkpt lat="48.88842" lon="-0.42153">
        <ele>66.95</ele>
        <time>2013-05-25T12:55:06Z</time>
      </trkpt>
      <trkpt lat="48.88834" lon="-0.42173">
        <ele>65.51</ele>
        <time>2013-05-25T12:55:18Z</time>
      </trkpt>
      <trkpt lat="48.8883" lon="-0.42198">
        <ele>64.55</ele>
        <time>2013-05-25T12:55:32Z</time>
      </trkpt>
      <trkpt lat="48.88826" lon="-0.42217">
        <ele>63.1</ele>
        <time>2013-05-25T12:55:44Z</time>
      </trkpt>
      <trkpt lat="48.88827" lon="-0.42227">
        <ele>62.14</ele>
        <time>2013-05-25T12:55:49Z</time>
      </trkpt>
      <trkpt lat="48.88824" lon="-0.42236">
        <ele>61.66</ele>
        <time>2013-05-25T12:55:54Z</time>
      </trkpt>
      <trkpt lat="48.88827" lon="-0.42245">
        <ele>61.18</ele>
        <time>2013-05-25T12:55:59Z</time>
      </trkpt>
      <trkpt lat="48.88821" lon="-0.42263">
        <ele>61.18</ele>
        <time>2013-05-25T12:56:09Z</time>
      </trkpt>
      <trkpt lat="48.88819" lon="-0.42273">
        <ele>60.22</ele>
        <time>2013-05-25T12:56:16Z</time>
      </trkpt>
      <trkpt lat="48.88815" lon="-0.4228">
        <ele>59.26</ele>
        <time>2013-05-25T12:56:20Z</time>
      </trkpt>
      <trkpt lat="48.88816" lon="-0.42297">
        <ele>57.82</ele>
        <time>2013-05-25T12:56:28Z</time>
      </trkpt>
      <trkpt lat="48.88814" lon="-0.42318">
        <ele>55.89</ele>
        <time>2013-05-25T12:56:40Z</time>
      </trkpt>
      <trkpt lat="48.88815" lon="-0.42323">
        <ele>55.41</ele>
        <time>2013-05-25T12:56:43Z</time>
      </trkpt>
      <trkpt lat="48.88815" lon="-0.42326">
        <ele>55.41</ele>
        <time>2013-05-25T12:56:45Z</time>
      </trkpt>
      <trkpt lat="48.88809" lon="-0.4234">
        <ele>53.01</ele>
        <time>2013-05-25T12:56:57Z</time>
      </trkpt>
      <trkpt lat="48.88795" lon="-0.42358">
        <ele>52.05</ele>
        <time>2013-05-25T12:57:06Z</time>
      </trkpt>
      <trkpt lat="48.88784" lon="-0.42374">
        <ele>51.09</ele>
        <time>2013-05-25T12:57:18Z</time>
      </trkpt>
      <trkpt lat="48.88775" lon="-0.424">
        <ele>50.13</ele>
        <time>2013-05-25T12:57:35Z</time>
      </trkpt>
      <trkpt lat="48.88768" lon="-0.42412">
        <ele>50.13</ele>
        <time>2013-05-25T12:57:44Z</time>
      </trkpt>
      <trkpt lat="48.88761" lon="-0.42426">
        <ele>49.65</ele>
        <time>2013-05-25T12:57:54Z</time>
      </trkpt>
      <trkpt lat="48.88756" lon="-0.42432">
        <ele>49.65</ele>
        <time>2013-05-25T12:57:58Z</time>
      </trkpt>
      <trkpt lat="48.88752" lon="-0.42436">
        <ele>49.65</ele>
        <time>2013-05-25T12:58:01Z</time>
      </trkpt>
      <trkpt lat="48.88745" lon="-0.42439">
        <ele>49.65</ele>
        <time>2013-05-25T12:58:05Z</time>
      </trkpt>
      <trkpt lat="48.88726" lon="-0.4245">
        <ele>49.16</ele>
        <time>2013-05-25T12:58:21Z</time>
      </trkpt>
      <trkpt lat="48.88723" lon="-0.4245">
        <ele>49.65</ele>
        <time>2013-05-25T12:58:23Z</time>
      </trkpt>
      <trkpt lat="48.88712" lon="-0.4246">
        <ele>49.65</ele>
        <time>2013-05-25T12:58:33Z</time>
      </trkpt>
      <trkpt lat="48.88692" lon="-0.42473">
        <ele>50.61</ele>
        <time>2013-05-25T12:58:49Z</time>
      </trkpt>
      <trkpt lat="48.88682" lon="-0.4248">
        <ele>50.61</ele>
        <time>2013-05-25T12:58:59Z</time>
      </trkpt>
      <trkpt lat="48.88669" lon="-0.42496">
        <ele>49.16</ele>
        <time>2013-05-25T12:59:12Z</time>
      </trkpt>
      <trkpt lat="48.88665" lon="-0.42498">
        <ele>49.16</ele>
        <time>2013-05-25T12:59:15Z</time>
      </trkpt>
      <trkpt lat="48.88656" lon="-0.42503">
        <ele>49.16</ele>
        <time>2013-05-25T12:59:24Z</time>
      </trkpt>
      <trkpt lat="48.88644" lon="-0.42513">
        <ele>49.16</ele>
        <time>2013-05-25T12:59:38Z</time>
      </trkpt>
      <trkpt lat="48.88632" lon="-0.42527">
        <ele>49.16</ele>
        <time>2013-05-25T12:59:50Z</time>
      </trkpt>
      <trkpt lat="48.88621" lon="-0.42543">
        <ele>49.16</ele>
        <time>2013-05-25T13:00:02Z</time>
      </trkpt>
      <trkpt lat="48.8861" lon="-0.42565">
        <ele>49.16</ele>
        <time>2013-05-25T13:00:18Z</time>
      </trkpt>
      <trkpt lat="48.8861" lon="-0.42566">
        <ele>49.16</ele>
        <time>2013-05-25T13:00:19Z</time>
      </trkpt>
      <trkpt lat="48.88593" lon="-0.42583">
        <ele>49.16</ele>
        <time>2013-05-25T13:00:36Z</time>
      </trkpt>
      <trkpt lat="48.88583" lon="-0.42605">
        <ele>48.68</ele>
        <time>2013-05-25T13:00:51Z</time>
      </trkpt>
      <trkpt lat="48.88572" lon="-0.4262">
        <ele>48.68</ele>
        <time>2013-05-25T13:01:05Z</time>
      </trkpt>
      <trkpt lat="48.88565" lon="-0.42628">
        <ele>48.68</ele>
        <time>2013-05-25T13:01:13Z</time>
      </trkpt>
      <trkpt lat="48.88561" lon="-0.42633">
        <ele>48.68</ele>
        <time>2013-05-25T13:01:16Z</time>
      </trkpt>
      <trkpt lat="48.88555" lon="-0.4264">
        <ele>48.68</ele>
        <time>2013-05-25T13:01:21Z</time>
      </trkpt>
      <trkpt lat="48.88542" lon="-0.42655">
        <ele>48.68</ele>
        <time>2013-05-25T13:01:33Z</time>
      </trkpt>
      <trkpt lat="48.88533" lon="-0.42667">
        <ele>48.2</ele>
        <time>2013-05-25T13:01:45Z</time>
      </trkpt>
      <trkpt lat="48.88532" lon="-0.4267">
        <ele>48.68</ele>
        <time>2013-05-25T13:01:47Z</time>
      </trkpt>
      <trkpt lat="48.88515" lon="-0.42689">
        <ele>49.16</ele>
        <time>2013-05-25T13:02:04Z</time>
      </trkpt>
      <trkpt lat="48.88503" lon="-0.42705">
        <ele>49.65</ele>
        <time>2013-05-25T13:02:17Z</time>
      </trkpt>
      <trkpt lat="48.88496" lon="-0.42725">
        <ele>49.65</ele>
        <time>2013-05-25T13:02:30Z</time>
      </trkpt>
      <trkpt lat="48.88494" lon="-0.42737">
        <ele>49.65</ele>
        <time>2013-05-25T13:02:37Z</time>
      </trkpt>
      <trkpt lat="48.88494" lon="-0.42763">
        <ele>49.65</ele>
        <time>2013-05-25T13:02:51Z</time>
      </trkpt>
      <trkpt lat="48.88488" lon="-0.42785">
        <ele>49.16</ele>
        <time>2013-05-25T13:03:06Z</time>
      </trkpt>
      <trkpt lat="48.88484" lon="-0.42791">
        <ele>49.16</ele>
        <time>2013-05-25T13:03:11Z</time>
      </trkpt>
      <trkpt lat="48.88483" lon="-0.42796">
        <ele>49.16</ele>
        <time>2013-05-25T13:03:14Z</time>
      </trkpt>
      <trkpt lat="48.88482" lon="-0.42806">
        <ele>49.16</ele>
        <time>2013-05-25T13:03:19Z</time>
      </trkpt>
      <trkpt lat="48.88483" lon="-0.4281">
        <ele>49.16</ele>
        <time>2013-05-25T13:03:21Z</time>
      </trkpt>
      <trkpt lat="48.88476" lon="-0.42834">
        <ele>48.68</ele>
        <time>2013-05-25T13:03:34Z</time>
      </trkpt>
      <trkpt lat="48.8847" lon="-0.42858">
        <ele>48.2</ele>
        <time>2013-05-25T13:03:48Z</time>
      </trkpt>
      <trkpt lat="48.88468" lon="-0.42883">
        <ele>48.68</ele>
        <time>2013-05-25T13:04:04Z</time>
      </trkpt>
      <trkpt lat="48.88468" lon="-0.42885">
        <ele>48.68</ele>
        <time>2013-05-25T13:04:05Z</time>
      </trkpt>
      <trkpt lat="48.88468" lon="-0.42899">
        <ele>48.2</ele>
        <time>2013-05-25T13:04:12Z</time>
      </trkpt>
      <trkpt lat="48.88467" lon="-0.42907">
        <ele>48.2</ele>
        <time>2013-05-25T13:04:17Z</time>
      </trkpt>
      <trkpt lat="48.88465" lon="-0.42913">
        <ele>48.2</ele>
        <time>2013-05-25T13:04:21Z</time>
      </trkpt>
      <trkpt lat="48.88466" lon="-0.4292">
        <ele>49.16</ele>
        <time>2013-05-25T13:04:25Z</time>
      </trkpt>
      <trkpt lat="48.88463" lon="-0.42928">
        <ele>49.16</ele>
        <time>2013-05-25T13:04:29Z</time>
      </trkpt>
      <trkpt lat="48.8846" lon="-0.42941">
        <ele>49.16</ele>
        <time>2013-05-25T13:04:35Z</time>
      </trkpt>
      <trkpt lat="48.88453" lon="-0.42961">
        <ele>49.16</ele>
        <time>2013-05-25T13:04:46Z</time>
      </trkpt>
      <trkpt lat="48.88448" lon="-0.42968">
        <ele>49.16</ele>
        <time>2013-05-25T13:04:52Z</time>
      </trkpt>
      <trkpt lat="48.88449" lon="-0.42982">
        <ele>48.68</ele>
        <time>2013-05-25T13:04:59Z</time>
      </trkpt>
      <trkpt lat="48.88444" lon="-0.42991">
        <ele>49.65</ele>
        <time>2013-05-25T13:05:04Z</time>
      </trkpt>
      <trkpt lat="48.88441" lon="-0.42994">
        <ele>50.13</ele>
        <time>2013-05-25T13:05:07Z</time>
      </trkpt>
      <trkpt lat="48.88434" lon="-0.43011">
        <ele>49.65</ele>
        <time>2013-05-25T13:05:19Z</time>
      </trkpt>
      <trkpt lat="48.88424" lon="-0.43033">
        <ele>49.16</ele>
        <time>2013-05-25T13:05:33Z</time>
      </trkpt>
      <trkpt lat="48.88421" lon="-0.43048">
        <ele>49.65</ele>
        <time>2013-05-25T13:05:43Z</time>
      </trkpt>
      <trkpt lat="48.88417" lon="-0.43055">
        <ele>49.65</ele>
        <time>2013-05-25T13:05:47Z</time>
      </trkpt>
      <trkpt lat="48.88415" lon="-0.43061">
        <ele>50.13</ele>
        <time>2013-05-25T13:05:52Z</time>
      </trkpt>
      <trkpt lat="48.88414" lon="-0.43066">
        <ele>50.61</ele>
        <time>2013-05-25T13:05:56Z</time>
      </trkpt>
      <trkpt lat="48.88409" lon="-0.43076">
        <ele>49.65</ele>
        <time>2013-05-25T13:06:04Z</time>
      </trkpt>
      <trkpt lat="48.88409" lon="-0.4308">
        <ele>49.65</ele>
        <time>2013-05-25T13:06:06Z</time>
      </trkpt>
      <trkpt lat="48.88403" lon="-0.43103">
        <ele>49.16</ele>
        <time>2013-05-25T13:06:19Z</time>
      </trkpt>
      <trkpt lat="48.88403" lon="-0.43107">
        <ele>48.68</ele>
        <time>2013-05-25T13:06:21Z</time>
      </trkpt>
      <trkpt lat="48.88403" lon="-0.43116">
        <ele>49.16</ele>
        <time>2013-05-25T13:06:25Z</time>
      </trkpt>
      <trkpt lat="48.88393" lon="-0.43136">
        <ele>50.61</ele>
        <time>2013-05-25T13:06:39Z</time>
      </trkpt>
      <trkpt lat="48.8839" lon="-0.43144">
        <ele>51.09</ele>
        <time>2013-05-25T13:06:44Z</time>
      </trkpt>
      <trkpt lat="48.88387" lon="-0.4315">
        <ele>51.09</ele>
        <time>2013-05-25T13:06:48Z</time>
      </trkpt>
      <trkpt lat="48.8838" lon="-0.43167">
        <ele>52.05</ele>
        <time>2013-05-25T13:07:02Z</time>
      </trkpt>
      <trkpt lat="48.88377" lon="-0.43175">
        <ele>51.57</ele>
        <time>2013-05-25T13:07:10Z</time>
      </trkpt>
      <trkpt lat="48.88375" lon="-0.43188">
        <ele>51.57</ele>
        <time>2013-05-25T13:07:16Z</time>
      </trkpt>
      <trkpt lat="48.8837" lon="-0.4321">
        <ele>51.57</ele>
        <time>2013-05-25T13:07:31Z</time>
      </trkpt>
      <trkpt lat="48.88366" lon="-0.43228">
        <ele>51.57</ele>
        <time>2013-05-25T13:07:43Z</time>
      </trkpt>
      <trkpt lat="48.88366" lon="-0.43234">
        <ele>51.57</ele>
        <time>2013-05-25T13:07:46Z</time>
      </trkpt>
      <trkpt lat="48.88365" lon="-0.43255">
        <ele>52.05</ele>
        <time>2013-05-25T13:08:00Z</time>
      </trkpt>
      <trkpt lat="48.88364" lon="-0.43267">
        <ele>52.53</ele>
        <time>2013-05-25T13:08:11Z</time>
      </trkpt>
      <trkpt lat="48.88357" lon="-0.43279">
        <ele>53.01</ele>
        <time>2013-05-25T13:08:19Z</time>
      </trkpt>
      <trkpt lat="48.88351" lon="-0.43296">
        <ele>55.89</ele>
        <time>2013-05-25T13:08:33Z</time>
      </trkpt>
      <trkpt lat="48.88346" lon="-0.43314">
        <ele>57.82</ele>
        <time>2013-05-25T13:08:50Z</time>
      </trkpt>
      <trkpt lat="48.88341" lon="-0.43333">
        <ele>59.26</ele>
        <time>2013-05-25T13:09:04Z</time>
      </trkpt>
      <trkpt lat="48.88338" lon="-0.43346">
        <ele>60.7</ele>
        <time>2013-05-25T13:09:17Z</time>
      </trkpt>
      <trkpt lat="48.88336" lon="-0.43359">
        <ele>61.66</ele>
        <time>2013-05-25T13:09:28Z</time>
      </trkpt>
      <trkpt lat="48.88333" lon="-0.43377">
        <ele>62.62</ele>
        <time>2013-05-25T13:09:39Z</time>
      </trkpt>
      <trkpt lat="48.88332" lon="-0.4339">
        <ele>62.62</ele>
        <time>2013-05-25T13:09:51Z</time>
      </trkpt>
      <trkpt lat="48.88334" lon="-0.43414">
        <ele>61.66</ele>
        <time>2013-05-25T13:10:05Z</time>
      </trkpt>
      <trkpt lat="48.88333" lon="-0.43427">
        <ele>60.7</ele>
        <time>2013-05-25T13:10:17Z</time>
      </trkpt>
      <trkpt lat="48.88334" lon="-0.43432">
        <ele>60.7</ele>
        <time>2013-05-25T13:10:25Z</time>
      </trkpt>
      <trkpt lat="48.88344" lon="-0.43466">
        <ele>61.66</ele>
        <time>2013-05-25T13:10:38Z</time>
      </trkpt>
      <trkpt lat="48.88343" lon="-0.43478">
        <ele>61.66</ele>
        <time>2013-05-25T13:10:43Z</time>
      </trkpt>
      <trkpt lat="48.88344" lon="-0.43496">
        <ele>61.66</ele>
        <time>2013-05-25T13:10:59Z</time>
      </trkpt>
      <trkpt lat="48.88346" lon="-0.43506">
        <ele>60.22</ele>
        <time>2013-05-25T13:11:13Z</time>
      </trkpt>
      <trkpt lat="48.88348" lon="-0.43515">
        <ele>57.82</ele>
        <time>2013-05-25T13:11:26Z</time>
      </trkpt>
      <trkpt lat="48.8835" lon="-0.43525">
        <ele>55.89</ele>
        <time>2013-05-25T13:11:43Z</time>
      </trkpt>
      <trkpt lat="48.88352" lon="-0.43558">
        <ele>54.45</ele>
        <time>2013-05-25T13:11:56Z</time>
      </trkpt>
      <trkpt lat="48.88351" lon="-0.43581">
        <ele>54.93</ele>
        <time>2013-05-25T13:12:09Z</time>
      </trkpt>
      <trkpt lat="48.88348" lon="-0.43597">
        <ele>55.89</ele>
        <time>2013-05-25T13:12:19Z</time>
      </trkpt>
      <trkpt lat="48.88345" lon="-0.43603">
        <ele>56.86</ele>
        <time>2013-05-25T13:12:22Z</time>
      </trkpt>
      <trkpt lat="48.88346" lon="-0.4363">
        <ele>59.26</ele>
        <time>2013-05-25T13:12:36Z</time>
      </trkpt>
      <trkpt lat="48.88342" lon="-0.43647">
        <ele>61.18</ele>
        <time>2013-05-25T13:12:49Z</time>
      </trkpt>
      <trkpt lat="48.8834" lon="-0.43648">
        <ele>61.18</ele>
        <time>2013-05-25T13:12:51Z</time>
      </trkpt>
      <trkpt lat="48.88332" lon="-0.43662">
        <ele>61.66</ele>
        <time>2013-05-25T13:13:03Z</time>
      </trkpt>
      <trkpt lat="48.8833" lon="-0.43675">
        <ele>61.66</ele>
        <time>2013-05-25T13:13:15Z</time>
      </trkpt>
      <trkpt lat="48.88334" lon="-0.43681">
        <ele>61.18</ele>
        <time>2013-05-25T13:13:28Z</time>
      </trkpt>
      <trkpt lat="48.88335" lon="-0.43684">
        <ele>60.7</ele>
        <time>2013-05-25T13:13:33Z</time>
      </trkpt>
      <trkpt lat="48.88333" lon="-0.43704">
        <ele>59.74</ele>
        <time>2013-05-25T13:13:46Z</time>
      </trkpt>
      <trkpt lat="48.88335" lon="-0.43718">
        <ele>58.78</ele>
        <time>2013-05-25T13:13:57Z</time>
      </trkpt>
      <trkpt lat="48.88341" lon="-0.43729">
        <ele>58.3</ele>
        <time>2013-05-25T13:14:07Z</time>
      </trkpt>
      <trkpt lat="48.88344" lon="-0.43745">
        <ele>56.86</ele>
        <time>2013-05-25T13:14:20Z</time>
      </trkpt>
      <trkpt lat="48.88347" lon="-0.43764">
        <ele>55.41</ele>
        <time>2013-05-25T13:14:33Z</time>
      </trkpt>
      <trkpt lat="48.88345" lon="-0.43779">
        <ele>53.97</ele>
        <time>2013-05-25T13:14:45Z</time>
      </trkpt>
      <trkpt lat="48.88339" lon="-0.43785">
        <ele>53.49</ele>
        <time>2013-05-25T13:14:56Z</time>
      </trkpt>
      <trkpt lat="48.88334" lon="-0.43797">
        <ele>52.53</ele>
        <time>2013-05-25T13:15:09Z</time>
      </trkpt>
      <trkpt lat="48.88333" lon="-0.43809">
        <ele>53.49</ele>
        <time>2013-05-25T13:15:19Z</time>
      </trkpt>
      <trkpt lat="48.88337" lon="-0.43826">
        <ele>53.97</ele>
        <time>2013-05-25T13:15:32Z</time>
      </trkpt>
      <trkpt lat="48.8834" lon="-0.43843">
        <ele>54.45</ele>
        <time>2013-05-25T13:15:44Z</time>
      </trkpt>
      <trkpt lat="48.88334" lon="-0.43849">
        <ele>54.45</ele>
        <time>2013-05-25T13:15:53Z</time>
      </trkpt>
      <trkpt lat="48.88338" lon="-0.43863">
        <ele>54.45</ele>
        <time>2013-05-25T13:16:07Z</time>
      </trkpt>
      <trkpt lat="48.8834" lon="-0.43883">
        <ele>55.41</ele>
        <time>2013-05-25T13:16:18Z</time>
      </trkpt>
      <trkpt lat="48.88342" lon="-0.43899">
        <ele>56.37</ele>
        <time>2013-05-25T13:16:30Z</time>
      </trkpt>
      <trkpt lat="48.88344" lon="-0.43907">
        <ele>56.37</ele>
        <time>2013-05-25T13:16:34Z</time>
      </trkpt>
      <trkpt lat="48.88358" lon="-0.43938">
        <ele>55.89</ele>
        <time>2013-05-25T13:16:45Z</time>
      </trkpt>
      <trkpt lat="48.88361" lon="-0.43964">
        <ele>55.41</ele>
        <time>2013-05-25T13:16:57Z</time>
      </trkpt>
      <trkpt lat="48.88369" lon="-0.43992">
        <ele>55.41</ele>
        <time>2013-05-25T13:17:09Z</time>
      </trkpt>
      <trkpt lat="48.8837" lon="-0.44">
        <ele>54.93</ele>
        <time>2013-05-25T13:17:13Z</time>
      </trkpt>
      <trkpt lat="48.88372" lon="-0.4402">
        <ele>55.41</ele>
        <time>2013-05-25T13:17:24Z</time>
      </trkpt>
      <trkpt lat="48.88374" lon="-0.44037">
        <ele>53.97</ele>
        <time>2013-05-25T13:17:34Z</time>
      </trkpt>
      <trkpt lat="48.8838" lon="-0.44055">
        <ele>53.01</ele>
        <time>2013-05-25T13:17:47Z</time>
      </trkpt>
      <trkpt lat="48.88381" lon="-0.44081">
        <ele>54.45</ele>
        <time>2013-05-25T13:18:00Z</time>
      </trkpt>
      <trkpt lat="48.88388" lon="-0.44106">
        <ele>54.45</ele>
        <time>2013-05-25T13:18:14Z</time>
      </trkpt>
      <trkpt lat="48.88386" lon="-0.4412">
        <ele>54.45</ele>
        <time>2013-05-25T13:18:27Z</time>
      </trkpt>
      <trkpt lat="48.88382" lon="-0.44125">
        <ele>54.93</ele>
        <time>2013-05-25T13:18:38Z</time>
      </trkpt>
      <trkpt lat="48.88381" lon="-0.44135">
        <ele>54.45</ele>
        <time>2013-05-25T13:18:48Z</time>
      </trkpt>
      <trkpt lat="48.88384" lon="-0.44141">
        <ele>53.97</ele>
        <time>2013-05-25T13:18:53Z</time>
      </trkpt>
      <trkpt lat="48.88401" lon="-0.44168">
        <ele>54.45</ele>
        <time>2013-05-25T13:19:07Z</time>
      </trkpt>
      <trkpt lat="48.88406" lon="-0.4418">
        <ele>54.93</ele>
        <time>2013-05-25T13:19:14Z</time>
      </trkpt>
      <trkpt lat="48.88417" lon="-0.44212">
        <ele>55.41</ele>
        <time>2013-05-25T13:19:28Z</time>
      </trkpt>
      <trkpt lat="48.88415" lon="-0.44218">
        <ele>55.89</ele>
        <time>2013-05-25T13:19:35Z</time>
      </trkpt>
      <trkpt lat="48.88413" lon="-0.44234">
        <ele>56.37</ele>
        <time>2013-05-25T13:19:46Z</time>
      </trkpt>
      <trkpt lat="48.88413" lon="-0.44242">
        <ele>56.37</ele>
        <time>2013-05-25T13:19:53Z</time>
      </trkpt>
      <trkpt lat="48.88419" lon="-0.44254">
        <ele>55.89</ele>
        <time>2013-05-25T13:20:04Z</time>
      </trkpt>
      <trkpt lat="48.88422" lon="-0.4427">
        <ele>55.89</ele>
        <time>2013-05-25T13:20:15Z</time>
      </trkpt>
      <trkpt lat="48.88427" lon="-0.44279">
        <ele>56.37</ele>
        <time>2013-05-25T13:20:23Z</time>
      </trkpt>
      <trkpt lat="48.88434" lon="-0.44291">
        <ele>56.86</ele>
        <time>2013-05-25T13:20:36Z</time>
      </trkpt>
      <trkpt lat="48.88436" lon="-0.44301">
        <ele>57.34</ele>
        <time>2013-05-25T13:20:43Z</time>
      </trkpt>
      <trkpt lat="48.88444" lon="-0.44314">
        <ele>56.37</ele>
        <time>2013-05-25T13:20:51Z</time>
      </trkpt>
      <trkpt lat="48.8845" lon="-0.44323">
        <ele>55.89</ele>
        <time>2013-05-25T13:20:59Z</time>
      </trkpt>
      <trkpt lat="48.88455" lon="-0.44329">
        <ele>55.41</ele>
        <time>2013-05-25T13:21:07Z</time>
      </trkpt>
      <trkpt lat="48.8846" lon="-0.44333">
        <ele>55.41</ele>
        <time>2013-05-25T13:21:12Z</time>
      </trkpt>
      <trkpt lat="48.88465" lon="-0.4434">
        <ele>55.89</ele>
        <time>2013-05-25T13:21:17Z</time>
      </trkpt>
      <trkpt lat="48.88472" lon="-0.44349">
        <ele>55.89</ele>
        <time>2013-05-25T13:21:27Z</time>
      </trkpt>
      <trkpt lat="48.88475" lon="-0.44352">
        <ele>55.89</ele>
        <time>2013-05-25T13:21:29Z</time>
      </trkpt>
      <trkpt lat="48.88477" lon="-0.44354">
        <ele>56.37</ele>
        <time>2013-05-25T13:21:31Z</time>
      </trkpt>
      <trkpt lat="48.88484" lon="-0.44361">
        <ele>56.37</ele>
        <time>2013-05-25T13:21:42Z</time>
      </trkpt>
      <trkpt lat="48.88487" lon="-0.44364">
        <ele>56.37</ele>
        <time>2013-05-25T13:21:45Z</time>
      </trkpt>
      <trkpt lat="48.8849" lon="-0.44367">
        <ele>56.37</ele>
        <time>2013-05-25T13:21:48Z</time>
      </trkpt>
      <trkpt lat="48.88503" lon="-0.44374">
        <ele>56.37</ele>
        <time>2013-05-25T13:22:04Z</time>
      </trkpt>
      <trkpt lat="48.8851" lon="-0.4438">
        <ele>56.37</ele>
        <time>2013-05-25T13:22:15Z</time>
      </trkpt>
      <trkpt lat="48.88525" lon="-0.44392">
        <ele>56.86</ele>
        <time>2013-05-25T13:22:26Z</time>
      </trkpt>
      <trkpt lat="48.88532" lon="-0.44397">
        <ele>56.37</ele>
        <time>2013-05-25T13:22:34Z</time>
      </trkpt>
      <trkpt lat="48.88542" lon="-0.44404">
        <ele>56.86</ele>
        <time>2013-05-25T13:22:44Z</time>
      </trkpt>
      <trkpt lat="48.88556" lon="-0.4442">
        <ele>57.34</ele>
        <time>2013-05-25T13:22:59Z</time>
      </trkpt>
      <trkpt lat="48.88558" lon="-0.44422">
        <ele>56.86</ele>
        <time>2013-05-25T13:23:00Z</time>
      </trkpt>
      <trkpt lat="48.88567" lon="-0.44431">
        <ele>57.34</ele>
        <time>2013-05-25T13:23:10Z</time>
      </trkpt>
      <trkpt lat="48.88581" lon="-0.44437">
        <ele>57.34</ele>
        <time>2013-05-25T13:23:22Z</time>
      </trkpt>
      <trkpt lat="48.88596" lon="-0.44443">
        <ele>56.86</ele>
        <time>2013-05-25T13:23:36Z</time>
      </trkpt>
      <trkpt lat="48.88597" lon="-0.44444">
        <ele>57.34</ele>
        <time>2013-05-25T13:23:37Z</time>
      </trkpt>
      <trkpt lat="48.88609" lon="-0.44444">
        <ele>57.34</ele>
        <time>2013-05-25T13:23:49Z</time>
      </trkpt>
      <trkpt lat="48.88615" lon="-0.44445">
        <ele>57.34</ele>
        <time>2013-05-25T13:23:55Z</time>
      </trkpt>
      <trkpt lat="48.88623" lon="-0.44448">
        <ele>56.37</ele>
        <time>2013-05-25T13:24:04Z</time>
      </trkpt>
      <trkpt lat="48.88639" lon="-0.44451">
        <ele>56.86</ele>
        <time>2013-05-25T13:24:18Z</time>
      </trkpt>
      <trkpt lat="48.88646" lon="-0.44448">
        <ele>56.86</ele>
        <time>2013-05-25T13:24:27Z</time>
      </trkpt>
      <trkpt lat="48.8866" lon="-0.4446">
        <ele>57.34</ele>
        <time>2013-05-25T13:24:38Z</time>
      </trkpt>
      <trkpt lat="48.88667" lon="-0.44464">
        <ele>57.34</ele>
        <time>2013-05-25T13:24:44Z</time>
      </trkpt>
      <trkpt lat="48.88683" lon="-0.44478">
        <ele>57.82</ele>
        <time>2013-05-25T13:24:59Z</time>
      </trkpt>
      <trkpt lat="48.887" lon="-0.44492">
        <ele>57.34</ele>
        <time>2013-05-25T13:25:11Z</time>
      </trkpt>
      <trkpt lat="48.88702" lon="-0.44493">
        <ele>57.34</ele>
        <time>2013-05-25T13:25:13Z</time>
      </trkpt>
      <trkpt lat="48.88707" lon="-0.44496">
        <ele>57.34</ele>
        <time>2013-05-25T13:25:18Z</time>
      </trkpt>
      <trkpt lat="48.88722" lon="-0.44504">
        <ele>57.34</ele>
        <time>2013-05-25T13:25:30Z</time>
      </trkpt>
      <trkpt lat="48.88725" lon="-0.44506">
        <ele>57.82</ele>
        <time>2013-05-25T13:25:32Z</time>
      </trkpt>
      <trkpt lat="48.88739" lon="-0.44525">
        <ele>57.82</ele>
        <time>2013-05-25T13:25:46Z</time>
      </trkpt>
      <trkpt lat="48.88754" lon="-0.44536">
        <ele>57.82</ele>
        <time>2013-05-25T13:26:00Z</time>
      </trkpt>
      <trkpt lat="48.88759" lon="-0.44538">
        <ele>58.3</ele>
        <time>2013-05-25T13:26:05Z</time>
      </trkpt>
      <trkpt lat="48.88764" lon="-0.4454">
        <ele>57.82</ele>
        <time>2013-05-25T13:26:09Z</time>
      </trkpt>
      <trkpt lat="48.88776" lon="-0.44543">
        <ele>57.34</ele>
        <time>2013-05-25T13:26:20Z</time>
      </trkpt>
      <trkpt lat="48.88788" lon="-0.44556">
        <ele>57.82</ele>
        <time>2013-05-25T13:26:31Z</time>
      </trkpt>
      <trkpt lat="48.88798" lon="-0.44562">
        <ele>58.78</ele>
        <time>2013-05-25T13:26:44Z</time>
      </trkpt>
      <trkpt lat="48.88804" lon="-0.44563">
        <ele>59.26</ele>
        <time>2013-05-25T13:26:51Z</time>
      </trkpt>
      <trkpt lat="48.88812" lon="-0.44568">
        <ele>59.74</ele>
        <time>2013-05-25T13:27:02Z</time>
      </trkpt>
      <trkpt lat="48.88814" lon="-0.44568">
        <ele>59.74</ele>
        <time>2013-05-25T13:27:19Z</time>
      </trkpt>
      <trkpt lat="48.88814" lon="-0.44571">
        <ele>60.7</ele>
        <time>2013-05-25T13:27:37Z</time>
      </trkpt>
      <trkpt lat="48.88815" lon="-0.44581">
        <ele>63.1</ele>
        <time>2013-05-25T13:27:50Z</time>
      </trkpt>
      <trkpt lat="48.88813" lon="-0.44599">
        <ele>65.03</ele>
        <time>2013-05-25T13:28:03Z</time>
      </trkpt>
      <trkpt lat="48.88813" lon="-0.44601">
        <ele>66.47</ele>
        <time>2013-05-25T13:28:16Z</time>
      </trkpt>
      <trkpt lat="48.88807" lon="-0.44625">
        <ele>69.35</ele>
        <time>2013-05-25T13:28:32Z</time>
      </trkpt>
      <trkpt lat="48.88802" lon="-0.44644">
        <ele>70.31</ele>
        <time>2013-05-25T13:28:49Z</time>
      </trkpt>
      <trkpt lat="48.88801" lon="-0.44654">
        <ele>72.24</ele>
        <time>2013-05-25T13:28:57Z</time>
      </trkpt>
      <trkpt lat="48.888" lon="-0.44668">
        <ele>74.64</ele>
        <time>2013-05-25T13:29:10Z</time>
      </trkpt>
      <trkpt lat="48.88797" lon="-0.4467">
        <ele>75.6</ele>
        <time>2013-05-25T13:29:18Z</time>
      </trkpt>
      <trkpt lat="48.88793" lon="-0.44676">
        <ele>77.04</ele>
        <time>2013-05-25T13:29:24Z</time>
      </trkpt>
      <trkpt lat="48.88792" lon="-0.44679">
        <ele>77.52</ele>
        <time>2013-05-25T13:29:26Z</time>
      </trkpt>
      <trkpt lat="48.88786" lon="-0.44689">
        <ele>78.97</ele>
        <time>2013-05-25T13:29:39Z</time>
      </trkpt>
      <trkpt lat="48.88783" lon="-0.44686">
        <ele>78.48</ele>
        <time>2013-05-25T13:29:40Z</time>
      </trkpt>
      <trkpt lat="48.88782" lon="-0.44694">
        <ele>79.93</ele>
        <time>2013-05-25T13:29:45Z</time>
      </trkpt>
      <trkpt lat="48.88775" lon="-0.44704">
        <ele>82.33</ele>
        <time>2013-05-25T13:30:00Z</time>
      </trkpt>
      <trkpt lat="48.88772" lon="-0.44703">
        <ele>83.77</ele>
        <time>2013-05-25T13:30:17Z</time>
      </trkpt>
      <trkpt lat="48.88769" lon="-0.44713">
        <ele>84.73</ele>
        <time>2013-05-25T13:30:29Z</time>
      </trkpt>
      <trkpt lat="48.88767" lon="-0.44716">
        <ele>85.69</ele>
        <time>2013-05-25T13:30:42Z</time>
      </trkpt>
      <trkpt lat="48.88765" lon="-0.44724">
        <ele>89.06</ele>
        <time>2013-05-25T13:30:56Z</time>
      </trkpt>
      <trkpt lat="48.88765" lon="-0.44728">
        <ele>90.98</ele>
        <time>2013-05-25T13:31:11Z</time>
      </trkpt>
      <trkpt lat="48.88765" lon="-0.44727">
        <ele>92.42</ele>
        <time>2013-05-25T13:31:18Z</time>
      </trkpt>
      <trkpt lat="48.88761" lon="-0.44726">
        <ele>92.42</ele>
        <time>2013-05-25T13:31:34Z</time>
      </trkpt>
      <trkpt lat="48.88764" lon="-0.44726">
        <ele>92.42</ele>
        <time>2013-05-25T13:31:54Z</time>
      </trkpt>
      <trkpt lat="48.88762" lon="-0.44725">
        <ele>92.9</ele>
        <time>2013-05-25T13:32:13Z</time>
      </trkpt>
      <trkpt lat="48.88763" lon="-0.44718">
        <ele>93.87</ele>
        <time>2013-05-25T13:32:36Z</time>
      </trkpt>
      <trkpt lat="48.88762" lon="-0.44716">
        <ele>93.39</ele>
        <time>2013-05-25T13:33:03Z</time>
      </trkpt>
      <trkpt lat="48.88762" lon="-0.44715">
        <ele>94.35</ele>
        <time>2013-05-25T13:33:18Z</time>
      </trkpt>
      <trkpt lat="48.88765" lon="-0.44712">
        <ele>96.27</ele>
        <time>2013-05-25T13:33:35Z</time>
      </trkpt>
      <trkpt lat="48.88769" lon="-0.44716">
        <ele>99.15</ele>
        <time>2013-05-25T13:33:52Z</time>
      </trkpt>
      <trkpt lat="48.88772" lon="-0.4472">
        <ele>100.6</ele>
        <time>2013-05-25T13:34:09Z</time>
      </trkpt>
      <trkpt lat="48.88773" lon="-0.44722">
        <ele>103.96</ele>
        <time>2013-05-25T13:34:23Z</time>
      </trkpt>
      <trkpt lat="48.88774" lon="-0.44724">
        <ele>103.96</ele>
        <time>2013-05-25T13:34:46Z</time>
      </trkpt>
      <trkpt lat="48.88775" lon="-0.44727">
        <ele>104.44</ele>
        <time>2013-05-25T13:35:00Z</time>
      </trkpt>
      <trkpt lat="48.88775" lon="-0.44729">
        <ele>103.48</ele>
        <time>2013-05-25T13:35:21Z</time>
      </trkpt>
      <trkpt lat="48.88776" lon="-0.44731">
        <ele>102.52</ele>
        <time>2013-05-25T13:35:42Z</time>
      </trkpt>
      <trkpt lat="48.88777" lon="-0.44731">
        <ele>103.48</ele>
        <time>2013-05-25T13:36:12Z</time>
      </trkpt>
      <trkpt lat="48.88778" lon="-0.44732">
        <ele>102.52</ele>
        <time>2013-05-25T13:36:33Z</time>
      </trkpt>
      <trkpt lat="48.88778" lon="-0.44736">
        <ele>103.48</ele>
        <time>2013-05-25T13:36:50Z</time>
      </trkpt>
      <trkpt lat="48.8878" lon="-0.44741">
        <ele>103.96</ele>
        <time>2013-05-25T13:37:13Z</time>
      </trkpt>
      <trkpt lat="48.88783" lon="-0.44746">
        <ele>103</ele>
        <time>2013-05-25T13:37:26Z</time>
      </trkpt>
      <trkpt lat="48.88787" lon="-0.44754">
        <ele>105.4</ele>
        <time>2013-05-25T13:37:41Z</time>
      </trkpt>
      <trkpt lat="48.88793" lon="-0.44764">
        <ele>105.4</ele>
        <time>2013-05-25T13:37:53Z</time>
      </trkpt>
      <trkpt lat="48.88805" lon="-0.44775">
        <ele>104.44</ele>
        <time>2013-05-25T13:38:05Z</time>
      </trkpt>
      <trkpt lat="48.88808" lon="-0.44775">
        <ele>104.92</ele>
        <time>2013-05-25T13:38:07Z</time>
      </trkpt>
      <trkpt lat="48.88821" lon="-0.44787">
        <ele>105.88</ele>
        <time>2013-05-25T13:38:22Z</time>
      </trkpt>
      <trkpt lat="48.88831" lon="-0.448">
        <ele>106.36</ele>
        <time>2013-05-25T13:38:36Z</time>
      </trkpt>
      <trkpt lat="48.8884" lon="-0.44811">
        <ele>106.36</ele>
        <time>2013-05-25T13:38:48Z</time>
      </trkpt>
      <trkpt lat="48.88853" lon="-0.4482">
        <ele>105.88</ele>
        <time>2013-05-25T13:39:03Z</time>
      </trkpt>
      <trkpt lat="48.88858" lon="-0.44831">
        <ele>106.36</ele>
        <time>2013-05-25T13:39:18Z</time>
      </trkpt>
      <trkpt lat="48.88866" lon="-0.44853">
        <ele>104.92</ele>
        <time>2013-05-25T13:39:33Z</time>
      </trkpt>
      <trkpt lat="48.88871" lon="-0.44874">
        <ele>103.48</ele>
        <time>2013-05-25T13:39:49Z</time>
      </trkpt>
      <trkpt lat="48.88873" lon="-0.44897">
        <ele>105.88</ele>
        <time>2013-05-25T13:40:03Z</time>
      </trkpt>
      <trkpt lat="48.88872" lon="-0.44905">
        <ele>108.29</ele>
        <time>2013-05-25T13:40:16Z</time>
      </trkpt>
      <trkpt lat="48.88867" lon="-0.44922">
        <ele>111.65</ele>
        <time>2013-05-25T13:40:31Z</time>
      </trkpt>
      <trkpt lat="48.88862" lon="-0.44932">
        <ele>113.57</ele>
        <time>2013-05-25T13:40:45Z</time>
      </trkpt>
      <trkpt lat="48.88856" lon="-0.44944">
        <ele>115.5</ele>
        <time>2013-05-25T13:41:00Z</time>
      </trkpt>
      <trkpt lat="48.88852" lon="-0.44961">
        <ele>115.98</ele>
        <time>2013-05-25T13:41:17Z</time>
      </trkpt>
      <trkpt lat="48.88847" lon="-0.44971">
        <ele>117.42</ele>
        <time>2013-05-25T13:41:33Z</time>
      </trkpt>
      <trkpt lat="48.88843" lon="-0.44991">
        <ele>120.78</ele>
        <time>2013-05-25T13:41:47Z</time>
      </trkpt>
      <trkpt lat="48.88831" lon="-0.45005">
        <ele>121.74</ele>
        <time>2013-05-25T13:42:02Z</time>
      </trkpt>
      <trkpt lat="48.88826" lon="-0.45017">
        <ele>123.67</ele>
        <time>2013-05-25T13:42:15Z</time>
      </trkpt>
      <trkpt lat="48.88821" lon="-0.45032">
        <ele>124.15</ele>
        <time>2013-05-25T13:42:35Z</time>
      </trkpt>
      <trkpt lat="48.88819" lon="-0.45045">
        <ele>125.11</ele>
        <time>2013-05-25T13:42:49Z</time>
      </trkpt>
      <trkpt lat="48.8882" lon="-0.45063">
        <ele>124.15</ele>
        <time>2013-05-25T13:43:02Z</time>
      </trkpt>
      <trkpt lat="48.8882" lon="-0.45068">
        <ele>123.67</ele>
        <time>2013-05-25T13:43:05Z</time>
      </trkpt>
      <trkpt lat="48.88823" lon="-0.45083">
        <ele>123.67</ele>
        <time>2013-05-25T13:43:14Z</time>
      </trkpt>
      <trkpt lat="48.88829" lon="-0.45094">
        <ele>125.59</ele>
        <time>2013-05-25T13:43:29Z</time>
      </trkpt>
      <trkpt lat="48.88832" lon="-0.45097">
        <ele>128.47</ele>
        <time>2013-05-25T13:43:43Z</time>
      </trkpt>
      <trkpt lat="48.88831" lon="-0.45104">
        <ele>128.95</ele>
        <time>2013-05-25T13:43:58Z</time>
      </trkpt>
      <trkpt lat="48.8883" lon="-0.45116">
        <ele>129.92</ele>
        <time>2013-05-25T13:44:09Z</time>
      </trkpt>
      <trkpt lat="48.88827" lon="-0.4513">
        <ele>130.4</ele>
        <time>2013-05-25T13:44:20Z</time>
      </trkpt>
      <trkpt lat="48.88823" lon="-0.45143">
        <ele>131.84</ele>
        <time>2013-05-25T13:44:34Z</time>
      </trkpt>
      <trkpt lat="48.88821" lon="-0.45163">
        <ele>132.8</ele>
        <time>2013-05-25T13:44:45Z</time>
      </trkpt>
      <trkpt lat="48.88819" lon="-0.45172">
        <ele>135.2</ele>
        <time>2013-05-25T13:44:58Z</time>
      </trkpt>
      <trkpt lat="48.88819" lon="-0.45188">
        <ele>137.13</ele>
        <time>2013-05-25T13:45:13Z</time>
      </trkpt>
      <trkpt lat="48.88814" lon="-0.45198">
        <ele>138.09</ele>
        <time>2013-05-25T13:45:25Z</time>
      </trkpt>
      <trkpt lat="48.88811" lon="-0.45199">
        <ele>136.64</ele>
        <time>2013-05-25T13:45:37Z</time>
      </trkpt>
      <trkpt lat="48.88807" lon="-0.45209">
        <ele>138.09</ele>
        <time>2013-05-25T13:45:49Z</time>
      </trkpt>
      <trkpt lat="48.88799" lon="-0.45217">
        <ele>139.53</ele>
        <time>2013-05-25T13:46:03Z</time>
      </trkpt>
      <trkpt lat="48.88797" lon="-0.45233">
        <ele>140.97</ele>
        <time>2013-05-25T13:46:17Z</time>
      </trkpt>
      <trkpt lat="48.88794" lon="-0.45242">
        <ele>142.41</ele>
        <time>2013-05-25T13:46:32Z</time>
      </trkpt>
      <trkpt lat="48.88791" lon="-0.45256">
        <ele>143.85</ele>
        <time>2013-05-25T13:46:43Z</time>
      </trkpt>
      <trkpt lat="48.88786" lon="-0.45265">
        <ele>145.78</ele>
        <time>2013-05-25T13:46:55Z</time>
      </trkpt>
      <trkpt lat="48.88782" lon="-0.45271">
        <ele>146.26</ele>
        <time>2013-05-25T13:47:06Z</time>
      </trkpt>
      <trkpt lat="48.88781" lon="-0.45279">
        <ele>147.7</ele>
        <time>2013-05-25T13:47:17Z</time>
      </trkpt>
      <trkpt lat="48.88778" lon="-0.45282">
        <ele>149.14</ele>
        <time>2013-05-25T13:47:28Z</time>
      </trkpt>
      <trkpt lat="48.88776" lon="-0.45298">
        <ele>150.58</ele>
        <time>2013-05-25T13:47:40Z</time>
      </trkpt>
      <trkpt lat="48.88771" lon="-0.4531">
        <ele>152.03</ele>
        <time>2013-05-25T13:47:51Z</time>
      </trkpt>
      <trkpt lat="48.88765" lon="-0.45321">
        <ele>153.95</ele>
        <time>2013-05-25T13:48:05Z</time>
      </trkpt>
      <trkpt lat="48.88762" lon="-0.45331">
        <ele>156.35</ele>
        <time>2013-05-25T13:48:20Z</time>
      </trkpt>
      <trkpt lat="48.88759" lon="-0.45348">
        <ele>157.79</ele>
        <time>2013-05-25T13:48:36Z</time>
      </trkpt>
      <trkpt lat="48.8876" lon="-0.45352">
        <ele>157.79</ele>
        <time>2013-05-25T13:48:53Z</time>
      </trkpt>
      <trkpt lat="48.88759" lon="-0.45351">
        <ele>157.79</ele>
        <time>2013-05-25T13:49:14Z</time>
      </trkpt>
      <trkpt lat="48.88758" lon="-0.45349">
        <ele>157.31</ele>
        <time>2013-05-25T13:49:45Z</time>
      </trkpt>
      <trkpt lat="48.88758" lon="-0.45363">
        <ele>159.72</ele>
        <time>2013-05-25T13:50:00Z</time>
      </trkpt>
      <trkpt lat="48.88757" lon="-0.45384">
        <ele>161.64</ele>
        <time>2013-05-25T13:50:16Z</time>
      </trkpt>
      <trkpt lat="48.88754" lon="-0.45401">
        <ele>164.04</ele>
        <time>2013-05-25T13:50:31Z</time>
      </trkpt>
      <trkpt lat="48.8875" lon="-0.45408">
        <ele>166.93</ele>
        <time>2013-05-25T13:50:44Z</time>
      </trkpt>
      <trkpt lat="48.8875" lon="-0.45415">
        <ele>167.89</ele>
        <time>2013-05-25T13:50:58Z</time>
      </trkpt>
      <trkpt lat="48.8875" lon="-0.45418">
        <ele>168.37</ele>
        <time>2013-05-25T13:51:01Z</time>
      </trkpt>
      <trkpt lat="48.8875" lon="-0.45439">
        <ele>170.77</ele>
        <time>2013-05-25T13:51:15Z</time>
      </trkpt>
      <trkpt lat="48.8875" lon="-0.4546">
        <ele>173.17</ele>
        <time>2013-05-25T13:51:30Z</time>
      </trkpt>
      <trkpt lat="48.88749" lon="-0.45478">
        <ele>176.06</ele>
        <time>2013-05-25T13:51:46Z</time>
      </trkpt>
      <trkpt lat="48.88749" lon="-0.45481">
        <ele>176.54</ele>
        <time>2013-05-25T13:51:49Z</time>
      </trkpt>
      <trkpt lat="48.88751" lon="-0.45495">
        <ele>178.46</ele>
        <time>2013-05-25T13:52:01Z</time>
      </trkpt>
      <trkpt lat="48.88752" lon="-0.45517">
        <ele>179.9</ele>
        <time>2013-05-25T13:52:14Z</time>
      </trkpt>
      <trkpt lat="48.88751" lon="-0.45523">
        <ele>182.31</ele>
        <time>2013-05-25T13:52:29Z</time>
      </trkpt>
      <trkpt lat="48.88753" lon="-0.4553">
        <ele>182.79</ele>
        <time>2013-05-25T13:52:33Z</time>
      </trkpt>
      <trkpt lat="48.88754" lon="-0.45548">
        <ele>184.71</ele>
        <time>2013-05-25T13:52:43Z</time>
      </trkpt>
      <trkpt lat="48.88756" lon="-0.45563">
        <ele>186.15</ele>
        <time>2013-05-25T13:52:56Z</time>
      </trkpt>
      <trkpt lat="48.88754" lon="-0.45574">
        <ele>187.59</ele>
        <time>2013-05-25T13:53:05Z</time>
      </trkpt>
      <trkpt lat="48.88752" lon="-0.45587">
        <ele>190</ele>
        <time>2013-05-25T13:53:17Z</time>
      </trkpt>
      <trkpt lat="48.88751" lon="-0.45596">
        <ele>190.48</ele>
        <time>2013-05-25T13:53:25Z</time>
      </trkpt>
      <trkpt lat="48.8875" lon="-0.45615">
        <ele>192.4</ele>
        <time>2013-05-25T13:53:38Z</time>
      </trkpt>
      <trkpt lat="48.8875" lon="-0.45623">
        <ele>193.84</ele>
        <time>2013-05-25T13:53:49Z</time>
      </trkpt>
      <trkpt lat="48.88751" lon="-0.4563">
        <ele>195.28</ele>
        <time>2013-05-25T13:54:04Z</time>
      </trkpt>
      <trkpt lat="48.88751" lon="-0.45652">
        <ele>197.21</ele>
        <time>2013-05-25T13:54:18Z</time>
      </trkpt>
      <trkpt lat="48.88754" lon="-0.45671">
        <ele>199.61</ele>
        <time>2013-05-25T13:54:33Z</time>
      </trkpt>
      <trkpt lat="48.88759" lon="-0.45687">
        <ele>201.53</ele>
        <time>2013-05-25T13:54:45Z</time>
      </trkpt>
      <trkpt lat="48.88762" lon="-0.45698">
        <ele>202.49</ele>
        <time>2013-05-25T13:54:52Z</time>
      </trkpt>
      <trkpt lat="48.8876" lon="-0.4571">
        <ele>203.94</ele>
        <time>2013-05-25T13:55:06Z</time>
      </trkpt>
      <trkpt lat="48.88757" lon="-0.4572">
        <ele>204.42</ele>
        <time>2013-05-25T13:55:19Z</time>
      </trkpt>
      <trkpt lat="48.88757" lon="-0.45723">
        <ele>204.42</ele>
        <time>2013-05-25T13:55:33Z</time>
      </trkpt>
      <trkpt lat="48.88757" lon="-0.45724">
        <ele>203.46</ele>
        <time>2013-05-25T13:55:59Z</time>
      </trkpt>
      <trkpt lat="48.88757" lon="-0.45724">
        <ele>199.61</ele>
        <time>2013-05-25T13:56:18Z</time>
      </trkpt>
      <trkpt lat="48.88757" lon="-0.45724">
        <ele>204.42</ele>
        <time>2013-05-25T13:56:19Z</time>
      </trkpt>
      <trkpt lat="48.88758" lon="-0.45725">
        <ele>203.94</ele>
        <time>2013-05-25T13:56:38Z</time>
      </trkpt>
      <trkpt lat="48.88757" lon="-0.45725">
        <ele>208.74</ele>
        <time>2013-05-25T13:56:46Z</time>
      </trkpt>
      <trkpt lat="48.88757" lon="-0.45725">
        <ele>208.26</ele>
        <time>2013-05-25T13:56:47Z</time>
      </trkpt>
      <trkpt lat="48.88757" lon="-0.45725">
        <ele>198.17</ele>
        <time>2013-05-25T13:56:48Z</time>
      </trkpt>
      <trkpt lat="48.88757" lon="-0.45725">
        <ele>204.42</ele>
        <time>2013-05-25T13:56:49Z</time>
      </trkpt>
      <trkpt lat="48.88758" lon="-0.45725">
        <ele>197.21</ele>
        <time>2013-05-25T13:57:01Z</time>
      </trkpt>
      <trkpt lat="48.88758" lon="-0.45725">
        <ele>197.69</ele>
        <time>2013-05-25T13:57:02Z</time>
      </trkpt>
      <trkpt lat="48.88758" lon="-0.45725">
        <ele>204.9</ele>
        <time>2013-05-25T13:57:03Z</time>
      </trkpt>
      <trkpt lat="48.88758" lon="-0.45725">
        <ele>199.13</ele>
        <time>2013-05-25T13:57:04Z</time>
      </trkpt>
      <trkpt lat="48.88758" lon="-0.45725">
        <ele>204.42</ele>
        <time>2013-05-25T13:57:05Z</time>
      </trkpt>
      <trkpt lat="48.88758" lon="-0.45725">
        <ele>203.46</ele>
        <time>2013-05-25T13:57:33Z</time>
      </trkpt>
      <trkpt lat="48.88758" lon="-0.45726">
        <ele>202.98</ele>
        <time>2013-05-25T13:57:55Z</time>
      </trkpt>
      <trkpt lat="48.88758" lon="-0.45726">
        <ele>202.49</ele>
        <time>2013-05-25T13:58:22Z</time>
      </trkpt>
      <trkpt lat="48.88758" lon="-0.45726">
        <ele>202.49</ele>
        <time>2013-05-25T13:58:35Z</time>
      </trkpt>
      <trkpt lat="48.88761" lon="-0.45743">
        <ele>203.46</ele>
        <time>2013-05-25T13:58:49Z</time>
      </trkpt>
      <trkpt lat="48.88762" lon="-0.45743">
        <ele>202.49</ele>
        <time>2013-05-25T13:58:50Z</time>
      </trkpt>
      <trkpt lat="48.88757" lon="-0.45728">
        <ele>202.98</ele>
        <time>2013-05-25T13:59:06Z</time>
      </trkpt>
      <trkpt lat="48.88757" lon="-0.45732">
        <ele>202.98</ele>
        <time>2013-05-25T13:59:26Z</time>
      </trkpt>
      <trkpt lat="48.88754" lon="-0.4574">
        <ele>203.46</ele>
        <time>2013-05-25T13:59:37Z</time>
      </trkpt>
      <trkpt lat="48.88747" lon="-0.45758">
        <ele>204.42</ele>
        <time>2013-05-25T13:59:50Z</time>
      </trkpt>
      <trkpt lat="48.88746" lon="-0.45767">
        <ele>204.9</ele>
        <time>2013-05-25T13:59:55Z</time>
      </trkpt>
      <trkpt lat="48.88744" lon="-0.45784">
        <ele>205.86</ele>
        <time>2013-05-25T14:00:06Z</time>
      </trkpt>
      <trkpt lat="48.88747" lon="-0.45804">
        <ele>205.86</ele>
        <time>2013-05-25T14:00:17Z</time>
      </trkpt>
      <trkpt lat="48.88752" lon="-0.45825">
        <ele>205.86</ele>
        <time>2013-05-25T14:00:30Z</time>
      </trkpt>
      <trkpt lat="48.88755" lon="-0.45834">
        <ele>205.86</ele>
        <time>2013-05-25T14:00:36Z</time>
      </trkpt>
      <trkpt lat="48.88757" lon="-0.45852">
        <ele>205.86</ele>
        <time>2013-05-25T14:00:52Z</time>
      </trkpt>
      <trkpt lat="48.88762" lon="-0.45863">
        <ele>205.86</ele>
        <time>2013-05-25T14:00:55Z</time>
      </trkpt>
      <trkpt lat="48.88766" lon="-0.4589">
        <ele>205.86</ele>
        <time>2013-05-25T14:01:11Z</time>
      </trkpt>
      <trkpt lat="48.88767" lon="-0.45904">
        <ele>202.98</ele>
        <time>2013-05-25T14:01:18Z</time>
      </trkpt>
      <trkpt lat="48.88767" lon="-0.45905">
        <ele>207.78</ele>
        <time>2013-05-25T14:01:19Z</time>
      </trkpt>
      <trkpt lat="48.88768" lon="-0.45915">
        <ele>206.34</ele>
        <time>2013-05-25T14:01:25Z</time>
      </trkpt>
      <trkpt lat="48.88774" lon="-0.45945">
        <ele>204.9</ele>
        <time>2013-05-25T14:01:42Z</time>
      </trkpt>
      <trkpt lat="48.88779" lon="-0.45971">
        <ele>205.38</ele>
        <time>2013-05-25T14:01:56Z</time>
      </trkpt>
      <trkpt lat="48.88785" lon="-0.45989">
        <ele>204.9</ele>
        <time>2013-05-25T14:02:09Z</time>
      </trkpt>
      <trkpt lat="48.88786" lon="-0.45993">
        <ele>202.98</ele>
        <time>2013-05-25T14:02:24Z</time>
      </trkpt>
      <trkpt lat="48.88786" lon="-0.46021">
        <ele>201.05</ele>
        <time>2013-05-25T14:02:38Z</time>
      </trkpt>
      <trkpt lat="48.8879" lon="-0.46049">
        <ele>200.09</ele>
        <time>2013-05-25T14:02:53Z</time>
      </trkpt>
      <trkpt lat="48.88795" lon="-0.46079">
        <ele>198.17</ele>
        <time>2013-05-25T14:03:09Z</time>
      </trkpt>
      <trkpt lat="48.88801" lon="-0.4611">
        <ele>195.28</ele>
        <time>2013-05-25T14:03:26Z</time>
      </trkpt>
      <trkpt lat="48.88805" lon="-0.46131">
        <ele>192.4</ele>
        <time>2013-05-25T14:03:39Z</time>
      </trkpt>
      <trkpt lat="48.88807" lon="-0.46147">
        <ele>190.96</ele>
        <time>2013-05-25T14:03:53Z</time>
      </trkpt>
      <trkpt lat="48.88807" lon="-0.46152">
        <ele>190.48</ele>
        <time>2013-05-25T14:03:59Z</time>
      </trkpt>
      <trkpt lat="48.88807" lon="-0.46155">
        <ele>190</ele>
        <time>2013-05-25T14:04:01Z</time>
      </trkpt>
      <trkpt lat="48.88807" lon="-0.46163">
        <ele>189.52</ele>
        <time>2013-05-25T14:04:05Z</time>
      </trkpt>
      <trkpt lat="48.88806" lon="-0.46176">
        <ele>188.56</ele>
        <time>2013-05-25T14:04:14Z</time>
      </trkpt>
      <trkpt lat="48.88808" lon="-0.46201">
        <ele>187.59</ele>
        <time>2013-05-25T14:04:28Z</time>
      </trkpt>
      <trkpt lat="48.88806" lon="-0.46229">
        <ele>186.63</ele>
        <time>2013-05-25T14:04:45Z</time>
      </trkpt>
      <trkpt lat="48.88811" lon="-0.4626">
        <ele>185.67</ele>
        <time>2013-05-25T14:05:01Z</time>
      </trkpt>
      <trkpt lat="48.88814" lon="-0.46285">
        <ele>185.19</ele>
        <time>2013-05-25T14:05:17Z</time>
      </trkpt>
      <trkpt lat="48.88815" lon="-0.46298">
        <ele>184.23</ele>
        <time>2013-05-25T14:05:23Z</time>
      </trkpt>
      <trkpt lat="48.88823" lon="-0.46324">
        <ele>182.31</ele>
        <time>2013-05-25T14:05:39Z</time>
      </trkpt>
      <trkpt lat="48.88829" lon="-0.46352">
        <ele>181.35</ele>
        <time>2013-05-25T14:05:57Z</time>
      </trkpt>
      <trkpt lat="48.88836" lon="-0.46379">
        <ele>179.42</ele>
        <time>2013-05-25T14:06:13Z</time>
      </trkpt>
      <trkpt lat="48.88844" lon="-0.46409">
        <ele>178.46</ele>
        <time>2013-05-25T14:06:29Z</time>
      </trkpt>
      <trkpt lat="48.88855" lon="-0.46443">
        <ele>176.06</ele>
        <time>2013-05-25T14:06:49Z</time>
      </trkpt>
      <trkpt lat="48.88866" lon="-0.46468">
        <ele>174.14</ele>
        <time>2013-05-25T14:07:06Z</time>
      </trkpt>
      <trkpt lat="48.88878" lon="-0.46495">
        <ele>173.17</ele>
        <time>2013-05-25T14:07:23Z</time>
      </trkpt>
      <trkpt lat="48.88886" lon="-0.46517">
        <ele>170.77</ele>
        <time>2013-05-25T14:07:36Z</time>
      </trkpt>
      <trkpt lat="48.88896" lon="-0.46539">
        <ele>170.77</ele>
        <time>2013-05-25T14:07:51Z</time>
      </trkpt>
      <trkpt lat="48.88903" lon="-0.46558">
        <ele>169.33</ele>
        <time>2013-05-25T14:08:03Z</time>
      </trkpt>
      <trkpt lat="48.88909" lon="-0.46588">
        <ele>167.89</ele>
        <time>2013-05-25T14:08:21Z</time>
      </trkpt>
      <trkpt lat="48.88914" lon="-0.46612">
        <ele>165</ele>
        <time>2013-05-25T14:08:37Z</time>
      </trkpt>
      <trkpt lat="48.88917" lon="-0.46635">
        <ele>163.56</ele>
        <time>2013-05-25T14:08:50Z</time>
      </trkpt>
      <trkpt lat="48.88918" lon="-0.46649">
        <ele>161.64</ele>
        <time>2013-05-25T14:09:01Z</time>
      </trkpt>
      <trkpt lat="48.88917" lon="-0.46651">
        <ele>161.64</ele>
        <time>2013-05-25T14:09:03Z</time>
      </trkpt>
      <trkpt lat="48.88909" lon="-0.46674">
        <ele>158.27</ele>
        <time>2013-05-25T14:09:21Z</time>
      </trkpt>
      <trkpt lat="48.88906" lon="-0.46675">
        <ele>157.79</ele>
        <time>2013-05-25T14:09:24Z</time>
      </trkpt>
      <trkpt lat="48.88902" lon="-0.46678">
        <ele>156.83</ele>
        <time>2013-05-25T14:09:29Z</time>
      </trkpt>
      <trkpt lat="48.88893" lon="-0.46677">
        <ele>154.91</ele>
        <time>2013-05-25T14:09:40Z</time>
      </trkpt>
      <trkpt lat="48.88883" lon="-0.46657">
        <ele>154.43</ele>
        <time>2013-05-25T14:09:54Z</time>
      </trkpt>
      <trkpt lat="48.88879" lon="-0.46648">
        <ele>152.51</ele>
        <time>2013-05-25T14:09:59Z</time>
      </trkpt>
      <trkpt lat="48.88871" lon="-0.46638">
        <ele>152.03</ele>
        <time>2013-05-25T14:10:09Z</time>
      </trkpt>
      <trkpt lat="48.8886" lon="-0.4665">
        <ele>150.58</ele>
        <time>2013-05-25T14:10:25Z</time>
      </trkpt>
      <trkpt lat="48.88857" lon="-0.4666">
        <ele>150.1</ele>
        <time>2013-05-25T14:10:31Z</time>
      </trkpt>
      <trkpt lat="48.88845" lon="-0.46689">
        <ele>148.18</ele>
        <time>2013-05-25T14:10:52Z</time>
      </trkpt>
      <trkpt lat="48.88836" lon="-0.46714">
        <ele>147.22</ele>
        <time>2013-05-25T14:11:09Z</time>
      </trkpt>
      <trkpt lat="48.88825" lon="-0.46743">
        <ele>144.82</ele>
        <time>2013-05-25T14:11:27Z</time>
      </trkpt>
      <trkpt lat="48.88825" lon="-0.4676">
        <ele>144.34</ele>
        <time>2013-05-25T14:11:41Z</time>
      </trkpt>
      <trkpt lat="48.88825" lon="-0.4676">
        <ele>152.51</ele>
        <time>2013-05-25T14:11:48Z</time>
      </trkpt>
      <trkpt lat="48.88825" lon="-0.4676">
        <ele>144.82</ele>
        <time>2013-05-25T14:11:49Z</time>
      </trkpt>
      <trkpt lat="48.88825" lon="-0.4676">
        <ele>138.09</ele>
        <time>2013-05-25T14:11:50Z</time>
      </trkpt>
      <trkpt lat="48.88825" lon="-0.4676">
        <ele>145.78</ele>
        <time>2013-05-25T14:11:51Z</time>
      </trkpt>
      <trkpt lat="48.88827" lon="-0.46757">
        <ele>144.34</ele>
        <time>2013-05-25T14:12:09Z</time>
      </trkpt>
      <trkpt lat="48.88826" lon="-0.46756">
        <ele>144.82</ele>
        <time>2013-05-25T14:12:31Z</time>
      </trkpt>
      <trkpt lat="48.88827" lon="-0.46757">
        <ele>143.85</ele>
        <time>2013-05-25T14:12:55Z</time>
      </trkpt>
      <trkpt lat="48.88827" lon="-0.46757">
        <ele>146.26</ele>
        <time>2013-05-25T14:13:22Z</time>
      </trkpt>
      <trkpt lat="48.88827" lon="-0.46757">
        <ele>146.26</ele>
        <time>2013-05-25T14:13:23Z</time>
      </trkpt>
      <trkpt lat="48.88827" lon="-0.46757">
        <ele>134.72</ele>
        <time>2013-05-25T14:13:27Z</time>
      </trkpt>
      <trkpt lat="48.88827" lon="-0.46757">
        <ele>145.78</ele>
        <time>2013-05-25T14:13:28Z</time>
      </trkpt>
      <trkpt lat="48.88827" lon="-0.46757">
        <ele>140.01</ele>
        <time>2013-05-25T14:13:31Z</time>
      </trkpt>
      <trkpt lat="48.88827" lon="-0.46757">
        <ele>144.82</ele>
        <time>2013-05-25T14:13:32Z</time>
      </trkpt>
      <trkpt lat="48.88827" lon="-0.46757">
        <ele>137.61</ele>
        <time>2013-05-25T14:13:33Z</time>
      </trkpt>
      <trkpt lat="48.88827" lon="-0.46757">
        <ele>143.85</ele>
        <time>2013-05-25T14:13:35Z</time>
      </trkpt>
      <trkpt lat="48.88827" lon="-0.46757">
        <ele>140.01</ele>
        <time>2013-05-25T14:13:36Z</time>
      </trkpt>
      <trkpt lat="48.88827" lon="-0.46757">
        <ele>143.37</ele>
        <time>2013-05-25T14:13:37Z</time>
      </trkpt>
      <trkpt lat="48.88827" lon="-0.46757">
        <ele>139.53</ele>
        <time>2013-05-25T14:13:40Z</time>
      </trkpt>
      <trkpt lat="48.88827" lon="-0.46757">
        <ele>144.34</ele>
        <time>2013-05-25T14:13:41Z</time>
      </trkpt>
      <trkpt lat="48.88827" lon="-0.46757">
        <ele>152.03</ele>
        <time>2013-05-25T14:13:44Z</time>
      </trkpt>
      <trkpt lat="48.88827" lon="-0.46757">
        <ele>141.45</ele>
        <time>2013-05-25T14:13:45Z</time>
      </trkpt>
      <trkpt lat="48.88827" lon="-0.46757">
        <ele>144.82</ele>
        <time>2013-05-25T14:13:57Z</time>
      </trkpt>
      <trkpt lat="48.88829" lon="-0.46757">
        <ele>141.45</ele>
        <time>2013-05-25T14:14:03Z</time>
      </trkpt>
      <trkpt lat="48.8883" lon="-0.46757">
        <ele>142.89</ele>
        <time>2013-05-25T14:14:04Z</time>
      </trkpt>
      <trkpt lat="48.88834" lon="-0.46757">
        <ele>141.45</ele>
        <time>2013-05-25T14:14:10Z</time>
      </trkpt>
      <trkpt lat="48.88843" lon="-0.46753">
        <ele>141.45</ele>
        <time>2013-05-25T14:14:22Z</time>
      </trkpt>
      <trkpt lat="48.88846" lon="-0.46754">
        <ele>140.49</ele>
        <time>2013-05-25T14:14:39Z</time>
      </trkpt>
      <trkpt lat="48.88846" lon="-0.46754">
        <ele>140.97</ele>
        <time>2013-05-25T14:14:40Z</time>
      </trkpt>
      <trkpt lat="48.8885" lon="-0.46758">
        <ele>140.01</ele>
        <time>2013-05-25T14:14:44Z</time>
      </trkpt>
      <trkpt lat="48.88853" lon="-0.46759">
        <ele>139.53</ele>
        <time>2013-05-25T14:14:47Z</time>
      </trkpt>
      <trkpt lat="48.88867" lon="-0.46774">
        <ele>137.13</ele>
        <time>2013-05-25T14:15:01Z</time>
      </trkpt>
      <trkpt lat="48.88875" lon="-0.46781">
        <ele>136.64</ele>
        <time>2013-05-25T14:15:10Z</time>
      </trkpt>
      <trkpt lat="48.88876" lon="-0.46781">
        <ele>137.13</ele>
        <time>2013-05-25T14:15:11Z</time>
      </trkpt>
      <trkpt lat="48.88878" lon="-0.46783">
        <ele>136.64</ele>
        <time>2013-05-25T14:15:23Z</time>
      </trkpt>
      <trkpt lat="48.88882" lon="-0.46786">
        <ele>135.68</ele>
        <time>2013-05-25T14:15:29Z</time>
      </trkpt>
      <trkpt lat="48.88885" lon="-0.46789">
        <ele>136.64</ele>
        <time>2013-05-25T14:15:31Z</time>
      </trkpt>
      <trkpt lat="48.88889" lon="-0.46795">
        <ele>135.68</ele>
        <time>2013-05-25T14:15:37Z</time>
      </trkpt>
      <trkpt lat="48.88897" lon="-0.46806">
        <ele>133.76</ele>
        <time>2013-05-25T14:15:46Z</time>
      </trkpt>
      <trkpt lat="48.88903" lon="-0.46818">
        <ele>134.24</ele>
        <time>2013-05-25T14:15:54Z</time>
      </trkpt>
      <trkpt lat="48.88907" lon="-0.46829">
        <ele>133.28</ele>
        <time>2013-05-25T14:15:59Z</time>
      </trkpt>
      <trkpt lat="48.88915" lon="-0.46845">
        <ele>130.88</ele>
        <time>2013-05-25T14:16:09Z</time>
      </trkpt>
      <trkpt lat="48.88919" lon="-0.46851">
        <ele>129.43</ele>
        <time>2013-05-25T14:16:13Z</time>
      </trkpt>
      <trkpt lat="48.88924" lon="-0.46858">
        <ele>130.4</ele>
        <time>2013-05-25T14:16:19Z</time>
      </trkpt>
      <trkpt lat="48.88933" lon="-0.46877">
        <ele>127.51</ele>
        <time>2013-05-25T14:16:31Z</time>
      </trkpt>
      <trkpt lat="48.88939" lon="-0.46888">
        <ele>126.55</ele>
        <time>2013-05-25T14:16:42Z</time>
      </trkpt>
      <trkpt lat="48.88949" lon="-0.46906">
        <ele>124.63</ele>
        <time>2013-05-25T14:16:49Z</time>
      </trkpt>
      <trkpt lat="48.8895" lon="-0.4691">
        <ele>124.15</ele>
        <time>2013-05-25T14:17:01Z</time>
      </trkpt>
      <trkpt lat="48.88951" lon="-0.46913">
        <ele>123.67</ele>
        <time>2013-05-25T14:17:04Z</time>
      </trkpt>
      <trkpt lat="48.8896" lon="-0.46933">
        <ele>122.71</ele>
        <time>2013-05-25T14:17:13Z</time>
      </trkpt>
      <trkpt lat="48.88979" lon="-0.4696">
        <ele>123.19</ele>
        <time>2013-05-25T14:17:33Z</time>
      </trkpt>
      <trkpt lat="48.88989" lon="-0.46974">
        <ele>124.63</ele>
        <time>2013-05-25T14:17:49Z</time>
      </trkpt>
      <trkpt lat="48.88989" lon="-0.46975">
        <ele>124.63</ele>
        <time>2013-05-25T14:17:54Z</time>
      </trkpt>
      <trkpt lat="48.89006" lon="-0.46984">
        <ele>124.15</ele>
        <time>2013-05-25T14:18:08Z</time>
      </trkpt>
      <trkpt lat="48.89026" lon="-0.46989">
        <ele>122.22</ele>
        <time>2013-05-25T14:18:24Z</time>
      </trkpt>
      <trkpt lat="48.89045" lon="-0.4699">
        <ele>121.26</ele>
        <time>2013-05-25T14:18:38Z</time>
      </trkpt>
      <trkpt lat="48.89059" lon="-0.46989">
        <ele>120.3</ele>
        <time>2013-05-25T14:18:51Z</time>
      </trkpt>
      <trkpt lat="48.89082" lon="-0.46985">
        <ele>118.86</ele>
        <time>2013-05-25T14:19:05Z</time>
      </trkpt>
      <trkpt lat="48.89101" lon="-0.46984">
        <ele>118.38</ele>
        <time>2013-05-25T14:19:17Z</time>
      </trkpt>
      <trkpt lat="48.89105" lon="-0.46985">
        <ele>118.38</ele>
        <time>2013-05-25T14:19:22Z</time>
      </trkpt>
      <trkpt lat="48.89107" lon="-0.46985">
        <ele>118.38</ele>
        <time>2013-05-25T14:19:24Z</time>
      </trkpt>
      <trkpt lat="48.89125" lon="-0.46988">
        <ele>118.38</ele>
        <time>2013-05-25T14:19:37Z</time>
      </trkpt>
      <trkpt lat="48.89133" lon="-0.47">
        <ele>118.86</ele>
        <time>2013-05-25T14:19:44Z</time>
      </trkpt>
      <trkpt lat="48.89134" lon="-0.47006">
        <ele>118.38</ele>
        <time>2013-05-25T14:19:48Z</time>
      </trkpt>
      <trkpt lat="48.89132" lon="-0.4703">
        <ele>119.82</ele>
        <time>2013-05-25T14:20:02Z</time>
      </trkpt>
      <trkpt lat="48.8913" lon="-0.47045">
        <ele>120.78</ele>
        <time>2013-05-25T14:20:11Z</time>
      </trkpt>
      <trkpt lat="48.89127" lon="-0.47053">
        <ele>120.78</ele>
        <time>2013-05-25T14:20:16Z</time>
      </trkpt>
      <trkpt lat="48.89126" lon="-0.47058">
        <ele>120.78</ele>
        <time>2013-05-25T14:20:18Z</time>
      </trkpt>
      <trkpt lat="48.89124" lon="-0.47087">
        <ele>121.26</ele>
        <time>2013-05-25T14:20:33Z</time>
      </trkpt>
      <trkpt lat="48.89125" lon="-0.47105">
        <ele>121.26</ele>
        <time>2013-05-25T14:20:43Z</time>
      </trkpt>
      <trkpt lat="48.89138" lon="-0.47116">
        <ele>120.3</ele>
        <time>2013-05-25T14:20:58Z</time>
      </trkpt>
      <trkpt lat="48.89151" lon="-0.47123">
        <ele>118.38</ele>
        <time>2013-05-25T14:21:09Z</time>
      </trkpt>
      <trkpt lat="48.89169" lon="-0.4713">
        <ele>117.9</ele>
        <time>2013-05-25T14:21:23Z</time>
      </trkpt>
      <trkpt lat="48.89182" lon="-0.47133">
        <ele>115.98</ele>
        <time>2013-05-25T14:21:35Z</time>
      </trkpt>
      <trkpt lat="48.89199" lon="-0.47137">
        <ele>115.5</ele>
        <time>2013-05-25T14:21:47Z</time>
      </trkpt>
      <trkpt lat="48.892" lon="-0.47136">
        <ele>114.53</ele>
        <time>2013-05-25T14:21:49Z</time>
      </trkpt>
      <trkpt lat="48.89209" lon="-0.47131">
        <ele>114.05</ele>
        <time>2013-05-25T14:21:56Z</time>
      </trkpt>
      <trkpt lat="48.89216" lon="-0.47118">
        <ele>115.01</ele>
        <time>2013-05-25T14:22:03Z</time>
      </trkpt>
      <trkpt lat="48.89224" lon="-0.47099">
        <ele>115.01</ele>
        <time>2013-05-25T14:22:14Z</time>
      </trkpt>
      <trkpt lat="48.89235" lon="-0.47076">
        <ele>115.01</ele>
        <time>2013-05-25T14:22:30Z</time>
      </trkpt>
      <trkpt lat="48.89243" lon="-0.47062">
        <ele>114.53</ele>
        <time>2013-05-25T14:22:39Z</time>
      </trkpt>
      <trkpt lat="48.89246" lon="-0.47051">
        <ele>115.01</ele>
        <time>2013-05-25T14:22:45Z</time>
      </trkpt>
      <trkpt lat="48.89257" lon="-0.47031">
        <ele>114.53</ele>
        <time>2013-05-25T14:22:59Z</time>
      </trkpt>
      <trkpt lat="48.89259" lon="-0.47026">
        <ele>115.01</ele>
        <time>2013-05-25T14:23:04Z</time>
      </trkpt>
      <trkpt lat="48.89263" lon="-0.47017">
        <ele>115.01</ele>
        <time>2013-05-25T14:23:09Z</time>
      </trkpt>
      <trkpt lat="48.89274" lon="-0.46994">
        <ele>115.01</ele>
        <time>2013-05-25T14:23:25Z</time>
      </trkpt>
      <trkpt lat="48.89286" lon="-0.46981">
        <ele>114.05</ele>
        <time>2013-05-25T14:23:36Z</time>
      </trkpt>
      <trkpt lat="48.8929" lon="-0.46973">
        <ele>112.61</ele>
        <time>2013-05-25T14:23:41Z</time>
      </trkpt>
      <trkpt lat="48.893" lon="-0.46951">
        <ele>112.61</ele>
        <time>2013-05-25T14:23:56Z</time>
      </trkpt>
      <trkpt lat="48.89305" lon="-0.46943">
        <ele>111.65</ele>
        <time>2013-05-25T14:24:02Z</time>
      </trkpt>
      <trkpt lat="48.89312" lon="-0.46932">
        <ele>111.17</ele>
        <time>2013-05-25T14:24:08Z</time>
      </trkpt>
      <trkpt lat="48.89329" lon="-0.46903">
        <ele>108.29</ele>
        <time>2013-05-25T14:24:28Z</time>
      </trkpt>
      <trkpt lat="48.8935" lon="-0.46873">
        <ele>107.32</ele>
        <time>2013-05-25T14:24:48Z</time>
      </trkpt>
      <trkpt lat="48.89351" lon="-0.46871">
        <ele>107.32</ele>
        <time>2013-05-25T14:24:50Z</time>
      </trkpt>
      <trkpt lat="48.89365" lon="-0.4684">
        <ele>106.36</ele>
        <time>2013-05-25T14:25:10Z</time>
      </trkpt>
      <trkpt lat="48.89378" lon="-0.46816">
        <ele>105.4</ele>
        <time>2013-05-25T14:25:26Z</time>
      </trkpt>
      <trkpt lat="48.89394" lon="-0.46787">
        <ele>105.4</ele>
        <time>2013-05-25T14:25:44Z</time>
      </trkpt>
      <trkpt lat="48.89405" lon="-0.46767">
        <ele>104.92</ele>
        <time>2013-05-25T14:26:00Z</time>
      </trkpt>
      <trkpt lat="48.89415" lon="-0.46749">
        <ele>104.92</ele>
        <time>2013-05-25T14:26:14Z</time>
      </trkpt>
      <trkpt lat="48.8943" lon="-0.46728">
        <ele>104.44</ele>
        <time>2013-05-25T14:26:30Z</time>
      </trkpt>
      <trkpt lat="48.89441" lon="-0.46708">
        <ele>104.44</ele>
        <time>2013-05-25T14:26:44Z</time>
      </trkpt>
      <trkpt lat="48.8945" lon="-0.46691">
        <ele>103.48</ele>
        <time>2013-05-25T14:26:57Z</time>
      </trkpt>
      <trkpt lat="48.89461" lon="-0.46672">
        <ele>102.52</ele>
        <time>2013-05-25T14:27:11Z</time>
      </trkpt>
      <trkpt lat="48.89471" lon="-0.46653">
        <ele>102.04</ele>
        <time>2013-05-25T14:27:24Z</time>
      </trkpt>
      <trkpt lat="48.89479" lon="-0.46639">
        <ele>101.08</ele>
        <time>2013-05-25T14:27:34Z</time>
      </trkpt>
      <trkpt lat="48.89494" lon="-0.46616">
        <ele>99.63</ele>
        <time>2013-05-25T14:27:50Z</time>
      </trkpt>
      <trkpt lat="48.89503" lon="-0.46601">
        <ele>98.67</ele>
        <time>2013-05-25T14:28:02Z</time>
      </trkpt>
      <trkpt lat="48.89512" lon="-0.46591">
        <ele>98.19</ele>
        <time>2013-05-25T14:28:12Z</time>
      </trkpt>
      <trkpt lat="48.89528" lon="-0.46575">
        <ele>97.23</ele>
        <time>2013-05-25T14:28:26Z</time>
      </trkpt>
      <trkpt lat="48.89543" lon="-0.46562">
        <ele>95.31</ele>
        <time>2013-05-25T14:28:42Z</time>
      </trkpt>
      <trkpt lat="48.89556" lon="-0.46555">
        <ele>94.35</ele>
        <time>2013-05-25T14:28:52Z</time>
      </trkpt>
      <trkpt lat="48.89575" lon="-0.46541">
        <ele>92.9</ele>
        <time>2013-05-25T14:29:09Z</time>
      </trkpt>
      <trkpt lat="48.89596" lon="-0.46533">
        <ele>90.98</ele>
        <time>2013-05-25T14:29:24Z</time>
      </trkpt>
      <trkpt lat="48.89613" lon="-0.46531">
        <ele>90.02</ele>
        <time>2013-05-25T14:29:36Z</time>
      </trkpt>
      <trkpt lat="48.8963" lon="-0.46533">
        <ele>88.1</ele>
        <time>2013-05-25T14:29:50Z</time>
      </trkpt>
      <trkpt lat="48.89649" lon="-0.46543">
        <ele>87.14</ele>
        <time>2013-05-25T14:30:05Z</time>
      </trkpt>
      <trkpt lat="48.89657" lon="-0.46545">
        <ele>85.69</ele>
        <time>2013-05-25T14:30:12Z</time>
      </trkpt>
      <trkpt lat="48.89669" lon="-0.4654">
        <ele>83.77</ele>
        <time>2013-05-25T14:30:21Z</time>
      </trkpt>
      <trkpt lat="48.89681" lon="-0.46522">
        <ele>83.29</ele>
        <time>2013-05-25T14:30:34Z</time>
      </trkpt>
      <trkpt lat="48.89691" lon="-0.46501">
        <ele>81.85</ele>
        <time>2013-05-25T14:30:47Z</time>
      </trkpt>
      <trkpt lat="48.89697" lon="-0.46489">
        <ele>80.89</ele>
        <time>2013-05-25T14:30:55Z</time>
      </trkpt>
      <trkpt lat="48.89704" lon="-0.46476">
        <ele>80.41</ele>
        <time>2013-05-25T14:31:04Z</time>
      </trkpt>
      <trkpt lat="48.89718" lon="-0.46447">
        <ele>79.45</ele>
        <time>2013-05-25T14:31:22Z</time>
      </trkpt>
      <trkpt lat="48.8973" lon="-0.46424">
        <ele>78.97</ele>
        <time>2013-05-25T14:31:38Z</time>
      </trkpt>
      <trkpt lat="48.89733" lon="-0.4642">
        <ele>78.48</ele>
        <time>2013-05-25T14:31:46Z</time>
      </trkpt>
      <trkpt lat="48.89737" lon="-0.46415">
        <ele>78.48</ele>
        <time>2013-05-25T14:31:50Z</time>
      </trkpt>
      <trkpt lat="48.89745" lon="-0.46408">
        <ele>78.48</ele>
        <time>2013-05-25T14:31:57Z</time>
      </trkpt>
      <trkpt lat="48.89749" lon="-0.46406">
        <ele>78.48</ele>
        <time>2013-05-25T14:32:01Z</time>
      </trkpt>
      <trkpt lat="48.89766" lon="-0.464">
        <ele>78.48</ele>
        <time>2013-05-25T14:32:18Z</time>
      </trkpt>
      <trkpt lat="48.89781" lon="-0.46395">
        <ele>78.48</ele>
        <time>2013-05-25T14:32:33Z</time>
      </trkpt>
      <trkpt lat="48.89794" lon="-0.46392">
        <ele>78</ele>
        <time>2013-05-25T14:32:49Z</time>
      </trkpt>
      <trkpt lat="48.89797" lon="-0.46389">
        <ele>77.52</ele>
        <time>2013-05-25T14:32:59Z</time>
      </trkpt>
      <trkpt lat="48.89801" lon="-0.46387">
        <ele>77.52</ele>
        <time>2013-05-25T14:33:21Z</time>
      </trkpt>
      <trkpt lat="48.89804" lon="-0.46386">
        <ele>90.98</ele>
        <time>2013-05-25T14:33:26Z</time>
      </trkpt>
      <trkpt lat="48.89805" lon="-0.46386">
        <ele>78.97</ele>
        <time>2013-05-25T14:33:27Z</time>
      </trkpt>
      <trkpt lat="48.89805" lon="-0.46385">
        <ele>73.2</ele>
        <time>2013-05-25T14:33:36Z</time>
      </trkpt>
      <trkpt lat="48.89805" lon="-0.46385">
        <ele>77.04</ele>
        <time>2013-05-25T14:33:37Z</time>
      </trkpt>
      <trkpt lat="48.89804" lon="-0.46385">
        <ele>81.37</ele>
        <time>2013-05-25T14:33:39Z</time>
      </trkpt>
      <trkpt lat="48.89804" lon="-0.46385">
        <ele>80.41</ele>
        <time>2013-05-25T14:33:40Z</time>
      </trkpt>
      <trkpt lat="48.89804" lon="-0.46385">
        <ele>75.12</ele>
        <time>2013-05-25T14:33:41Z</time>
      </trkpt>
      <trkpt lat="48.89804" lon="-0.46385">
        <ele>83.77</ele>
        <time>2013-05-25T14:33:42Z</time>
      </trkpt>
      <trkpt lat="48.89804" lon="-0.46385">
        <ele>78.48</ele>
        <time>2013-05-25T14:33:43Z</time>
      </trkpt>
      <trkpt lat="48.89804" lon="-0.46385">
        <ele>73.68</ele>
        <time>2013-05-25T14:33:44Z</time>
      </trkpt>
      <trkpt lat="48.89804" lon="-0.46385">
        <ele>79.93</ele>
        <time>2013-05-25T14:33:45Z</time>
      </trkpt>
      <trkpt lat="48.89804" lon="-0.46385">
        <ele>83.29</ele>
        <time>2013-05-25T14:33:47Z</time>
      </trkpt>
      <trkpt lat="48.89804" lon="-0.46385">
        <ele>80.41</ele>
        <time>2013-05-25T14:33:48Z</time>
      </trkpt>
      <trkpt lat="48.89804" lon="-0.46386">
        <ele>78.97</ele>
        <time>2013-05-25T14:33:50Z</time>
      </trkpt>
      <trkpt lat="48.89805" lon="-0.46386">
        <ele>77.04</ele>
        <time>2013-05-25T14:34:11Z</time>
      </trkpt>
      <trkpt lat="48.89806" lon="-0.46384">
        <ele>77.52</ele>
        <time>2013-05-25T14:34:34Z</time>
      </trkpt>
      <trkpt lat="48.89813" lon="-0.46378">
        <ele>77.04</ele>
        <time>2013-05-25T14:34:41Z</time>
      </trkpt>
      <trkpt lat="48.89818" lon="-0.46374">
        <ele>82.33</ele>
        <time>2013-05-25T14:34:46Z</time>
      </trkpt>
      <trkpt lat="48.89819" lon="-0.46373">
        <ele>78.48</ele>
        <time>2013-05-25T14:34:47Z</time>
      </trkpt>
      <trkpt lat="48.89826" lon="-0.46367">
        <ele>78.48</ele>
        <time>2013-05-25T14:35:00Z</time>
      </trkpt>
      <trkpt lat="48.89836" lon="-0.46364">
        <ele>77.52</ele>
        <time>2013-05-25T14:35:06Z</time>
      </trkpt>
      <trkpt lat="48.89839" lon="-0.46361">
        <ele>79.93</ele>
        <time>2013-05-25T14:35:09Z</time>
      </trkpt>
      <trkpt lat="48.89841" lon="-0.4636">
        <ele>78.97</ele>
        <time>2013-05-25T14:35:11Z</time>
      </trkpt>
      <trkpt lat="48.89853" lon="-0.46347">
        <ele>79.45</ele>
        <time>2013-05-25T14:35:23Z</time>
      </trkpt>
      <trkpt lat="48.89858" lon="-0.46345">
        <ele>79.93</ele>
        <time>2013-05-25T14:35:27Z</time>
      </trkpt>
      <trkpt lat="48.8987" lon="-0.46334">
        <ele>79.93</ele>
        <time>2013-05-25T14:35:37Z</time>
      </trkpt>
      <trkpt lat="48.89873" lon="-0.46332">
        <ele>79.93</ele>
        <time>2013-05-25T14:35:40Z</time>
      </trkpt>
      <trkpt lat="48.89882" lon="-0.46317">
        <ele>79.93</ele>
        <time>2013-05-25T14:35:52Z</time>
      </trkpt>
      <trkpt lat="48.89888" lon="-0.4631">
        <ele>79.45</ele>
        <time>2013-05-25T14:35:57Z</time>
      </trkpt>
      <trkpt lat="48.89899" lon="-0.46297">
        <ele>88.1</ele>
        <time>2013-05-25T14:36:08Z</time>
      </trkpt>
      <trkpt lat="48.899" lon="-0.46296">
        <ele>80.89</ele>
        <time>2013-05-25T14:36:09Z</time>
      </trkpt>
      <trkpt lat="48.89902" lon="-0.46294">
        <ele>105.88</ele>
        <time>2013-05-25T14:36:11Z</time>
      </trkpt>
      <trkpt lat="48.89904" lon="-0.46294">
        <ele>80.41</ele>
        <time>2013-05-25T14:36:12Z</time>
      </trkpt>
      <trkpt lat="48.89906" lon="-0.46292">
        <ele>86.66</ele>
        <time>2013-05-25T14:36:14Z</time>
      </trkpt>
      <trkpt lat="48.89907" lon="-0.46291">
        <ele>80.41</ele>
        <time>2013-05-25T14:36:15Z</time>
      </trkpt>
      <trkpt lat="48.89911" lon="-0.46283">
        <ele>79.45</ele>
        <time>2013-05-25T14:36:20Z</time>
      </trkpt>
      <trkpt lat="48.89919" lon="-0.46277">
        <ele>80.41</ele>
        <time>2013-05-25T14:36:27Z</time>
      </trkpt>
      <trkpt lat="48.89938" lon="-0.46258">
        <ele>79.93</ele>
        <time>2013-05-25T14:36:43Z</time>
      </trkpt>
      <trkpt lat="48.89939" lon="-0.46257">
        <ele>80.41</ele>
        <time>2013-05-25T14:36:44Z</time>
      </trkpt>
      <trkpt lat="48.8994" lon="-0.46253">
        <ele>79.93</ele>
        <time>2013-05-25T14:36:47Z</time>
      </trkpt>
      <trkpt lat="48.89952" lon="-0.46239">
        <ele>78.97</ele>
        <time>2013-05-25T14:37:00Z</time>
      </trkpt>
      <trkpt lat="48.89962" lon="-0.46248">
        <ele>78.48</ele>
        <time>2013-05-25T14:37:12Z</time>
      </trkpt>
      <trkpt lat="48.89975" lon="-0.46268">
        <ele>77.52</ele>
        <time>2013-05-25T14:37:22Z</time>
      </trkpt>
      <trkpt lat="48.89974" lon="-0.46266">
        <ele>77.52</ele>
        <time>2013-05-25T14:37:25Z</time>
      </trkpt>
      <trkpt lat="48.89981" lon="-0.46279">
        <ele>77.52</ele>
        <time>2013-05-25T14:37:30Z</time>
      </trkpt>
      <trkpt lat="48.89988" lon="-0.46285">
        <ele>77.04</ele>
        <time>2013-05-25T14:37:37Z</time>
      </trkpt>
      <trkpt lat="48.89998" lon="-0.46285">
        <ele>76.08</ele>
        <time>2013-05-25T14:37:47Z</time>
      </trkpt>
      <trkpt lat="48.90006" lon="-0.46284">
        <ele>76.56</ele>
        <time>2013-05-25T14:37:52Z</time>
      </trkpt>
      <trkpt lat="48.90018" lon="-0.46281">
        <ele>76.08</ele>
        <time>2013-05-25T14:38:03Z</time>
      </trkpt>
      <trkpt lat="48.9002" lon="-0.4628">
        <ele>75.6</ele>
        <time>2013-05-25T14:38:05Z</time>
      </trkpt>
      <trkpt lat="48.90027" lon="-0.46279">
        <ele>76.08</ele>
        <time>2013-05-25T14:38:09Z</time>
      </trkpt>
      <trkpt lat="48.90037" lon="-0.46275">
        <ele>76.56</ele>
        <time>2013-05-25T14:38:17Z</time>
      </trkpt>
      <trkpt lat="48.90039" lon="-0.46275">
        <ele>77.04</ele>
        <time>2013-05-25T14:38:19Z</time>
      </trkpt>
      <trkpt lat="48.90041" lon="-0.46275">
        <ele>76.56</ele>
        <time>2013-05-25T14:38:21Z</time>
      </trkpt>
      <trkpt lat="48.90043" lon="-0.46274">
        <ele>75.6</ele>
        <time>2013-05-25T14:38:23Z</time>
      </trkpt>
      <trkpt lat="48.90046" lon="-0.46276">
        <ele>76.56</ele>
        <time>2013-05-25T14:38:25Z</time>
      </trkpt>
      <trkpt lat="48.90053" lon="-0.46277">
        <ele>76.08</ele>
        <time>2013-05-25T14:38:31Z</time>
      </trkpt>
      <trkpt lat="48.90061" lon="-0.46275">
        <ele>75.6</ele>
        <time>2013-05-25T14:38:37Z</time>
      </trkpt>
      <trkpt lat="48.90075" lon="-0.46275">
        <ele>75.12</ele>
        <time>2013-05-25T14:38:47Z</time>
      </trkpt>
      <trkpt lat="48.90083" lon="-0.46274">
        <ele>75.12</ele>
        <time>2013-05-25T14:38:53Z</time>
      </trkpt>
      <trkpt lat="48.90101" lon="-0.46276">
        <ele>74.64</ele>
        <time>2013-05-25T14:39:08Z</time>
      </trkpt>
      <trkpt lat="48.9011" lon="-0.46274">
        <ele>73.68</ele>
        <time>2013-05-25T14:39:17Z</time>
      </trkpt>
      <trkpt lat="48.90113" lon="-0.46274">
        <ele>73.68</ele>
        <time>2013-05-25T14:39:20Z</time>
      </trkpt>
      <trkpt lat="48.90119" lon="-0.46276">
        <ele>73.68</ele>
        <time>2013-05-25T14:39:24Z</time>
      </trkpt>
      <trkpt lat="48.90123" lon="-0.46274">
        <ele>73.2</ele>
        <time>2013-05-25T14:39:28Z</time>
      </trkpt>
      <trkpt lat="48.90139" lon="-0.46277">
        <ele>73.2</ele>
        <time>2013-05-25T14:39:41Z</time>
      </trkpt>
      <trkpt lat="48.90148" lon="-0.46278">
        <ele>73.2</ele>
        <time>2013-05-25T14:39:49Z</time>
      </trkpt>
      <trkpt lat="48.90165" lon="-0.46282">
        <ele>72.72</ele>
        <time>2013-05-25T14:40:03Z</time>
      </trkpt>
      <trkpt lat="48.9018" lon="-0.46288">
        <ele>72.24</ele>
        <time>2013-05-25T14:40:15Z</time>
      </trkpt>
      <trkpt lat="48.90184" lon="-0.46288">
        <ele>72.24</ele>
        <time>2013-05-25T14:40:18Z</time>
      </trkpt>
      <trkpt lat="48.90187" lon="-0.46289">
        <ele>71.76</ele>
        <time>2013-05-25T14:40:21Z</time>
      </trkpt>
      <trkpt lat="48.9019" lon="-0.46291">
        <ele>71.76</ele>
        <time>2013-05-25T14:40:24Z</time>
      </trkpt>
      <trkpt lat="48.90207" lon="-0.46295">
        <ele>71.76</ele>
        <time>2013-05-25T14:40:38Z</time>
      </trkpt>
      <trkpt lat="48.90223" lon="-0.46301">
        <ele>71.27</ele>
        <time>2013-05-25T14:40:52Z</time>
      </trkpt>
      <trkpt lat="48.9024" lon="-0.46308">
        <ele>70.31</ele>
        <time>2013-05-25T14:41:05Z</time>
      </trkpt>
      <trkpt lat="48.90257" lon="-0.46316">
        <ele>72.72</ele>
        <time>2013-05-25T14:41:17Z</time>
      </trkpt>
      <trkpt lat="48.90261" lon="-0.46319">
        <ele>70.31</ele>
        <time>2013-05-25T14:41:21Z</time>
      </trkpt>
      <trkpt lat="48.90275" lon="-0.46329">
        <ele>70.31</ele>
        <time>2013-05-25T14:41:35Z</time>
      </trkpt>
      <trkpt lat="48.90279" lon="-0.46333">
        <ele>70.31</ele>
        <time>2013-05-25T14:41:39Z</time>
      </trkpt>
      <trkpt lat="48.90295" lon="-0.46345">
        <ele>68.87</ele>
        <time>2013-05-25T14:41:52Z</time>
      </trkpt>
      <trkpt lat="48.90297" lon="-0.46347">
        <ele>68.87</ele>
        <time>2013-05-25T14:41:54Z</time>
      </trkpt>
      <trkpt lat="48.90309" lon="-0.46358">
        <ele>69.83</ele>
        <time>2013-05-25T14:42:05Z</time>
      </trkpt>
      <trkpt lat="48.90317" lon="-0.46366">
        <ele>69.35</ele>
        <time>2013-05-25T14:42:14Z</time>
      </trkpt>
      <trkpt lat="48.90323" lon="-0.46369">
        <ele>69.35</ele>
        <time>2013-05-25T14:42:18Z</time>
      </trkpt>
      <trkpt lat="48.90328" lon="-0.4638">
        <ele>68.87</ele>
        <time>2013-05-25T14:42:26Z</time>
      </trkpt>
      <trkpt lat="48.90338" lon="-0.46385">
        <ele>68.39</ele>
        <time>2013-05-25T14:42:33Z</time>
      </trkpt>
      <trkpt lat="48.90343" lon="-0.46392">
        <ele>67.91</ele>
        <time>2013-05-25T14:42:41Z</time>
      </trkpt>
      <trkpt lat="48.90349" lon="-0.46398">
        <ele>68.87</ele>
        <time>2013-05-25T14:42:47Z</time>
      </trkpt>
      <trkpt lat="48.90353" lon="-0.46405">
        <ele>68.87</ele>
        <time>2013-05-25T14:42:52Z</time>
      </trkpt>
      <trkpt lat="48.90359" lon="-0.46417">
        <ele>67.43</ele>
        <time>2013-05-25T14:43:00Z</time>
      </trkpt>
      <trkpt lat="48.90373" lon="-0.46427">
        <ele>67.91</ele>
        <time>2013-05-25T14:43:09Z</time>
      </trkpt>
      <trkpt lat="48.90381" lon="-0.46438">
        <ele>67.91</ele>
        <time>2013-05-25T14:43:18Z</time>
      </trkpt>
      <trkpt lat="48.90393" lon="-0.46455">
        <ele>67.43</ele>
        <time>2013-05-25T14:43:31Z</time>
      </trkpt>
      <trkpt lat="48.90404" lon="-0.46468">
        <ele>67.91</ele>
        <time>2013-05-25T14:43:45Z</time>
      </trkpt>
      <trkpt lat="48.90408" lon="-0.46473">
        <ele>66.95</ele>
        <time>2013-05-25T14:43:50Z</time>
      </trkpt>
      <trkpt lat="48.90421" lon="-0.46493">
        <ele>66.47</ele>
        <time>2013-05-25T14:44:06Z</time>
      </trkpt>
      <trkpt lat="48.90436" lon="-0.46516">
        <ele>67.43</ele>
        <time>2013-05-25T14:44:21Z</time>
      </trkpt>
      <trkpt lat="48.90445" lon="-0.46534">
        <ele>65.99</ele>
        <time>2013-05-25T14:44:34Z</time>
      </trkpt>
      <trkpt lat="48.90448" lon="-0.46544">
        <ele>66.95</ele>
        <time>2013-05-25T14:44:40Z</time>
      </trkpt>
      <trkpt lat="48.9045" lon="-0.46553">
        <ele>66.95</ele>
        <time>2013-05-25T14:44:45Z</time>
      </trkpt>
      <trkpt lat="48.90461" lon="-0.46567">
        <ele>65.51</ele>
        <time>2013-05-25T14:44:56Z</time>
      </trkpt>
      <trkpt lat="48.90463" lon="-0.46575">
        <ele>66.47</ele>
        <time>2013-05-25T14:45:00Z</time>
      </trkpt>
      <trkpt lat="48.90467" lon="-0.46582">
        <ele>66.47</ele>
        <time>2013-05-25T14:45:05Z</time>
      </trkpt>
      <trkpt lat="48.90477" lon="-0.46606">
        <ele>65.51</ele>
        <time>2013-05-25T14:45:19Z</time>
      </trkpt>
      <trkpt lat="48.90489" lon="-0.46627">
        <ele>65.03</ele>
        <time>2013-05-25T14:45:33Z</time>
      </trkpt>
      <trkpt lat="48.90489" lon="-0.46629">
        <ele>65.51</ele>
        <time>2013-05-25T14:45:34Z</time>
      </trkpt>
      <trkpt lat="48.90496" lon="-0.46646">
        <ele>64.55</ele>
        <time>2013-05-25T14:45:44Z</time>
      </trkpt>
      <trkpt lat="48.90504" lon="-0.46662">
        <ele>65.03</ele>
        <time>2013-05-25T14:45:54Z</time>
      </trkpt>
      <trkpt lat="48.90506" lon="-0.46667">
        <ele>64.55</ele>
        <time>2013-05-25T14:45:57Z</time>
      </trkpt>
      <trkpt lat="48.90517" lon="-0.46683">
        <ele>65.03</ele>
        <time>2013-05-25T14:46:09Z</time>
      </trkpt>
      <trkpt lat="48.90527" lon="-0.46706">
        <ele>64.07</ele>
        <time>2013-05-25T14:46:23Z</time>
      </trkpt>
      <trkpt lat="48.90529" lon="-0.46712">
        <ele>64.55</ele>
        <time>2013-05-25T14:46:26Z</time>
      </trkpt>
      <trkpt lat="48.90541" lon="-0.46732">
        <ele>64.55</ele>
        <time>2013-05-25T14:46:40Z</time>
      </trkpt>
      <trkpt lat="48.90547" lon="-0.46741">
        <ele>64.55</ele>
        <time>2013-05-25T14:46:54Z</time>
      </trkpt>
      <trkpt lat="48.90548" lon="-0.46743">
        <ele>64.07</ele>
        <time>2013-05-25T14:46:59Z</time>
      </trkpt>
      <trkpt lat="48.9055" lon="-0.46746">
        <ele>63.58</ele>
        <time>2013-05-25T14:47:01Z</time>
      </trkpt>
      <trkpt lat="48.90562" lon="-0.4676">
        <ele>63.1</ele>
        <time>2013-05-25T14:47:13Z</time>
      </trkpt>
      <trkpt lat="48.90576" lon="-0.46773">
        <ele>63.1</ele>
        <time>2013-05-25T14:47:26Z</time>
      </trkpt>
      <trkpt lat="48.90586" lon="-0.46782">
        <ele>62.62</ele>
        <time>2013-05-25T14:47:35Z</time>
      </trkpt>
      <trkpt lat="48.90596" lon="-0.46802">
        <ele>62.62</ele>
        <time>2013-05-25T14:47:48Z</time>
      </trkpt>
      <trkpt lat="48.90606" lon="-0.46826">
        <ele>61.18</ele>
        <time>2013-05-25T14:48:01Z</time>
      </trkpt>
      <trkpt lat="48.9062" lon="-0.4685">
        <ele>61.18</ele>
        <time>2013-05-25T14:48:16Z</time>
      </trkpt>
      <trkpt lat="48.9062" lon="-0.46851">
        <ele>61.18</ele>
        <time>2013-05-25T14:48:17Z</time>
      </trkpt>
      <trkpt lat="48.90634" lon="-0.46877">
        <ele>60.7</ele>
        <time>2013-05-25T14:48:33Z</time>
      </trkpt>
      <trkpt lat="48.90652" lon="-0.4689">
        <ele>60.22</ele>
        <time>2013-05-25T14:48:47Z</time>
      </trkpt>
      <trkpt lat="48.90655" lon="-0.46891">
        <ele>60.22</ele>
        <time>2013-05-25T14:48:50Z</time>
      </trkpt>
      <trkpt lat="48.90668" lon="-0.46899">
        <ele>60.22</ele>
        <time>2013-05-25T14:49:01Z</time>
      </trkpt>
      <trkpt lat="48.90673" lon="-0.469">
        <ele>60.22</ele>
        <time>2013-05-25T14:49:04Z</time>
      </trkpt>
      <trkpt lat="48.9069" lon="-0.46907">
        <ele>58.78</ele>
        <time>2013-05-25T14:49:18Z</time>
      </trkpt>
      <trkpt lat="48.90707" lon="-0.46915">
        <ele>58.3</ele>
        <time>2013-05-25T14:49:32Z</time>
      </trkpt>
      <trkpt lat="48.90716" lon="-0.46918">
        <ele>57.82</ele>
        <time>2013-05-25T14:49:40Z</time>
      </trkpt>
      <trkpt lat="48.90729" lon="-0.46926">
        <ele>57.34</ele>
        <time>2013-05-25T14:49:51Z</time>
      </trkpt>
      <trkpt lat="48.9074" lon="-0.46931">
        <ele>56.37</ele>
        <time>2013-05-25T14:50:00Z</time>
      </trkpt>
      <trkpt lat="48.90758" lon="-0.4694">
        <ele>55.41</ele>
        <time>2013-05-25T14:50:15Z</time>
      </trkpt>
      <trkpt lat="48.9076" lon="-0.46942">
        <ele>56.37</ele>
        <time>2013-05-25T14:50:17Z</time>
      </trkpt>
      <trkpt lat="48.90763" lon="-0.46943">
        <ele>54.93</ele>
        <time>2013-05-25T14:50:20Z</time>
      </trkpt>
      <trkpt lat="48.90776" lon="-0.46954">
        <ele>53.01</ele>
        <time>2013-05-25T14:50:33Z</time>
      </trkpt>
      <trkpt lat="48.90776" lon="-0.46954">
        <ele>53.49</ele>
        <time>2013-05-25T14:50:34Z</time>
      </trkpt>
      <trkpt lat="48.90784" lon="-0.46954">
        <ele>53.01</ele>
        <time>2013-05-25T14:50:45Z</time>
      </trkpt>
      <trkpt lat="48.90801" lon="-0.46963">
        <ele>52.53</ele>
        <time>2013-05-25T14:50:59Z</time>
      </trkpt>
      <trkpt lat="48.90816" lon="-0.46972">
        <ele>50.61</ele>
        <time>2013-05-25T14:51:12Z</time>
      </trkpt>
      <trkpt lat="48.90821" lon="-0.46976">
        <ele>51.09</ele>
        <time>2013-05-25T14:51:18Z</time>
      </trkpt>
      <trkpt lat="48.90827" lon="-0.46976">
        <ele>50.13</ele>
        <time>2013-05-25T14:51:23Z</time>
      </trkpt>
      <trkpt lat="48.90834" lon="-0.46981">
        <ele>49.16</ele>
        <time>2013-05-25T14:51:29Z</time>
      </trkpt>
      <trkpt lat="48.90846" lon="-0.46991">
        <ele>47.72</ele>
        <time>2013-05-25T14:51:43Z</time>
      </trkpt>
      <trkpt lat="48.90849" lon="-0.4699">
        <ele>47.24</ele>
        <time>2013-05-25T14:51:46Z</time>
      </trkpt>
      <trkpt lat="48.90857" lon="-0.46985">
        <ele>48.2</ele>
        <time>2013-05-25T14:52:02Z</time>
      </trkpt>
      <trkpt lat="48.90857" lon="-0.46985">
        <ele>52.53</ele>
        <time>2013-05-25T14:52:25Z</time>
      </trkpt>
      <trkpt lat="48.90857" lon="-0.46985">
        <ele>48.2</ele>
        <time>2013-05-25T14:52:26Z</time>
      </trkpt>
      <trkpt lat="48.90858" lon="-0.46985">
        <ele>52.05</ele>
        <time>2013-05-25T14:52:32Z</time>
      </trkpt>
      <trkpt lat="48.90858" lon="-0.46986">
        <ele>43.88</ele>
        <time>2013-05-25T14:52:33Z</time>
      </trkpt>
      <trkpt lat="48.90858" lon="-0.46986">
        <ele>50.13</ele>
        <time>2013-05-25T14:52:34Z</time>
      </trkpt>
      <trkpt lat="48.90859" lon="-0.46986">
        <ele>46.76</ele>
        <time>2013-05-25T14:52:38Z</time>
      </trkpt>
      <trkpt lat="48.9086" lon="-0.46986">
        <ele>50.13</ele>
        <time>2013-05-25T14:52:40Z</time>
      </trkpt>
      <trkpt lat="48.9086" lon="-0.46986">
        <ele>48.68</ele>
        <time>2013-05-25T14:52:41Z</time>
      </trkpt>
      <trkpt lat="48.9086" lon="-0.46986">
        <ele>44.84</ele>
        <time>2013-05-25T14:52:44Z</time>
      </trkpt>
      <trkpt lat="48.9086" lon="-0.46986">
        <ele>50.13</ele>
        <time>2013-05-25T14:52:45Z</time>
      </trkpt>
      <trkpt lat="48.90861" lon="-0.46986">
        <ele>44.84</ele>
        <time>2013-05-25T14:52:48Z</time>
      </trkpt>
      <trkpt lat="48.90861" lon="-0.46986">
        <ele>48.68</ele>
        <time>2013-05-25T14:52:49Z</time>
      </trkpt>
      <trkpt lat="48.90861" lon="-0.46986">
        <ele>52.53</ele>
        <time>2013-05-25T14:52:50Z</time>
      </trkpt>
      <trkpt lat="48.90861" lon="-0.46986">
        <ele>48.2</ele>
        <time>2013-05-25T14:52:51Z</time>
      </trkpt>
      <trkpt lat="48.9086" lon="-0.46986">
        <ele>48.2</ele>
        <time>2013-05-25T14:53:07Z</time>
      </trkpt>
      <trkpt lat="48.9086" lon="-0.46986">
        <ele>47.72</ele>
        <time>2013-05-25T14:53:08Z</time>
      </trkpt>
      <trkpt lat="48.90863" lon="-0.46988">
        <ele>48.2</ele>
        <time>2013-05-25T14:53:11Z</time>
      </trkpt>
      <trkpt lat="48.90872" lon="-0.47">
        <ele>46.28</ele>
        <time>2013-05-25T14:53:24Z</time>
      </trkpt>
      <trkpt lat="48.9088" lon="-0.47007">
        <ele>44.84</ele>
        <time>2013-05-25T14:53:36Z</time>
      </trkpt>
      <trkpt lat="48.90887" lon="-0.47009">
        <ele>43.4</ele>
        <time>2013-05-25T14:53:45Z</time>
      </trkpt>
      <trkpt lat="48.90892" lon="-0.47015">
        <ele>41.95</ele>
        <time>2013-05-25T14:53:55Z</time>
      </trkpt>
      <trkpt lat="48.90894" lon="-0.4702">
        <ele>42.92</ele>
        <time>2013-05-25T14:54:06Z</time>
      </trkpt>
      <trkpt lat="48.90897" lon="-0.47025">
        <ele>42.44</ele>
        <time>2013-05-25T14:54:18Z</time>
      </trkpt>
      <trkpt lat="48.90895" lon="-0.4703">
        <ele>43.4</ele>
        <time>2013-05-25T14:54:22Z</time>
      </trkpt>
      <trkpt lat="48.9089" lon="-0.47046">
        <ele>43.88</ele>
        <time>2013-05-25T14:54:35Z</time>
      </trkpt>
      <trkpt lat="48.9089" lon="-0.47048">
        <ele>44.36</ele>
        <time>2013-05-25T14:54:49Z</time>
      </trkpt>
      <trkpt lat="48.90891" lon="-0.4705">
        <ele>44.36</ele>
        <time>2013-05-25T14:54:55Z</time>
      </trkpt>
      <trkpt lat="48.90896" lon="-0.47064">
        <ele>42.92</ele>
        <time>2013-05-25T14:55:06Z</time>
      </trkpt>
      <trkpt lat="48.90897" lon="-0.47073">
        <ele>41.95</ele>
        <time>2013-05-25T14:55:15Z</time>
      </trkpt>
      <trkpt lat="48.90896" lon="-0.47074">
        <ele>41.95</ele>
        <time>2013-05-25T14:55:29Z</time>
      </trkpt>
      <trkpt lat="48.90896" lon="-0.47079">
        <ele>41.47</ele>
        <time>2013-05-25T14:55:40Z</time>
      </trkpt>
      <trkpt lat="48.90897" lon="-0.47085">
        <ele>39.55</ele>
        <time>2013-05-25T14:55:44Z</time>
      </trkpt>
      <trkpt lat="48.90899" lon="-0.47095">
        <ele>40.51</ele>
        <time>2013-05-25T14:55:50Z</time>
      </trkpt>
      <trkpt lat="48.909" lon="-0.47116">
        <ele>40.03</ele>
        <time>2013-05-25T14:56:00Z</time>
      </trkpt>
      <trkpt lat="48.90901" lon="-0.47132">
        <ele>40.51</ele>
        <time>2013-05-25T14:56:09Z</time>
      </trkpt>
      <trkpt lat="48.909" lon="-0.47144">
        <ele>40.03</ele>
        <time>2013-05-25T14:56:16Z</time>
      </trkpt>
      <trkpt lat="48.90903" lon="-0.47154">
        <ele>39.07</ele>
        <time>2013-05-25T14:56:27Z</time>
      </trkpt>
      <trkpt lat="48.90901" lon="-0.47161">
        <ele>38.11</ele>
        <time>2013-05-25T14:56:37Z</time>
      </trkpt>
      <trkpt lat="48.90899" lon="-0.47173">
        <ele>38.11</ele>
        <time>2013-05-25T14:56:50Z</time>
      </trkpt>
      <trkpt lat="48.90899" lon="-0.47174">
        <ele>38.11</ele>
        <time>2013-05-25T14:57:01Z</time>
      </trkpt>
      <trkpt lat="48.90902" lon="-0.47193">
        <ele>36.19</ele>
        <time>2013-05-25T14:57:13Z</time>
      </trkpt>
      <trkpt lat="48.90906" lon="-0.47201">
        <ele>36.67</ele>
        <time>2013-05-25T14:57:20Z</time>
      </trkpt>
      <trkpt lat="48.9091" lon="-0.47207">
        <ele>35.71</ele>
        <time>2013-05-25T14:57:33Z</time>
      </trkpt>
      <trkpt lat="48.90911" lon="-0.47211">
        <ele>36.19</ele>
        <time>2013-05-25T14:57:43Z</time>
      </trkpt>
      <trkpt lat="48.9091" lon="-0.47227">
        <ele>36.67</ele>
        <time>2013-05-25T14:57:53Z</time>
      </trkpt>
      <trkpt lat="48.9091" lon="-0.4724">
        <ele>36.19</ele>
        <time>2013-05-25T14:58:04Z</time>
      </trkpt>
      <trkpt lat="48.90902" lon="-0.47262">
        <ele>36.19</ele>
        <time>2013-05-25T14:58:16Z</time>
      </trkpt>
      <trkpt lat="48.90903" lon="-0.47274">
        <ele>35.71</ele>
        <time>2013-05-25T14:58:22Z</time>
      </trkpt>
      <trkpt lat="48.90904" lon="-0.47294">
        <ele>35.71</ele>
        <time>2013-05-25T14:58:33Z</time>
      </trkpt>
      <trkpt lat="48.90902" lon="-0.47305">
        <ele>35.23</ele>
        <time>2013-05-25T14:58:40Z</time>
      </trkpt>
      <trkpt lat="48.90901" lon="-0.47328">
        <ele>34.74</ele>
        <time>2013-05-25T14:58:52Z</time>
      </trkpt>
      <trkpt lat="48.90902" lon="-0.47341">
        <ele>34.74</ele>
        <time>2013-05-25T14:58:59Z</time>
      </trkpt>
      <trkpt lat="48.90903" lon="-0.47347">
        <ele>34.74</ele>
        <time>2013-05-25T14:59:03Z</time>
      </trkpt>
      <trkpt lat="48.90901" lon="-0.47367">
        <ele>34.74</ele>
        <time>2013-05-25T14:59:12Z</time>
      </trkpt>
      <trkpt lat="48.90901" lon="-0.47377">
        <ele>31.86</ele>
        <time>2013-05-25T14:59:17Z</time>
      </trkpt>
      <trkpt lat="48.909" lon="-0.4738">
        <ele>35.23</ele>
        <time>2013-05-25T14:59:18Z</time>
      </trkpt>
      <trkpt lat="48.90901" lon="-0.47386">
        <ele>34.74</ele>
        <time>2013-05-25T14:59:21Z</time>
      </trkpt>
      <trkpt lat="48.90902" lon="-0.47397">
        <ele>34.26</ele>
        <time>2013-05-25T14:59:27Z</time>
      </trkpt>
      <trkpt lat="48.909" lon="-0.4741">
        <ele>34.74</ele>
        <time>2013-05-25T14:59:33Z</time>
      </trkpt>
      <trkpt lat="48.909" lon="-0.47418">
        <ele>34.26</ele>
        <time>2013-05-25T14:59:37Z</time>
      </trkpt>
      <trkpt lat="48.909" lon="-0.47434">
        <ele>34.26</ele>
        <time>2013-05-25T14:59:45Z</time>
      </trkpt>
      <trkpt lat="48.90898" lon="-0.47438">
        <ele>33.78</ele>
        <time>2013-05-25T14:59:49Z</time>
      </trkpt>
      <trkpt lat="48.90896" lon="-0.47444">
        <ele>34.26</ele>
        <time>2013-05-25T14:59:52Z</time>
      </trkpt>
      <trkpt lat="48.90895" lon="-0.47455">
        <ele>33.78</ele>
        <time>2013-05-25T14:59:57Z</time>
      </trkpt>
      <trkpt lat="48.90896" lon="-0.47466">
        <ele>34.26</ele>
        <time>2013-05-25T15:00:02Z</time>
      </trkpt>
      <trkpt lat="48.90896" lon="-0.4747">
        <ele>34.26</ele>
        <time>2013-05-25T15:00:04Z</time>
      </trkpt>
      <trkpt lat="48.90897" lon="-0.47478">
        <ele>33.3</ele>
        <time>2013-05-25T15:00:08Z</time>
      </trkpt>
      <trkpt lat="48.90897" lon="-0.47489">
        <ele>33.3</ele>
        <time>2013-05-25T15:00:15Z</time>
      </trkpt>
      <trkpt lat="48.90897" lon="-0.47494">
        <ele>33.3</ele>
        <time>2013-05-25T15:00:18Z</time>
      </trkpt>
      <trkpt lat="48.90899" lon="-0.47506">
        <ele>34.26</ele>
        <time>2013-05-25T15:00:25Z</time>
      </trkpt>
      <trkpt lat="48.90904" lon="-0.47528">
        <ele>33.78</ele>
        <time>2013-05-25T15:00:37Z</time>
      </trkpt>
      <trkpt lat="48.90906" lon="-0.47532">
        <ele>34.74</ele>
        <time>2013-05-25T15:00:51Z</time>
      </trkpt>
      <trkpt lat="48.90906" lon="-0.47533">
        <ele>34.26</ele>
        <time>2013-05-25T15:01:00Z</time>
      </trkpt>
      <trkpt lat="48.90907" lon="-0.47542">
        <ele>33.78</ele>
        <time>2013-05-25T15:01:05Z</time>
      </trkpt>
      <trkpt lat="48.90913" lon="-0.47552">
        <ele>34.26</ele>
        <time>2013-05-25T15:01:11Z</time>
      </trkpt>
      <trkpt lat="48.90916" lon="-0.47557">
        <ele>33.78</ele>
        <time>2013-05-25T15:01:21Z</time>
      </trkpt>
      <trkpt lat="48.90916" lon="-0.47557">
        <ele>34.26</ele>
        <time>2013-05-25T15:01:22Z</time>
      </trkpt>
      <trkpt lat="48.90915" lon="-0.47563">
        <ele>33.78</ele>
        <time>2013-05-25T15:01:25Z</time>
      </trkpt>
      <trkpt lat="48.90914" lon="-0.47573">
        <ele>34.74</ele>
        <time>2013-05-25T15:01:30Z</time>
      </trkpt>
      <trkpt lat="48.90933" lon="-0.47592">
        <ele>34.74</ele>
        <time>2013-05-25T15:01:45Z</time>
      </trkpt>
      <trkpt lat="48.90936" lon="-0.47606">
        <ele>33.78</ele>
        <time>2013-05-25T15:01:56Z</time>
      </trkpt>
      <trkpt lat="48.90939" lon="-0.47608">
        <ele>34.26</ele>
        <time>2013-05-25T15:01:58Z</time>
      </trkpt>
      <trkpt lat="48.90952" lon="-0.47614">
        <ele>34.74</ele>
        <time>2013-05-25T15:02:10Z</time>
      </trkpt>
      <trkpt lat="48.9096" lon="-0.4762">
        <ele>35.23</ele>
        <time>2013-05-25T15:02:16Z</time>
      </trkpt>
      <trkpt lat="48.90972" lon="-0.47627">
        <ele>34.74</ele>
        <time>2013-05-25T15:02:25Z</time>
      </trkpt>
      <trkpt lat="48.90975" lon="-0.47626">
        <ele>34.74</ele>
        <time>2013-05-25T15:02:27Z</time>
      </trkpt>
      <trkpt lat="48.90981" lon="-0.47626">
        <ele>35.71</ele>
        <time>2013-05-25T15:02:31Z</time>
      </trkpt>
      <trkpt lat="48.90993" lon="-0.47624">
        <ele>35.23</ele>
        <time>2013-05-25T15:02:38Z</time>
      </trkpt>
      <trkpt lat="48.90997" lon="-0.47624">
        <ele>35.23</ele>
        <time>2013-05-25T15:02:40Z</time>
      </trkpt>
      <trkpt lat="48.91002" lon="-0.47624">
        <ele>34.74</ele>
        <time>2013-05-25T15:02:44Z</time>
      </trkpt>
      <trkpt lat="48.91011" lon="-0.47624">
        <ele>34.74</ele>
        <time>2013-05-25T15:02:52Z</time>
      </trkpt>
      <trkpt lat="48.91015" lon="-0.47622">
        <ele>34.74</ele>
        <time>2013-05-25T15:02:56Z</time>
      </trkpt>
      <trkpt lat="48.91024" lon="-0.47622">
        <ele>34.74</ele>
        <time>2013-05-25T15:03:03Z</time>
      </trkpt>
      <trkpt lat="48.91041" lon="-0.4762">
        <ele>35.23</ele>
        <time>2013-05-25T15:03:14Z</time>
      </trkpt>
      <trkpt lat="48.91048" lon="-0.47621">
        <ele>34.74</ele>
        <time>2013-05-25T15:03:24Z</time>
      </trkpt>
      <trkpt lat="48.9105" lon="-0.4762">
        <ele>35.23</ele>
        <time>2013-05-25T15:03:27Z</time>
      </trkpt>
      <trkpt lat="48.91056" lon="-0.4762">
        <ele>35.71</ele>
        <time>2013-05-25T15:03:34Z</time>
      </trkpt>
      <trkpt lat="48.91057" lon="-0.47621">
        <ele>35.71</ele>
        <time>2013-05-25T15:03:37Z</time>
      </trkpt>
      <trkpt lat="48.91066" lon="-0.47623">
        <ele>34.74</ele>
        <time>2013-05-25T15:03:50Z</time>
      </trkpt>
      <trkpt lat="48.91072" lon="-0.47621">
        <ele>34.74</ele>
        <time>2013-05-25T15:04:00Z</time>
      </trkpt>
      <trkpt lat="48.91079" lon="-0.47622">
        <ele>34.74</ele>
        <time>2013-05-25T15:04:07Z</time>
      </trkpt>
      <trkpt lat="48.91086" lon="-0.47621">
        <ele>35.23</ele>
        <time>2013-05-25T15:04:12Z</time>
      </trkpt>
      <trkpt lat="48.91091" lon="-0.47621">
        <ele>34.74</ele>
        <time>2013-05-25T15:04:16Z</time>
      </trkpt>
      <trkpt lat="48.91097" lon="-0.47619">
        <ele>34.74</ele>
        <time>2013-05-25T15:04:22Z</time>
      </trkpt>
      <trkpt lat="48.91102" lon="-0.47617">
        <ele>35.23</ele>
        <time>2013-05-25T15:04:26Z</time>
      </trkpt>
      <trkpt lat="48.91109" lon="-0.47617">
        <ele>35.23</ele>
        <time>2013-05-25T15:04:32Z</time>
      </trkpt>
      <trkpt lat="48.91114" lon="-0.47613">
        <ele>35.23</ele>
        <time>2013-05-25T15:04:36Z</time>
      </trkpt>
      <trkpt lat="48.91117" lon="-0.47613">
        <ele>36.19</ele>
        <time>2013-05-25T15:04:38Z</time>
      </trkpt>
      <trkpt lat="48.91122" lon="-0.47613">
        <ele>34.74</ele>
        <time>2013-05-25T15:04:52Z</time>
      </trkpt>
      <trkpt lat="48.91122" lon="-0.47612">
        <ele>35.23</ele>
        <time>2013-05-25T15:04:58Z</time>
      </trkpt>
      <trkpt lat="48.91127" lon="-0.47611">
        <ele>34.74</ele>
        <time>2013-05-25T15:05:09Z</time>
      </trkpt>
      <trkpt lat="48.91131" lon="-0.4761">
        <ele>35.23</ele>
        <time>2013-05-25T15:05:23Z</time>
      </trkpt>
      <trkpt lat="48.91134" lon="-0.47611">
        <ele>35.23</ele>
        <time>2013-05-25T15:05:26Z</time>
      </trkpt>
      <trkpt lat="48.91136" lon="-0.47611">
        <ele>35.23</ele>
        <time>2013-05-25T15:05:29Z</time>
      </trkpt>
      <trkpt lat="48.91139" lon="-0.47611">
        <ele>35.23</ele>
        <time>2013-05-25T15:05:31Z</time>
      </trkpt>
      <trkpt lat="48.91154" lon="-0.47613">
        <ele>36.19</ele>
        <time>2013-05-25T15:05:44Z</time>
      </trkpt>
      <trkpt lat="48.91169" lon="-0.47614">
        <ele>35.23</ele>
        <time>2013-05-25T15:06:00Z</time>
      </trkpt>
      <trkpt lat="48.91193" lon="-0.47613">
        <ele>35.23</ele>
        <time>2013-05-25T15:06:16Z</time>
      </trkpt>
      <trkpt lat="48.912" lon="-0.47612">
        <ele>35.71</ele>
        <time>2013-05-25T15:06:28Z</time>
      </trkpt>
      <trkpt lat="48.91199" lon="-0.47606">
        <ele>35.71</ele>
        <time>2013-05-25T15:06:42Z</time>
      </trkpt>
      <trkpt lat="48.91201" lon="-0.47606">
        <ele>35.71</ele>
        <time>2013-05-25T15:07:03Z</time>
      </trkpt>
      <trkpt lat="48.91201" lon="-0.47607">
        <ele>35.71</ele>
        <time>2013-05-25T15:07:28Z</time>
      </trkpt>
      <trkpt lat="48.91201" lon="-0.47607">
        <ele>36.19</ele>
        <time>2013-05-25T15:07:53Z</time>
      </trkpt>
      <trkpt lat="48.912" lon="-0.47606">
        <ele>35.23</ele>
        <time>2013-05-25T15:08:14Z</time>
      </trkpt>
      <trkpt lat="48.912" lon="-0.47606">
        <ele>35.23</ele>
        <time>2013-05-25T15:08:38Z</time>
      </trkpt>
      <trkpt lat="48.91201" lon="-0.47607">
        <ele>35.71</ele>
        <time>2013-05-25T15:09:01Z</time>
      </trkpt>
      <trkpt lat="48.91201" lon="-0.47608">
        <ele>35.71</ele>
        <time>2013-05-25T15:09:22Z</time>
      </trkpt>
      <trkpt lat="48.91201" lon="-0.47609">
        <ele>35.23</ele>
        <time>2013-05-25T15:09:41Z</time>
      </trkpt>
      <trkpt lat="48.91201" lon="-0.47609">
        <ele>35.71</ele>
        <time>2013-05-25T15:09:48Z</time>
      </trkpt>
      <trkpt lat="48.91204" lon="-0.47609">
        <ele>35.23</ele>
        <time>2013-05-25T15:09:52Z</time>
      </trkpt>
      <trkpt lat="48.91209" lon="-0.47608">
        <ele>35.23</ele>
        <time>2013-05-25T15:09:59Z</time>
      </trkpt>
      <trkpt lat="48.91212" lon="-0.4761">
        <ele>35.23</ele>
        <time>2013-05-25T15:10:11Z</time>
      </trkpt>
      <trkpt lat="48.91213" lon="-0.47609">
        <ele>35.23</ele>
        <time>2013-05-25T15:10:27Z</time>
      </trkpt>
      <trkpt lat="48.91213" lon="-0.47612">
        <ele>35.23</ele>
        <time>2013-05-25T15:10:52Z</time>
      </trkpt>
      <trkpt lat="48.91222" lon="-0.4761">
        <ele>35.71</ele>
        <time>2013-05-25T15:11:06Z</time>
      </trkpt>
      <trkpt lat="48.91223" lon="-0.47611">
        <ele>34.74</ele>
        <time>2013-05-25T15:11:24Z</time>
      </trkpt>
      <trkpt lat="48.91224" lon="-0.47612">
        <ele>35.23</ele>
        <time>2013-05-25T15:11:46Z</time>
      </trkpt>
      <trkpt lat="48.91224" lon="-0.47616">
        <ele>34.74</ele>
        <time>2013-05-25T15:12:13Z</time>
      </trkpt>
      <trkpt lat="48.91225" lon="-0.47616">
        <ele>34.74</ele>
        <time>2013-05-25T15:12:44Z</time>
      </trkpt>
      <trkpt lat="48.91227" lon="-0.47614">
        <ele>34.74</ele>
        <time>2013-05-25T15:13:03Z</time>
      </trkpt>
      <trkpt lat="48.91229" lon="-0.47614">
        <ele>34.26</ele>
        <time>2013-05-25T15:13:20Z</time>
      </trkpt>
      <trkpt lat="48.91235" lon="-0.47613">
        <ele>33.78</ele>
        <time>2013-05-25T15:13:26Z</time>
      </trkpt>
      <trkpt lat="48.9124" lon="-0.47607">
        <ele>33.3</ele>
        <time>2013-05-25T15:13:32Z</time>
      </trkpt>
      <trkpt lat="48.91247" lon="-0.47605">
        <ele>34.26</ele>
        <time>2013-05-25T15:13:39Z</time>
      </trkpt>
      <trkpt lat="48.91258" lon="-0.47603">
        <ele>34.26</ele>
        <time>2013-05-25T15:13:52Z</time>
      </trkpt>
      <trkpt lat="48.91259" lon="-0.47603">
        <ele>33.78</ele>
        <time>2013-05-25T15:13:53Z</time>
      </trkpt>
      <trkpt lat="48.91261" lon="-0.47605">
        <ele>33.78</ele>
        <time>2013-05-25T15:13:55Z</time>
      </trkpt>
      <trkpt lat="48.91264" lon="-0.47607">
        <ele>33.78</ele>
        <time>2013-05-25T15:13:59Z</time>
      </trkpt>
      <trkpt lat="48.91277" lon="-0.47602">
        <ele>33.78</ele>
        <time>2013-05-25T15:14:10Z</time>
      </trkpt>
      <trkpt lat="48.91289" lon="-0.47605">
        <ele>34.26</ele>
        <time>2013-05-25T15:14:20Z</time>
      </trkpt>
      <trkpt lat="48.91294" lon="-0.47604">
        <ele>34.26</ele>
        <time>2013-05-25T15:14:24Z</time>
      </trkpt>
      <trkpt lat="48.913" lon="-0.47605">
        <ele>34.26</ele>
        <time>2013-05-25T15:14:28Z</time>
      </trkpt>
      <trkpt lat="48.91303" lon="-0.47606">
        <ele>33.78</ele>
        <time>2013-05-25T15:14:30Z</time>
      </trkpt>
      <trkpt lat="48.91308" lon="-0.47608">
        <ele>34.74</ele>
        <time>2013-05-25T15:14:36Z</time>
      </trkpt>
      <trkpt lat="48.9132" lon="-0.47608">
        <ele>35.23</ele>
        <time>2013-05-25T15:14:45Z</time>
      </trkpt>
      <trkpt lat="48.91323" lon="-0.47608">
        <ele>35.23</ele>
        <time>2013-05-25T15:14:48Z</time>
      </trkpt>
      <trkpt lat="48.91332" lon="-0.47611">
        <ele>35.71</ele>
        <time>2013-05-25T15:15:01Z</time>
      </trkpt>
      <trkpt lat="48.91332" lon="-0.4761">
        <ele>35.71</ele>
        <time>2013-05-25T15:15:25Z</time>
      </trkpt>
      <trkpt lat="48.91332" lon="-0.47609">
        <ele>35.23</ele>
        <time>2013-05-25T15:15:46Z</time>
      </trkpt>
      <trkpt lat="48.91334" lon="-0.47608">
        <ele>35.71</ele>
        <time>2013-05-25T15:16:10Z</time>
      </trkpt>
      <trkpt lat="48.91336" lon="-0.4761">
        <ele>35.71</ele>
        <time>2013-05-25T15:16:27Z</time>
      </trkpt>
      <trkpt lat="48.91342" lon="-0.47611">
        <ele>35.71</ele>
        <time>2013-05-25T15:16:33Z</time>
      </trkpt>
      <trkpt lat="48.91354" lon="-0.4762">
        <ele>36.19</ele>
        <time>2013-05-25T15:16:43Z</time>
      </trkpt>
      <trkpt lat="48.91362" lon="-0.47623">
        <ele>36.19</ele>
        <time>2013-05-25T15:16:51Z</time>
      </trkpt>
      <trkpt lat="48.91375" lon="-0.47619">
        <ele>36.19</ele>
        <time>2013-05-25T15:17:02Z</time>
      </trkpt>
      <trkpt lat="48.91387" lon="-0.47612">
        <ele>35.71</ele>
        <time>2013-05-25T15:17:15Z</time>
      </trkpt>
      <trkpt lat="48.914" lon="-0.47609">
        <ele>36.19</ele>
        <time>2013-05-25T15:17:29Z</time>
      </trkpt>
      <trkpt lat="48.91407" lon="-0.47608">
        <ele>36.67</ele>
        <time>2013-05-25T15:17:35Z</time>
      </trkpt>
      <trkpt lat="48.9141" lon="-0.47607">
        <ele>36.19</ele>
        <time>2013-05-25T15:17:37Z</time>
      </trkpt>
      <trkpt lat="48.91424" lon="-0.47605">
        <ele>35.71</ele>
        <time>2013-05-25T15:17:50Z</time>
      </trkpt>
      <trkpt lat="48.91433" lon="-0.47611">
        <ele>35.23</ele>
        <time>2013-05-25T15:18:03Z</time>
      </trkpt>
      <trkpt lat="48.91435" lon="-0.47613">
        <ele>35.71</ele>
        <time>2013-05-25T15:18:16Z</time>
      </trkpt>
      <trkpt lat="48.91436" lon="-0.47613">
        <ele>28.5</ele>
        <time>2013-05-25T15:18:18Z</time>
      </trkpt>
      <trkpt lat="48.91436" lon="-0.47613">
        <ele>36.19</ele>
        <time>2013-05-25T15:18:19Z</time>
      </trkpt>
      <trkpt lat="48.91436" lon="-0.47613">
        <ele>39.07</ele>
        <time>2013-05-25T15:18:20Z</time>
      </trkpt>
      <trkpt lat="48.91436" lon="-0.47613">
        <ele>36.19</ele>
        <time>2013-05-25T15:18:21Z</time>
      </trkpt>
      <trkpt lat="48.91438" lon="-0.47613">
        <ele>37.15</ele>
        <time>2013-05-25T15:18:48Z</time>
      </trkpt>
      <trkpt lat="48.9144" lon="-0.47614">
        <ele>36.67</ele>
        <time>2013-05-25T15:19:13Z</time>
      </trkpt>
      <trkpt lat="48.91441" lon="-0.47615">
        <ele>36.19</ele>
        <time>2013-05-25T15:19:33Z</time>
      </trkpt>
      <trkpt lat="48.91441" lon="-0.47616">
        <ele>36.67</ele>
        <time>2013-05-25T15:19:58Z</time>
      </trkpt>
    </trkseg>
  </trk>
</gpx>